# Wetter Temperatur Luftdruck Luftfeuchtigkeit Sichtweite Windgeschwindigkeit Windrichtung Zeit
1 Mist 22 1018 100 6437 1.54 310 14:37 01.02.2023
2 Mist 22 1017 100 8047 1.03 300 13:20 01.02.2023
3 Rain 23 1017 84 10000 2.22 20 12:50 01.02.2023
4 Rain 22 1015 82 10000 2.49 16 11:56 01.02.2023
5 Clouds 23 1015 81 10000 0.45 306 08:51 01.02.2023
6 Clouds 24 1016 88 10000 2.68 69 03:18 01.02.2023
7 Clouds 28 1015 65 10000 4.12 70 21:38 31.01.2023
8 Clear 30 1014 51 10000 1.79 42 19:48 31.01.2023
9 Clouds 28 1019 61 8047 1.54 290 18:50 31.01.2023
10 Haze 20 1017 100 6437 2.24 304 15:36 31.01.2023
11 Mist 20 1017 100 6437 2.68 303 15:18 31.01.2023
12 Clouds 20 1015 84 10000 0.89 319 14:52 31.01.2023
13 Clear 21 1015 91 10000 2.12 316 12:19 31.01.2023
14 Clear 21 1014 84 10000 1.83 326 11:19 31.01.2023
15 Clear 21 1014 83 10000 2.07 315 09:52 31.01.2023
16 Clear 22 1014 83 10000 0.45 279 08:59 31.01.2023
17 Clear 22 1014 83 10000 2.42 301 08:35 31.01.2023
18 Clouds 23 1017 88 10000 2.57 20 05:39 31.01.2023
19 Clear 27 1012 65 10000 4.02 73 23:56 30.01.2023
20 Clear 28 1012 60 10000 4.02 74 22:51 30.01.2023
21 Clear 28 1013 65 10000 4.47 78 22:30 30.01.2023
22 Clear 30 1012 52 10000 3.13 59 20:48 30.01.2023
23 Clear 29 1013 49 10000 0.89 87 19:53 30.01.2023
24 Clouds 27 1017 65 6437 1.54 360 17:30 30.01.2023
25 Mist 24 1017 83 4828 2.06 340 16:32 30.01.2023
26 Mist 19 1015 100 4828 1.54 360 14:27 30.01.2023
27 Clouds 21 1014 89 10000 1.44 280 12:26 30.01.2023
28 Clouds 20 1011 83 10000 0.45 259 10:55 30.01.2023
29 Clouds 20 1012 83 10000 1.64 269 09:54 30.01.2023
30 Clouds 20 1012 81 10000 1.91 283 08:48 30.01.2023
31 Clouds 21 1016 100 8047 1.54 20 06:40 30.01.2023
32 Clear 25 1013 78 9656 4.12 100 01:38 30.01.2023
33 Clouds 27 1013 69 10000 5.14 70 23:34 29.01.2023
34 Clouds 28 1013 65 10000 4.47 90 22:37 29.01.2023
35 Clouds 29 1014 61 10000 5.66 80 21:35 29.01.2023
36 Clouds 29 1015 58 10000 3.6 90 20:36 29.01.2023
37 Clouds 28 1017 61 10000 2.68 82 19:33 29.01.2023
38 Clear 28 1015 59 10000 2.24 98 18:42 29.01.2023
39 Clear 26 1018 73 10000 1.03 130 17:31 29.01.2023
40 Clouds 23 1017 88 9656 0 0 16:20 29.01.2023
41 Clouds 20 1016 100 9656 0.45 255 14:43 29.01.2023
42 Clouds 19 1016 100 9656 1.03 280 13:25 29.01.2023
43 Clear 21 1015 89 10000 0.94 298 12:39 29.01.2023
44 Clear 21 1015 90 10000 1.16 296 12:21 29.01.2023
45 Clear 20 1014 82 10000 1.16 296 11:42 29.01.2023
46 Clear 20 1014 82 10000 1.27 277 11:23 29.01.2023
47 Clear 21 1014 82 10000 0.45 301 08:55 29.01.2023
48 Clear 22 1015 80 10000 2.59 237 06:49 29.01.2023
49 Clouds 24 1015 78 10000 5.14 70 00:36 29.01.2023
50 Clouds 26 1016 65 10000 4.12 80 21:50 28.01.2023
51 Clouds 26 1017 65 10000 3.13 107 20:24 28.01.2023
52 Clouds 27 1019 57 10000 2.57 360 19:46 28.01.2023
53 Clouds 24 1020 69 9656 2.06 60 18:21 28.01.2023
54 Clouds 23 1019 67 10000 0.45 355 16:58 28.01.2023
55 Clouds 21 1020 83 8047 1.54 280 16:20 28.01.2023
56 Clouds 21 1020 83 9656 0.89 338 15:38 28.01.2023
57 Clouds 19 1019 88 10000 0 0 14:21 28.01.2023
58 Clouds 20 1019 77 10000 2.2 319 12:48 28.01.2023
59 Clouds 20 1017 78 10000 1.84 300 11:25 28.01.2023
60 Clouds 20 1018 77 10000 1.84 300 10:33 28.01.2023
61 Clouds 20 1020 77 10000 0.89 336 05:57 28.01.2023
62 Clouds 21 1020 83 10000 5.14 360 01:35 28.01.2023
63 Clouds 22 1020 78 10000 4.63 20 00:23 28.01.2023
64 Clouds 23 1019 64 10000 4.02 48 20:57 27.01.2023
65 Rain 21 1023 69 10000 1.79 5 17:59 27.01.2023
66 Rain 20 1025 88 8047 2.24 350 17:39 27.01.2023
67 Drizzle 20 1025 88 8047 1.34 314 17:18 27.01.2023
68 Clouds 18 1024 100 9656 1.54 310 16:33 27.01.2023
69 Clouds 20 1023 78 10000 4.7 347 14:46 27.01.2023
70 Mist 17 1023 100 8047 1.54 190 14:23 27.01.2023
71 Clouds 19 1022 79 10000 4.67 349 12:44 27.01.2023
72 Rain 19 1022 77 10000 1.79 360 08:39 27.01.2023
73 Clouds 21 1023 61 10000 1.79 360 03:56 27.01.2023
74 Clouds 21 1020 62 10000 4.47 346 22:52 26.01.2023
75 Clouds 21 1023 73 10000 6.17 340 21:22 26.01.2023
76 Clouds 21 1023 73 10000 6.17 340 21:22 26.01.2023
77 Rain 21 1024 73 10000 4.92 355 20:35 26.01.2023
78 Drizzle 20 1026 83 4828 4.92 11 18:28 26.01.2023
79 Rain 21 1025 68 9656 6.69 360 17:42 26.01.2023
80 Clouds 21 1024 73 9656 4.47 20 16:27 26.01.2023
81 Clouds 21 1023 64 10000 3.13 355 15:53 26.01.2023
82 Clouds 20 1023 77 9656 4.47 355 15:30 26.01.2023
83 Rain 19 1017 82 9656 2.57 350 14:49 26.01.2023
84 Clouds 19 1022 72 10000 6.13 343 12:48 26.01.2023
85 Clouds 21 1019 61 10000 3.58 336 11:26 26.01.2023
86 Clouds 21 1019 61 10000 5.36 338 10:29 26.01.2023
87 Clouds 20 1019 60 10000 2.24 327 09:44 26.01.2023
88 Clouds 21 1020 60 10000 3.13 331 08:25 26.01.2023
89 Clouds 22 1019 64 9656 7.72 350 02:26 26.01.2023
90 Sand 22 1016 64 9656 12.86 360 23:38 25.01.2023
91 Clouds 23 1014 54 10000 10.28 34 21:59 25.01.2023
92 Sand 23 1016 60 9656 11.62 355 21:21 25.01.2023
93 Clear 26 1015 49 10000 11.18 5 18:59 25.01.2023
94 Sand 24 1017 60 9656 12.96 346 18:22 25.01.2023
95 Mist 24 1014 73 9656 10.28 355 15:50 25.01.2023
96 Clear 24 1012 77 10000 10.59 356 12:59 25.01.2023
97 Clear 23 1009 84 10000 2.24 5 11:21 25.01.2023
98 Clear 22 1007 84 10000 0.45 355 09:48 25.01.2023
99 Clear 22 1007 83 10000 0.88 231 07:45 25.01.2023
100 Clear 25 1007 83 8047 4.12 100 01:37 25.01.2023
101 Clear 26 1007 78 9656 4.12 70 00:25 25.01.2023
102 Clouds 28 1009 69 8047 4.12 70 21:35 24.01.2023
103 Clouds 30 1010 58 6437 3.6 160 20:23 24.01.2023
104 Clear 28 1010 60 10000 1.34 190 18:46 24.01.2023
105 Clouds 25 1014 78 8047 3.09 140 17:31 24.01.2023
106 Clouds 25 1014 83 8047 4.63 140 16:53 24.01.2023
107 Mist 23 1014 94 6437 3.13 184 16:26 24.01.2023
108 Haze 23 1014 94 6437 3.13 184 16:26 24.01.2023
109 Clouds 20 1013 100 10000 0 0 13:41 24.01.2023
110 Clouds 22 1014 100 10000 0.45 226 11:43 24.01.2023
111 Clouds 22 1015 94 10000 1.03 230 08:38 24.01.2023
112 Clouds 22 1015 94 10000 1.03 230 08:18 24.01.2023
113 Clouds 23 1016 88 10000 0.45 235 07:47 24.01.2023
114 Clouds 23 1015 88 10000 3.6 30 02:43 24.01.2023
115 Clouds 25 1014 78 10000 5.14 360 00:37 24.01.2023
116 Clouds 27 1014 65 10000 4.12 20 22:28 23.01.2023
117 Clouds 28 1015 61 10000 4.63 30 20:26 23.01.2023
118 Clouds 27 1017 65 10000 4.12 10 19:21 23.01.2023
119 Clouds 26 1017 69 10000 2.57 40 17:19 23.01.2023
120 Clouds 23 1016 83 9656 1.79 327 15:32 23.01.2023
121 Clouds 23 1015 81 10000 4.55 349 13:56 23.01.2023
122 Clouds 23 1015 83 9656 2.06 350 12:55 23.01.2023
123 Clouds 23 1013 72 10000 3.13 11 11:46 23.01.2023
124 Clouds 23 1013 72 10000 3.13 11 11:28 23.01.2023
125 Clouds 23 1013 75 10000 4.92 355 08:24 23.01.2023
126 Clouds 26 1009 71 10000 8.05 14 23:53 22.01.2023
127 Clouds 27 1009 65 10000 8.05 14 21:51 22.01.2023
128 Clouds 28 1011 69 6437 9.26 360 21:19 22.01.2023
129 Clouds 28 1010 61 10000 5.81 24 19:55 22.01.2023
130 Clouds 28 1013 65 6437 6.17 20 19:37 22.01.2023
131 Mist 27 1013 65 4828 5.14 20 18:37 22.01.2023
132 Clouds 27 1011 60 10000 3.13 61 17:55 22.01.2023
133 Mist 26 1013 78 4828 2.06 340 17:24 22.01.2023
134 Mist 23 1012 94 3219 1.54 290 15:26 22.01.2023
135 Mist 22 1011 100 1609 1.54 300 14:34 22.01.2023
136 Mist 22 1010 100 4828 2.06 320 13:27 22.01.2023
137 Clear 23 1007 80 10000 0.45 266 12:29 22.01.2023
138 Clear 23 1007 80 10000 0.45 266 11:33 22.01.2023
139 Clear 23 1007 80 10000 1.17 238 09:35 22.01.2023
140 Clear 23 1011 100 9656 1.54 290 04:22 22.01.2023
141 Clouds 27 1009 69 6437 3.6 120 23:44 21.01.2023
142 Clouds 28 1007 62 10000 4.47 119 22:55 21.01.2023
143 Clouds 28 1010 69 6437 3.58 119 21:29 21.01.2023
144 Clouds 28 1012 57 10000 2.24 128 18:53 21.01.2023
145 Mist 22 1015 100 4828 0 0 16:40 21.01.2023
146 Haze 20 1014 100 4828 1.03 250 13:57 21.01.2023
147 Clouds 21 1013 90 10000 1.91 246 12:57 21.01.2023
148 Clouds 20 1012 83 10000 1.83 246 11:40 21.01.2023
149 Clouds 20 1012 84 10000 1.81 248 10:49 21.01.2023
150 Clouds 20 1012 84 10000 0.45 261 08:47 21.01.2023
151 Clouds 22 1016 100 9656 1.54 280 04:30 21.01.2023
152 Clouds 27 1014 69 6437 4.63 120 22:28 20.01.2023
153 Clouds 28 1015 65 6437 3.58 124 21:37 20.01.2023
154 Clouds 28 1013 59 10000 3.58 110 20:54 20.01.2023
155 Clouds 28 1018 61 6437 2.57 180 19:20 20.01.2023
156 Mist 22 1018 100 2012 2.24 245 16:21 20.01.2023
157 Mist 20 1017 100 1609 0 0 14:45 20.01.2023
158 Clouds 21 1016 90 10000 2.6 251 12:50 20.01.2023
159 Clouds 21 1014 83 10000 2.74 281 09:48 20.01.2023
160 Clouds 21 1015 82 10000 0.89 282 08:22 20.01.2023
161 Clouds 24 1015 83 10000 5.14 360 02:35 20.01.2023
162 Clear 27 1012 62 10000 5.81 360 22:59 19.01.2023
163 Haze 27 1013 65 4828 6.71 9 22:32 19.01.2023
164 Haze 27 1014 69 4828 6.26 61 20:22 19.01.2023
165 Clouds 28 1013 56 10000 2.24 355 18:58 19.01.2023
166 Haze 22 1014 100 4828 1.03 260 15:39 19.01.2023
167 Clear 21 1008 81 10000 2.47 204 10:53 19.01.2023
168 Clouds 22 1008 79 10000 0.89 216 08:59 19.01.2023
169 Clear 29 1005 65 10000 4.63 60 23:35 18.01.2023
170 Clear 31 1004 47 10000 3.13 206 20:56 18.01.2023
171 Clouds 31 1007 58 9656 4.63 150 20:19 18.01.2023
172 Clouds 29 1008 65 9656 3.6 170 19:37 18.01.2023
173 Clouds 26 1009 73 8047 5.14 170 17:35 18.01.2023
174 Mist 20 1008 100 6437 1.79 234 15:24 18.01.2023
175 Clear 20 1007 100 9656 2.06 220 13:29 18.01.2023
176 Clouds 20 1005 81 10000 0.45 225 11:20 18.01.2023
177 Clouds 21 1005 79 10000 0.45 213 08:23 18.01.2023
178 Clouds 26 1006 78 9656 3.09 110 01:27 18.01.2023
179 Clouds 27 1004 67 10000 4.02 131 23:46 17.01.2023
180 Clouds 30 1008 54 8047 4.63 130 20:37 17.01.2023
181 Haze 29 1010 58 4828 3.6 180 19:33 17.01.2023
182 Haze 27 1011 69 4828 2.24 215 18:28 17.01.2023
183 Haze 22 1011 100 2414 2.24 220 16:33 17.01.2023
184 Clouds 18 1008 85 10000 0.89 222 14:56 17.01.2023
185 Clouds 20 1009 95 10000 3.54 182 13:52 17.01.2023
186 Clear 20 1008 94 10000 3.98 183 12:27 17.01.2023
187 Clear 20 1008 94 10000 3.98 183 11:38 17.01.2023
188 Clear 18 1006 83 10000 3.67 180 09:34 17.01.2023
189 Clear 19 1007 83 10000 3.46 191 07:53 17.01.2023
190 Clear 21 1008 79 10000 0.45 277 03:55 17.01.2023
191 Clouds 25 1006 69 10000 1.34 99 00:57 17.01.2023
192 Clear 27 1007 65 9656 4.12 60 23:32 16.01.2023
193 Clear 30 1006 43 10000 2.68 130 21:52 16.01.2023
194 Clear 27 1010 54 8047 2.57 160 20:24 16.01.2023
195 Clear 27 1012 54 8047 3.09 170 19:30 16.01.2023
196 Clear 26 1010 53 10000 2.68 134 18:52 16.01.2023
197 Clear 25 1013 61 6437 5.14 180 18:20 16.01.2023
198 Haze 23 1013 64 4828 2.68 171 17:34 16.01.2023
199 Haze 23 1013 64 4828 2.68 171 17:34 16.01.2023
200 Mist 14 1012 100 6437 1.54 220 14:37 16.01.2023
201 Haze 13 1012 100 8047 1.03 210 13:38 16.01.2023
202 Clear 16 1011 80 10000 0.45 214 10:28 16.01.2023
203 Clear 16 1011 79 10000 3.9 187 09:34 16.01.2023
204 Clear 26 1014 50 10000 5.14 70 23:21 15.01.2023
205 Clear 27 1015 41 10000 6.17 180 21:35 15.01.2023
206 Clouds 26 1017 44 10000 5.14 150 20:35 15.01.2023
207 Clouds 25 1018 47 10000 6.17 190 19:44 15.01.2023
208 Clouds 23 1021 56 9656 4.02 227 17:40 15.01.2023
209 Clouds 15 1020 100 8047 1.03 230 15:22 15.01.2023
210 Clouds 16 1020 79 10000 3.05 221 12:31 15.01.2023
211 Clouds 15 1018 78 10000 0.89 221 11:35 15.01.2023
212 Clouds 15 1019 77 10000 0.45 217 10:28 15.01.2023
213 Clouds 15 1019 76 10000 0.89 224 09:34 15.01.2023
214 Clear 21 1020 53 10000 0.89 146 01:47 15.01.2023
215 Clouds 23 1020 47 10000 2.68 118 22:50 14.01.2023
216 Clouds 24 1020 49 10000 4.47 33 21:55 14.01.2023
217 Smoke 23 1023 53 10000 3.6 40 21:36 14.01.2023
218 Smoke 23 1023 53 10000 4.02 80 21:18 14.01.2023
219 Smoke 23 1023 53 10000 4.02 80 21:18 14.01.2023
220 Clouds 23 1024 53 10000 3.13 49 20:31 14.01.2023
221 Clouds 24 1026 46 10000 3.58 22 18:38 14.01.2023
222 Clouds 19 1025 62 10000 0.89 274 15:48 14.01.2023
223 Mist 18 1026 72 10000 1.54 290 15:26 14.01.2023
224 Mist 17 1025 77 10000 1.54 300 14:25 14.01.2023
225 Clouds 16 1025 77 10000 1.03 270 13:33 14.01.2023
226 Clouds 16 1023 63 10000 0.89 309 10:52 14.01.2023
227 Clouds 17 1023 60 10000 1.79 308 09:59 14.01.2023
228 Clouds 20 1026 60 10000 7.72 360 05:37 14.01.2023
229 Clouds 22 1024 53 9656 9.39 19 23:23 13.01.2023
230 Sand 23 1023 49 9656 10.29 20 22:45 13.01.2023
231 Sand 23 1023 49 9656 10.29 20 22:20 13.01.2023
232 Sand 24 1024 46 9656 10.29 10 21:23 13.01.2023
233 Sand 23 1026 49 8047 10.73 331 19:36 13.01.2023
234 Sand 24 1025 50 8047 10.29 350 18:19 13.01.2023
235 Sand 23 1025 56 8047 11.62 9 16:24 13.01.2023
236 Clear 22 1023 64 10000 13.45 349 12:51 13.01.2023
237 Clear 22 1022 63 10000 13.51 346 12:19 13.01.2023
238 Clear 24 1020 44 10000 9.83 350 10:24 13.01.2023
239 Clear 24 1019 55 10000 6.26 10 09:45 13.01.2023
240 Clear 25 1020 61 10000 5.81 9 08:52 13.01.2023
241 Clear 25 1020 61 10000 4.47 12 08:20 13.01.2023
242 Clear 24 1020 68 10000 6.26 355 06:52 13.01.2023
243 Clear 25 1020 75 10000 8.49 360 03:56 13.01.2023
244 Clear 27 1014 66 10000 4.02 84 23:47 12.01.2023
245 Clouds 29 1015 58 10000 4.63 100 22:40 12.01.2023
246 Clear 29 1014 54 10000 3.13 105 20:55 12.01.2023
247 Clouds 28 1018 65 8047 0.89 93 19:38 12.01.2023
248 Mist 26 1019 73 4828 0 0 17:34 12.01.2023
249 Clear 23 1016 80 10000 1.34 311 15:54 12.01.2023
250 Clear 22 1017 87 10000 1.6 205 14:44 12.01.2023
251 Mist 19 1016 100 2414 0 0 14:22 12.01.2023
252 Clear 21 1015 91 10000 2 206 12:48 12.01.2023
253 Clear 21 1013 83 10000 2.72 210 10:36 12.01.2023
254 Clear 21 1014 83 10000 2.85 180 08:28 12.01.2023
255 Clouds 24 1013 77 10000 1.79 116 01:50 12.01.2023
256 Clear 27 1013 64 10000 3.58 102 23:59 11.01.2023
257 Smoke 28 1014 65 10000 5.14 90 23:40 11.01.2023
258 Smoke 28 1014 65 10000 5.14 90 23:20 11.01.2023
259 Clear 28 1013 57 10000 3.58 98 21:44 11.01.2023
260 Clear 28 1015 59 10000 3.58 107 19:47 11.01.2023
261 Clouds 27 1019 69 8047 3.58 147 18:35 11.01.2023
262 Mist 25 1020 83 8047 1.79 205 16:47 11.01.2023
263 Clear 21 1017 85 10000 1.34 278 14:47 11.01.2023
264 Clear 21 1018 91 10000 1.63 234 12:43 11.01.2023
265 Clear 20 1016 84 10000 0.45 267 11:54 11.01.2023
266 Clear 20 1016 83 10000 0.45 267 10:20 11.01.2023
267 Clear 21 1017 83 10000 0.45 264 07:38 11.01.2023
268 Clear 21 1017 82 10000 0.82 126 07:20 11.01.2023
269 Clear 26 1017 69 10000 2.57 50 00:34 11.01.2023
270 Clouds 27 1016 60 10000 4.02 108 22:45 10.01.2023
271 Clouds 28 1018 65 10000 5.14 60 21:32 10.01.2023
272 Clouds 28 1019 65 10000 4.12 60 20:37 10.01.2023
273 Clouds 27 1020 65 10000 3.6 70 19:37 10.01.2023
274 Clouds 28 1021 61 9656 3.13 116 18:47 10.01.2023
275 Clear 26 1019 67 10000 0.89 259 17:54 10.01.2023
276 Mist 23 1021 94 4828 1.34 350 15:56 10.01.2023
277 Mist 21 1020 100 6437 3.09 260 15:24 10.01.2023
278 Mist 21 1020 100 8047 1.54 300 14:25 10.01.2023
279 Clouds 21 1017 83 10000 1.33 318 11:57 10.01.2023
280 Clouds 21 1018 82 10000 0.45 267 08:58 10.01.2023
281 Clouds 22 1018 80 10000 0.45 257 08:28 10.01.2023
282 Clear 24 1019 71 10000 0.45 137 07:26 10.01.2023
283 Clear 23 1019 75 10000 0.45 298 04:52 10.01.2023
284 Clouds 27 1016 60 10000 3.13 113 22:55 09.01.2023
285 Clouds 28 1016 58 10000 2.24 104 21:49 09.01.2023
286 Clouds 28 1020 61 9656 4.12 70 20:43 09.01.2023
287 Clouds 27 1020 59 10000 0.89 43 18:44 09.01.2023
288 Clouds 27 1020 61 10000 0.89 61 17:53 09.01.2023
289 Haze 26 1022 69 4828 1.34 283 16:59 09.01.2023
290 Haze 26 1022 69 4828 1.34 277 16:32 09.01.2023
291 Mist 22 1021 100 6437 1.79 292 15:23 09.01.2023
292 Mist 22 1020 100 8047 0 0 14:43 09.01.2023
293 Clouds 21 1020 100 8047 0 0 12:55 09.01.2023
294 Clouds 22 1019 84 10000 3.13 323 12:25 09.01.2023
295 Clouds 21 1018 80 10000 0.45 311 11:20 09.01.2023
296 Rain 22 1019 81 10000 0.45 286 08:42 09.01.2023
297 Rain 23 1021 94 10000 1.54 310 06:34 09.01.2023
298 Clear 24 1018 75 10000 0.89 327 02:53 09.01.2023
299 Clouds 27 1018 69 10000 2.68 102 22:43 08.01.2023
300 Clouds 28 1019 65 9656 2.68 76 21:23 08.01.2023
301 Clear 28 1017 59 10000 3.13 51 20:57 08.01.2023
302 Clear 27 1018 65 10000 2.24 128 19:43 08.01.2023
303 Clouds 27 1022 69 9656 2.06 60 17:40 08.01.2023
304 Clouds 25 1022 78 9656 1.34 65 17:18 08.01.2023
305 Clear 22 1021 100 8047 1.54 280 15:38 08.01.2023
306 Clear 22 1021 100 8047 1.54 280 15:38 08.01.2023
307 Clear 19 1020 100 8047 1.54 310 14:18 08.01.2023
308 Clear 20 1019 100 9656 2.06 290 13:32 08.01.2023
309 Clear 21 1019 84 10000 1.64 311 12:58 08.01.2023
310 Clear 20 1017 83 10000 1.5 299 11:22 08.01.2023
311 Clear 20 1017 83 10000 1.54 296 09:37 08.01.2023
312 Clear 21 1018 83 10000 1.6 268 07:55 08.01.2023
313 Clear 23 1018 100 10000 3.09 100 02:20 08.01.2023
314 Clear 28 1015 58 10000 4.47 82 22:49 07.01.2023
315 Clouds 28 1017 61 10000 5.14 100 22:24 07.01.2023
316 Clear 28 1015 56 10000 4.02 81 21:49 07.01.2023
317 Clear 28 1016 57 10000 4.47 103 20:57 07.01.2023
318 Clouds 29 1019 54 10000 3.6 180 20:24 07.01.2023
319 Clouds 28 1021 61 10000 4.63 160 19:18 07.01.2023
320 Clear 26 1020 64 10000 1.34 144 17:59 07.01.2023
321 Mist 25 1022 78 9656 1.54 180 17:39 07.01.2023
322 Mist 23 1022 94 6437 1.54 260 16:38 07.01.2023
323 Clear 22 1020 81 10000 0.89 237 15:52 07.01.2023
324 Mist 19 1021 100 4828 1.03 240 15:30 07.01.2023
325 Mist 18 1020 94 4828 1.03 190 14:47 07.01.2023
326 Mist 18 1020 100 4828 2.57 260 13:54 07.01.2023
327 Mist 18 1020 100 4828 2.57 260 13:35 07.01.2023
328 Clear 21 1018 89 10000 1.85 242 12:23 07.01.2023
329 Clear 18 1017 83 10000 1.85 242 11:52 07.01.2023
330 Clear 20 1017 84 10000 1.48 264 10:26 07.01.2023
331 Clear 20 1018 84 10000 0.45 281 08:46 07.01.2023
332 Clear 21 1019 83 10000 0.89 281 07:46 07.01.2023
333 Clear 21 1019 83 10000 1.63 290 07:20 07.01.2023
334 Clear 22 1020 80 10000 0.45 298 04:51 07.01.2023
335 Clouds 28 1019 61 10000 4.02 62 22:44 06.01.2023
336 Clouds 28 1019 61 10000 3.6 20 22:19 06.01.2023
337 Clouds 28 1020 57 10000 5.14 30 21:28 06.01.2023
338 Clear 28 1019 50 10000 3.13 76 19:58 06.01.2023
339 Clouds 29 1022 51 9656 3.09 360 19:40 06.01.2023
340 Clouds 29 1022 51 9656 3.09 360 19:22 06.01.2023
341 Clear 28 1023 54 8047 2.57 360 18:43 06.01.2023
342 Clouds 25 1023 69 6437 1.34 284 17:23 06.01.2023
343 Clouds 23 1023 78 6437 1.79 263 16:36 06.01.2023
344 Clear 23 1021 72 10000 2.24 295 15:57 06.01.2023
345 Mist 19 1022 100 6437 1.34 285 15:39 06.01.2023
346 Clear 20 1021 80 10000 2.04 301 14:54 06.01.2023
347 Clear 20 1019 79 10000 1.97 290 12:42 06.01.2023
348 Clear 21 1019 77 10000 1.92 287 10:58 06.01.2023
349 Clouds 22 1020 74 10000 1.79 319 08:56 06.01.2023
350 Rain 22 1020 79 10000 1.79 340 07:46 06.01.2023
351 Clear 25 1019 67 10000 4.02 9 01:45 06.01.2023
352 Clear 27 1018 54 10000 5.81 36 22:55 05.01.2023
353 Clear 28 1018 56 10000 4.92 310 21:54 05.01.2023
354 Clear 28 1022 54 6437 3.6 350 19:32 05.01.2023
355 Mist 25 1023 69 6437 3.58 335 17:28 05.01.2023
356 Mist 24 1023 78 6437 4.63 350 16:21 05.01.2023
357 Clear 23 1021 72 10000 4.47 16 15:46 05.01.2023
358 Clear 22 1021 78 10000 2.24 333 14:47 05.01.2023
359 Clouds 20 1018 80 10000 3.3 343 12:43 05.01.2023
360 Clouds 21 1018 77 10000 0.45 299 11:51 05.01.2023
361 Clouds 21 1018 79 10000 1.34 329 09:54 05.01.2023
362 Clouds 20 1018 82 10000 0.89 339 08:29 05.01.2023
363 Clear 21 1018 78 10000 0.89 306 07:19 05.01.2023
364 Clear 23 1018 77 10000 3.13 5 04:57 05.01.2023
365 Clear 27 1013 56 10000 5.36 25 22:55 04.01.2023
366 Clear 29 1015 51 8047 7.72 360 21:33 04.01.2023
367 Clear 28 1014 49 10000 6.26 16 20:47 04.01.2023
368 Clear 28 1015 52 10000 6.71 355 19:56 04.01.2023
369 Clear 28 1017 54 6437 8.23 360 19:32 04.01.2023
370 Clear 26 1018 65 8047 6.69 360 18:37 04.01.2023
371 Mist 23 1017 94 6437 5.81 16 16:32 04.01.2023
372 Mist 23 1017 94 6437 5.81 16 16:32 04.01.2023
373 Mist 22 1016 100 4828 2.68 360 15:40 04.01.2023
374 Mist 20 1015 100 4828 2.06 340 14:22 04.01.2023
375 Clear 20 1011 85 10000 3.41 195 11:41 04.01.2023
376 Clear 20 1010 85 10000 0.45 234 11:20 04.01.2023
377 Clear 20 1010 85 10000 0.45 273 10:42 04.01.2023
378 Clear 21 1010 85 10000 0.89 215 10:21 04.01.2023
379 Clear 21 1011 85 10000 2.36 219 07:40 04.01.2023
380 Clouds 25 1009 79 10000 1.34 28 01:48 04.01.2023
381 Clouds 26 1009 75 10000 2.8 55 23:59 03.01.2023
382 Haze 33 1008 52 4828 0 0 23:32 03.01.2023
383 Haze 32 1009 58 4828 1.03 160 22:40 03.01.2023
384 Clouds 30 1008 60 10000 0.45 176 20:52 03.01.2023
385 Mist 27 1012 78 3219 3.58 211 19:20 03.01.2023
386 Rain 23 1011 85 10000 3.13 215 16:47 03.01.2023
387 Clouds 22 1011 85 10000 3.13 206 15:47 03.01.2023
388 Clouds 22 1010 85 10000 0.89 207 13:51 03.01.2023
389 Fog 21 1011 100 10000 1.34 210 13:29 03.01.2023
390 Fog 21 1011 100 10000 1.03 240 12:57 03.01.2023
391 Clouds 20 1009 85 10000 2.35 187 12:29 03.01.2023
392 Clouds 22 1009 85 10000 2.24 199 10:25 03.01.2023
393 Mist 24 1013 100 4828 0.45 5 06:21 03.01.2023
394 Clouds 24 1010 81 10000 0.45 108 03:56 03.01.2023
395 Clear 24 1011 100 10000 1.03 120 03:35 03.01.2023
396 Clear 28 1008 74 6437 4.12 70 23:36 02.01.2023
397 Clear 29 1009 70 6437 4.12 90 22:41 02.01.2023
398 Haze 29 1010 70 4828 4.47 105 21:34 02.01.2023
399 Haze 30 1011 62 4828 3.13 101 20:38 02.01.2023
400 Haze 28 1013 69 4828 2.57 170 19:26 02.01.2023
401 Clouds 26 1013 77 10000 0.89 189 16:54 02.01.2023
402 Fog 22 1013 100 402 0 0 14:31 02.01.2023
403 Fog 22 1013 100 805 1.03 150 12:57 02.01.2023
404 Clouds 22 1011 85 10000 0.89 255 11:40 02.01.2023
405 Clouds 22 1011 85 10000 1.34 225 09:42 02.01.2023
406 Mist 22 1014 100 9656 1.03 210 07:30 02.01.2023
407 Clouds 26 1012 78 6437 2.57 80 00:39 02.01.2023
408 Clear 28 1011 66 10000 3.58 114 21:55 01.01.2023
409 Clouds 28 1013 69 8047 3.6 90 21:22 01.01.2023
410 Clear 28 1011 64 10000 3.13 82 20:42 01.01.2023
411 Clouds 28 1015 65 8047 2.57 190 19:35 01.01.2023
412 Mist 25 1017 83 8047 2.68 194 17:40 01.01.2023
413 Mist 25 1017 83 8047 3.13 223 17:20 01.01.2023
414 Mist 23 1017 100 6437 2.68 211 16:20 01.01.2023
415 Mist 21 1016 100 1207 0.45 236 14:36 01.01.2023
416 Mist 20 1015 100 4828 0.45 211 13:21 01.01.2023
417 Clear 21 1013 84 10000 1.86 193 12:29 01.01.2023
418 Clear 21 1013 84 10000 1.34 248 11:35 01.01.2023
419 Clear 21 1013 84 10000 0.89 223 09:49 01.01.2023
420 Clear 22 1013 83 10000 0.89 250 08:45 01.01.2023
421 Clear 22 1013 83 10000 0.89 255 08:18 01.01.2023
422 Clouds 23 1014 82 10000 0.45 349 06:51 01.01.2023
423 Clouds 24 1014 83 6437 3.09 10 00:19 01.01.2023
424 Clouds 26 1014 73 6437 3.13 48 23:39 31.12.2022
425 Clouds 26 1014 73 6437 4.47 58 22:30 31.12.2022
426 Clouds 27 1015 69 6437 3.6 10 21:25 31.12.2022
427 Clouds 27 1016 69 6437 3.6 20 20:34 31.12.2022
428 Rain 27 1015 61 10000 3.58 46 18:59 31.12.2022
429 Rain 26 1017 73 4828 3.6 30 18:38 31.12.2022
430 Clouds 26 1015 67 10000 3.13 5 17:58 31.12.2022
431 Mist 25 1017 83 4828 3.13 55 17:34 31.12.2022
432 Mist 22 1017 100 1609 3.13 17 16:32 31.12.2022
433 Fog 21 1017 100 805 1.54 340 15:54 31.12.2022
434 Fog 19 1015 100 10000 2.57 180 14:35 31.12.2022
435 Fog 20 1014 100 10000 1.54 150 13:28 31.12.2022
436 Clouds 20 1012 85 10000 3.19 190 12:25 31.12.2022
437 Clouds 20 1012 85 10000 0.89 235 11:57 31.12.2022
438 Clouds 20 1012 84 10000 0.45 228 11:38 31.12.2022
439 Clouds 20 1012 84 10000 0.89 219 10:20 31.12.2022
440 Clouds 20 1012 84 10000 3.05 201 09:50 31.12.2022
441 Clouds 20 1013 83 10000 0.89 218 08:39 31.12.2022
442 Clouds 20 1015 100 6437 0.45 35 05:40 31.12.2022
443 Clouds 26 1011 73 8047 2.57 360 00:34 31.12.2022
444 Clouds 26 1011 73 8047 2.57 10 23:24 30.12.2022
445 Clouds 27 1011 69 8047 3.09 70 22:19 30.12.2022
446 Clouds 28 1012 61 8047 3.6 70 21:39 30.12.2022
447 Clouds 28 1012 61 8047 3.6 70 21:21 30.12.2022
448 Clouds 29 1015 58 8047 2.57 170 18:35 30.12.2022
449 Clouds 27 1015 61 8047 1.34 201 17:35 30.12.2022
450 Mist 25 1015 83 3219 1.03 200 16:49 30.12.2022
451 Fog 19 1014 100 101 0.45 157 14:55 30.12.2022
452 Fog 20 1013 100 101 0 0 13:29 30.12.2022
453 Clouds 20 1012 83 10000 0.45 313 08:25 30.12.2022
454 Clear 20 1014 100 9656 1.54 280 04:24 30.12.2022
455 Clear 22 1012 88 10000 1.54 40 02:27 30.12.2022
456 Clouds 26 1009 61 10000 1.79 92 23:46 29.12.2022
457 Clouds 27 1011 61 9656 3.6 70 22:28 29.12.2022
458 Clouds 27 1012 65 8047 4.12 70 21:28 29.12.2022
459 Clouds 27 1010 58 10000 3.13 111 20:53 29.12.2022
460 Clouds 27 1015 61 8047 1.79 168 19:22 29.12.2022
461 Clouds 25 1016 65 6437 2.06 140 17:53 29.12.2022
462 Clouds 25 1016 65 6437 2.06 140 17:26 29.12.2022
463 Clouds 23 1014 68 10000 0.45 213 16:54 29.12.2022
464 Mist 20 1016 94 4828 0 0 15:57 29.12.2022
465 Mist 18 1015 100 6437 2.06 290 13:42 29.12.2022
466 Clouds 17 1013 83 10000 2.76 213 11:54 29.12.2022
467 Clouds 18 1013 84 10000 2.53 198 09:53 29.12.2022
468 Clear 21 1016 94 10000 2.06 100 05:20 29.12.2022
469 Clear 27 1014 50 10000 3.58 110 23:29 28.12.2022
470 Clear 28 1014 47 10000 5.14 170 22:20 28.12.2022
471 Clear 28 1016 51 10000 4.02 165 21:20 28.12.2022
472 Clear 27 1017 54 10000 3.09 190 20:19 28.12.2022
473 Clear 24 1020 69 10000 4.12 160 18:31 28.12.2022
474 Mist 20 1020 94 6437 2.24 209 16:21 28.12.2022
475 Clear 16 1018 85 10000 0.89 221 13:59 28.12.2022
476 Clouds 17 1018 85 10000 0.89 220 12:48 28.12.2022
477 Clouds 17 1018 85 10000 0.89 242 11:33 28.12.2022
478 Clouds 16 1018 84 10000 0.45 225 09:34 28.12.2022
479 Clouds 17 1019 83 10000 0.89 214 07:43 28.12.2022
480 Clouds 17 1020 83 10000 1.34 219 06:45 28.12.2022
481 Clouds 22 1019 69 10000 3.58 9 00:57 28.12.2022
482 Clouds 23 1021 73 10000 5.14 20 22:28 27.12.2022
483 Clouds 24 1021 59 10000 0.89 90 19:51 27.12.2022
484 Haze 23 1024 73 9656 0.89 129 18:41 27.12.2022
485 Clouds 21 1023 75 10000 0.89 227 16:59 27.12.2022
486 Clouds 20 1023 78 10000 0.45 205 15:55 27.12.2022
487 Mist 17 1024 100 6437 1.54 250 14:25 27.12.2022
488 Clouds 17 1021 82 10000 0.45 329 12:23 27.12.2022
489 Clouds 17 1021 82 10000 3.34 310 09:48 27.12.2022
490 Clouds 17 1021 81 10000 3 314 09:24 27.12.2022
491 Clouds 17 1021 81 10000 3 314 08:47 27.12.2022
492 Clear 18 1022 81 10000 0.45 313 04:54 27.12.2022
493 Rain 22 1019 73 10000 4.63 30 23:39 26.12.2022
494 Clouds 23 1017 64 10000 0.45 182 21:50 26.12.2022
495 Clouds 22 1018 67 10000 1.79 248 20:43 26.12.2022
496 Clouds 21 1020 71 10000 1.34 355 19:51 26.12.2022
497 Clouds 20 1021 73 10000 2.24 21 18:42 26.12.2022
498 Rain 18 1022 80 10000 0.89 360 16:51 26.12.2022
499 Drizzle 17 1023 100 4023 0 0 15:37 26.12.2022
500 Rain 17 1022 100 9656 1.03 120 12:58 26.12.2022
501 Rain 17 1021 84 10000 0.45 146 09:44 26.12.2022
502 Drizzle 16 1025 100 3219 1.03 320 05:41 26.12.2022
503 Drizzle 20 1022 73 8047 5.36 355 23:39 25.12.2022
504 Rain 17 1022 82 10000 4.34 337 22:48 25.12.2022
505 Rain 20 1022 68 9656 4.63 360 22:19 25.12.2022
506 Rain 20 1024 68 9656 4.47 339 19:38 25.12.2022
507 Rain 19 1023 58 10000 2.68 348 17:52 25.12.2022
508 Rain 17 1025 72 9656 2.68 343 17:34 25.12.2022
509 Rain 16 1025 82 9656 1.54 330 16:38 25.12.2022
510 Clouds 17 1023 77 9656 5.14 350 13:30 25.12.2022
511 Clouds 17 1023 77 9656 5.14 350 13:30 25.12.2022
512 Clouds 17 1022 73 10000 2.68 355 11:35 25.12.2022
513 Clouds 16 1025 72 10000 7.72 360 03:20 25.12.2022
514 Clouds 20 1024 60 10000 8.75 350 22:39 24.12.2022
515 Clouds 17 1026 69 10000 9.24 343 19:52 24.12.2022
516 Clouds 18 1027 62 10000 5.81 355 16:59 24.12.2022
517 Clouds 16 1027 72 10000 6.17 350 15:28 24.12.2022
518 Clouds 16 1027 72 10000 7.15 5 14:22 24.12.2022
519 Clouds 17 1024 60 10000 7.15 13 11:54 24.12.2022
520 Clouds 18 1024 59 10000 5.36 350 10:23 24.12.2022
521 Clouds 18 1024 57 10000 5.36 18 09:37 24.12.2022
522 Clouds 19 1024 52 10000 5.36 5 07:59 24.12.2022
523 Clouds 18 1023 53 10000 12.96 349 02:51 24.12.2022
524 Sand 19 1022 59 9656 12.86 360 00:18 24.12.2022
525 Sand 20 1021 60 10000 14.75 5 22:30 23.12.2022
526 Sand 21 1021 60 10000 11.18 23 21:30 23.12.2022
527 Sand 21 1021 60 10000 11.18 23 21:30 23.12.2022
528 Sand 23 1022 64 6437 12.86 340 19:40 23.12.2022
529 Sand 23 1022 64 6437 13.41 336 19:22 23.12.2022
530 Clouds 23 1021 56 10000 13.41 319 18:53 23.12.2022
531 Sand 23 1023 73 6437 13.86 355 18:21 23.12.2022
532 Clouds 24 1021 73 6437 12.96 350 16:48 23.12.2022
533 Clouds 24 1020 78 6437 7.6 346 15:45 23.12.2022
534 Clouds 23 1017 77 10000 4.47 19 12:28 23.12.2022
535 Clear 21 1015 82 10000 0.45 322 09:52 23.12.2022
536 Clear 21 1014 83 10000 0.45 313 09:33 23.12.2022
537 Clear 20 1016 100 10000 1.54 280 07:20 23.12.2022
538 Clear 20 1014 82 10000 0.69 187 06:48 23.12.2022
539 Clear 28 1012 57 10000 2.24 90 23:24 22.12.2022
540 Clear 27 1010 56 10000 2.68 114 22:58 22.12.2022
541 Clear 28 1010 51 10000 1.79 205 21:48 22.12.2022
542 Clear 27 1015 54 10000 3.09 120 19:43 22.12.2022
543 Clear 27 1015 54 10000 3.09 120 19:18 22.12.2022
544 Clear 23 1017 68 8047 3.09 220 17:33 22.12.2022
545 Clear 23 1017 68 8047 3.09 170 16:39 22.12.2022
546 Mist 19 1017 94 6437 1.54 350 15:35 22.12.2022
547 Clear 17 1014 81 10000 0.89 227 14:53 22.12.2022
548 Clear 16 1014 83 10000 0.89 227 13:51 22.12.2022
549 Haze 16 1015 100 8047 0.45 215 13:18 22.12.2022
550 Clear 17 1014 82 10000 0.89 205 10:55 22.12.2022
551 Clear 17 1014 81 10000 0.89 225 10:30 22.12.2022
552 Clear 18 1014 80 10000 0.45 219 09:21 22.12.2022
553 Clear 17 1015 80 10000 0.45 248 08:28 22.12.2022
554 Clear 18 1018 100 10000 1.54 270 07:22 22.12.2022
555 Clouds 20 1019 83 10000 1.54 310 04:18 22.12.2022
556 Clouds 24 1017 60 10000 3.6 360 00:24 22.12.2022
557 Clouds 25 1018 57 10000 3.13 20 22:24 21.12.2022
558 Clouds 26 1018 50 9656 4.02 5 21:24 21.12.2022
559 Clouds 26 1017 49 10000 3.58 342 20:54 21.12.2022
560 Clouds 25 1020 50 10000 3.6 360 20:29 21.12.2022
561 Clouds 25 1021 50 9656 2.68 42 19:44 21.12.2022
562 Clouds 25 1021 50 9656 1.79 328 19:24 21.12.2022
563 Clouds 24 1022 60 9656 2.57 280 18:46 21.12.2022
564 Clouds 23 1022 68 9656 3.13 279 17:38 21.12.2022
565 Clouds 20 1020 73 10000 1.34 252 14:58 21.12.2022
566 Clouds 21 1020 64 9656 2.24 298 13:26 21.12.2022
567 Clouds 22 1018 49 10000 8.49 341 11:46 21.12.2022
568 Clouds 22 1018 54 10000 6.26 17 11:20 21.12.2022
569 Clouds 22 1018 55 10000 8.94 336 09:47 21.12.2022
570 Clouds 22 1019 53 10000 8.49 12 07:38 21.12.2022
571 Sand 22 1020 68 9656 8.49 360 02:28 21.12.2022
572 Clouds 23 1017 66 10000 9.39 22 22:48 20.12.2022
573 Clouds 24 1018 73 8047 10.29 360 21:21 20.12.2022
574 Clouds 26 1019 69 8047 9.83 360 20:23 20.12.2022
575 Clouds 24 1020 78 8047 9.39 19 19:40 20.12.2022
576 Clouds 25 1020 73 6437 9.77 350 18:30 20.12.2022
577 Clouds 25 1018 66 10000 8.94 15 17:55 20.12.2022
578 Clouds 25 1020 73 6437 6.71 36 17:34 20.12.2022
579 Clouds 24 1020 78 8047 1.34 355 16:35 20.12.2022
580 Mist 23 1019 88 6437 0.45 294 15:30 20.12.2022
581 Mist 22 1018 88 6437 1.54 320 14:47 20.12.2022
582 Mist 22 1018 88 6437 1.54 320 14:28 20.12.2022
583 Clouds 22 1017 94 9656 2.68 360 12:57 20.12.2022
584 Clouds 23 1015 79 10000 1.79 340 12:26 20.12.2022
585 Clouds 22 1015 82 10000 0.89 322 11:32 20.12.2022
586 Clouds 21 1014 82 10000 0.45 274 08:47 20.12.2022
587 Clouds 25 1014 78 10000 4.12 110 00:35 20.12.2022
588 Clouds 28 1014 65 10000 3.58 121 22:39 19.12.2022
589 Clouds 28 1015 65 10000 3.6 100 21:44 19.12.2022
590 Clouds 28 1014 56 10000 2.68 176 19:56 19.12.2022
591 Clouds 28 1017 57 9656 1.54 210 19:38 19.12.2022
592 Clouds 26 1018 65 9656 0.45 259 18:33 19.12.2022
593 Clouds 24 1017 67 10000 0.89 258 16:43 19.12.2022
594 Clear 18 1016 100 9656 0.45 151 13:27 19.12.2022
595 Clouds 20 1015 79 10000 0.45 245 11:56 19.12.2022
596 Clouds 19 1015 80 10000 1.34 244 10:41 19.12.2022
597 Clouds 18 1019 100 10000 2.06 240 07:41 19.12.2022
598 Clouds 21 1018 78 10000 2.57 350 03:31 19.12.2022
599 Clouds 24 1015 69 10000 6.69 360 22:33 18.12.2022
600 Clouds 25 1016 65 10000 7.2 360 21:43 18.12.2022
601 Clouds 25 1016 65 10000 7.2 360 21:21 18.12.2022
602 Clouds 25 1015 60 10000 5.81 344 19:50 18.12.2022
603 Clouds 25 1018 65 10000 7.72 10 19:31 18.12.2022
604 Clouds 23 1017 65 10000 6.26 34 17:53 18.12.2022
605 Clouds 22 1019 78 9656 7.15 5 16:29 18.12.2022
606 Clouds 21 1017 83 9656 5.81 355 15:39 18.12.2022
607 Clouds 21 1017 83 9656 5.81 5 15:19 18.12.2022
608 Clouds 21 1017 83 9656 6.26 355 13:37 18.12.2022
609 Clouds 21 1015 71 10000 5.81 17 12:52 18.12.2022
610 Clouds 22 1014 72 10000 4.92 17 12:19 18.12.2022
611 Clouds 23 1014 66 10000 4.92 360 10:20 18.12.2022
612 Clouds 23 1014 66 10000 4.47 15 08:47 18.12.2022
613 Clouds 23 1015 68 10000 4.92 346 07:21 18.12.2022
614 Clouds 22 1018 88 10000 5.36 5 06:20 18.12.2022
615 Clouds 24 1016 83 10000 6.26 341 03:38 18.12.2022
616 Clouds 26 1013 73 9656 6.26 33 23:40 17.12.2022
617 Clouds 27 1013 69 9656 5.66 30 21:47 17.12.2022
618 Rain 27 1015 74 6437 3.09 360 19:27 17.12.2022
619 Clouds 26 1014 75 10000 1.34 324 16:49 17.12.2022
620 Mist 22 1013 100 3219 1.54 310 14:30 17.12.2022
621 Clouds 22 1010 82 10000 2 351 11:38 17.12.2022
622 Clouds 22 1010 83 10000 1.79 355 10:47 17.12.2022
623 Clouds 22 1010 83 10000 2.15 358 09:46 17.12.2022
624 Clouds 22 1013 100 9656 1.54 310 07:28 17.12.2022
625 Clouds 23 1011 81 10000 2.06 347 06:45 17.12.2022
626 Clouds 26 1009 69 10000 1.79 99 23:49 16.12.2022
627 Clouds 28 1010 61 10000 1.79 98 20:56 16.12.2022
628 Clouds 27 1011 62 10000 2.68 115 19:57 16.12.2022
629 Mist 26 1015 69 4828 0.45 252 16:40 16.12.2022
630 Clouds 21 1013 81 10000 1.73 259 14:48 16.12.2022
631 Clouds 20 1013 100 9656 0 0 13:45 16.12.2022
632 Clouds 21 1011 80 10000 1.88 307 11:58 16.12.2022
633 Clouds 22 1011 79 10000 2.3 310 09:53 16.12.2022
634 Clouds 22 1011 79 10000 0.45 277 09:25 16.12.2022
635 Clouds 22 1012 77 10000 0.89 246 07:56 16.12.2022
636 Clouds 21 1014 100 9656 1.54 270 07:32 16.12.2022
637 Clouds 25 1012 73 9656 5.66 10 23:30 15.12.2022
638 Clouds 27 1012 65 10000 4.92 355 22:20 15.12.2022
639 Clear 28 1014 61 9656 6.69 350 20:36 15.12.2022
640 Clouds 28 1015 61 8047 4.63 330 19:36 15.12.2022
641 Clouds 26 1016 69 6437 2.57 320 18:20 15.12.2022
642 Haze 24 1016 83 4828 2.24 301 17:24 15.12.2022
643 Mist 21 1015 100 4828 1.34 270 15:35 15.12.2022
644 Clouds 22 1013 83 9656 2.06 330 13:30 15.12.2022
645 Clouds 23 1011 73 10000 2.68 355 12:25 15.12.2022
646 Clear 24 1010 75 10000 6.26 355 09:36 15.12.2022
647 Clear 24 1010 75 10000 4.92 360 08:53 15.12.2022
648 Clear 25 1010 73 10000 5.81 12 05:50 15.12.2022
649 Clear 25 1011 83 10000 5.14 360 04:37 15.12.2022
650 Clear 31 1004 58 10000 4.63 170 21:25 14.12.2022
651 Clear 31 1005 62 9656 4.12 150 20:59 14.12.2022
652 Clear 31 1005 62 9656 4.12 150 20:23 14.12.2022
653 Mist 26 1007 83 4023 3.13 215 18:25 14.12.2022
654 Clouds 25 1008 77 10000 5.94 179 16:57 14.12.2022
655 Fog 21 1008 100 402 3.6 180 15:39 14.12.2022
656 Mist 21 1006 100 8047 1.79 202 13:41 14.12.2022
657 Clouds 21 1004 81 10000 0.89 213 11:20 14.12.2022
658 Clouds 21 1004 81 10000 0.45 211 10:31 14.12.2022
659 Clouds 22 1005 79 10000 0.89 199 08:48 14.12.2022
660 Clouds 28 1004 66 10000 3.13 97 22:47 13.12.2022
661 Clouds 29 1007 65 8047 5.14 190 21:48 13.12.2022
662 Clouds 28 1005 62 10000 2.68 231 20:48 13.12.2022
663 Clouds 28 1006 63 10000 2.68 208 19:59 13.12.2022
664 Haze 26 1012 78 4828 2.68 181 17:21 13.12.2022
665 Mist 21 1011 100 3219 0.89 192 15:35 13.12.2022
666 Mist 20 1010 100 3219 1.03 280 14:36 13.12.2022
667 Clouds 21 1008 84 10000 3.62 192 10:55 13.12.2022
668 Clouds 21 1008 83 10000 0.89 227 10:36 13.12.2022
669 Clouds 22 1009 82 10000 0.89 221 09:23 13.12.2022
670 Clear 27 1011 74 10000 4.47 129 23:23 12.12.2022
671 Clouds 28 1011 69 10000 3.13 97 22:22 12.12.2022
672 Clear 28 1010 58 10000 3.58 106 20:53 12.12.2022
673 Clouds 27 1016 69 10000 1.34 84 18:32 12.12.2022
674 Clear 26 1016 73 8047 1.54 190 16:35 12.12.2022
675 Mist 20 1015 100 6437 1.54 260 15:22 12.12.2022
676 Clear 20 1013 80 10000 1.48 259 11:50 12.12.2022
677 Clear 21 1013 80 10000 1.42 263 09:19 12.12.2022
678 Clear 23 1015 79 10000 0.89 310 04:54 12.12.2022
679 Clear 25 1013 72 10000 0.89 329 01:52 12.12.2022
680 Clear 28 1014 65 10000 3.13 90 22:22 11.12.2022
681 Smoke 29 1015 58 10000 3.58 90 20:42 11.12.2022
682 Clouds 29 1015 54 10000 1.34 193 19:41 11.12.2022
683 Clouds 28 1014 54 10000 0.89 241 18:56 11.12.2022
684 Clouds 27 1014 59 10000 1.79 180 17:58 11.12.2022
685 Clear 26 1017 73 10000 0.89 219 17:29 11.12.2022
686 Clouds 26 1015 67 10000 0.89 227 16:50 11.12.2022
687 Mist 20 1016 100 10000 0 0 15:46 11.12.2022
688 Mist 18 1016 100 10000 1.54 230 14:21 11.12.2022
689 Clear 20 1014 81 10000 2.65 221 12:44 11.12.2022
690 Clear 20 1013 81 10000 2.58 214 11:30 11.12.2022
691 Clear 21 1017 94 10000 2.06 270 06:25 11.12.2022
692 Clear 26 1015 69 10000 3.09 100 00:32 11.12.2022
693 Clear 28 1013 54 10000 2.68 117 22:53 10.12.2022
694 Clear 28 1015 61 10000 3.6 90 22:33 10.12.2022
695 Clouds 28 1015 61 10000 3.6 100 21:19 10.12.2022
696 Clear 29 1016 45 10000 2.57 90 20:26 10.12.2022
697 Clouds 28 1018 61 10000 1.34 121 18:37 10.12.2022
698 Clear 25 1017 70 10000 1.52 188 16:47 10.12.2022
699 Clear 23 1017 78 10000 1.34 304 15:57 10.12.2022
700 Clear 19 1018 100 8047 1.79 284 15:35 10.12.2022
701 Clouds 18 1016 84 10000 1.95 252 13:59 10.12.2022
702 Clear 18 1015 84 10000 2 248 12:49 10.12.2022
703 Clouds 18 1017 100 6437 2.06 230 11:28 10.12.2022
704 Mist 18 1017 100 4828 0.45 229 10:28 10.12.2022
705 Clouds 21 1018 100 9656 2.06 290 07:42 10.12.2022
706 Clouds 21 1018 100 9656 2.06 290 07:18 10.12.2022
707 Clouds 25 1014 70 10000 3.28 27 23:54 09.12.2022
708 Clouds 24 1017 73 8047 4.63 80 22:43 09.12.2022
709 Clouds 25 1015 63 10000 3.58 92 21:48 09.12.2022
710 Clouds 26 1017 73 9656 3.13 82 21:21 09.12.2022
711 Clouds 27 1018 65 10000 3.09 20 19:49 09.12.2022
712 Clouds 28 1019 61 9656 2.24 42 18:36 09.12.2022
713 Clouds 27 1019 65 8047 1.79 5 17:44 09.12.2022
714 Mist 22 1019 88 8047 1.54 310 16:29 09.12.2022
715 Mist 19 1019 100 6437 1.54 270 15:31 09.12.2022
716 Mist 17 1018 100 4828 1.03 270 14:23 09.12.2022
717 Clear 19 1016 82 10000 2.19 285 10:51 09.12.2022
718 Clear 20 1017 82 10000 2.05 285 10:29 09.12.2022
719 Clear 20 1017 83 10000 0.45 287 08:22 09.12.2022
720 Clear 22 1019 100 10000 1.54 360 03:18 09.12.2022
721 Clouds 27 1018 61 10000 0.45 261 23:36 08.12.2022
722 Rain 25 1017 51 10000 2.68 41 20:56 08.12.2022
723 Drizzle 25 1020 57 9656 4.47 51 20:20 08.12.2022
724 Clear 24 1020 70 10000 0.89 276 16:51 08.12.2022
725 Mist 20 1020 100 3219 1.54 300 14:40 08.12.2022
726 Mist 20 1020 100 3219 1.54 300 14:20 08.12.2022
727 Clouds 21 1019 83 10000 1.81 303 10:43 08.12.2022
728 Clouds 22 1019 82 10000 1.58 311 09:32 08.12.2022
729 Clouds 22 1019 82 10000 1.18 10 07:58 08.12.2022
730 Clear 30 1016 50 10000 2.68 120 22:44 07.12.2022
731 Clouds 29 1018 58 10000 2.57 80 22:18 07.12.2022
732 Clear 30 1016 47 10000 3.13 119 21:47 07.12.2022
733 Clouds 29 1019 58 10000 4.02 110 20:35 07.12.2022
734 Clouds 29 1021 58 10000 2.24 119 18:38 07.12.2022
735 Mist 22 1020 83 8047 0.89 259 15:53 07.12.2022
736 Mist 19 1019 100 8047 1.54 280 14:29 07.12.2022
737 Clear 22 1016 83 10000 0.45 261 10:56 07.12.2022
738 Clear 21 1016 84 10000 2.77 256 10:26 07.12.2022
739 Clear 21 1016 82 10000 2.77 256 09:31 07.12.2022
740 Clear 21 1016 83 10000 0.89 279 08:36 07.12.2022
741 Clear 23 1018 100 10000 1.54 110 05:26 07.12.2022
742 Clear 23 1015 77 10000 0.45 107 02:57 07.12.2022
743 Clear 29 1012 50 10000 2.24 94 21:59 06.12.2022
744 Clouds 28 1017 65 10000 3.09 200 19:35 06.12.2022
745 Clouds 25 1018 88 8047 2.06 170 17:19 06.12.2022
746 Mist 23 1018 94 6437 1.03 170 16:29 06.12.2022
747 Mist 21 1017 100 6437 1.03 150 15:37 06.12.2022
748 Mist 21 1016 100 6437 1.03 130 14:39 06.12.2022
749 Mist 21 1016 100 6437 1.03 130 14:19 06.12.2022
750 Clouds 21 1013 85 10000 0.45 184 12:41 06.12.2022
751 Clouds 21 1013 85 10000 0.89 225 11:58 06.12.2022
752 Clouds 22 1013 84 10000 1.18 163 07:50 06.12.2022
753 Clear 23 1015 88 10000 1.03 130 03:25 06.12.2022
754 Clouds 26 1013 78 10000 1.03 150 23:44 05.12.2022
755 Clear 27 1012 65 10000 2.68 126 21:47 05.12.2022
756 Clear 27 1012 62 10000 4.02 109 20:54 05.12.2022
757 Clouds 29 1015 61 10000 4.47 94 20:22 05.12.2022
758 Clouds 28 1016 57 10000 3.13 96 19:36 05.12.2022
759 Clouds 25 1018 88 10000 1.54 310 16:53 05.12.2022
760 Clouds 20 1018 100 9656 1.34 273 15:31 05.12.2022
761 Clear 20 1016 83 10000 0.89 275 14:52 05.12.2022
762 Clear 19 1017 100 9656 1.03 300 12:58 05.12.2022
763 Clear 20 1015 84 10000 1.83 278 12:38 05.12.2022
764 Clear 20 1015 84 10000 1.84 287 11:43 05.12.2022
765 Clear 21 1016 84 10000 1.84 299 09:23 05.12.2022
766 Clouds 25 1018 78 10000 3.6 340 00:19 05.12.2022
767 Clouds 28 1018 61 10000 5.36 27 22:44 04.12.2022
768 Clouds 28 1018 61 10000 4.47 58 22:19 04.12.2022
769 Clouds 28 1019 57 10000 4.12 20 21:37 04.12.2022
770 Clouds 27 1021 65 10000 4.02 31 20:20 04.12.2022
771 Clouds 27 1022 74 10000 4.92 338 19:23 04.12.2022
772 Clouds 26 1023 73 10000 4.63 350 18:36 04.12.2022
773 Mist 24 1023 83 10000 1.54 320 17:22 04.12.2022
774 Mist 23 1023 88 10000 1.79 319 16:37 04.12.2022
775 Haze 23 1023 88 10000 1.79 338 16:18 04.12.2022
776 Mist 21 1022 94 10000 1.54 300 15:27 04.12.2022
777 Mist 21 1022 94 10000 1.54 320 14:32 04.12.2022
778 Clear 21 1019 80 10000 0.89 344 12:52 04.12.2022
779 Clear 21 1019 80 10000 0.89 340 12:33 04.12.2022
780 Clear 21 1019 80 10000 0.89 333 11:35 04.12.2022
781 Clear 21 1020 82 10000 0.89 336 08:50 04.12.2022
782 Clear 24 1020 79 10000 1.79 349 02:51 04.12.2022
783 Rain 24 1020 88 10000 2.68 5 23:44 03.12.2022
784 Rain 26 1019 69 10000 3.58 19 22:46 03.12.2022
785 Clouds 27 1019 67 10000 4.47 16 21:53 03.12.2022
786 Rain 27 1019 70 10000 4.92 36 20:46 03.12.2022
787 Clouds 27 1021 69 10000 5.36 5 18:57 03.12.2022
788 Rain 26 1023 83 9656 5.36 5 18:31 03.12.2022
789 Mist 23 1023 100 4828 4.02 355 15:52 03.12.2022
790 Clouds 22 1021 100 8047 2.24 5 13:50 03.12.2022
791 Clear 22 1019 82 10000 0.89 348 12:53 03.12.2022
792 Clear 22 1018 82 10000 0.45 309 12:21 03.12.2022
793 Clear 22 1018 83 10000 2.84 334 09:46 03.12.2022
794 Clouds 23 1021 100 10000 2.06 320 04:18 03.12.2022
795 Clouds 24 1018 88 9656 3.58 351 00:23 03.12.2022
796 Clouds 25 1019 88 9656 2.68 15 22:19 02.12.2022
797 Clouds 25 1016 72 10000 2.24 355 20:53 02.12.2022
798 Mist 23 1021 100 6437 1.79 336 17:40 02.12.2022
799 Clouds 22 1019 82 10000 0.45 288 15:58 02.12.2022
800 Mist 21 1020 100 6437 1.79 281 14:38 02.12.2022
801 Mist 21 1020 100 6437 0.89 284 14:19 02.12.2022
802 Clouds 21 1018 83 10000 1.79 321 12:44 02.12.2022
803 Clouds 21 1017 83 10000 0.45 329 11:30 02.12.2022
804 Clouds 22 1018 81 10000 3.04 288 08:19 02.12.2022
805 Clouds 22 1021 100 10000 0.45 5 07:23 02.12.2022
806 Clouds 25 1016 75 10000 4.47 16 22:54 01.12.2022
807 Clouds 25 1017 76 10000 3.58 12 21:44 01.12.2022
808 Clouds 26 1018 74 10000 3.13 360 20:56 01.12.2022
809 Rain 24 1021 100 6437 3.58 346 19:18 01.12.2022
810 Rain 24 1021 100 9656 2.24 342 17:31 01.12.2022
811 Rain 22 1020 100 805 7.72 10 14:47 01.12.2022
812 Clouds 25 1016 83 10000 1.34 329 11:22 01.12.2022
813 Rain 23 1017 92 10000 3.23 328 09:55 01.12.2022
814 Rain 23 1017 92 10000 3.23 328 09:37 01.12.2022
815 Clouds 25 1016 82 10000 1.34 360 07:18 01.12.2022
816 Mist 26 1014 89 4828 7.2 360 23:59 30.11.2022
817 Clouds 28 1013 74 8047 7.2 10 22:21 30.11.2022
818 Clouds 28 1014 74 8047 7.15 30 21:19 30.11.2022
819 Rain 30 1014 66 6437 4.47 65 20:25 30.11.2022
820 Clouds 29 1015 74 6437 3.6 360 19:35 30.11.2022
821 Haze 29 1015 74 4828 2.68 13 18:32 30.11.2022
822 Clouds 27 1013 72 10000 1.79 355 16:53 30.11.2022
823 Clouds 24 1012 85 10000 0.45 340 14:46 30.11.2022
824 Clouds 24 1012 85 10000 0.45 340 14:46 30.11.2022
825 Fog 23 1013 100 805 1.03 310 14:26 30.11.2022
826 Clouds 24 1010 84 10000 2.03 274 12:29 30.11.2022
827 Clouds 25 1009 84 10000 0.89 284 09:52 30.11.2022
828 Clouds 25 1010 84 10000 1.3 223 08:38 30.11.2022
829 Mist 24 1012 100 4828 0 0 06:43 30.11.2022
830 Clouds 29 1008 74 6437 2.57 60 23:30 29.11.2022
831 Clouds 29 1008 74 8047 2.68 113 22:19 29.11.2022
832 Clouds 30 1007 62 10000 1.34 165 20:52 29.11.2022
833 Haze 30 1010 66 4828 2.68 110 20:28 29.11.2022
834 Clouds 30 1009 63 10000 2.24 163 18:44 29.11.2022
835 Clouds 27 1011 71 10000 1.79 148 16:51 29.11.2022
836 Mist 25 1012 94 3219 1.54 180 15:38 29.11.2022
837 Clouds 24 1010 83 10000 0.45 179 14:48 29.11.2022
838 Clouds 23 1009 84 10000 1.34 248 12:38 29.11.2022
839 Clouds 22 1009 84 10000 0.89 223 11:31 29.11.2022
840 Clouds 22 1009 83 10000 0.45 229 10:29 29.11.2022
841 Clouds 23 1010 82 10000 0.45 267 09:28 29.11.2022
842 Clouds 23 1011 82 10000 0.45 238 07:27 29.11.2022
843 Clouds 28 1011 74 8047 3.09 40 00:29 29.11.2022
844 Clear 27 1011 78 8047 3.58 58 23:26 28.11.2022
845 Clear 29 1011 70 8047 4.63 60 22:21 28.11.2022
846 Clear 29 1011 74 8047 3.58 88 21:43 28.11.2022
847 Clouds 29 1012 70 6437 3.58 78 20:25 28.11.2022
848 Clouds 29 1013 74 6437 2.06 40 19:36 28.11.2022
849 Clouds 28 1014 74 6437 2.68 89 18:28 28.11.2022
850 Clear 28 1015 74 6437 0.89 232 17:23 28.11.2022
851 Clear 23 1012 82 10000 1.34 285 14:57 28.11.2022
852 Clear 23 1012 84 10000 0.89 286 13:55 28.11.2022
853 Mist 22 1013 100 6437 0 0 13:18 28.11.2022
854 Clear 23 1011 84 10000 1.81 213 11:32 28.11.2022
855 Clear 23 1011 83 10000 2.07 195 08:20 28.11.2022
856 Clouds 22 1012 83 10000 0.89 218 04:56 28.11.2022
857 Clouds 23 1014 100 10000 0 0 04:37 28.11.2022
858 Clouds 23 1013 100 10000 0.45 149 03:21 28.11.2022
859 Clouds 25 1012 83 9656 2.06 90 00:29 28.11.2022
860 Clouds 26 1010 70 10000 1.79 106 21:55 27.11.2022
861 Clouds 26 1014 78 10000 1.79 63 20:43 27.11.2022
862 Clouds 26 1016 78 10000 2.24 40 18:31 27.11.2022
863 Mist 26 1015 83 10000 3.09 340 16:22 27.11.2022
864 Mist 23 1014 100 10000 0.89 16 13:47 27.11.2022
865 Clouds 24 1012 80 10000 1.34 5 12:20 27.11.2022
866 Clouds 23 1013 79 10000 0.45 181 09:21 27.11.2022
867 Clouds 24 1015 83 10000 2.68 326 06:30 27.11.2022
868 Clouds 25 1012 83 8047 6.26 23 23:22 26.11.2022
869 Clouds 28 1011 66 10000 4.02 18 20:59 26.11.2022
870 Clouds 28 1012 68 10000 4.47 360 19:50 26.11.2022
871 Haze 27 1016 78 4828 2.68 21 18:38 26.11.2022
872 Mist 26 1016 89 4828 2.06 350 16:34 26.11.2022
873 Fog 22 1015 100 402 1.54 260 14:34 26.11.2022
874 Clouds 22 1012 84 10000 0.45 295 12:42 26.11.2022
875 Clouds 23 1011 83 10000 0.89 311 10:52 26.11.2022
876 Clouds 23 1012 82 10000 1.34 321 09:36 26.11.2022
877 Clouds 24 1013 81 10000 0.45 292 07:29 26.11.2022
878 Clouds 29 1011 65 6437 4.12 20 22:18 25.11.2022
879 Haze 29 1011 65 6437 3.6 40 21:30 25.11.2022
880 Clouds 28 1012 69 6437 2.24 32 20:20 25.11.2022
881 Haze 26 1014 89 4828 0.89 360 16:50 25.11.2022
882 Mist 22 1013 100 2414 1.03 250 14:48 25.11.2022
883 Clouds 21 1009 85 10000 2.75 195 09:44 25.11.2022
884 Mist 21 1012 100 3219 1.54 220 08:42 25.11.2022
885 Clouds 22 1010 83 10000 2.77 173 06:55 25.11.2022
886 Mist 22 1012 100 4828 2.06 250 06:31 25.11.2022
887 Clouds 26 1010 78 10000 4.63 90 00:29 25.11.2022
888 Clouds 28 1008 65 10000 2.68 108 22:59 24.11.2022
889 Clouds 28 1008 63 10000 3.13 105 21:59 24.11.2022
890 Clouds 30 1009 56 10000 2.68 147 20:58 24.11.2022
891 Clouds 28 1013 69 10000 2.24 142 19:20 24.11.2022
892 Clouds 26 1014 78 9656 4.12 180 17:43 24.11.2022
893 Clouds 24 1015 83 9656 4.12 170 17:21 24.11.2022
894 Mist 20 1014 100 4828 2.24 215 15:29 24.11.2022
895 Mist 19 1014 100 3219 1.54 190 14:22 24.11.2022
896 Mist 19 1014 100 3219 1.54 190 14:22 24.11.2022
897 Clouds 19 1011 84 10000 0.89 229 11:59 24.11.2022
898 Clouds 20 1012 84 10000 0.45 211 10:37 24.11.2022
899 Clouds 20 1013 83 10000 0.89 225 07:54 24.11.2022
900 Clouds 22 1015 94 9656 0.45 30 03:23 24.11.2022
901 Clouds 25 1012 68 10000 2.24 46 23:46 23.11.2022
902 Clouds 25 1012 66 10000 0.89 225 21:58 23.11.2022
903 Clouds 24 1015 78 6437 2.06 60 21:25 23.11.2022
904 Clouds 24 1016 78 6437 0.89 98 20:37 23.11.2022
905 Clouds 23 1016 83 6437 2.06 140 19:27 23.11.2022
906 Clouds 23 1018 88 6437 0 0 18:41 23.11.2022
907 Mist 22 1018 94 6437 1.03 280 16:39 23.11.2022
908 Clouds 21 1017 100 9656 0 0 13:40 23.11.2022
909 Clouds 21 1017 100 9656 0 0 13:20 23.11.2022
910 Clouds 21 1015 80 10000 0.45 279 12:21 23.11.2022
911 Clouds 21 1015 79 10000 1.69 286 11:41 23.11.2022
912 Clouds 21 1015 79 10000 0.89 333 10:42 23.11.2022
913 Clouds 22 1015 77 10000 1.79 324 09:43 23.11.2022
914 Clouds 22 1016 77 10000 1.34 340 09:25 23.11.2022
915 Clouds 22 1016 76 10000 2.24 349 08:37 23.11.2022
916 Clouds 21 1019 88 10000 3.09 340 05:22 23.11.2022
917 Clouds 21 1019 88 10000 3.09 340 04:23 23.11.2022
918 Clouds 24 1016 68 10000 4.47 360 22:59 22.11.2022
919 Clouds 24 1017 78 10000 3.58 24 22:33 22.11.2022
920 Clouds 25 1018 73 10000 4.12 340 21:34 22.11.2022
921 Clouds 25 1016 67 10000 3.13 360 20:45 22.11.2022
922 Clouds 25 1017 66 10000 1.79 80 19:53 22.11.2022
923 Clouds 22 1021 88 10000 6.26 344 17:56 22.11.2022
924 Clouds 22 1020 76 10000 4.02 33 16:55 22.11.2022
925 Clouds 21 1019 78 10000 3.58 360 15:51 22.11.2022
926 Clouds 19 1019 100 9656 1.54 330 13:42 22.11.2022
927 Clouds 20 1017 82 10000 0.89 306 11:40 22.11.2022
928 Rain 20 1018 83 10000 0.89 336 09:20 22.11.2022
929 Rain 20 1019 81 10000 2.68 343 07:18 22.11.2022
930 Clouds 22 1018 78 10000 7.72 350 01:40 22.11.2022
931 Clouds 23 1017 78 10000 7.6 5 23:40 21.11.2022
932 Clouds 23 1017 78 9656 5.81 11 22:40 21.11.2022
933 Clouds 24 1015 65 10000 7.15 14 21:58 21.11.2022
934 Clouds 25 1016 63 10000 5.81 14 20:49 21.11.2022
935 Clouds 24 1019 69 10000 4.63 10 19:41 21.11.2022
936 Clouds 25 1020 69 9656 6.17 40 18:54 21.11.2022
937 Rain 23 1019 66 10000 4.02 35 17:51 21.11.2022
938 Clouds 23 1019 68 10000 3.58 49 16:53 21.11.2022
939 Haze 21 1020 94 8047 3.13 26 16:34 21.11.2022
940 Haze 20 1020 100 8047 1.34 313 15:24 21.11.2022
941 Clouds 20 1018 79 10000 4.74 340 13:59 21.11.2022
942 Clouds 20 1019 88 9656 1.54 350 13:40 21.11.2022
943 Clouds 21 1017 75 10000 2.24 15 10:27 21.11.2022
944 Clouds 21 1017 76 10000 0.89 324 08:39 21.11.2022
945 Clouds 21 1021 83 10000 2.06 360 05:45 21.11.2022
946 Clouds 25 1017 61 10000 5.36 13 22:26 20.11.2022
947 Clouds 26 1018 61 10000 3.6 320 21:33 20.11.2022
948 Clouds 25 1020 65 10000 4.92 344 20:24 20.11.2022
949 Clouds 25 1021 65 10000 5.14 340 18:25 20.11.2022
950 Clouds 23 1020 68 10000 5.14 340 15:59 20.11.2022
951 Clouds 21 1020 78 10000 5.14 350 15:28 20.11.2022
952 Clouds 20 1018 83 9656 5.36 346 14:30 20.11.2022
953 Clouds 20 1018 77 9656 7.6 355 13:32 20.11.2022
954 Clouds 20 1018 77 9656 7.6 355 13:32 20.11.2022
955 Clouds 20 1016 66 10000 9.39 360 12:31 20.11.2022
956 Clouds 21 1015 65 10000 10.28 5 10:59 20.11.2022
957 Clouds 22 1016 65 10000 8.49 16 10:22 20.11.2022
958 Clouds 22 1016 72 10000 9.39 16 08:59 20.11.2022
959 Clouds 22 1016 73 10000 10.28 11 08:34 20.11.2022
960 Clouds 22 1019 88 10000 7.15 360 07:28 20.11.2022
961 Clouds 25 1014 68 10000 6.26 16 01:50 20.11.2022
962 Clouds 23 1015 83 10000 6.71 5 01:18 20.11.2022
963 Clouds 25 1014 73 10000 6.17 350 00:40 20.11.2022
964 Clouds 25 1014 73 10000 6.17 350 00:21 20.11.2022
965 Clouds 26 1013 64 10000 5.81 360 23:47 19.11.2022
966 Clouds 26 1014 69 10000 5.36 5 23:21 19.11.2022
967 Clouds 27 1014 65 10000 5.14 360 22:28 19.11.2022
968 Clouds 27 1015 69 10000 4.47 41 21:31 19.11.2022
969 Clouds 27 1013 60 10000 4.47 355 20:42 19.11.2022
970 Clouds 28 1016 69 10000 4.12 340 20:23 19.11.2022
971 Clouds 25 1015 69 10000 2.68 43 18:54 19.11.2022
972 Clouds 25 1018 78 10000 0.89 306 17:39 19.11.2022
973 Clouds 25 1018 78 10000 1.79 295 17:19 19.11.2022
974 Clouds 22 1017 100 8047 0.45 255 15:34 19.11.2022
975 Clouds 21 1016 100 8047 1.03 260 13:36 19.11.2022
976 Clouds 21 1014 84 10000 1.75 267 11:57 19.11.2022
977 Clouds 21 1014 82 10000 2.22 246 10:19 19.11.2022
978 Clouds 21 1017 100 10000 0.45 240 08:36 19.11.2022
979 Clouds 21 1017 100 10000 1.54 250 04:45 19.11.2022
980 Clouds 23 1014 74 10000 0.45 9 01:52 19.11.2022
981 Clouds 24 1015 78 9656 3.13 360 23:37 18.11.2022
982 Clouds 24 1015 78 9656 3.13 360 23:37 18.11.2022
983 Clouds 24 1015 78 9656 3.13 360 23:37 18.11.2022
984 Clouds 24 1015 78 9656 3.13 360 23:37 18.11.2022
985 Clouds 24 1015 78 8047 3.13 31 22:25 18.11.2022
986 Clouds 24 1015 78 10000 3.09 360 21:36 18.11.2022
987 Clouds 24 1014 69 10000 2.24 5 20:58 18.11.2022
988 Clouds 24 1016 78 9656 4.12 10 20:25 18.11.2022
989 Clouds 24 1015 68 10000 2.24 35 19:44 18.11.2022
990 Clouds 23 1016 74 10000 0.89 94 17:45 18.11.2022
991 Clouds 21 1019 100 8047 1.54 360 16:37 18.11.2022
992 Clouds 21 1015 81 10000 3.5 2 12:53 18.11.2022
993 Clouds 21 1015 81 10000 1.07 202 10:45 18.11.2022
994 Clouds 21 1017 80 10000 1.96 272 07:52 18.11.2022
995 Clouds 21 1020 100 10000 0.89 271 05:45 18.11.2022
996 Clouds 22 1017 72 10000 0.89 302 02:49 18.11.2022
997 Clouds 23 1018 78 10000 5.14 360 23:48 17.11.2022
998 Clouds 23 1019 78 10000 5.14 10 20:48 17.11.2022
999 Clouds 25 1017 66 10000 5.36 5 19:57 17.11.2022
1000 Clouds 25 1020 73 10000 5.36 5 19:31 17.11.2022
1001 Clouds 24 1021 78 10000 5.14 330 18:34 17.11.2022
1002 Clouds 24 1022 73 10000 7.72 340 17:32 17.11.2022
1003 Clouds 23 1022 78 9656 7.72 250 16:32 17.11.2022
1004 Clouds 22 1018 77 10000 2.24 5 12:24 17.11.2022
1005 Clouds 23 1018 77 10000 0.45 355 10:47 17.11.2022
1006 Clouds 23 1018 71 10000 1.34 279 07:35 17.11.2022
1007 Clouds 24 1019 78 10000 6.17 360 01:30 17.11.2022
1008 Clouds 25 1018 73 10000 6.71 30 23:31 16.11.2022
1009 Clouds 25 1018 73 10000 6.17 360 22:19 16.11.2022
1010 Clouds 27 1019 69 10000 6.71 355 20:33 16.11.2022
1011 Clouds 28 1019 59 10000 5.36 360 18:49 16.11.2022
1012 Clouds 28 1019 59 10000 5.36 360 18:49 16.11.2022
1013 Clouds 28 1019 59 10000 5.36 360 18:49 16.11.2022
1014 Clouds 28 1021 65 10000 5.36 360 18:30 16.11.2022
1015 Mist 25 1021 83 10000 1.34 310 15:58 16.11.2022
1016 Clouds 21 1017 82 10000 5.4 333 11:54 16.11.2022
1017 Clouds 25 1018 73 10000 3.13 360 07:45 16.11.2022
1018 Clouds 26 1017 73 10000 7.15 11 01:42 16.11.2022
1019 Clouds 28 1016 69 9656 7.15 360 23:36 15.11.2022
1020 Clouds 28 1016 69 8047 7.72 350 21:42 15.11.2022
1021 Clouds 30 1015 61 10000 4.92 31 19:48 15.11.2022
1022 Clear 30 1016 60 10000 5.81 25 18:53 15.11.2022
1023 Clouds 29 1018 70 9656 2.68 333 17:36 15.11.2022
1024 Mist 26 1018 94 8047 4.02 5 16:20 15.11.2022
1025 Haze 26 1018 94 8047 4.02 5 16:20 15.11.2022
1026 Mist 24 1017 100 4828 0 0 15:37 15.11.2022
1027 Mist 22 1015 100 6437 1.54 350 13:57 15.11.2022
1028 Clouds 22 1013 84 10000 0.45 5 12:54 15.11.2022
1029 Clouds 22 1011 84 10000 1.63 249 11:21 15.11.2022
1030 Clouds 22 1011 84 10000 0.45 242 09:38 15.11.2022
1031 Clouds 26 1008 72 10000 2.24 117 00:44 15.11.2022
1032 Clouds 27 1010 74 10000 5.14 90 00:23 15.11.2022
1033 Clouds 28 1008 66 10000 4.02 123 21:56 14.11.2022
1034 Clouds 30 1009 55 10000 2.24 145 20:44 14.11.2022
1035 Clouds 28 1014 69 10000 4.12 170 19:42 14.11.2022
1036 Clouds 27 1015 69 10000 1.34 204 18:25 14.11.2022
1037 Clouds 22 1013 82 10000 0.89 258 12:55 14.11.2022
1038 Clouds 22 1013 82 10000 0.89 258 12:55 14.11.2022
1039 Clouds 22 1013 82 10000 0.89 246 11:47 14.11.2022
1040 Clear 22 1013 82 10000 1.34 233 10:57 14.11.2022
1041 Clouds 22 1013 81 10000 0.89 179 08:30 14.11.2022
1042 Clouds 22 1014 81 10000 1.34 226 07:52 14.11.2022
1043 Clouds 24 1015 83 9656 2.68 5 01:24 14.11.2022
1044 Clouds 26 1015 69 10000 5.14 360 22:47 13.11.2022
1045 Clouds 23 1015 75 10000 8.22 5 21:40 13.11.2022
1046 Clouds 26 1014 61 10000 4.47 44 20:46 13.11.2022
1047 Clouds 26 1016 60 10000 4.92 342 18:54 13.11.2022
1048 Clouds 25 1017 64 10000 4.47 22 17:49 13.11.2022
1049 Clouds 23 1018 83 9656 5.81 19 15:40 13.11.2022
1050 Clouds 23 1018 83 9656 6.17 350 14:31 13.11.2022
1051 Clouds 24 1015 70 10000 3.58 346 12:56 13.11.2022
1052 Clouds 24 1015 67 10000 4.47 19 11:35 13.11.2022
1053 Clouds 25 1015 64 10000 4.47 5 10:28 13.11.2022
1054 Clouds 26 1016 62 10000 5.81 13 05:52 13.11.2022
1055 Clouds 27 1013 71 10000 8.49 360 23:54 12.11.2022
1056 Clouds 30 1014 70 8047 10.29 360 21:32 12.11.2022
1057 Clouds 29 1015 74 9656 7.72 350 20:41 12.11.2022
1058 Clouds 30 1013 65 10000 5.81 17 18:57 12.11.2022
1059 Clouds 29 1013 66 10000 3.13 86 16:52 12.11.2022
1060 Clouds 25 1014 100 8047 1.03 280 15:48 12.11.2022
1061 Clouds 22 1012 100 8047 1.54 350 13:39 12.11.2022
1062 Clear 23 1008 83 10000 3.88 167 09:39 12.11.2022
1063 Clear 23 1009 81 10000 3.12 170 07:47 12.11.2022
1064 Clear 28 1006 65 10000 2.68 111 23:45 11.11.2022
1065 Clear 30 1006 59 10000 3.13 115 20:56 11.11.2022
1066 Clouds 30 1008 62 10000 3.6 120 20:30 11.11.2022
1067 Clear 30 1009 62 10000 2.57 180 19:27 11.11.2022
1068 Clear 28 1011 69 10000 2.68 219 18:32 11.11.2022
1069 Clear 28 1009 64 10000 2.24 174 17:40 11.11.2022
1070 Mist 21 1010 100 10000 2.06 220 14:31 11.11.2022
1071 Mist 21 1010 100 10000 2.06 220 13:42 11.11.2022
1072 Clear 21 1007 83 10000 0.45 229 12:18 11.11.2022
1073 Clear 22 1008 82 10000 0.89 221 08:57 11.11.2022
1074 Clear 22 1008 82 10000 0.45 221 08:26 11.11.2022
1075 Clear 27 1009 69 10000 4.63 90 00:31 11.11.2022
1076 Clouds 28 1007 56 10000 2.68 109 22:51 10.11.2022
1077 Clouds 29 1010 65 10000 3.13 132 21:44 10.11.2022
1078 Rain 29 1010 65 10000 3.58 105 21:25 10.11.2022
1079 Clouds 30 1012 58 10000 2.24 108 20:24 10.11.2022
1080 Clouds 30 1010 54 10000 2.68 123 19:56 10.11.2022
1081 Clear 28 1012 58 10000 0.89 218 18:45 10.11.2022
1082 Clear 27 1013 63 10000 0.91 204 16:55 10.11.2022
1083 Clear 25 1015 88 10000 0 0 16:25 10.11.2022
1084 Clear 20 1014 100 10000 1.54 180 13:34 10.11.2022
1085 Clear 22 1013 83 10000 0.45 239 09:30 10.11.2022
1086 Clear 23 1014 78 10000 1.79 273 07:21 10.11.2022
1087 Clear 25 1015 83 10000 4.63 10 01:18 10.11.2022
1088 Clear 28 1013 63 10000 4.92 30 22:58 09.11.2022
1089 Clouds 29 1016 65 10000 6.69 10 21:32 09.11.2022
1090 Clouds 28 1018 74 10000 4.92 39 20:42 09.11.2022
1091 Clouds 28 1018 74 10000 5.36 36 20:22 09.11.2022
1092 Clouds 28 1018 74 10000 5.66 350 19:26 09.11.2022
1093 Rain 28 1017 64 10000 4.92 336 17:45 09.11.2022
1094 Rain 23 1016 79 10000 0.89 295 14:57 09.11.2022
1095 Mist 21 1018 100 10000 0.45 270 14:28 09.11.2022
1096 Haze 21 1017 100 9656 1.03 260 13:58 09.11.2022
1097 Clear 22 1015 82 10000 0.89 305 12:53 09.11.2022
1098 Clear 24 1016 81 10000 0.45 295 09:40 09.11.2022
1099 Rain 25 1016 78 10000 1.79 333 07:47 09.11.2022
1100 Rain 24 1017 85 10000 4.7 338 06:55 09.11.2022
1101 Clouds 29 1016 70 10000 7.15 52 22:44 08.11.2022
1102 Clouds 29 1016 70 10000 8.05 45 21:42 08.11.2022
1103 Clear 29 1015 58 10000 7.6 36 20:55 08.11.2022
1104 Rain 28 1018 74 10000 7.6 5 20:21 08.11.2022
1105 Clouds 29 1018 70 10000 7.2 10 19:28 08.11.2022
1106 Clouds 28 1019 74 10000 5.14 360 17:37 08.11.2022
1107 Mist 23 1019 100 10000 1.79 317 15:37 08.11.2022
1108 Mist 22 1018 100 10000 1.03 280 14:36 08.11.2022
1109 Mist 22 1018 100 10000 1.03 230 13:33 08.11.2022
1110 Clouds 23 1015 83 10000 0.45 302 11:30 08.11.2022
1111 Clouds 24 1016 82 10000 0.45 309 07:45 08.11.2022
1112 Clouds 24 1018 100 10000 1.54 280 06:28 08.11.2022
1113 Clouds 27 1013 78 10000 1.34 296 22:59 07.11.2022
1114 Rain 25 1015 100 9656 3.58 331 21:52 07.11.2022
1115 Clouds 26 1014 81 10000 1.79 306 20:54 07.11.2022
1116 Mist 24 1017 100 3219 3.09 320 19:42 07.11.2022
1117 Rain 25 1017 100 2414 1.79 5 17:43 07.11.2022
1118 Rain 23 1016 100 805 4.63 100 15:40 07.11.2022
1119 Rain 25 1014 79 10000 1.34 322 14:57 07.11.2022
1120 Haze 24 1014 100 9656 2.06 290 13:33 07.11.2022
1121 Clear 25 1012 80 10000 1.79 355 12:30 07.11.2022
1122 Clear 26 1011 81 10000 3.03 352 10:45 07.11.2022
1123 Clouds 25 1014 100 10000 1.03 310 08:31 07.11.2022
1124 Rain 26 1014 100 10000 1.79 5 06:33 07.11.2022
1125 Clouds 28 1009 75 10000 2.24 15 01:48 07.11.2022
1126 Clear 29 1009 79 10000 5.14 50 23:33 06.11.2022
1127 Clouds 31 1010 70 10000 4.02 103 21:22 06.11.2022
1128 Clouds 31 1008 60 10000 3.13 84 20:48 06.11.2022
1129 Clouds 31 1009 58 10000 1.34 142 19:56 06.11.2022
1130 Clouds 29 1012 74 9656 1.03 20 19:24 06.11.2022
1131 Clouds 31 1013 66 8047 1.79 40 18:20 06.11.2022
1132 Clouds 29 1013 79 8047 1.34 39 17:39 06.11.2022
1133 Clouds 29 1013 79 8047 1.03 200 17:18 06.11.2022
1134 Clouds 27 1013 94 8047 0.45 142 16:18 06.11.2022
1135 Mist 24 1012 100 4828 0 0 14:45 06.11.2022
1136 Clear 25 1008 82 10000 1.92 281 12:45 06.11.2022
1137 Clear 25 1008 82 10000 1.92 281 12:45 06.11.2022
1138 Clouds 25 1008 82 10000 2.04 274 10:55 06.11.2022
1139 Clear 25 1008 82 10000 0.45 234 09:51 06.11.2022
1140 Clear 26 1009 81 10000 2.09 252 07:39 06.11.2022
1141 Clouds 28 1008 83 10000 3.6 30 23:23 05.11.2022
1142 Clouds 31 1009 62 10000 3.13 60 20:40 05.11.2022
1143 Clouds 29 1011 70 10000 2.68 80 18:22 05.11.2022
1144 Clouds 29 1011 70 10000 2.68 80 18:22 05.11.2022
1145 Clouds 27 1010 83 10000 1.03 170 16:26 05.11.2022
1146 Clear 22 1009 100 10000 0.45 197 14:34 05.11.2022
1147 Clear 22 1008 100 10000 1.03 190 13:29 05.11.2022
1148 Clouds 22 1007 83 10000 0.45 204 10:54 05.11.2022
1149 Clouds 23 1007 81 10000 1.34 239 08:54 05.11.2022
1150 Clouds 25 1008 78 10000 1.34 247 07:22 05.11.2022
1151 Clouds 25 1009 77 10000 0.89 290 06:54 05.11.2022
1152 Clouds 28 1008 78 10000 7.72 360 23:36 04.11.2022
1153 Clouds 28 1008 78 10000 7.72 360 23:18 04.11.2022
1154 Clouds 30 1010 70 10000 7.72 360 20:32 04.11.2022
1155 Clouds 30 1010 70 10000 7.72 360 20:32 04.11.2022
1156 Clouds 30 1010 70 10000 7.72 360 20:31 04.11.2022
1157 Clouds 30 1011 74 10000 6.17 340 19:24 04.11.2022
1158 Clouds 27 1013 89 10000 6.71 360 17:23 04.11.2022
1159 Clouds 24 1011 82 10000 0.89 317 13:52 04.11.2022
1160 Rain 25 1011 77 10000 1.34 44 12:27 04.11.2022
1161 Clouds 25 1010 76 10000 0.45 328 10:51 04.11.2022
1162 Rain 25 1011 76 10000 0.89 311 08:53 04.11.2022
1163 Clouds 26 1013 76 10000 0.89 331 07:43 04.11.2022
1164 Clouds 26 1016 100 10000 2.06 340 05:20 04.11.2022
1165 Clouds 27 1014 83 10000 3.58 18 23:26 03.11.2022
1166 Rain 30 1013 59 10000 5.81 42 20:51 03.11.2022
1167 Clouds 29 1016 70 10000 5.14 10 20:28 03.11.2022
1168 Clouds 29 1017 70 10000 5.36 39 19:29 03.11.2022
1169 Clouds 28 1016 65 10000 4.47 19 17:49 03.11.2022
1170 Clouds 28 1016 68 10000 3.13 355 16:52 03.11.2022
1171 Clouds 23 1017 100 9656 1.03 280 14:19 03.11.2022
1172 Rain 23 1015 83 10000 1.34 271 12:39 03.11.2022
1173 Rain 24 1015 83 10000 0.89 232 11:50 03.11.2022
1174 Clouds 24 1016 82 10000 0.45 277 09:37 03.11.2022
1175 Clouds 25 1017 79 10000 0.89 286 07:43 03.11.2022
1176 Clouds 29 1017 70 9656 2.68 67 21:30 02.11.2022
1177 Clouds 28 1018 74 9656 3.6 30 20:40 02.11.2022
1178 Clouds 29 1016 64 10000 4.47 59 19:59 02.11.2022
1179 Mist 29 1021 79 8047 1.79 355 17:18 02.11.2022
1180 Mist 27 1020 83 8047 2.24 296 16:19 02.11.2022
1181 Clear 25 1018 80 10000 0.89 296 14:53 02.11.2022
1182 Clear 23 1016 83 10000 2.32 309 12:44 02.11.2022
1183 Clear 23 1016 83 10000 2.27 316 11:39 02.11.2022
1184 Clouds 23 1015 83 10000 0.89 302 09:22 02.11.2022
1185 Clouds 25 1018 100 10000 1.54 350 05:35 02.11.2022
1186 Clear 28 1014 78 10000 4.12 60 00:27 02.11.2022
1187 Clear 30 1013 70 10000 4.12 70 22:19 01.11.2022
1188 Clouds 31 1013 66 9656 3.58 75 21:38 01.11.2022
1189 Clouds 31 1014 62 10000 4.63 60 20:26 01.11.2022
1190 Clouds 30 1015 62 10000 2.24 103 19:43 01.11.2022
1191 Clear 30 1013 55 10000 0.89 307 18:49 01.11.2022
1192 Clouds 29 1016 70 8047 1.54 150 17:28 01.11.2022
1193 Haze 28 1016 78 8047 0.45 97 16:20 01.11.2022
1194 Haze 22 1014 100 6437 1.54 300 14:22 01.11.2022
1195 Clear 22 1011 82 10000 1.01 244 12:27 01.11.2022
1196 Clear 22 1011 82 10000 1.39 243 11:24 01.11.2022
1197 Clear 22 1011 83 10000 1.46 243 10:23 01.11.2022
1198 Clear 23 1011 82 10000 0.89 241 08:42 01.11.2022
1199 Clear 23 1012 80 10000 1.34 254 07:29 01.11.2022
1200 Clear 23 1012 81 10000 0.45 269 06:47 01.11.2022
1201 Clear 24 1012 80 10000 0.89 268 05:56 01.11.2022
1202 Clear 25 1013 88 10000 1.54 70 03:37 01.11.2022
1203 Clouds 30 1009 57 10000 3.58 128 21:46 31.10.2022
1204 Clouds 30 1013 62 9656 3.6 100 20:30 31.10.2022
1205 Clouds 30 1012 60 10000 1.34 104 18:50 31.10.2022
1206 Clouds 29 1015 65 8047 0.45 108 17:26 31.10.2022
1207 Clouds 27 1015 78 8047 0.45 297 16:39 31.10.2022
1208 Clouds 22 1013 100 9656 1.54 300 13:24 31.10.2022
1209 Clouds 21 1010 82 10000 1.44 246 10:20 31.10.2022
1210 Clouds 22 1011 82 10000 0.89 227 08:37 31.10.2022
1211 Clouds 25 1013 72 10000 0.89 348 04:48 31.10.2022
1212 Clear 24 1013 83 10000 2.06 350 02:20 31.10.2022
1213 Clear 27 1013 74 10000 4.47 24 23:18 30.10.2022
1214 Clouds 28 1012 59 10000 2.68 34 20:49 30.10.2022
1215 Clouds 29 1015 65 10000 2.57 10 20:21 30.10.2022
1216 Clouds 29 1017 61 10000 3.13 81 18:20 30.10.2022
1217 Clouds 26 1015 65 10000 1.34 277 15:59 30.10.2022
1218 Clouds 21 1016 100 9656 1.03 280 13:52 30.10.2022
1219 Clouds 22 1014 74 10000 0.89 271 12:52 30.10.2022
1220 Clouds 22 1014 75 10000 0.89 221 11:24 30.10.2022
1221 Clouds 22 1014 69 10000 3.74 336 09:37 30.10.2022
1222 Clouds 24 1015 63 10000 0.89 342 08:25 30.10.2022
1223 Clouds 25 1016 69 10000 6.71 345 00:50 30.10.2022
1224 Clouds 25 1016 69 10000 5.81 360 00:27 30.10.2022
1225 Clouds 26 1016 65 10000 8.49 22 23:44 29.10.2022
1226 Clouds 26 1016 65 10000 8.49 22 23:44 29.10.2022
1227 Clouds 25 1017 69 10000 6.71 343 21:25 29.10.2022
1228 Clouds 27 1016 59 10000 8.49 5 17:47 29.10.2022
1229 Haze 26 1016 100 4828 5.81 25 16:22 29.10.2022
1230 Rain 26 1016 100 1609 6.26 26 15:37 29.10.2022
1231 Mist 25 1015 100 1609 1.54 290 14:47 29.10.2022
1232 Clouds 26 1013 83 10000 5.03 347 12:34 29.10.2022
1233 Clouds 26 1012 83 10000 0.45 302 10:40 29.10.2022
1234 Clouds 26 1015 100 8047 2.06 360 07:37 29.10.2022
1235 Clear 27 1013 78 10000 1.88 27 05:56 29.10.2022
1236 Clear 27 1011 78 10000 1.34 103 03:58 29.10.2022
1237 Haze 30 1010 74 4828 3.6 50 23:32 28.10.2022
1238 Haze 30 1013 70 4828 1.79 228 20:46 28.10.2022
1239 Haze 29 1014 74 4828 1.79 200 19:26 28.10.2022
1240 Haze 29 1014 74 4828 1.79 180 18:31 28.10.2022
1241 Mist 23 1013 100 3219 1.54 240 15:31 28.10.2022
1242 Mist 22 1013 100 3219 1.03 250 14:43 28.10.2022
1243 Clouds 23 1010 83 10000 3.3 194 12:53 28.10.2022
1244 Clouds 23 1010 83 10000 3.12 191 11:34 28.10.2022
1245 Clouds 23 1010 83 10000 0.45 192 10:58 28.10.2022
1246 Clear 23 1010 82 10000 0.45 228 09:48 28.10.2022
1247 Clear 23 1011 82 10000 0.89 222 08:28 28.10.2022
1248 Clear 26 1010 73 10000 1.34 123 03:43 28.10.2022
1249 Clouds 29 1008 66 10000 3.58 126 23:49 27.10.2022
1250 Clouds 29 1011 74 8047 3.6 110 22:40 27.10.2022
1251 Clouds 30 1012 70 10000 4.02 90 21:35 27.10.2022
1252 Clouds 30 1013 66 9656 1.54 300 20:28 27.10.2022
1253 Clouds 29 1014 70 9656 1.34 215 18:22 27.10.2022
1254 Clouds 24 1012 100 9656 1.03 260 14:23 27.10.2022
1255 Clouds 24 1011 80 10000 0.45 240 09:24 27.10.2022
1256 Clouds 24 1014 88 10000 1.34 57 06:24 27.10.2022
1257 Clouds 26 1011 78 10000 5.01 6 23:55 26.10.2022
1258 Clouds 30 1010 55 10000 4.47 42 22:51 26.10.2022
1259 Clouds 29 1013 65 9656 4.47 36 22:22 26.10.2022
1260 Clouds 29 1013 65 9656 4.47 36 22:22 26.10.2022
1261 Clouds 29 1013 59 10000 2.68 50 19:53 26.10.2022
1262 Clouds 24 1015 94 10000 0.45 248 16:35 26.10.2022
1263 Clouds 23 1012 80 10000 2.05 277 14:52 26.10.2022
1264 Clouds 22 1011 80 10000 3.14 319 12:37 26.10.2022
1265 Clouds 23 1012 75 10000 0.89 246 10:24 26.10.2022
1266 Clear 26 1013 66 10000 1.34 333 08:54 26.10.2022
1267 Clouds 26 1013 64 10000 2.24 9 08:24 26.10.2022
1268 Clouds 28 1009 69 10000 10.73 350 00:46 26.10.2022
1269 Clouds 30 1010 70 8047 5.81 338 00:21 26.10.2022
1270 Clouds 31 1008 61 10000 5.36 67 21:52 25.10.2022
1271 Clear 31 1011 66 8047 10.29 20 21:24 25.10.2022
1272 Clouds 31 1010 62 10000 4.47 5 19:43 25.10.2022
1273 Clouds 27 1010 73 10000 1.34 335 17:52 25.10.2022
1274 Mist 22 1009 100 1609 2.06 220 14:56 25.10.2022
1275 Clouds 23 1006 84 10000 0.45 200 11:39 25.10.2022
1276 Clouds 23 1007 83 10000 0.45 197 10:38 25.10.2022
1277 Clouds 23 1007 84 10000 0.45 206 09:53 25.10.2022
1278 Clouds 24 1008 83 10000 0.45 225 08:19 25.10.2022
1279 Clouds 24 1008 83 10000 0.45 225 07:54 25.10.2022
1280 Clouds 25 1008 80 10000 0.89 228 06:59 25.10.2022
1281 Clouds 26 1008 77 10000 0.89 139 03:48 25.10.2022
1282 Clouds 29 1008 74 8047 3.6 80 00:40 25.10.2022
1283 Clouds 30 1007 64 10000 3.13 126 23:49 24.10.2022
1284 Clouds 30 1009 70 8047 3.13 103 22:24 24.10.2022
1285 Clouds 30 1010 70 8047 2.57 60 21:33 24.10.2022
1286 Clouds 30 1009 66 10000 1.79 135 20:42 24.10.2022
1287 Clouds 30 1010 65 10000 2.68 135 18:52 24.10.2022
1288 Clouds 28 1011 69 10000 1.79 180 17:50 24.10.2022
1289 Clouds 26 1011 77 10000 1.34 207 16:45 24.10.2022
1290 Clouds 22 1010 83 10000 0.89 212 14:23 24.10.2022
1291 Clouds 23 1010 83 10000 0.89 221 13:40 24.10.2022
1292 Clouds 23 1009 82 10000 0.89 219 11:54 24.10.2022
1293 Clouds 25 1011 79 10000 0.45 247 08:45 24.10.2022
1294 Clouds 27 1009 65 10000 2.24 120 00:50 24.10.2022
1295 Clouds 30 1012 58 9656 1.34 191 21:23 23.10.2022
1296 Clouds 29 1011 56 10000 2.24 202 19:51 23.10.2022
1297 Clouds 27 1013 67 10000 1.34 189 17:59 23.10.2022
1298 Mist 25 1015 83 6437 2.57 200 17:27 23.10.2022
1299 Mist 21 1014 100 6437 0 0 15:19 23.10.2022
1300 Mist 21 1014 100 6437 0 0 15:19 23.10.2022
1301 Clouds 22 1011 81 10000 2.25 198 12:59 23.10.2022
1302 Clouds 23 1011 80 10000 0.45 236 10:59 23.10.2022
1303 Clouds 22 1013 80 10000 0.45 225 07:53 23.10.2022
1304 Clouds 29 1012 54 10000 4.63 90 23:40 22.10.2022
1305 Clouds 29 1013 58 10000 3.09 100 22:31 22.10.2022
1306 Clouds 29 1014 58 10000 3.6 170 21:42 22.10.2022
1307 Clouds 29 1012 51 10000 1.34 205 20:49 22.10.2022
1308 Clouds 27 1016 65 10000 1.03 90 19:32 22.10.2022
1309 Clouds 27 1015 59 10000 2.24 175 18:55 22.10.2022
1310 Clouds 25 1016 78 10000 0.89 180 17:35 22.10.2022
1311 Clouds 21 1015 100 9656 1.54 190 15:28 22.10.2022
1312 Clouds 21 1015 100 9656 0.89 185 14:36 22.10.2022
1313 Clouds 21 1013 82 10000 1.86 182 13:33 22.10.2022
1314 Clouds 23 1014 78 10000 0.45 287 09:50 22.10.2022
1315 Clouds 23 1014 77 10000 0.89 281 09:24 22.10.2022
1316 Clouds 23 1018 94 10000 1.54 270 07:33 22.10.2022
1317 Clouds 24 1015 78 10000 1.54 50 02:44 22.10.2022
1318 Clouds 26 1013 66 10000 0.89 134 23:44 21.10.2022
1319 Clouds 27 1017 65 9656 2.06 90 21:34 21.10.2022
1320 Rain 24 1016 80 10000 1.34 81 20:56 21.10.2022
1321 Drizzle 23 1019 94 10000 1.03 140 19:19 21.10.2022
1322 Rain 22 1017 81 10000 1.79 206 16:51 21.10.2022
1323 Clouds 21 1015 81 10000 0.89 51 13:56 21.10.2022
1324 Clouds 21 1015 81 10000 1.34 91 12:39 21.10.2022
1325 Clouds 22 1016 79 10000 1.38 326 10:28 21.10.2022
1326 Clouds 22 1016 79 10000 0.89 245 09:38 21.10.2022
1327 Clouds 22 1019 94 10000 0.45 270 08:37 21.10.2022
1328 Clouds 22 1020 94 10000 1.03 310 06:21 21.10.2022
1329 Clouds 25 1017 69 10000 6.17 20 00:21 21.10.2022
1330 Clouds 26 1016 59 10000 5.36 28 21:50 20.10.2022
1331 Clouds 26 1020 69 10000 4.63 350 20:25 20.10.2022
1332 Clouds 26 1021 65 10000 4.47 340 19:32 20.10.2022
1333 Clouds 26 1020 56 10000 2.24 348 17:52 20.10.2022
1334 Clouds 22 1021 94 10000 0.89 304 16:22 20.10.2022
1335 Clouds 21 1018 79 10000 0.45 270 12:36 20.10.2022
1336 Clouds 21 1018 79 10000 0.45 270 12:18 20.10.2022
1337 Clouds 21 1018 79 10000 0.45 270 12:18 20.10.2022
1338 Clouds 21 1018 76 10000 0.89 287 10:56 20.10.2022
1339 Clouds 21 1019 75 10000 1.34 278 10:24 20.10.2022
1340 Clouds 24 1020 58 10000 4.92 348 07:44 20.10.2022
1341 Clouds 23 1022 64 10000 7.6 5 04:29 20.10.2022
1342 Clouds 24 1019 64 10000 7.72 350 00:20 20.10.2022
1343 Clouds 24 1019 64 10000 7.72 350 22:35 19.10.2022
1344 Clouds 25 1019 65 10000 8.94 347 21:48 19.10.2022
1345 Clouds 25 1019 65 10000 9.83 338 20:40 19.10.2022
1346 Rain 23 1020 82 10000 10.3 335 17:55 19.10.2022
1347 Rain 25 1017 58 10000 7.15 340 16:58 19.10.2022
1348 Clouds 24 1016 63 10000 3.58 336 14:46 19.10.2022
1349 Rain 22 1014 75 10000 4.92 360 12:42 19.10.2022
1350 Clouds 23 1014 74 10000 1.34 351 09:26 19.10.2022
1351 Clouds 25 1014 65 10000 4.02 13 07:51 19.10.2022
1352 Rain 25 1013 76 10000 6.71 337 03:44 19.10.2022
1353 Clouds 27 1012 74 10000 5.14 350 00:21 19.10.2022
1354 Clouds 26 1013 83 9656 5.66 360 22:41 18.10.2022
1355 Mist 26 1013 89 9656 4.63 340 21:36 18.10.2022
1356 Clouds 30 1014 70 10000 4.12 360 20:35 18.10.2022
1357 Clouds 29 1014 74 10000 0 0 19:22 18.10.2022
1358 Rain 25 1014 100 9656 1.79 309 17:20 18.10.2022
1359 Rain 24 1014 100 8047 1.03 20 16:19 18.10.2022
1360 Rain 24 1010 84 10000 1.34 333 13:49 18.10.2022
1361 Rain 24 1009 82 10000 0.45 139 11:48 18.10.2022
1362 Rain 25 1009 79 10000 2.24 108 11:19 18.10.2022
1363 Rain 25 1009 83 10000 0.89 311 09:26 18.10.2022
1364 Clouds 26 1010 82 10000 1.86 312 07:20 18.10.2022
1365 Clouds 28 1007 73 10000 1.34 119 00:49 18.10.2022
1366 Clouds 30 1007 66 10000 1.79 138 21:50 17.10.2022
1367 Clouds 30 1008 66 10000 1.34 49 20:50 17.10.2022
1368 Clouds 29 1011 79 10000 1.34 136 20:30 17.10.2022
1369 Clouds 30 1009 66 10000 0.89 140 19:49 17.10.2022
1370 Clouds 28 1011 71 10000 1.49 245 17:58 17.10.2022
1371 Mist 27 1013 94 6437 0.45 290 16:38 17.10.2022
1372 Haze 23 1013 100 9656 1.54 280 15:28 17.10.2022
1373 Mist 23 1012 100 9656 1.54 230 13:36 17.10.2022
1374 Clouds 24 1010 84 10000 1.19 240 09:46 17.10.2022
1375 Clear 26 1011 82 10000 2.08 25 03:55 17.10.2022
1376 Haze 27 1011 89 10000 1.03 110 23:24 16.10.2022
1377 Clouds 25 1013 100 9656 1.03 20 21:46 16.10.2022
1378 Thunderstorm 25 1013 100 2414 2.06 270 20:28 16.10.2022
1379 Rain 24 1015 100 805 4.63 130 19:45 16.10.2022
1380 Clouds 28 1012 76 10000 2.68 355 17:47 16.10.2022
1381 Rain 25 1014 100 9656 1.34 314 16:32 16.10.2022
1382 Clouds 25 1012 80 10000 1.34 301 15:56 16.10.2022
1383 Clouds 24 1012 100 9656 1.03 340 13:27 16.10.2022
1384 Rain 25 1010 82 10000 0.89 332 12:20 16.10.2022
1385 Rain 26 1011 77 10000 0.45 5 10:27 16.10.2022
1386 Rain 27 1012 78 10000 1.34 323 08:26 16.10.2022
1387 Clouds 31 1010 61 10000 5.81 5 23:47 15.10.2022
1388 Clouds 32 1012 62 10000 4.12 350 22:18 15.10.2022
1389 Smoke 32 1013 66 10000 6.17 350 21:21 15.10.2022
1390 Clouds 32 1014 62 10000 5.66 360 20:23 15.10.2022
1391 Clouds 31 1015 58 10000 2.57 360 18:26 15.10.2022
1392 Clouds 27 1013 71 10000 0.89 277 15:46 15.10.2022
1393 Clouds 23 1012 82 10000 0.45 239 14:21 15.10.2022
1394 Clouds 26 1011 77 10000 2.68 343 11:52 15.10.2022
1395 Rain 27 1011 75 10000 2.24 360 10:26 15.10.2022
1396 Clouds 27 1012 72 10000 4.47 20 08:20 15.10.2022
1397 Clouds 29 1009 74 10000 7.15 5 00:41 15.10.2022
1398 Clouds 30 1009 70 10000 8.49 13 23:25 14.10.2022
1399 Clouds 31 1010 66 10000 8.94 32 22:22 14.10.2022
1400 Clouds 31 1010 66 10000 8.94 32 22:22 14.10.2022
1401 Clouds 32 1011 62 10000 7.15 25 21:27 14.10.2022
1402 Clouds 31 1013 66 10000 3.09 70 19:25 14.10.2022
1403 Clouds 27 1013 89 9656 1.54 320 16:23 14.10.2022
1404 Clouds 24 1011 100 9656 1.03 310 13:21 14.10.2022
1405 Clouds 24 1008 80 10000 0.45 275 11:36 14.10.2022
1406 Clouds 26 1009 74 10000 1.34 340 08:59 14.10.2022
1407 Clouds 28 1010 71 10000 4.02 9 06:53 14.10.2022
1408 Clouds 27 1012 89 10000 5.14 360 06:18 14.10.2022
1409 Clouds 28 1012 83 10000 5.66 360 05:42 14.10.2022
1410 Clouds 28 1010 83 10000 5.66 360 03:24 14.10.2022
1411 Clouds 30 1009 70 8047 1.34 126 23:43 13.10.2022
1412 Clouds 31 1008 57 10000 2.68 96 21:57 13.10.2022
1413 Clouds 31 1011 62 10000 2.06 100 21:20 13.10.2022
1414 Clouds 28 1011 68 10000 0.76 311 19:43 13.10.2022
1415 Clouds 31 1013 62 10000 1.03 130 18:52 13.10.2022
1416 Clouds 29 1013 74 10000 1.03 200 18:21 13.10.2022
1417 Clouds 29 1013 74 10000 1.03 200 18:21 13.10.2022
1418 Clouds 26 1012 94 10000 0.89 202 16:28 13.10.2022
1419 Clouds 22 1011 100 10000 0 0 15:41 13.10.2022
1420 Clouds 22 1011 100 10000 1.54 250 14:18 13.10.2022
1421 Clouds 23 1009 79 10000 0.45 300 12:44 13.10.2022
1422 Clouds 24 1009 79 10000 2.35 240 11:27 13.10.2022
1423 Clouds 25 1011 80 10000 1.89 228 08:50 13.10.2022
1424 Clouds 25 1012 80 10000 0.89 265 07:38 13.10.2022
1425 Clouds 26 1013 100 10000 0.45 94 05:28 13.10.2022
1426 Clouds 30 1011 70 10000 2.57 80 01:41 13.10.2022
1427 Clouds 31 1011 62 10000 3.6 100 00:41 13.10.2022
1428 Clouds 31 1009 58 10000 3.58 99 22:45 12.10.2022
1429 Clouds 32 1012 62 10000 4.12 110 21:48 12.10.2022
1430 Clouds 32 1012 62 10000 4.12 110 21:19 12.10.2022
1431 Clouds 31 1013 66 10000 2.06 160 20:39 12.10.2022
1432 Clouds 30 1014 70 10000 0 0 19:23 12.10.2022
1433 Clouds 28 1014 78 10000 2.06 120 18:18 12.10.2022
1434 Clouds 28 1014 78 10000 1.54 140 17:42 12.10.2022
1435 Clouds 24 1011 81 10000 2.04 235 14:45 12.10.2022
1436 Clouds 24 1011 81 10000 1.49 210 13:54 12.10.2022
1437 Clouds 25 1010 80 10000 1.7 274 11:55 12.10.2022
1438 Clouds 25 1011 79 10000 3.05 235 09:36 12.10.2022
1439 Clouds 25 1012 79 10000 0.45 261 07:42 12.10.2022
1440 Clouds 24 1013 100 10000 1.54 200 06:44 12.10.2022
1441 Clouds 25 1013 94 10000 1.54 210 05:32 12.10.2022
1442 Clouds 29 1010 74 10000 1.54 330 00:32 12.10.2022
1443 Clouds 27 1011 78 10000 1.03 270 21:25 11.10.2022
1444 Clouds 27 1012 78 10000 1.34 355 20:30 11.10.2022
1445 Clouds 27 1013 78 10000 0 0 18:27 11.10.2022
1446 Mist 24 1012 100 9656 1.54 220 16:24 11.10.2022
1447 Clouds 23 1009 82 10000 0.45 254 13:52 11.10.2022
1448 Clouds 23 1009 82 10000 0.89 227 11:32 11.10.2022
1449 Clouds 23 1010 80 10000 8.18 340 10:27 11.10.2022
1450 Clouds 23 1011 77 10000 0.89 236 08:46 11.10.2022
1451 Clouds 25 1014 78 10000 5.14 340 05:25 11.10.2022
1452 Clouds 26 1011 66 10000 6.71 32 01:52 11.10.2022
1453 Clouds 27 1012 69 10000 6.71 5 00:23 11.10.2022
1454 Clouds 29 1014 61 10000 6.26 5 21:18 10.10.2022
1455 Clouds 30 1014 52 10000 5.81 355 19:45 10.10.2022
1456 Clouds 28 1017 69 10000 4.92 338 18:18 10.10.2022
1457 Clouds 25 1016 78 10000 4.92 346 16:39 10.10.2022
1458 Drizzle 22 1016 100 6437 7.72 360 14:31 10.10.2022
1459 Clouds 23 1013 74 10000 1.34 333 12:24 10.10.2022
1460 Clouds 23 1014 75 10000 4.92 350 10:20 10.10.2022
1461 Clouds 26 1015 64 10000 4.92 355 07:47 10.10.2022
1462 Clouds 27 1017 65 10000 4.92 338 05:38 10.10.2022
1463 Clouds 27 1015 65 10000 8.05 355 02:42 10.10.2022
1464 Clouds 28 1015 61 10000 10.29 360 00:25 10.10.2022
1465 Clouds 28 1016 65 10000 9.77 360 22:27 09.10.2022
1466 Clouds 30 1014 54 10000 7.6 355 21:50 09.10.2022
1467 Clouds 28 1016 58 10000 5.81 333 20:54 09.10.2022
1468 Clouds 26 1017 67 10000 7.6 5 19:53 09.10.2022
1469 Clouds 27 1019 74 10000 9.39 360 19:23 09.10.2022
1470 Clouds 27 1019 74 10000 6.71 360 18:28 09.10.2022
1471 Clouds 27 1018 78 10000 2.06 340 16:56 09.10.2022
1472 Clouds 27 1018 78 10000 2.06 340 16:25 09.10.2022
1473 Clouds 23 1017 94 9656 1.54 290 15:36 09.10.2022
1474 Clouds 23 1017 88 9656 1.54 330 14:28 09.10.2022
1475 Clouds 24 1015 76 10000 2.24 355 12:57 09.10.2022
1476 Clouds 24 1015 76 10000 2.24 355 12:57 09.10.2022
1477 Clouds 23 1015 77 10000 4.47 355 11:44 09.10.2022
1478 Clouds 24 1015 77 10000 2.24 336 10:24 09.10.2022
1479 Clouds 24 1018 81 10000 6.73 343 07:57 09.10.2022
1480 Clouds 27 1016 69 10000 7.15 20 03:33 09.10.2022
1481 Clouds 27 1015 69 10000 8.49 360 02:23 09.10.2022
1482 Clouds 26 1015 77 10000 10.24 7 23:56 08.10.2022
1483 Clouds 27 1015 77 10000 10.38 6 22:53 08.10.2022
1484 Clouds 30 1017 62 10000 5.14 310 21:43 08.10.2022
1485 Clouds 30 1017 53 10000 5.36 346 19:57 08.10.2022
1486 Clouds 29 1019 65 10000 4.92 342 18:32 08.10.2022
1487 Clouds 23 1018 77 10000 0.45 280 15:59 08.10.2022
1488 Clouds 22 1018 100 9656 1.54 280 14:42 08.10.2022
1489 Clouds 22 1016 81 10000 4.27 314 12:38 08.10.2022
1490 Clouds 22 1016 77 10000 0.45 264 10:37 08.10.2022
1491 Clouds 24 1017 72 10000 1.34 303 09:52 08.10.2022
1492 Clouds 26 1017 69 10000 3.58 16 08:41 08.10.2022
1493 Clouds 27 1016 64 10000 4.47 17 03:50 08.10.2022
1494 Clouds 29 1016 65 10000 6.17 360 00:35 08.10.2022
1495 Clouds 29 1016 70 10000 6.17 10 23:21 07.10.2022
1496 Clouds 30 1017 62 10000 6.17 10 22:40 07.10.2022
1497 Clouds 27 1017 76 10000 6.6 10 20:50 07.10.2022
1498 Clouds 29 1019 74 10000 3.58 16 19:32 07.10.2022
1499 Clouds 26 1018 72 10000 0.89 180 17:47 07.10.2022
1500 Clouds 22 1019 100 10000 2.68 213 16:40 07.10.2022
1501 Clouds 22 1017 82 10000 0.89 187 14:55 07.10.2022
1502 Clouds 23 1016 80 10000 1.34 234 12:37 07.10.2022
1503 Clouds 23 1016 81 10000 1.34 315 09:37 07.10.2022
1504 Clouds 23 1016 81 10000 1.79 346 09:19 07.10.2022
1505 Clouds 24 1017 76 10000 1.34 252 06:58 07.10.2022
1506 Clouds 27 1016 69 10000 3.6 360 01:34 07.10.2022
1507 Clouds 27 1015 74 10000 5.52 19 22:51 06.10.2022
1508 Clouds 28 1015 63 10000 1.79 39 21:46 06.10.2022
1509 Clouds 27 1017 74 10000 3.09 70 21:25 06.10.2022
1510 Clouds 27 1018 74 10000 3.58 9 20:30 06.10.2022
1511 Clouds 25 1019 94 10000 2.68 271 18:39 06.10.2022
1512 Clouds 23 1019 100 10000 1.79 243 18:19 06.10.2022
1513 Clouds 22 1018 100 9656 1.54 250 15:33 06.10.2022
1514 Clouds 22 1014 76 10000 2.24 288 11:45 06.10.2022
1515 Clouds 24 1015 76 10000 0.89 318 07:35 06.10.2022
1516 Clouds 24 1015 94 10000 0.45 312 03:37 06.10.2022
1517 Clouds 26 1014 83 10000 4.12 360 00:39 06.10.2022
1518 Clouds 27 1015 83 10000 5.14 10 21:41 05.10.2022
1519 Clouds 27 1017 89 9656 3.6 360 19:30 05.10.2022
1520 Mist 24 1017 100 2414 2.24 329 17:36 05.10.2022
1521 Mist 23 1016 100 1609 1.03 20 16:20 05.10.2022
1522 Clouds 25 1013 79 10000 1.34 311 14:47 05.10.2022
1523 Clouds 23 1015 100 10000 1.54 300 14:19 05.10.2022
1524 Clouds 23 1015 100 10000 1.54 300 14:19 05.10.2022
1525 Clouds 24 1013 78 10000 0.45 355 12:23 05.10.2022
1526 Clouds 24 1014 80 10000 1.34 270 09:39 05.10.2022
1527 Clouds 24 1014 78 10000 0.45 261 07:44 05.10.2022
1528 Clouds 26 1016 78 10000 1.54 60 06:19 05.10.2022
1529 Clouds 26 1015 78 10000 3.09 30 04:21 05.10.2022
1530 Clouds 30 1014 58 10000 3.6 10 00:50 05.10.2022
1531 Clouds 30 1014 58 10000 4.02 57 00:27 05.10.2022
1532 Clouds 31 1014 62 10000 4.02 52 22:38 04.10.2022
1533 Clouds 30 1016 62 10000 1.79 43 20:39 04.10.2022
1534 Clear 29 1015 58 10000 2.24 82 18:59 04.10.2022
1535 Clouds 28 1017 69 10000 2.06 360 18:38 04.10.2022
1536 Clear 28 1015 70 10000 0.45 355 17:48 04.10.2022
1537 Clear 26 1016 83 10000 1.79 345 16:35 04.10.2022
1538 Clear 22 1015 100 9656 0 0 12:58 04.10.2022
1539 Clouds 23 1014 77 10000 0.45 277 09:46 04.10.2022
1540 Clear 24 1016 78 10000 0.89 262 07:24 04.10.2022
1541 Clouds 27 1015 74 10000 3.13 17 02:27 04.10.2022
1542 Clouds 30 1015 58 10000 5.14 360 23:41 03.10.2022
1543 Clouds 30 1014 51 10000 4.92 49 21:53 03.10.2022
1544 Clouds 30 1017 58 10000 1.54 10 21:23 03.10.2022
1545 Clouds 30 1016 46 10000 2.24 5 19:52 03.10.2022
1546 Clouds 29 1018 58 10000 2.06 280 18:28 03.10.2022
1547 Clouds 26 1018 73 10000 2.24 292 17:25 03.10.2022
1548 Clouds 24 1016 69 10000 2.68 282 15:47 03.10.2022
1549 Clouds 22 1015 78 10000 1.34 309 13:51 03.10.2022
1550 Clouds 22 1015 78 10000 2.95 332 12:28 03.10.2022
1551 Clouds 23 1016 74 10000 0.89 278 10:39 03.10.2022
1552 Clouds 25 1016 68 10000 0.89 298 09:37 03.10.2022
1553 Clouds 26 1018 69 10000 3.6 20 06:35 03.10.2022
1554 Clouds 27 1014 58 10000 2.68 63 02:53 03.10.2022
1555 Clouds 30 1016 54 10000 4.63 30 22:35 02.10.2022
1556 Clouds 26 1016 74 10000 4.05 19 20:51 02.10.2022
1557 Clouds 29 1018 65 10000 1.79 340 18:42 02.10.2022
1558 Clouds 28 1018 65 10000 2.68 345 17:52 02.10.2022
1559 Clouds 23 1017 78 10000 1.54 300 16:33 02.10.2022
1560 Clouds 22 1015 71 10000 1.79 304 15:56 02.10.2022
1561 Clouds 21 1015 88 9656 1.34 277 13:52 02.10.2022
1562 Clouds 21 1015 88 9656 1.03 300 13:21 02.10.2022
1563 Clouds 22 1013 76 10000 0.45 300 12:30 02.10.2022
1564 Clouds 22 1013 76 10000 0.45 287 11:40 02.10.2022
1565 Clouds 22 1013 76 10000 0.89 285 11:19 02.10.2022
1566 Clouds 23 1014 78 10000 0.45 272 09:28 02.10.2022
1567 Clouds 25 1014 72 10000 1.34 318 07:41 02.10.2022
1568 Clouds 25 1014 77 10000 3.89 5 02:55 02.10.2022
1569 Clouds 29 1011 46 10000 4.02 28 00:50 02.10.2022
1570 Clouds 29 1013 48 10000 3.6 10 00:21 02.10.2022
1571 Clouds 30 1014 51 10000 5.14 340 22:43 01.10.2022
1572 Clouds 27 1013 66 10000 4.81 14 20:53 01.10.2022
1573 Clouds 26 1015 68 10000 3.07 355 18:50 01.10.2022
1574 Clouds 23 1015 88 8047 1.34 302 16:36 01.10.2022
1575 Clouds 21 1013 88 9656 1.54 280 14:41 01.10.2022
1576 Clouds 22 1013 88 9656 2.06 300 13:31 01.10.2022
1577 Clouds 22 1011 76 10000 0.45 273 12:33 01.10.2022
1578 Clouds 21 1011 76 10000 0.45 313 11:21 01.10.2022
1579 Clouds 22 1011 74 10000 3.58 316 10:32 01.10.2022
1580 Clouds 23 1012 68 10000 0.89 326 09:28 01.10.2022
1581 Clouds 23 1012 66 10000 1.34 329 08:58 01.10.2022
1582 Clouds 26 1014 69 10000 5.14 360 05:28 01.10.2022
1583 Clouds 26 1013 69 10000 5.14 360 03:34 01.10.2022
1584 Clouds 29 1012 54 10000 4.63 350 00:29 01.10.2022
1585 Clouds 27 1012 64 10000 8.3 8 22:48 30.09.2022
1586 Clouds 31 1014 45 10000 3.6 20 21:31 30.09.2022
1587 Clear 27 1014 63 10000 7.88 0 20:44 30.09.2022
1588 Clouds 30 1015 51 10000 1.79 86 20:18 30.09.2022
1589 Clear 29 1016 58 10000 0 0 17:38 30.09.2022
1590 Clouds 24 1014 69 10000 0.45 346 15:58 30.09.2022
1591 Clear 21 1015 94 10000 0.45 278 13:34 30.09.2022
1592 Clouds 22 1013 76 10000 0.89 270 11:58 30.09.2022
1593 Clouds 22 1013 76 10000 0.89 282 11:28 30.09.2022
1594 Clouds 22 1014 70 10000 1.34 278 08:37 30.09.2022
1595 Clear 25 1017 65 10000 5.14 360 06:26 30.09.2022
1596 Clouds 26 1015 69 10000 5.36 360 02:42 30.09.2022
1597 Clouds 29 1015 65 10000 9.39 355 23:35 29.09.2022
1598 Clouds 29 1016 54 10000 10.29 360 21:29 29.09.2022
1599 Clouds 27 1016 66 10000 10.61 355 20:57 29.09.2022
1600 Clouds 28 1018 61 10000 4.63 310 18:45 29.09.2022
1601 Clouds 26 1018 69 10000 6.69 330 17:32 29.09.2022
1602 Clouds 25 1018 69 10000 6.26 333 16:28 29.09.2022
1603 Clouds 24 1018 78 10000 2.06 300 15:36 29.09.2022
1604 Clouds 24 1017 73 10000 1.03 300 14:31 29.09.2022
1605 Clouds 25 1016 75 10000 8.25 332 10:33 29.09.2022
1606 Clouds 27 1016 57 10000 5.36 335 07:22 29.09.2022
1607 Clouds 26 1014 62 10000 4.02 355 02:51 29.09.2022
1608 Clouds 29 1013 57 10000 6.71 5 23:56 28.09.2022
1609 Clouds 29 1013 57 10000 6.71 5 23:56 28.09.2022
1610 Clouds 28 1016 74 10000 5.14 350 22:44 28.09.2022
1611 Clouds 29 1017 70 10000 5.81 11 21:29 28.09.2022
1612 Clouds 29 1018 70 10000 7.15 17 20:24 28.09.2022
1613 Clouds 28 1018 69 10000 4.63 350 18:41 28.09.2022
1614 Clouds 25 1017 83 9656 6.26 360 15:32 28.09.2022
1615 Clouds 24 1016 83 9656 2.57 340 13:27 28.09.2022
1616 Clouds 25 1014 74 10000 2.68 343 11:18 28.09.2022
1617 Clouds 26 1014 73 10000 4.47 11 09:18 28.09.2022
1618 Clear 26 1015 70 10000 4.92 13 07:20 28.09.2022
1619 Clouds 26 1014 73 10000 5.14 360 03:18 28.09.2022
1620 Clouds 29 1013 65 10000 5.81 5 01:35 28.09.2022
1621 Clouds 31 1013 55 10000 7.6 30 23:27 27.09.2022
1622 Clouds 31 1011 50 10000 7.6 17 21:47 27.09.2022
1623 Clear 31 1015 66 10000 3.09 340 20:39 27.09.2022
1624 Clear 28 1014 70 10000 3 352 19:48 27.09.2022
1625 Clear 27 1015 72 10000 2.33 351 18:45 27.09.2022
1626 Clear 26 1015 75 10000 2.09 322 17:45 27.09.2022
1627 Clear 23 1013 100 10000 0.89 273 15:40 27.09.2022
1628 Clouds 23 1011 81 10000 3.94 317 14:55 27.09.2022
1629 Clear 23 1013 100 9656 1.54 280 12:53 27.09.2022
1630 Clouds 25 1011 78 10000 0.45 232 11:34 27.09.2022
1631 Clouds 26 1012 67 10000 1.79 341 08:50 27.09.2022
1632 Clouds 25 1012 61 10000 2.68 338 06:46 27.09.2022
1633 Clouds 28 1009 66 10000 5.81 22 01:57 27.09.2022
1634 Clouds 28 1010 74 10000 6.26 38 01:29 27.09.2022
1635 Clouds 30 1011 66 10000 7.72 350 23:26 26.09.2022
1636 Clouds 31 1011 62 10000 4.63 10 22:38 26.09.2022
1637 Clear 30 1010 63 7993 4.92 52 20:46 26.09.2022
1638 Clouds 30 1014 70 10000 4.12 360 19:31 26.09.2022
1639 Clouds 29 1014 79 10000 3.13 27 18:32 26.09.2022
1640 Clouds 24 1013 100 9656 0.89 294 16:36 26.09.2022
1641 Clouds 23 1012 100 9656 1.03 270 14:37 26.09.2022
1642 Clouds 25 1009 80 10000 1.34 336 11:30 26.09.2022
1643 Clouds 25 1010 79 3955 1.79 19 10:39 26.09.2022
1644 Clouds 25 1010 79 6958 0.89 5 10:20 26.09.2022
1645 Clouds 24 1010 81 6958 2.68 98 09:55 26.09.2022
1646 Clouds 24 1010 81 4693 1.98 308 09:24 26.09.2022
1647 Clouds 25 1011 81 10000 0.45 279 07:56 26.09.2022
1648 Clouds 27 1009 71 10000 0.45 342 02:54 26.09.2022
1649 Clouds 30 1008 62 10000 2.24 26 23:50 25.09.2022
1650 Clouds 26 1012 94 9656 3.09 350 22:29 25.09.2022
1651 Clouds 25 1012 100 9656 1.79 13 21:35 25.09.2022
1652 Clouds 26 1010 79 10000 0.89 342 20:47 25.09.2022
1653 Clouds 26 1012 79 10000 2.24 293 19:43 25.09.2022
1654 Clouds 26 1013 82 10000 1.34 321 18:43 25.09.2022
1655 Clouds 24 1015 100 4828 1.34 305 18:20 25.09.2022
1656 Clouds 24 1015 100 3219 0.45 141 16:36 25.09.2022
1657 Haze 24 1014 100 1609 3.09 50 15:44 25.09.2022
1658 Clouds 24 1012 100 9656 0.45 265 14:22 25.09.2022
1659 Clouds 24 1012 100 9656 1.34 215 12:55 25.09.2022
1660 Clouds 26 1011 79 10000 0.45 277 10:32 25.09.2022
1661 Clouds 26 1012 78 7714 0.45 286 08:24 25.09.2022
1662 Clouds 26 1015 89 10000 0.45 337 05:38 25.09.2022
1663 Clouds 29 1010 65 10000 2.68 48 01:55 25.09.2022
1664 Clouds 32 1014 58 10000 2.57 50 22:35 24.09.2022
1665 Clouds 31 1013 60 10000 1.34 43 20:55 24.09.2022
1666 Clouds 29 1016 74 10000 1.34 237 19:22 24.09.2022
1667 Clouds 27 1016 78 10000 1.79 299 17:19 24.09.2022
1668 Clouds 25 1016 88 9656 1.79 294 16:24 24.09.2022
1669 Clouds 23 1015 100 10000 1.54 270 15:20 24.09.2022
1670 Clouds 23 1014 100 10000 0.89 275 13:25 24.09.2022
1671 Clouds 24 1012 82 10000 0.89 268 12:49 24.09.2022
1672 Clouds 25 1012 80 10000 0.89 285 10:38 24.09.2022
1673 Clouds 25 1013 79 10000 1.34 298 09:35 24.09.2022
1674 Clouds 26 1013 77 10000 0.89 298 08:43 24.09.2022
1675 Clouds 25 1015 85 10000 2.56 347 06:53 24.09.2022
1676 Clouds 27 1014 83 10000 3.6 360 04:35 24.09.2022
1677 Clouds 28 1012 78 10000 5.66 10 01:45 24.09.2022
1678 Clouds 31 1013 66 10000 4.63 10 22:24 23.09.2022
1679 Clouds 31 1014 66 10000 1.54 10 21:26 23.09.2022
1680 Clouds 31 1012 56 10000 2.68 25 20:55 23.09.2022
1681 Clouds 31 1013 57 10000 1.79 22 19:46 23.09.2022
1682 Clouds 29 1015 70 10000 0 0 18:26 23.09.2022
1683 Clouds 23 1011 82 10000 0.45 205 13:44 23.09.2022
1684 Clouds 23 1011 82 10000 0.45 205 13:44 23.09.2022
1685 Clouds 25 1011 75 10000 1.79 355 10:26 23.09.2022
1686 Clouds 25 1012 72 8608 2.24 302 08:57 23.09.2022
1687 Clouds 25 1013 83 10000 4.18 355 04:56 23.09.2022
1688 Clouds 30 1012 62 10000 5.14 10 23:30 22.09.2022
1689 Clouds 31 1012 58 10000 5.66 10 22:29 22.09.2022
1690 Clouds 31 1010 51 10000 4.47 26 21:47 22.09.2022
1691 Clouds 28 1012 71 10000 3.61 1 20:44 22.09.2022
1692 Clouds 30 1015 66 10000 1.54 260 19:20 22.09.2022
1693 Clear 27 1014 78 10000 1.79 263 16:53 22.09.2022
1694 Clear 23 1010 82 10000 0.89 298 11:36 22.09.2022
1695 Clouds 23 1011 81 10000 3.96 326 10:20 22.09.2022
1696 Clear 26 1012 74 10000 0.45 348 08:22 22.09.2022
1697 Clouds 27 1014 83 10000 3.09 360 06:21 22.09.2022
1698 Clouds 28 1012 74 10000 4.47 43 02:39 22.09.2022
1699 Clouds 30 1013 66 10000 5.36 34 22:32 21.09.2022
1700 Clouds 30 1013 66 10000 5.14 350 21:38 21.09.2022
1701 Clouds 29 1015 70 10000 3.09 350 19:30 21.09.2022
1702 Clouds 29 1015 70 10000 3.09 350 19:30 21.09.2022
1703 Clouds 29 1013 62 10000 1.79 26 17:46 21.09.2022
1704 Clouds 25 1014 83 10000 1.54 320 16:22 21.09.2022
1705 Clouds 23 1011 81 10000 0.89 304 13:57 21.09.2022
1706 Clouds 23 1011 82 10000 0.45 297 11:44 21.09.2022
1707 Clouds 23 1011 82 10000 3.69 333 11:22 21.09.2022
1708 Clouds 25 1011 77 10000 3.78 337 09:44 21.09.2022
1709 Clouds 25 1012 78 10000 0.45 334 08:50 21.09.2022
1710 Clouds 27 1013 75 10000 1.34 347 05:53 21.09.2022
1711 Clouds 28 1011 70 10000 4.02 13 02:42 21.09.2022
1712 Clouds 28 1013 78 10000 4.02 13 02:19 21.09.2022
1713 Clouds 29 1012 79 10000 5.14 20 00:20 21.09.2022
1714 Clouds 30 1013 70 10000 5.66 360 22:30 20.09.2022
1715 Clouds 30 1015 74 10000 5.66 360 20:37 20.09.2022
1716 Clouds 29 1015 79 10000 5.14 10 19:24 20.09.2022
1717 Clouds 25 1012 81 10000 0.89 198 15:58 20.09.2022
1718 Clouds 23 1014 100 9656 1.03 280 14:34 20.09.2022
1719 Clouds 24 1012 83 10000 2.63 321 12:41 20.09.2022
1720 Clouds 25 1012 83 10000 0.89 324 08:51 20.09.2022
1721 Clear 25 1014 100 10000 2.06 310 08:25 20.09.2022
1722 Clouds 26 1013 100 9656 2.06 350 04:40 20.09.2022
1723 Clouds 27 1012 89 9656 2.06 360 02:34 20.09.2022
1724 Clouds 28 1010 74 10000 2.68 5 22:46 19.09.2022
1725 Clouds 26 1014 100 10000 2.68 344 21:38 19.09.2022
1726 Clouds 26 1012 82 10000 1.79 316 20:45 19.09.2022
1727 Clouds 25 1015 100 9656 2.57 320 19:27 19.09.2022
1728 Clouds 23 1015 100 10000 2.06 330 17:37 19.09.2022
1729 Clouds 24 1010 83 10000 1.79 302 13:53 19.09.2022
1730 Clouds 24 1010 83 10000 0.89 283 12:48 19.09.2022
1731 Clouds 25 1010 83 10000 0.45 314 10:31 19.09.2022
1732 Clouds 26 1011 82 10000 1.34 344 08:42 19.09.2022
1733 Clouds 26 1012 100 10000 0.45 274 04:38 19.09.2022
1734 Clouds 28 1011 83 9656 4.02 5 01:18 19.09.2022
1735 Clouds 30 1010 67 10000 4.47 5 22:49 18.09.2022
1736 Clouds 30 1013 74 10000 5.14 20 21:30 18.09.2022
1737 Clouds 26 1012 86 10000 3.72 348 19:56 18.09.2022
1738 Clouds 27 1013 100 10000 2.68 5 17:53 18.09.2022
1739 Clouds 27 1013 100 10000 2.68 5 17:53 18.09.2022
1740 Clouds 26 1011 83 10000 1.34 360 16:59 18.09.2022
1741 Clouds 24 1012 100 9656 1.79 321 14:52 18.09.2022
1742 Clouds 24 1012 100 9656 2.57 310 13:46 18.09.2022
1743 Clouds 24 1010 85 10000 0.89 317 12:28 18.09.2022
1744 Clouds 25 1009 84 9276 1.34 317 10:28 18.09.2022
1745 Clouds 26 1011 89 10000 2.57 360 03:35 18.09.2022
1746 Clouds 27 1011 83 10000 4.12 20 01:22 18.09.2022
1747 Clouds 27 1011 83 9656 5.66 40 23:36 17.09.2022
1748 Clouds 28 1011 69 10000 2.68 13 20:56 17.09.2022
1749 Clouds 27 1014 94 9656 2.57 360 19:40 17.09.2022
1750 Clouds 27 1014 94 9656 2.57 360 19:40 17.09.2022
1751 Clouds 27 1014 94 9656 3.6 20 18:30 17.09.2022
1752 Clouds 24 1012 100 8047 3.09 360 14:27 17.09.2022
1753 Clouds 23 1012 100 8047 3.09 340 13:32 17.09.2022
1754 Clouds 25 1010 81 9765 1.34 334 10:49 17.09.2022
1755 Clouds 26 1012 81 10000 2.24 355 07:28 17.09.2022
1756 Clouds 25 1014 100 10000 3.09 340 06:21 17.09.2022
1757 Mist 24 1013 100 4828 2.57 310 23:41 16.09.2022
1758 Mist 24 1014 100 6437 4.12 330 22:27 16.09.2022
1759 Mist 24 1014 100 4828 3.09 360 20:54 16.09.2022
1760 Mist 24 1014 100 4828 3.09 360 20:54 16.09.2022
1761 Mist 24 1015 100 4828 2.68 334 19:35 16.09.2022
1762 Mist 22 1014 100 9656 1.79 340 16:24 16.09.2022
1763 Clouds 23 1011 84 10000 2.24 328 14:52 16.09.2022
1764 Mist 22 1013 100 9656 1.79 314 13:21 16.09.2022
1765 Clouds 22 1012 84 10000 3.13 290 10:24 16.09.2022
1766 Clouds 25 1013 82 10000 1.79 327 07:26 16.09.2022
1767 Clouds 25 1013 82 10000 1.34 306 06:48 16.09.2022
1768 Clouds 23 1015 91 10000 4.39 310 05:57 16.09.2022
1769 Clouds 25 1013 100 10000 0.89 305 02:30 16.09.2022
1770 Clouds 26 1012 80 7169 2.68 355 21:47 15.09.2022
1771 Clouds 24 1014 100 10000 2.68 332 20:38 15.09.2022
1772 Clouds 23 1014 100 9656 2.24 328 19:31 15.09.2022
1773 Mist 23 1014 100 3219 2.57 340 17:41 15.09.2022
1774 Mist 23 1014 100 3219 2.57 340 17:22 15.09.2022
1775 Mist 23 1013 100 4023 1.34 315 15:38 15.09.2022
1776 Clouds 23 1012 100 9656 2.06 320 12:50 15.09.2022
1777 Clouds 25 1010 78 10000 2.24 315 11:48 15.09.2022
1778 Clouds 27 1010 71 10000 2.24 12 09:45 15.09.2022
1779 Clouds 27 1012 72 10000 1.34 19 06:58 15.09.2022
1780 Clouds 28 1010 69 5540 3.13 61 03:46 15.09.2022
1781 Clouds 30 1008 60 10000 4.02 337 22:57 14.09.2022
1782 Clouds 25 1013 100 10000 4.92 360 20:31 14.09.2022
1783 Clouds 24 1014 100 8047 4.92 360 19:32 14.09.2022
1784 Mist 23 1014 100 1207 5.14 360 17:37 14.09.2022
1785 Clouds 26 1013 100 10000 1.34 258 16:36 14.09.2022
1786 Mist 24 1011 100 8047 1.54 80 14:51 14.09.2022
1787 Clouds 25 1009 82 10000 1.34 71 12:38 14.09.2022
1788 Clouds 25 1009 82 10000 0.45 252 09:52 14.09.2022
1789 Clouds 26 1010 81 10000 2.72 345 08:28 14.09.2022
1790 Clouds 27 1011 72 10000 0.45 19 06:49 14.09.2022
1791 Clouds 25 1012 100 10000 1.54 350 06:28 14.09.2022
1792 Clouds 27 1010 83 10000 3.09 10 02:25 14.09.2022
1793 Clouds 28 1010 78 10000 5.14 30 01:34 14.09.2022
1794 Clouds 25 1010 86 10000 1.37 258 00:52 14.09.2022
1795 Clouds 25 1010 85 10000 1.88 278 23:54 13.09.2022
1796 Clouds 27 1010 83 10000 5.14 10 23:36 13.09.2022
1797 Clouds 27 1010 83 10000 5.14 10 23:18 13.09.2022
1798 Clouds 27 1011 94 8047 3.6 20 22:26 13.09.2022
1799 Mist 25 1012 100 8047 3.58 50 21:35 13.09.2022
1800 Clouds 29 1013 74 10000 0 0 18:54 13.09.2022
1801 Clouds 24 1012 100 9656 2.68 226 16:34 13.09.2022
1802 Clouds 23 1012 100 9656 1.79 233 15:18 13.09.2022
1803 Mist 24 1012 100 3219 1.79 97 13:31 13.09.2022
1804 Clouds 25 1010 81 10000 0.89 260 09:58 13.09.2022
1805 Clouds 26 1012 75 10000 1.34 213 07:47 13.09.2022
1806 Clouds 28 1011 78 10000 5.14 10 02:20 13.09.2022
1807 Clouds 29 1012 70 10000 7.2 360 23:21 12.09.2022
1808 Clouds 29 1013 79 10000 6.26 36 22:26 12.09.2022
1809 Clouds 26 1014 89 9656 2.06 360 20:54 12.09.2022
1810 Clouds 28 1016 78 10000 4.12 70 19:31 12.09.2022
1811 Clouds 30 1014 64 10000 3.58 24 17:47 12.09.2022
1812 Clouds 23 1015 100 10000 0.45 316 15:40 12.09.2022
1813 Clouds 23 1015 100 10000 0 0 12:26 12.09.2022
1814 Clouds 24 1016 83 10000 2.06 360 10:27 12.09.2022
1815 Clouds 27 1017 78 10000 3.09 360 07:21 12.09.2022
1816 Clouds 28 1016 74 9656 2.06 360 04:32 12.09.2022
1817 Clouds 30 1014 70 9656 4.12 360 00:42 12.09.2022
1818 Clouds 30 1013 62 10000 3.13 21 22:45 11.09.2022
1819 Clouds 30 1015 70 10000 2.68 75 21:25 11.09.2022
1820 Clouds 31 1016 70 10000 1.03 70 20:43 11.09.2022
1821 Clouds 29 1017 79 10000 1.03 210 19:27 11.09.2022
1822 Clouds 30 1015 61 10000 0.45 146 18:58 11.09.2022
1823 Clouds 28 1017 78 10000 0 0 17:26 11.09.2022
1824 Clouds 26 1014 78 10000 0.45 288 15:46 11.09.2022
1825 Clouds 23 1014 100 9656 0 0 13:19 11.09.2022
1826 Clouds 23 1013 81 10000 0.45 14 10:51 11.09.2022
1827 Clouds 26 1013 72 10000 3.58 300 07:49 11.09.2022
1828 Clouds 28 1013 83 10000 2.57 50 04:36 11.09.2022
1829 Clouds 32 1008 57 10000 2.24 63 23:50 10.09.2022
1830 Clouds 32 1011 66 10000 2.57 100 22:21 10.09.2022
1831 Clouds 32 1012 62 10000 1.54 100 20:24 10.09.2022
1832 Clouds 30 1013 74 10000 1.54 110 19:42 10.09.2022
1833 Clouds 30 1013 74 10000 1.54 110 19:24 10.09.2022
1834 Clouds 28 1013 78 10000 0.89 204 17:19 10.09.2022
1835 Clouds 24 1011 100 8047 1.54 260 15:35 10.09.2022
1836 Clouds 24 1009 100 9656 1.54 300 13:29 10.09.2022
1837 Clouds 25 1007 79 10000 1.29 238 12:26 10.09.2022
1838 Clouds 25 1007 81 10000 1.62 235 10:26 10.09.2022
1839 Clouds 26 1008 80 10000 1.98 234 08:41 10.09.2022
1840 Clouds 26 1008 81 10000 0.45 202 08:20 10.09.2022
1841 Clouds 27 1007 83 10000 2.06 80 03:42 10.09.2022
1842 Clouds 31 1007 62 10000 4.12 60 23:36 09.09.2022
1843 Clouds 30 1007 70 10000 2.57 80 22:31 09.09.2022
1844 Clouds 31 1006 57 10000 1.34 238 20:49 09.09.2022
1845 Clouds 31 1007 60 10000 0.45 92 19:52 09.09.2022
1846 Clouds 30 1010 70 10000 2.06 190 19:22 09.09.2022
1847 Clouds 27 1009 89 10000 0.89 203 16:52 09.09.2022
1848 Clouds 23 1007 100 9656 0 0 14:42 09.09.2022
1849 Clear 23 1007 100 9656 1.03 200 13:18 09.09.2022
1850 Clouds 24 1008 100 9656 1.54 220 10:37 09.09.2022
1851 Clouds 25 1010 100 10000 1.54 240 07:24 09.09.2022
1852 Clouds 25 1010 100 10000 1.54 240 07:24 09.09.2022
1853 Clouds 25 1010 100 10000 1.54 240 07:24 09.09.2022
1854 Clouds 27 1007 83 10000 6.17 340 03:31 09.09.2022
1855 Clouds 30 1008 70 9656 3.13 27 22:33 08.09.2022
1856 Clouds 30 1006 65 10000 0.89 315 21:51 08.09.2022
1857 Clouds 30 1008 64 10000 1.79 202 20:46 08.09.2022
1858 Clouds 29 1011 74 10000 2.06 160 20:24 08.09.2022
1859 Clouds 28 1011 83 9656 0.89 194 18:34 08.09.2022
1860 Clouds 27 1009 77 10000 0.89 241 16:49 08.09.2022
1861 Clouds 25 1009 84 10000 2.42 267 14:50 08.09.2022
1862 Clouds 23 1011 100 9656 1.54 300 13:27 08.09.2022
1863 Clouds 24 1009 84 10000 0.89 298 12:35 08.09.2022
1864 Clouds 24 1010 83 9544 0.45 295 10:58 08.09.2022
1865 Clouds 25 1011 83 10000 0.89 298 09:26 08.09.2022
1866 Clouds 25 1014 100 8047 4.63 20 06:43 08.09.2022
1867 Clouds 28 1012 83 9656 2.68 344 03:18 08.09.2022
1868 Clouds 29 1012 79 9656 3.09 50 02:36 08.09.2022
1869 Clouds 29 1012 79 9656 3.09 50 02:18 08.09.2022
1870 Clouds 32 1010 55 10000 4.02 84 22:55 07.09.2022
1871 Clouds 32 1014 58 10000 3.58 55 21:43 07.09.2022
1872 Clouds 32 1014 58 10000 4.02 90 21:20 07.09.2022
1873 Clouds 31 1014 66 10000 2.57 70 20:19 07.09.2022
1874 Clouds 30 1015 70 10000 2.06 180 18:40 07.09.2022
1875 Clouds 24 1015 100 10000 1.34 258 15:21 07.09.2022
1876 Clouds 25 1013 80 10000 0.45 168 10:51 07.09.2022
1877 Clouds 25 1014 80 10000 2.94 286 10:30 07.09.2022
1878 Clouds 26 1015 79 10000 0.45 194 07:43 07.09.2022
1879 Clouds 26 1014 78 10000 1.34 272 04:46 07.09.2022
1880 Clouds 30 1013 74 10000 3.13 81 00:26 07.09.2022
1881 Clouds 31 1012 58 10000 4.02 78 21:47 06.09.2022
1882 Clouds 31 1015 66 9656 4.63 70 21:27 06.09.2022
1883 Clouds 30 1014 65 10000 0.89 64 18:55 06.09.2022
1884 Clouds 28 1016 83 9656 2.68 79 18:27 06.09.2022
1885 Clouds 27 1015 94 6437 0.45 265 17:23 06.09.2022
1886 Mist 25 1015 100 4828 0.45 202 16:40 06.09.2022
1887 Mist 24 1014 100 4023 2.57 90 15:23 06.09.2022
1888 Clouds 24 1011 83 10000 0.45 161 13:46 06.09.2022
1889 Mist 24 1013 100 8047 0.45 161 13:25 06.09.2022
1890 Clouds 25 1011 82 10000 0.89 260 12:37 06.09.2022
1891 Clouds 25 1012 81 10000 1.34 254 10:46 06.09.2022
1892 Clouds 26 1012 80 10000 1.34 238 08:53 06.09.2022
1893 Clouds 26 1012 79 10000 0.89 267 07:49 06.09.2022
1894 Clouds 27 1011 75 10000 0.45 128 03:41 06.09.2022
1895 Clouds 29 1012 74 10000 2.24 111 23:28 05.09.2022
1896 Clouds 30 1012 70 9656 3.6 80 22:30 05.09.2022
1897 Clouds 28 1012 77 10000 1.02 123 20:52 05.09.2022
1898 Clouds 27 1012 82 10000 0.94 354 19:50 05.09.2022
1899 Clouds 29 1012 62 10000 1.34 173 18:49 05.09.2022
1900 Clouds 28 1014 74 10000 0 0 18:22 05.09.2022
1901 Clouds 26 1012 77 10000 0.95 312 16:53 05.09.2022
1902 Clouds 25 1011 82 10000 0.89 263 15:50 05.09.2022
1903 Clouds 23 1012 100 10000 1.54 190 13:26 05.09.2022
1904 Clouds 24 1010 83 10000 0.45 228 12:28 05.09.2022
1905 Clouds 25 1010 82 10000 1.79 296 10:18 05.09.2022
1906 Clouds 26 1013 100 8047 0.89 275 06:42 05.09.2022
1907 Clouds 27 1011 83 9656 1.79 61 02:42 05.09.2022
1908 Clouds 30 1011 70 10000 4.02 69 23:26 04.09.2022
1909 Clouds 29 1012 70 10000 3.09 70 22:27 04.09.2022
1910 Clouds 30 1013 70 10000 2.68 63 21:31 04.09.2022
1911 Clouds 29 1014 70 10000 1.54 100 19:38 04.09.2022
1912 Clouds 27 1014 78 10000 1.79 212 18:19 04.09.2022
1913 Clouds 26 1014 94 10000 1.54 280 16:44 04.09.2022
1914 Clouds 23 1013 100 9656 1.03 260 14:30 04.09.2022
1915 Clouds 23 1013 100 8047 0.45 265 13:28 04.09.2022
1916 Clouds 23 1010 84 5880 1.3 315 11:54 04.09.2022
1917 Clouds 23 1010 84 5441 0.45 116 10:47 04.09.2022
1918 Clouds 25 1011 83 4855 1.79 159 08:20 04.09.2022
1919 Thunderstorm 26 1013 94 10000 4.12 320 05:19 04.09.2022
1920 Clouds 28 1009 69 10000 4.02 5 00:47 04.09.2022
1921 Clouds 27 1012 94 9656 3.13 355 22:22 03.09.2022
1922 Clouds 28 1013 89 10000 2.24 32 21:23 03.09.2022
1923 Drizzle 25 1014 100 8047 3.6 330 19:39 03.09.2022
1924 Clouds 24 1013 100 8047 2.68 331 17:26 03.09.2022
1925 Clouds 24 1013 100 8047 3.13 281 16:27 03.09.2022
1926 Clouds 24 1012 100 1609 2.68 315 14:45 03.09.2022
1927 Mist 24 1011 100 4828 2.06 280 13:58 03.09.2022
1928 Clouds 25 1009 83 6433 2.68 338 12:19 03.09.2022
1929 Clouds 25 1009 81 10000 0.45 355 10:27 03.09.2022
1930 Clouds 25 1010 80 8706 1.34 316 08:27 03.09.2022
1931 Clouds 26 1011 81 7808 0.89 341 06:58 03.09.2022
1932 Clouds 28 1011 83 10000 2.57 350 04:33 03.09.2022
1933 Clouds 31 1009 70 10000 6.26 61 23:55 02.09.2022
1934 Clouds 31 1008 63 10000 5.36 15 22:45 02.09.2022
1935 Clouds 32 1009 60 10000 5.36 41 20:59 02.09.2022
1936 Clouds 31 1012 66 10000 7.2 360 20:27 02.09.2022
1937 Clouds 31 1010 66 10000 5.81 21 19:00 02.09.2022
1938 Clouds 30 1012 79 10000 5.81 15 18:28 02.09.2022
1939 Clouds 30 1010 68 10000 4.02 19 17:43 02.09.2022
1940 Clouds 28 1012 100 10000 4.92 21 16:46 02.09.2022
1941 Clouds 25 1008 83 10000 0.45 310 13:55 02.09.2022
1942 Clouds 25 1008 83 10000 0.89 295 12:24 02.09.2022
1943 Clouds 25 1010 83 10000 1.79 268 09:50 02.09.2022
1944 Clouds 25 1009 80 10000 3.58 304 08:56 02.09.2022
1945 Clouds 25 1010 80 10000 3.13 321 07:30 02.09.2022
1946 Clouds 25 1010 80 10000 3.13 321 07:30 02.09.2022
1947 Clouds 25 1012 100 6437 2.06 310 06:36 02.09.2022
1948 Clouds 28 1010 83 9656 4.12 360 02:37 02.09.2022
1949 Clouds 29 1012 79 9656 4.12 360 22:30 01.09.2022
1950 Clouds 29 1012 79 9656 4.12 360 21:43 01.09.2022
1951 Clouds 29 1012 79 9656 5.81 22 21:23 01.09.2022
1952 Clouds 27 1013 100 10000 4.63 360 20:37 01.09.2022
1953 Clouds 27 1012 82 10000 1.79 32 18:49 01.09.2022
1954 Clouds 25 1013 100 10000 0 0 17:21 01.09.2022
1955 Clouds 25 1011 79 10000 0.89 275 15:47 01.09.2022
1956 Clouds 25 1010 79 10000 0.89 311 13:55 01.09.2022
1957 Clouds 24 1011 100 10000 2.06 320 12:57 01.09.2022
1958 Clouds 25 1009 81 10000 0.89 322 11:52 01.09.2022
1959 Clouds 25 1010 81 10000 0.89 314 11:30 01.09.2022
1960 Clouds 26 1011 80 10000 2.96 288 09:49 01.09.2022
1961 Clouds 26 1011 78 10000 0.45 277 07:50 01.09.2022
1962 Clouds 28 1012 69 10000 0.45 343 05:58 01.09.2022
1963 Clouds 31 1011 70 10000 5.14 30 01:31 01.09.2022
1964 Clouds 31 1011 70 10000 5.14 30 01:31 01.09.2022
1965 Clouds 31 1011 70 10000 5.14 30 01:31 01.09.2022
1966 Clouds 32 1011 62 10000 5.14 60 23:19 31.08.2022
1967 Clouds 33 1011 51 10000 2.24 57 20:48 31.08.2022
1968 Clouds 32 1014 62 10000 3.09 30 19:23 31.08.2022
1969 Clouds 30 1014 79 10000 1.34 304 17:25 31.08.2022
1970 Clouds 24 1013 100 9656 1.54 360 15:39 31.08.2022
1971 Clouds 24 1014 100 805 2.24 209 13:38 31.08.2022
1972 Clouds 25 1011 79 10000 0.89 278 12:19 31.08.2022
1973 Clouds 27 1012 78 10000 1.34 294 09:39 31.08.2022
1974 Clouds 28 1012 77 10000 1.34 313 08:31 31.08.2022
1975 Clouds 29 1011 79 10000 2.57 60 03:41 31.08.2022
1976 Clouds 33 1011 58 10000 4.63 70 22:42 30.08.2022
1977 Clouds 33 1012 55 10000 4.02 74 21:31 30.08.2022
1978 Clouds 33 1013 55 10000 4.63 50 20:35 30.08.2022
1979 Clouds 30 1013 70 10000 1.34 182 17:24 30.08.2022
1980 Clouds 24 1012 100 9656 1.54 280 14:19 30.08.2022
1981 Clouds 25 1010 78 10000 0.45 157 12:25 30.08.2022
1982 Clouds 25 1010 75 10000 0.45 209 11:20 30.08.2022
1983 Clouds 25 1010 75 10000 0.45 209 11:20 30.08.2022
1984 Clouds 26 1010 73 10000 0.89 257 09:58 30.08.2022
1985 Clear 27 1012 84 10000 1.37 103 06:49 30.08.2022
1986 Clear 32 1008 62 10000 2.68 121 01:26 30.08.2022
1987 Clouds 32 1010 66 10000 3.6 60 22:39 29.08.2022
1988 Clear 33 1008 54 10000 3.13 134 21:54 29.08.2022
1989 Clear 33 1009 52 10000 0.89 122 20:47 29.08.2022
1990 Clouds 32 1012 62 10000 1.34 104 19:35 29.08.2022
1991 Clouds 27 1012 89 9656 1.54 170 17:33 29.08.2022
1992 Clouds 27 1010 74 10000 1.34 196 16:59 29.08.2022
1993 Clouds 24 1011 100 9656 0.45 211 15:20 29.08.2022
1994 Clouds 23 1010 100 10000 1.54 140 13:55 29.08.2022
1995 Clouds 25 1006 79 10000 0.89 204 12:24 29.08.2022
1996 Clouds 26 1007 74 10000 0.89 187 10:48 29.08.2022
1997 Clouds 26 1007 79 10000 0.45 118 09:19 29.08.2022
1998 Clouds 26 1008 74 10000 0.89 213 07:20 29.08.2022
1999 Clouds 31 1007 70 10000 2.57 80 02:31 29.08.2022
2000 Clouds 31 1008 70 9656 5.14 80 23:35 28.08.2022
2001 Clouds 31 1007 61 10000 2.68 127 21:48 28.08.2022
2002 Clouds 30 1009 74 9656 4.02 102 21:27 28.08.2022
2003 Clouds 31 1009 66 9656 4.47 122 20:19 28.08.2022
2004 Clouds 26 1010 94 9656 1.54 260 18:22 28.08.2022
2005 Clouds 26 1008 75 10000 2.24 271 17:59 28.08.2022
2006 Clouds 25 1009 80 10000 3.58 244 16:44 28.08.2022
2007 Clouds 23 1010 100 9656 2.24 236 15:33 28.08.2022
2008 Clear 23 1009 100 10000 1.79 138 13:19 28.08.2022
2009 Clouds 24 1008 81 10000 0.89 174 11:25 28.08.2022
2010 Clouds 24 1008 80 10000 1.79 232 10:20 28.08.2022
2011 Clouds 25 1009 75 10000 3.13 245 08:52 28.08.2022
2012 Clouds 26 1009 79 10000 1.33 251 07:53 28.08.2022
2013 Clouds 26 1009 78 10000 1.34 211 07:23 28.08.2022
2014 Clouds 31 1008 66 10000 3.6 60 00:36 28.08.2022
2015 Clouds 32 1007 56 10000 3.58 84 22:58 27.08.2022
2016 Clouds 34 1009 55 10000 3.13 99 22:27 27.08.2022
2017 Clouds 33 1012 55 10000 1.03 220 20:35 27.08.2022
2018 Clouds 31 1010 61 10000 1.79 218 18:57 27.08.2022
2019 Clouds 27 1012 83 10000 1.34 221 16:26 27.08.2022
2020 Clouds 26 1012 94 9656 1.54 150 15:31 27.08.2022
2021 Clouds 24 1012 100 9656 1.54 220 13:19 27.08.2022
2022 Clouds 25 1009 79 10000 0.89 192 11:58 27.08.2022
2023 Clouds 25 1010 78 10000 0.45 276 10:27 27.08.2022
2024 Clouds 26 1012 77 10000 1.79 279 09:31 27.08.2022
2025 Clouds 28 1013 70 10000 0.45 102 05:59 27.08.2022
2026 Clouds 31 1009 57 10000 3.58 73 00:52 27.08.2022
2027 Clouds 31 1012 62 10000 4.02 115 23:35 26.08.2022
2028 Clouds 32 1011 53 10000 3.13 115 21:45 26.08.2022
2029 Clouds 30 1013 65 10000 2.61 50 19:50 26.08.2022
2030 Clouds 29 1014 70 10000 0.74 19 17:49 26.08.2022
2031 Clouds 25 1014 94 9656 0 0 15:40 26.08.2022
2032 Clear 25 1013 85 10000 2.08 271 14:59 26.08.2022
2033 Clouds 25 1013 94 10000 0 0 12:56 26.08.2022
2034 Clouds 25 1012 87 10000 2.08 270 11:43 26.08.2022
2035 Clouds 25 1012 86 10000 1.36 260 11:21 26.08.2022
2036 Clear 26 1014 84 10000 0.85 245 08:21 26.08.2022
2037 Clear 28 1012 74 10000 2.64 36 02:57 26.08.2022
2038 Clear 30 1011 64 10000 3.8 65 23:47 25.08.2022
2039 Clouds 32 1013 58 10000 5.14 60 22:20 25.08.2022
2040 Clouds 30 1012 64 10000 2.96 38 20:54 25.08.2022
2041 Clouds 31 1014 70 10000 1.54 50 19:35 25.08.2022
2042 Clouds 29 1014 79 10000 0 0 18:29 25.08.2022
2043 Clouds 28 1014 89 10000 0 0 17:31 25.08.2022
2044 Clouds 27 1013 94 8047 0 0 16:36 25.08.2022
2045 Clouds 27 1013 100 9656 0 0 15:28 25.08.2022
2046 Clouds 25 1012 100 8047 0 0 13:20 25.08.2022
2047 Clouds 25 1011 89 9354 1.78 283 10:49 25.08.2022
2048 Clouds 25 1011 89 10000 2.94 284 09:52 25.08.2022
2049 Clouds 28 1013 83 10000 1.54 360 07:35 25.08.2022
2050 Clouds 31 1008 66 10000 3.13 62 02:41 25.08.2022
2051 Clouds 33 1010 58 10000 4.12 100 23:30 24.08.2022
2052 Clouds 33 1008 51 10000 3.58 119 22:54 24.08.2022
2053 Clouds 33 1012 55 10000 3.13 119 21:39 24.08.2022
2054 Clouds 33 1012 55 10000 2.68 132 21:20 24.08.2022
2055 Clouds 32 1010 53 10000 0.89 91 19:43 24.08.2022
2056 Clouds 29 1011 68 10000 0.89 287 16:50 24.08.2022
2057 Clouds 26 1010 79 10000 0.89 290 15:52 24.08.2022
2058 Clear 24 1011 100 9656 0.89 280 13:49 24.08.2022
2059 Clouds 26 1009 81 10000 1.34 306 12:28 24.08.2022
2060 Clouds 26 1009 80 10000 0.45 303 11:18 24.08.2022
2061 Clear 27 1010 79 10000 0.45 277 08:28 24.08.2022
2062 Clear 29 1008 68 10000 3.13 100 03:54 24.08.2022
2063 Clouds 32 1006 55 10000 3.58 90 23:53 23.08.2022
2064 Clouds 32 1010 62 10000 4.63 80 22:35 23.08.2022
2065 Clouds 33 1008 54 10000 4.47 85 21:46 23.08.2022
2066 Clouds 32 1011 70 10000 3.13 125 20:33 23.08.2022
2067 Clear 31 1009 62 10000 1.34 148 18:53 23.08.2022
2068 Clear 30 1010 64 10000 0.89 260 17:51 23.08.2022
2069 Clear 30 1012 74 10000 2.57 200 17:18 23.08.2022
2070 Clear 26 1012 83 10000 1.34 258 15:49 23.08.2022
2071 Clouds 24 1011 100 8047 0 0 13:36 23.08.2022
2072 Clear 25 1009 80 10000 1.34 257 12:30 23.08.2022
2073 Clear 25 1010 79 10000 1.59 234 10:51 23.08.2022
2074 Clear 25 1010 79 10000 1.59 234 10:32 23.08.2022
2075 Clear 26 1011 78 10000 0.45 284 08:54 23.08.2022
2076 Clouds 26 1011 77 10000 0.45 284 08:22 23.08.2022
2077 Clouds 26 1011 77 10000 0.45 277 07:43 23.08.2022
2078 Clouds 27 1011 74 10000 0.89 265 06:58 23.08.2022
2079 Clouds 27 1011 71 10000 0.45 121 05:52 23.08.2022
2080 Clouds 31 1010 58 10000 4.12 120 01:42 23.08.2022
2081 Clouds 32 1011 55 10000 4.47 99 00:26 23.08.2022
2082 Clouds 33 1011 49 10000 3.6 90 23:29 22.08.2022
2083 Clouds 33 1010 48 10000 3.58 121 21:51 22.08.2022
2084 Clouds 32 1011 53 10000 3.13 106 19:49 22.08.2022
2085 Clouds 31 1014 62 10000 3.58 91 19:27 22.08.2022
2086 Clear 30 1012 59 10000 0.45 290 17:59 22.08.2022
2087 Clouds 24 1015 100 9656 2.68 265 15:40 22.08.2022
2088 Clouds 23 1014 100 9656 2.24 240 14:32 22.08.2022
2089 Clear 25 1011 72 10000 0.57 317 11:19 22.08.2022
2090 Clear 27 1012 78 10000 0.45 292 08:22 22.08.2022
2091 Clear 28 1013 83 10000 1.54 80 04:34 22.08.2022
2092 Clear 32 1010 59 10000 2.68 78 00:49 22.08.2022
2093 Clouds 32 1013 70 10000 3.09 80 00:29 22.08.2022
2094 Clear 33 1012 55 10000 3.58 71 22:54 21.08.2022
2095 Clouds 34 1015 62 10000 4.12 90 21:36 21.08.2022
2096 Clear 33 1013 53 10000 3.58 98 20:57 21.08.2022
2097 Clouds 33 1016 66 9656 3.13 86 19:28 21.08.2022
2098 Clouds 31 1014 62 10000 2.24 32 17:59 21.08.2022
2099 Clouds 28 1013 75 10000 0.89 289 15:58 21.08.2022
2100 Clouds 27 1014 89 9656 0.89 280 15:28 21.08.2022
2101 Clouds 26 1013 100 9656 0 0 13:58 21.08.2022
2102 Clouds 26 1013 100 9656 0.45 287 13:34 21.08.2022
2103 Clouds 26 1012 81 10000 0.45 231 11:56 21.08.2022
2104 Clouds 27 1012 78 10000 1.08 192 09:32 21.08.2022
2105 Clouds 26 1012 80 10000 1.51 211 08:56 21.08.2022
2106 Clouds 26 1015 100 10000 1.54 310 08:38 21.08.2022
2107 Clouds 27 1015 100 10000 2.06 310 07:27 21.08.2022
2108 Clouds 29 1013 79 10000 2.06 80 03:41 21.08.2022
2109 Clouds 32 1013 66 10000 3.6 80 00:24 21.08.2022
2110 Clouds 33 1013 58 10000 4.02 103 22:41 20.08.2022
2111 Clouds 33 1014 58 10000 3.58 115 21:38 20.08.2022
2112 Clouds 32 1015 62 10000 2.68 76 20:41 20.08.2022
2113 Clouds 31 1015 66 9656 2.06 230 19:41 20.08.2022
2114 Clouds 30 1015 74 10000 1.03 260 18:31 20.08.2022
2115 Clouds 30 1013 63 10000 1.79 267 17:51 20.08.2022
2116 Clouds 28 1015 89 9656 2.24 238 16:52 20.08.2022
2117 Clouds 26 1013 80 10000 1.34 251 15:33 20.08.2022
2118 Clouds 24 1012 100 9656 1.54 180 13:27 20.08.2022
2119 Clouds 25 1010 81 10000 2.15 247 11:52 20.08.2022
2120 Clouds 25 1011 81 10000 0.89 213 09:43 20.08.2022
2121 Clouds 26 1012 81 10000 0.45 211 08:34 20.08.2022
2122 Clouds 26 1012 77 10000 0.89 227 05:55 20.08.2022
2123 Clouds 31 1008 59 10000 3.58 74 00:59 20.08.2022
2124 Clouds 30 1010 70 10000 4.12 20 00:35 20.08.2022
2125 Clouds 30 1010 74 10000 3.13 80 23:18 19.08.2022
2126 Clouds 31 1012 66 10000 4.63 10 21:41 19.08.2022
2127 Clouds 32 1012 58 10000 3.09 360 20:20 19.08.2022
2128 Clouds 29 1013 74 9656 1.03 300 17:35 19.08.2022
2129 Mist 24 1012 100 10000 1.34 295 15:18 19.08.2022
2130 Clouds 25 1009 79 10000 1.69 277 13:21 19.08.2022
2131 Clouds 26 1010 80 10000 0.45 269 10:53 19.08.2022
2132 Clouds 26 1010 79 10000 0.89 277 10:21 19.08.2022
2133 Clouds 26 1013 100 10000 1.54 260 06:27 19.08.2022
2134 Clouds 31 1010 55 10000 3.13 92 00:56 19.08.2022
2135 Clouds 32 1011 62 10000 5.14 110 00:28 19.08.2022
2136 Clouds 32 1012 66 10000 4.92 98 23:38 18.08.2022
2137 Clouds 33 1010 54 10000 4.02 119 22:49 18.08.2022
2138 Clouds 33 1011 55 10000 4.02 72 21:55 18.08.2022
2139 Clouds 31 1013 70 10000 3.58 56 21:26 18.08.2022
2140 Clouds 32 1014 66 10000 0.89 310 19:56 18.08.2022
2141 Clouds 32 1014 66 10000 0 0 19:26 18.08.2022
2142 Clouds 31 1013 66 10000 0.89 88 17:49 18.08.2022
2143 Clouds 29 1015 79 8047 0 0 16:55 18.08.2022
2144 Clouds 25 1012 83 10000 0.57 278 14:42 18.08.2022
2145 Clouds 24 1013 100 8047 0.45 279 14:19 18.08.2022
2146 Clouds 25 1013 100 9656 0 0 12:55 18.08.2022
2147 Clouds 26 1011 81 10000 1.54 286 11:31 18.08.2022
2148 Clouds 26 1012 81 10000 0.45 274 09:43 18.08.2022
2149 Clouds 26 1012 81 10000 0.45 165 08:37 18.08.2022
2150 Clouds 26 1016 100 10000 0 0 07:18 18.08.2022
2151 Clouds 28 1013 83 10000 1.54 100 03:23 18.08.2022
2152 Clouds 31 1013 70 10000 4.12 50 23:30 17.08.2022
2153 Clouds 30 1013 74 9656 3.58 95 21:39 17.08.2022
2154 Clouds 30 1014 64 10000 2.13 47 19:59 17.08.2022
2155 Clouds 29 1015 84 9656 2.06 140 18:58 17.08.2022
2156 Clouds 27 1015 94 8047 2.68 219 17:32 17.08.2022
2157 Clouds 26 1015 100 8047 2.24 250 16:21 17.08.2022
2158 Clouds 25 1014 100 8047 0.45 265 15:18 17.08.2022
2159 Clouds 26 1010 80 10000 0.45 217 12:52 17.08.2022
2160 Clouds 26 1010 79 10000 1.95 296 11:36 17.08.2022
2161 Clouds 26 1010 79 10000 1.95 296 11:36 17.08.2022
2162 Clouds 27 1011 79 10000 0.89 249 09:31 17.08.2022
2163 Clouds 27 1011 78 10000 0.89 271 07:55 17.08.2022
2164 Clouds 29 1010 79 10000 2.06 100 02:24 17.08.2022
2165 Clouds 32 1008 62 10000 3.13 108 23:49 16.08.2022
2166 Clouds 32 1009 54 10000 4.47 117 21:59 16.08.2022
2167 Clouds 32 1010 57 10000 2.68 142 20:51 16.08.2022
2168 Clouds 32 1010 60 10000 2.24 94 19:50 16.08.2022
2169 Clouds 30 1012 74 8047 1.34 216 18:23 16.08.2022
2170 Clouds 25 1012 94 8047 2.06 180 17:40 16.08.2022
2171 Clouds 25 1009 79 10000 0.89 258 15:46 16.08.2022
2172 Clouds 23 1009 80 10000 0.45 213 14:55 16.08.2022
2173 Clouds 23 1011 100 8047 1.54 190 14:37 16.08.2022
2174 Clouds 24 1009 79 10000 1.79 225 12:41 16.08.2022
2175 Clouds 26 1009 76 10000 0.89 317 10:35 16.08.2022
2176 Clouds 27 1010 80 10000 0.45 279 09:31 16.08.2022
2177 Clouds 26 1011 86 10000 1.16 212 08:43 16.08.2022
2178 Clear 28 1012 89 10000 2.06 60 07:23 16.08.2022
2179 Clouds 31 1008 70 10000 4.12 100 01:35 16.08.2022
2180 Clouds 33 1010 62 9656 3.6 130 22:29 15.08.2022
2181 Clouds 33 1008 53 10000 1.79 199 21:53 15.08.2022
2182 Clouds 33 1009 55 10000 2.68 213 20:47 15.08.2022
2183 Clouds 32 1012 62 8047 3.09 100 20:18 15.08.2022
2184 Clouds 30 1013 66 8047 2.06 220 18:31 15.08.2022
2185 Clouds 25 1012 94 8047 1.54 200 16:40 15.08.2022
2186 Clouds 25 1012 94 8047 1.54 200 16:40 15.08.2022
2187 Clouds 25 1012 94 8047 1.54 200 16:20 15.08.2022
2188 Clouds 24 1011 100 8047 0.45 223 13:55 15.08.2022
2189 Clouds 25 1009 79 10000 1.79 275 12:24 15.08.2022
2190 Clouds 27 1010 80 10000 0.45 217 09:57 15.08.2022
2191 Clouds 27 1011 79 10000 0.89 284 08:21 15.08.2022
2192 Clouds 28 1012 83 10000 2.06 80 04:36 15.08.2022
2193 Clouds 31 1010 70 10000 3.13 84 01:26 15.08.2022
2194 Clouds 32 1012 62 10000 1.79 125 22:39 14.08.2022
2195 Clouds 30 1013 70 10000 2.24 216 21:38 14.08.2022
2196 Clouds 30 1012 59 10000 1.79 200 19:58 14.08.2022
2197 Clouds 29 1012 63 10000 1.34 200 18:59 14.08.2022
2198 Clouds 28 1014 78 9656 2.06 160 18:19 14.08.2022
2199 Clouds 27 1012 73 10000 1.79 209 16:53 14.08.2022
2200 Clouds 25 1011 80 10000 1.34 229 15:48 14.08.2022
2201 Clouds 23 1012 100 10000 2.57 170 14:27 14.08.2022
2202 Clouds 23 1012 100 10000 2.57 170 13:50 14.08.2022
2203 Clouds 23 1012 100 10000 2.57 170 13:20 14.08.2022
2204 Clouds 24 1010 83 10000 1.79 172 12:28 14.08.2022
2205 Clouds 24 1010 82 10000 0.45 217 10:50 14.08.2022
2206 Clouds 25 1012 81 10000 0.89 189 08:51 14.08.2022
2207 Clouds 26 1014 100 10000 0.89 263 06:22 14.08.2022
2208 Clouds 30 1011 66 10000 1.34 113 02:49 14.08.2022
2209 Clouds 32 1010 58 10000 4.02 63 23:53 13.08.2022
2210 Clouds 32 1011 55 10000 5.36 126 22:52 13.08.2022
2211 Clouds 32 1012 59 10000 1.79 158 20:58 13.08.2022
2212 Clouds 31 1014 70 10000 2.68 105 20:33 13.08.2022
2213 Clouds 30 1014 70 10000 0.45 38 19:37 13.08.2022
2214 Clouds 27 1014 89 10000 2.06 160 17:42 13.08.2022
2215 Clouds 24 1014 100 9656 1.03 180 15:26 13.08.2022
2216 Clouds 24 1013 100 9656 1.54 250 14:27 13.08.2022
2217 Clouds 24 1014 100 10000 1.03 150 13:39 13.08.2022
2218 Clouds 25 1012 82 10000 1.84 256 11:52 13.08.2022
2219 Clouds 26 1012 82 10000 0.45 250 10:21 13.08.2022
2220 Clouds 26 1013 80 10000 0.45 294 08:23 13.08.2022
2221 Clouds 27 1014 83 10000 0.45 144 05:22 13.08.2022
2222 Clouds 31 1010 60 10000 4.02 85 23:52 12.08.2022
2223 Clouds 31 1014 66 10000 4.12 70 21:42 12.08.2022
2224 Clouds 31 1012 60 10000 2.68 67 20:53 12.08.2022
2225 Clouds 30 1015 74 10000 3.09 350 19:40 12.08.2022
2226 Clouds 29 1015 74 10000 3.58 57 18:46 12.08.2022
2227 Mist 27 1015 83 10000 1.54 350 17:21 12.08.2022
2228 Clouds 26 1012 79 10000 0.89 242 15:49 12.08.2022
2229 Mist 24 1014 100 10000 0.45 297 14:29 12.08.2022
2230 Clouds 25 1011 83 10000 2.04 310 12:53 12.08.2022
2231 Clouds 25 1012 82 10000 0.89 288 10:35 12.08.2022
2232 Clouds 25 1014 78 10000 1.79 260 07:47 12.08.2022
2233 Clouds 26 1016 100 10000 0.89 222 06:39 12.08.2022
2234 Clouds 29 1013 70 10000 4.63 20 02:39 12.08.2022
2235 Clouds 30 1013 70 10000 4.02 47 00:26 12.08.2022
2236 Clouds 31 1014 70 10000 4.63 360 23:35 11.08.2022
2237 Clouds 32 1014 62 10000 4.92 61 22:26 11.08.2022
2238 Clouds 30 1015 74 10000 2.57 350 21:40 11.08.2022
2239 Clouds 31 1015 70 10000 5.14 10 20:45 11.08.2022
2240 Clouds 31 1015 70 10000 5.14 10 20:18 11.08.2022
2241 Clouds 30 1016 74 9656 4.02 57 19:32 11.08.2022
2242 Clouds 30 1014 69 10000 2.68 32 17:48 11.08.2022
2243 Clouds 25 1015 100 10000 1.34 5 16:34 11.08.2022
2244 Clouds 24 1015 94 10000 0.45 269 15:21 11.08.2022
2245 Clouds 23 1013 83 10000 0.45 305 12:44 11.08.2022
2246 Clouds 24 1014 81 7394 0.89 207 10:18 11.08.2022
2247 Clouds 26 1016 76 10000 2.68 238 07:19 11.08.2022
2248 Clouds 27 1015 79 10000 3.11 23 03:46 11.08.2022
2249 Clouds 31 1014 70 10000 4.12 40 00:35 11.08.2022
2250 Clouds 31 1016 58 10000 4.92 54 22:22 10.08.2022
2251 Clouds 31 1017 58 10000 5.14 50 21:24 10.08.2022
2252 Clouds 32 1015 49 10000 3.13 87 20:47 10.08.2022
2253 Clouds 31 1017 62 10000 0 0 19:24 10.08.2022
2254 Clouds 29 1017 74 10000 0.89 23 17:37 10.08.2022
2255 Clouds 26 1016 94 10000 0.89 265 16:33 10.08.2022
2256 Clear 23 1016 100 9656 1.54 270 13:35 10.08.2022
2257 Clouds 24 1014 81 10000 0.45 231 12:27 10.08.2022
2258 Clouds 25 1015 81 10000 1.92 273 08:55 10.08.2022
2259 Clouds 25 1015 82 10000 1.92 273 08:31 10.08.2022
2260 Clear 25 1017 100 10000 2.06 260 06:22 10.08.2022
2261 Clouds 28 1014 78 10000 2.06 330 02:45 10.08.2022
2262 Clouds 30 1015 62 10000 2.68 97 23:34 09.08.2022
2263 Clouds 30 1013 56 10000 2.68 92 22:56 09.08.2022
2264 Clouds 28 1016 78 10000 1.03 50 21:35 09.08.2022
2265 Clouds 29 1017 74 10000 3.58 123 19:35 09.08.2022
2266 Clouds 30 1017 70 10000 1.34 151 18:29 09.08.2022
2267 Clouds 28 1017 78 10000 0 0 17:27 09.08.2022
2268 Clouds 28 1017 78 10000 0 0 16:40 09.08.2022
2269 Clouds 28 1017 78 10000 0 0 16:40 09.08.2022
2270 Clouds 23 1016 100 9656 0.89 319 15:40 09.08.2022
2271 Clouds 23 1013 83 10000 0.45 238 12:25 09.08.2022
2272 Clouds 25 1014 81 10000 0.45 283 09:30 09.08.2022
2273 Clouds 25 1014 82 10000 0.89 265 08:33 09.08.2022
2274 Clouds 25 1017 100 10000 1.34 284 07:20 09.08.2022
2275 Clouds 26 1015 94 10000 1.54 340 03:32 09.08.2022
2276 Clouds 26 1015 100 8047 1.54 290 23:27 08.08.2022
2277 Clouds 29 1013 67 10000 3.62 48 22:53 08.08.2022
2278 Clouds 29 1014 65 10000 3.23 39 21:49 08.08.2022
2279 Clouds 27 1017 94 8047 0 0 20:55 08.08.2022
2280 Clouds 27 1017 94 9656 0 0 19:50 08.08.2022
2281 Clouds 28 1017 83 9656 2.68 25 18:35 08.08.2022
2282 Clouds 24 1016 100 9656 0.89 48 16:34 08.08.2022
2283 Clouds 24 1015 100 9656 0.89 5 15:38 08.08.2022
2284 Clouds 24 1015 100 9656 0.89 5 15:38 08.08.2022
2285 Clouds 23 1013 83 10000 0.89 280 12:50 08.08.2022
2286 Clouds 23 1013 82 10000 1.79 307 11:53 08.08.2022
2287 Clouds 23 1014 83 10000 0.89 269 09:36 08.08.2022
2288 Clouds 26 1017 83 10000 1.03 320 05:37 08.08.2022
2289 Clouds 29 1015 70 10000 2.24 58 02:24 08.08.2022
2290 Clouds 29 1016 65 10000 3.13 82 22:20 07.08.2022
2291 Clouds 30 1017 66 10000 2.57 130 21:38 07.08.2022
2292 Mist 27 1018 78 9656 0.89 196 20:25 07.08.2022
2293 Clouds 27 1016 70 10000 0.89 148 19:54 07.08.2022
2294 Drizzle 27 1018 89 9656 3.09 70 19:29 07.08.2022
2295 Clouds 26 1017 94 9656 1.79 57 18:21 07.08.2022
2296 Clouds 25 1015 82 10000 0.89 94 16:53 07.08.2022
2297 Clouds 24 1014 83 10000 3.13 300 15:54 07.08.2022
2298 Clouds 23 1016 100 6437 2.57 300 14:39 07.08.2022
2299 Clouds 24 1014 82 10000 1.34 122 12:59 07.08.2022
2300 Clouds 25 1013 80 10000 1.34 347 10:59 07.08.2022
2301 Clouds 24 1013 80 10000 0.89 319 10:28 07.08.2022
2302 Clear 27 1015 79 10000 1.99 79 04:58 07.08.2022
2303 Clouds 28 1014 78 10000 2.68 81 03:18 07.08.2022
2304 Clouds 31 1014 70 10000 4.63 50 23:30 06.08.2022
2305 Clouds 31 1014 70 10000 4.63 100 22:20 06.08.2022
2306 Clouds 31 1015 62 10000 4.12 90 20:20 06.08.2022
2307 Clouds 31 1016 62 10000 3.6 120 19:38 06.08.2022
2308 Clouds 30 1016 70 9656 1.34 80 18:22 06.08.2022
2309 Clear 28 1015 78 9656 1.03 300 16:40 06.08.2022
2310 Clouds 23 1014 100 9656 0.45 275 14:31 06.08.2022
2311 Clear 24 1014 100 10000 1.54 280 13:39 06.08.2022
2312 Clouds 25 1012 79 10000 0.57 225 11:21 06.08.2022
2313 Clouds 26 1013 79 10000 0.45 273 09:50 06.08.2022
2314 Clouds 26 1014 77 10000 0.45 265 07:51 06.08.2022
2315 Clouds 29 1013 79 10000 3.09 90 03:24 06.08.2022
2316 Clouds 32 1013 66 10000 4.47 101 23:27 05.08.2022
2317 Clouds 32 1012 54 10000 4.02 67 21:54 05.08.2022
2318 Clouds 31 1015 62 10000 4.12 150 19:32 05.08.2022
2319 Clouds 31 1013 58 10000 1.79 28 18:44 05.08.2022
2320 Clouds 28 1015 78 10000 0.89 313 17:27 05.08.2022
2321 Clouds 28 1013 66 10000 0.89 269 16:48 05.08.2022
2322 Mist 24 1014 100 8047 2.06 300 15:21 05.08.2022
2323 Mist 24 1013 100 10000 0 0 13:53 05.08.2022
2324 Mist 24 1013 100 10000 0 0 13:22 05.08.2022
2325 Clear 25 1011 81 10000 0.89 304 12:24 05.08.2022
2326 Clear 26 1012 81 10000 0.69 76 10:35 05.08.2022
2327 Clear 27 1013 78 10000 1.34 299 07:58 05.08.2022
2328 Clear 28 1014 83 10000 2.06 120 05:32 05.08.2022
2329 Clouds 32 1012 66 10000 3.6 90 00:30 05.08.2022
2330 Clouds 32 1013 66 10000 2.68 134 22:26 04.08.2022
2331 Clouds 32 1014 62 10000 2.06 130 21:26 04.08.2022
2332 Clouds 32 1014 62 8047 3.09 100 20:42 04.08.2022
2333 Clouds 31 1015 70 9656 3.09 90 19:37 04.08.2022
2334 Clouds 30 1015 74 8047 3.13 89 18:36 04.08.2022
2335 Clear 30 1015 79 8047 1.79 130 17:37 04.08.2022
2336 Clear 24 1014 100 10000 1.54 290 13:57 04.08.2022
2337 Clear 25 1011 81 10000 0.99 204 12:43 04.08.2022
2338 Clear 26 1011 79 10000 0.99 208 10:50 04.08.2022
2339 Clear 26 1013 78 10000 0.89 275 07:53 04.08.2022
2340 Clear 28 1013 78 10000 0 0 04:43 04.08.2022
2341 Clear 29 1012 74 10000 4.12 80 02:27 04.08.2022
2342 Clear 32 1011 53 10000 4.02 107 23:44 03.08.2022
2343 Clouds 31 1014 66 10000 5.14 70 22:30 03.08.2022
2344 Clear 32 1013 49 10000 4.47 100 20:45 03.08.2022
2345 Clear 31 1015 66 10000 4.12 90 19:35 03.08.2022
2346 Clear 31 1015 66 10000 2.57 140 18:23 03.08.2022
2347 Clouds 25 1015 94 9656 0.45 215 16:24 03.08.2022
2348 Clear 23 1013 80 10000 0.45 292 14:45 03.08.2022
2349 Clouds 22 1013 81 10000 2.68 255 12:30 03.08.2022
2350 Clouds 25 1014 78 10000 1.07 230 08:26 03.08.2022
2351 Clouds 27 1014 72 10000 0.45 78 04:47 03.08.2022
2352 Clear 28 1014 78 10000 2.06 90 03:28 03.08.2022
2353 Clouds 30 1014 66 10000 3.6 80 01:18 03.08.2022
2354 Clouds 30 1015 70 10000 2.57 70 23:18 02.08.2022
2355 Clouds 28 1017 78 9656 1.03 190 21:55 02.08.2022
2356 Clouds 28 1017 78 9656 1.03 200 21:21 02.08.2022
2357 Clouds 29 1016 64 10000 1.43 285 18:52 02.08.2022
2358 Clouds 23 1017 100 9656 0.89 289 16:27 02.08.2022
2359 Clouds 24 1015 84 10000 0.89 263 12:53 02.08.2022
2360 Clouds 26 1015 78 10000 0.89 304 09:40 02.08.2022
2361 Clouds 27 1016 77 10000 0.45 326 07:56 02.08.2022
2362 Clouds 26 1016 78 10000 0.89 294 06:43 02.08.2022
2363 Clouds 28 1015 72 10000 1.34 82 04:55 02.08.2022
2364 Clouds 31 1014 58 10000 4.02 61 23:52 01.08.2022
2365 Clouds 31 1017 66 9656 3.58 13 22:36 01.08.2022
2366 Clouds 30 1016 58 10000 2.24 15 20:53 01.08.2022
2367 Clouds 28 1019 74 8047 3.09 350 19:32 01.08.2022
2368 Clouds 29 1019 70 9656 3.58 32 18:40 01.08.2022
2369 Clouds 27 1016 66 10000 0.89 311 16:53 01.08.2022
2370 Clouds 22 1017 100 9656 0.45 286 16:28 01.08.2022
2371 Clouds 22 1017 100 9656 0 0 15:30 01.08.2022
2372 Clouds 22 1017 100 9656 0 0 14:43 01.08.2022
2373 Clouds 22 1015 81 10000 1.79 280 12:47 01.08.2022
2374 Clouds 23 1016 83 10000 3.13 293 10:22 01.08.2022
2375 Clouds 23 1017 82 10000 2.24 313 08:34 01.08.2022
2376 Clouds 27 1016 69 10000 1.79 107 04:56 01.08.2022
2377 Clouds 28 1016 68 10000 2.24 107 03:49 01.08.2022
2378 Clouds 29 1016 74 10000 4.02 65 00:36 01.08.2022
2379 Clouds 31 1017 62 10000 5.66 70 22:40 31.07.2022
2380 Clouds 31 1017 58 10000 4.63 10 21:33 31.07.2022
2381 Clouds 31 1016 49 10000 3.13 109 19:56 31.07.2022
2382 Clouds 29 1018 70 10000 2.68 349 18:35 31.07.2022
2383 Clouds 23 1017 100 8047 1.54 340 15:45 31.07.2022
2384 Clouds 23 1017 100 8047 0 0 13:51 31.07.2022
2385 Clouds 25 1015 81 10000 2.25 345 12:28 31.07.2022
2386 Clouds 24 1015 80 10000 1.34 329 09:55 31.07.2022
2387 Clouds 25 1016 74 10000 4.47 327 08:18 31.07.2022
2388 Clouds 27 1013 75 10000 3.13 14 03:49 31.07.2022
2389 Clouds 31 1014 59 10000 6.26 38 23:53 30.07.2022
2390 Clouds 29 1016 79 10000 5.36 22 22:19 30.07.2022
2391 Clouds 29 1016 79 10000 5.36 22 22:19 30.07.2022
2392 Clouds 30 1015 65 10000 4.02 24 21:49 30.07.2022
2393 Clouds 28 1015 64 10000 4.47 23 20:58 30.07.2022
2394 Clouds 28 1015 64 10000 4.47 23 20:58 30.07.2022
2395 Clouds 29 1015 65 10000 5.36 25 19:59 30.07.2022
2396 Clouds 29 1016 67 10000 3.13 44 18:57 30.07.2022
2397 Clouds 27 1017 78 10000 2.68 15 17:45 30.07.2022
2398 Clouds 24 1016 88 9656 1.54 300 15:55 30.07.2022
2399 Clouds 22 1016 100 9656 1.54 360 15:25 30.07.2022
2400 Clouds 23 1015 83 10000 1.03 330 13:20 30.07.2022
2401 Clouds 23 1012 73 10000 0.89 312 12:20 30.07.2022
2402 Clouds 25 1014 74 10000 0.89 117 10:35 30.07.2022
2403 Clouds 24 1014 74 10000 0.89 303 09:57 30.07.2022
2404 Clouds 25 1015 77 10000 1.34 273 07:55 30.07.2022
2405 Clouds 26 1015 78 10000 0 0 04:20 30.07.2022
2406 Clouds 28 1013 69 10000 1.34 44 02:28 30.07.2022
2407 Clouds 28 1013 59 10000 0.45 30 22:46 29.07.2022
2408 Clouds 25 1016 83 10000 1.54 310 21:28 29.07.2022
2409 Mist 23 1017 100 10000 3.09 300 20:50 29.07.2022
2410 Clouds 22 1018 100 4828 1.54 260 18:27 29.07.2022
2411 Mist 24 1015 100 10000 3.13 120 16:32 29.07.2022
2412 Clear 24 1014 100 10000 1.54 300 13:45 29.07.2022
2413 Clouds 25 1012 78 10000 0.89 321 11:30 29.07.2022
2414 Clouds 26 1013 79 10000 1.34 294 08:50 29.07.2022
2415 Clouds 26 1013 79 10000 0.89 289 08:20 29.07.2022
2416 Clouds 29 1013 74 10000 3.6 60 02:29 29.07.2022
2417 Clouds 31 1013 62 10000 3.6 100 23:18 28.07.2022
2418 Clouds 29 1015 74 10000 0.89 190 21:30 28.07.2022
2419 Clouds 30 1013 66 10000 0.45 215 20:45 28.07.2022
2420 Clouds 27 1016 83 8047 2.06 240 19:44 28.07.2022
2421 Clouds 27 1016 83 8047 2.06 240 19:25 28.07.2022
2422 Clouds 25 1016 100 9656 0.89 249 17:44 28.07.2022
2423 Clouds 25 1014 79 10000 1.34 274 16:59 28.07.2022
2424 Clouds 23 1016 100 9656 1.34 225 16:36 28.07.2022
2425 Clouds 23 1014 100 8047 1.54 330 13:47 28.07.2022
2426 Clouds 23 1013 82 10000 0.45 194 11:43 28.07.2022
2427 Clouds 28 1014 71 10000 1.1 79 06:59 28.07.2022
2428 Clouds 28 1015 83 9656 2.06 80 05:33 28.07.2022
2429 Clouds 28 1012 67 10000 2.68 99 03:53 28.07.2022
2430 Clouds 32 1010 55 10000 2.68 97 22:56 27.07.2022
2431 Clouds 32 1014 62 10000 2.24 260 21:29 27.07.2022
2432 Clouds 31 1014 58 10000 1.79 215 19:46 27.07.2022
2433 Clouds 30 1014 59 10000 1.34 131 18:41 27.07.2022
2434 Clouds 26 1015 89 9656 0.45 108 16:31 27.07.2022
2435 Clouds 23 1014 100 9656 0.89 111 15:40 27.07.2022
2436 Clouds 23 1013 100 8047 0 0 14:41 27.07.2022
2437 Clouds 23 1011 78 10000 0.72 237 12:52 27.07.2022
2438 Clouds 25 1014 71 10000 2.24 287 08:55 27.07.2022
2439 Clouds 28 1016 83 9656 1.34 279 07:33 27.07.2022
2440 Clouds 30 1013 74 10000 2.68 76 02:43 27.07.2022
2441 Clouds 32 1014 58 10000 4.02 86 22:39 26.07.2022
2442 Clouds 31 1015 70 10000 3.09 100 21:25 26.07.2022
2443 Clouds 32 1013 55 10000 4.02 45 20:47 26.07.2022
2444 Clouds 31 1014 53 10000 0.45 185 18:46 26.07.2022
2445 Clouds 31 1016 62 10000 1.03 210 18:20 26.07.2022
2446 Clouds 27 1016 83 9656 1.34 285 16:46 26.07.2022
2447 Clouds 23 1015 100 9656 1.54 250 15:42 26.07.2022
2448 Clouds 24 1013 80 10000 0.45 246 13:47 26.07.2022
2449 Clouds 25 1012 79 10000 1.28 272 11:40 26.07.2022
2450 Clouds 26 1013 79 10000 1.34 261 09:32 26.07.2022
2451 Clouds 26 1014 78 10000 1.34 275 07:31 26.07.2022
2452 Clouds 30 1013 70 10000 3.13 68 01:21 26.07.2022
2453 Clouds 31 1014 66 10000 5.14 80 23:33 25.07.2022
2454 Clouds 31 1015 66 9656 3.58 89 22:33 25.07.2022
2455 Clouds 31 1013 56 10000 3.13 74 21:43 25.07.2022
2456 Clouds 30 1015 70 9656 3.13 49 20:42 25.07.2022
2457 Clouds 31 1014 57 10000 3.58 96 19:51 25.07.2022
2458 Clouds 29 1016 70 9656 2.57 270 18:23 25.07.2022
2459 Clouds 27 1016 78 9656 2.06 270 17:33 25.07.2022
2460 Clouds 23 1015 100 9656 1.34 254 15:30 25.07.2022
2461 Clouds 23 1012 81 10000 2.25 242 12:29 25.07.2022
2462 Clouds 23 1013 81 10000 0.89 274 10:32 25.07.2022
2463 Clouds 26 1017 89 10000 6.26 63 06:32 25.07.2022
2464 Clouds 30 1013 58 10000 2.24 84 23:55 24.07.2022
2465 Clouds 30 1015 66 10000 1.34 89 23:19 24.07.2022
2466 Clouds 29 1015 74 10000 1.54 40 22:35 24.07.2022
2467 Clouds 27 1016 83 10000 0.89 111 21:28 24.07.2022
2468 Clouds 25 1017 100 10000 1.03 240 20:53 24.07.2022
2469 Clouds 25 1017 100 10000 1.03 240 20:27 24.07.2022
2470 Clouds 30 1015 65 10000 3.13 67 18:56 24.07.2022
2471 Clouds 27 1015 72 10000 2.24 24 16:48 24.07.2022
2472 Clouds 25 1014 78 10000 0.89 331 15:51 24.07.2022
2473 Clouds 23 1015 100 9656 0.89 38 14:40 24.07.2022
2474 Clouds 23 1015 100 10000 1.34 279 12:55 24.07.2022
2475 Clouds 24 1013 81 7599 1.79 288 12:18 24.07.2022
2476 Clouds 24 1014 81 10000 3.13 250 11:26 24.07.2022
2477 Clouds 26 1014 74 6223 0.89 263 08:56 24.07.2022
2478 Clouds 27 1015 76 10000 0.89 299 07:52 24.07.2022
2479 Clouds 29 1017 79 10000 1.54 130 06:34 24.07.2022
2480 Clouds 30 1012 62 10000 4.02 90 01:50 24.07.2022
2481 Clouds 31 1015 70 10000 4.02 93 22:25 23.07.2022
2482 Clouds 32 1015 62 10000 4.47 114 20:35 23.07.2022
2483 Clouds 31 1014 58 10000 2.68 148 18:51 23.07.2022
2484 Clouds 28 1016 74 9656 2.06 340 17:41 23.07.2022
2485 Clouds 26 1016 83 9656 1.79 12 17:23 23.07.2022
2486 Clouds 25 1015 100 8047 1.79 324 15:42 23.07.2022
2487 Clouds 26 1013 81 10000 0.45 243 14:59 23.07.2022
2488 Clouds 25 1014 100 8047 1.54 20 14:35 23.07.2022
2489 Clouds 25 1014 100 8047 2.06 280 13:50 23.07.2022
2490 Clouds 26 1012 80 10000 0.65 281 11:19 23.07.2022
2491 Clouds 27 1013 78 10000 0.45 217 10:23 23.07.2022
2492 Clouds 27 1013 77 10000 0.45 294 08:55 23.07.2022
2493 Clouds 29 1013 79 10000 3.09 60 03:40 23.07.2022
2494 Clouds 30 1013 74 10000 3.6 60 02:30 23.07.2022
2495 Clouds 32 1013 70 10000 4.02 96 23:39 22.07.2022
2496 Clouds 32 1012 53 10000 4.02 87 20:57 22.07.2022
2497 Clouds 32 1013 56 10000 2.24 92 19:47 22.07.2022
2498 Clouds 31 1013 63 10000 1.79 55 18:29 22.07.2022
2499 Clouds 28 1015 89 8047 1.79 294 17:28 22.07.2022
2500 Clouds 24 1014 100 6437 3.6 330 15:26 22.07.2022
2501 Clouds 25 1011 79 10000 1.12 43 12:23 22.07.2022
2502 Clouds 26 1011 77 10000 0.45 241 09:43 22.07.2022
2503 Clear 26 1011 77 10000 1.03 265 09:18 22.07.2022
2504 Clouds 28 1012 73 10000 0.45 164 07:21 22.07.2022
2505 Clouds 29 1010 66 10000 1.34 105 03:59 22.07.2022
2506 Clouds 32 1010 54 10000 3.13 82 22:53 21.07.2022
2507 Clouds 32 1013 66 10000 4.12 60 21:35 21.07.2022
2508 Clouds 32 1013 55 9656 3.13 71 19:31 21.07.2022
2509 Clouds 31 1013 66 9656 0.89 253 18:28 21.07.2022
2510 Clouds 29 1013 84 8047 2.06 290 17:19 21.07.2022
2511 Clouds 24 1013 100 6437 2.06 310 15:39 21.07.2022
2512 Clouds 24 1012 100 8047 1.54 290 14:39 21.07.2022
2513 Clouds 25 1010 81 10000 0.89 228 12:54 21.07.2022
2514 Clouds 25 1010 80 10000 0.59 228 11:23 21.07.2022
2515 Clouds 26 1011 80 10000 0.3 227 09:42 21.07.2022
2516 Clear 26 1012 79 10000 0.45 291 08:52 21.07.2022
2517 Clear 26 1012 79 10000 1.34 298 07:50 21.07.2022
2518 Clear 27 1014 83 10000 0.45 101 06:24 21.07.2022
2519 Clouds 31 1012 70 10000 5.14 90 01:42 21.07.2022
2520 Clouds 32 1013 66 10000 4.12 100 22:22 20.07.2022
2521 Clouds 32 1014 70 10000 4.02 110 21:30 20.07.2022
2522 Clouds 32 1012 60 10000 4.02 97 19:54 20.07.2022
2523 Clouds 32 1012 60 10000 4.02 97 19:54 20.07.2022
2524 Clouds 32 1015 70 10000 2.68 116 19:25 20.07.2022
2525 Clouds 32 1013 62 10000 0.89 161 18:52 20.07.2022
2526 Clouds 31 1015 70 10000 3.6 120 18:27 20.07.2022
2527 Clouds 31 1013 67 10000 3.13 111 16:46 20.07.2022
2528 Clouds 27 1015 100 8047 1.34 272 15:32 20.07.2022
2529 Clouds 26 1014 100 8047 0 0 14:26 20.07.2022
2530 Clouds 26 1012 80 10000 0.93 292 11:55 20.07.2022
2531 Clouds 27 1012 79 10000 0.45 305 09:43 20.07.2022
2532 Clouds 29 1014 79 10000 3.09 100 04:36 20.07.2022
2533 Clouds 32 1012 58 10000 4.47 94 00:52 20.07.2022
2534 Clouds 32 1014 66 10000 2.68 80 23:41 19.07.2022
2535 Clouds 32 1015 70 10000 3.09 130 22:33 19.07.2022
2536 Clouds 32 1013 60 10000 1.79 151 21:46 19.07.2022
2537 Clouds 32 1014 60 10000 2.68 148 20:48 19.07.2022
2538 Clouds 30 1016 79 9656 1.54 290 19:21 19.07.2022
2539 Clouds 29 1017 84 9656 0.89 239 18:31 19.07.2022
2540 Clouds 30 1015 68 10000 0.89 228 17:46 19.07.2022
2541 Mist 25 1015 100 3219 0 0 14:57 19.07.2022
2542 Clouds 26 1012 81 10000 1.61 255 11:44 19.07.2022
2543 Clouds 26 1013 81 10000 0.45 279 10:55 19.07.2022
2544 Clouds 26 1014 80 10000 0.89 275 09:25 19.07.2022
2545 Clouds 26 1015 79 10000 0.45 280 08:39 19.07.2022
2546 Clouds 27 1015 78 10000 0.45 265 07:19 19.07.2022
2547 Clouds 28 1015 83 10000 3.09 70 05:30 19.07.2022
2548 Clouds 28 1013 71 10000 0.89 83 04:55 19.07.2022
2549 Clouds 31 1014 70 10000 2.06 80 01:19 19.07.2022
2550 Clouds 32 1013 54 10000 3.13 127 23:47 18.07.2022
2551 Clouds 32 1014 62 10000 2.68 94 23:18 18.07.2022
2552 Clouds 32 1013 54 10000 4.02 96 21:58 18.07.2022
2553 Clouds 32 1014 53 10000 3.58 108 20:51 18.07.2022
2554 Clouds 30 1016 70 10000 3.13 119 19:33 18.07.2022
2555 Clouds 30 1016 74 9656 2.06 60 17:38 18.07.2022
2556 Clouds 26 1014 76 10000 0.89 240 15:55 18.07.2022
2557 Clouds 23 1013 83 10000 0.45 211 14:51 18.07.2022
2558 Clear 23 1014 100 10000 0.45 208 13:23 18.07.2022
2559 Clouds 25 1012 81 10000 0.86 239 11:31 18.07.2022
2560 Clouds 25 1013 80 10000 2.78 267 08:57 18.07.2022
2561 Clouds 26 1014 79 10000 0.45 265 07:43 18.07.2022
2562 Clouds 30 1011 59 10000 1.79 119 01:43 18.07.2022
2563 Clouds 30 1014 70 10000 4.63 10 22:46 17.07.2022
2564 Clouds 30 1014 70 10000 4.63 10 22:22 17.07.2022
2565 Clouds 30 1015 70 10000 5.66 360 21:23 17.07.2022
2566 Clouds 31 1015 70 10000 4.92 59 20:44 17.07.2022
2567 Clouds 29 1015 79 9656 1.79 118 19:34 17.07.2022
2568 Clouds 29 1013 67 10000 1.34 36 18:54 17.07.2022
2569 Clouds 28 1015 74 8047 1.79 298 17:38 17.07.2022
2570 Clouds 28 1013 66 10000 2.68 276 16:51 17.07.2022
2571 Clouds 26 1015 89 8047 2.68 280 16:27 17.07.2022
2572 Clouds 25 1012 81 10000 0.45 294 14:58 17.07.2022
2573 Clear 23 1013 100 8047 0.45 247 13:32 17.07.2022
2574 Clouds 25 1011 81 10000 0.45 136 11:50 17.07.2022
2575 Clouds 25 1013 76 10000 0.89 281 09:30 17.07.2022
2576 Clouds 26 1015 83 10000 1.65 4 05:54 17.07.2022
2577 Clouds 29 1014 74 9656 3.6 50 02:33 17.07.2022
2578 Clouds 32 1014 62 10000 3.6 80 23:21 16.07.2022
2579 Clouds 32 1013 55 10000 3.35 56 21:47 16.07.2022
2580 Clouds 22 1016 100 4828 2.06 200 19:53 16.07.2022
2581 Clouds 30 1016 70 9656 2.06 330 18:35 16.07.2022
2582 Clouds 28 1016 78 9656 2.57 330 17:19 16.07.2022
2583 Clouds 24 1015 100 8047 0.45 315 14:31 16.07.2022
2584 Clouds 26 1013 82 10000 0.89 281 11:38 16.07.2022
2585 Clouds 26 1014 80 10000 0.45 309 09:35 16.07.2022
2586 Clouds 26 1015 79 10000 0.45 252 08:47 16.07.2022
2587 Clouds 27 1015 76 10000 2.67 2 08:29 16.07.2022
2588 Clouds 26 1015 89 10000 1.54 310 04:24 16.07.2022
2589 Clouds 27 1015 89 10000 2.06 290 03:22 16.07.2022
2590 Clouds 30 1015 70 10000 4.02 42 23:37 15.07.2022
2591 Clouds 30 1015 74 10000 3.09 70 22:41 15.07.2022
2592 Clouds 30 1016 70 10000 4.12 60 21:29 15.07.2022
2593 Clouds 30 1016 66 10000 3.6 30 20:31 15.07.2022
2594 Clouds 30 1016 74 10000 2.06 300 18:44 15.07.2022
2595 Clouds 28 1014 73 10000 0.89 32 17:44 15.07.2022
2596 Clouds 25 1014 84 10000 1.34 283 14:54 15.07.2022
2597 Clouds 25 1014 84 10000 0.45 321 13:18 15.07.2022
2598 Clouds 25 1014 84 10000 0.89 14 11:45 15.07.2022
2599 Clouds 24 1013 84 10000 0.89 350 10:27 15.07.2022
2600 Clouds 27 1015 94 10000 4.12 330 06:30 15.07.2022
2601 Clouds 28 1013 78 10000 5.66 360 01:32 15.07.2022
2602 Clouds 29 1014 74 10000 5.36 36 00:22 15.07.2022
2603 Clouds 30 1012 57 10000 4.92 63 22:53 14.07.2022
2604 Clouds 29 1013 65 10000 4.47 65 21:54 14.07.2022
2605 Clouds 28 1015 78 10000 4.12 60 21:30 14.07.2022
2606 Clouds 29 1013 64 10000 3.13 53 20:45 14.07.2022
2607 Clouds 28 1015 74 10000 3.58 32 20:24 14.07.2022
2608 Clouds 27 1015 78 10000 3.09 40 19:19 14.07.2022
2609 Clouds 27 1015 78 9656 0 0 16:23 14.07.2022
2610 Clouds 23 1015 100 8047 0.89 209 15:34 14.07.2022
2611 Clouds 23 1014 100 9656 2.06 270 14:31 14.07.2022
2612 Clouds 23 1014 100 8047 1.54 290 13:21 14.07.2022
2613 Clouds 25 1011 80 10000 0.89 288 11:56 14.07.2022
2614 Clouds 25 1011 79 10000 1.46 317 11:24 14.07.2022
2615 Clouds 25 1011 78 10000 1.46 317 10:37 14.07.2022
2616 Clouds 25 1014 70 10000 3.13 226 07:55 14.07.2022
2617 Clouds 31 1012 70 10000 3.58 109 01:27 14.07.2022
2618 Clouds 31 1010 59 10000 4.02 89 00:54 14.07.2022
2619 Clouds 32 1011 59 10000 3.58 80 22:57 13.07.2022
2620 Clouds 31 1013 66 10000 4.47 63 22:22 13.07.2022
2621 Clouds 32 1014 62 10000 4.47 38 21:21 13.07.2022
2622 Clouds 32 1015 62 10000 3.6 70 20:23 13.07.2022
2623 Clouds 31 1012 58 10000 1.34 18 17:54 13.07.2022
2624 Clouds 28 1013 83 8047 1.54 300 16:47 13.07.2022
2625 Clouds 23 1012 100 8047 1.54 240 15:43 13.07.2022
2626 Clouds 23 1012 100 9656 1.54 190 13:24 13.07.2022
2627 Clouds 25 1010 75 10000 0.45 120 10:46 13.07.2022
2628 Clouds 25 1010 74 10000 0.89 208 10:28 13.07.2022
2629 Clouds 25 1010 74 10000 0.89 208 10:28 13.07.2022
2630 Clouds 26 1011 73 10000 1.79 225 09:27 13.07.2022
2631 Clouds 27 1012 79 10000 0.89 236 07:53 13.07.2022
2632 Clouds 29 1010 84 10000 3.09 80 03:26 13.07.2022
2633 Clouds 33 1009 62 9656 4.12 80 00:24 13.07.2022
2634 Clouds 32 1010 70 9656 3.58 77 22:19 12.07.2022
2635 Clouds 33 1011 62 9656 2.68 103 21:36 12.07.2022
2636 Clouds 33 1011 62 9656 1.34 199 20:42 12.07.2022
2637 Clouds 31 1012 70 9656 2.57 180 19:42 12.07.2022
2638 Clouds 30 1012 74 9656 1.54 180 18:21 12.07.2022
2639 Clouds 26 1012 100 8047 0.89 236 16:20 12.07.2022
2640 Clouds 25 1010 100 9656 0.89 223 14:31 12.07.2022
2641 Clear 25 1010 100 10000 0 0 13:24 12.07.2022
2642 Clouds 26 1008 80 10000 0.45 282 11:48 12.07.2022
2643 Clouds 26 1009 80 10000 0.89 285 10:25 12.07.2022
2644 Clouds 27 1011 78 10000 0.45 269 08:40 12.07.2022
2645 Clouds 27 1011 74 10000 0.91 220 07:47 12.07.2022
2646 Clouds 29 1010 67 10000 1.34 94 05:45 12.07.2022
2647 Clouds 29 1011 79 10000 4.12 80 04:18 12.07.2022
2648 Clouds 32 1009 66 10000 4.63 70 00:20 12.07.2022
2649 Clouds 34 1010 62 9656 4.02 96 22:39 11.07.2022
2650 Clouds 33 1009 55 10000 1.34 107 20:56 11.07.2022
2651 Clouds 33 1012 62 10000 2.68 85 20:32 11.07.2022
2652 Clouds 32 1010 59 10000 2.68 211 18:48 11.07.2022
2653 Clouds 30 1012 74 10000 4.63 150 18:23 11.07.2022
2654 Clouds 30 1012 74 10000 4.63 150 18:23 11.07.2022
2655 Haze 27 1013 89 6437 1.34 209 16:26 11.07.2022
2656 Mist 24 1012 100 3219 0 0 14:58 11.07.2022
2657 Clouds 26 1011 79 10000 0.45 246 12:42 11.07.2022
2658 Clouds 26 1011 78 10000 0.89 248 10:56 11.07.2022
2659 Clouds 27 1012 78 10000 0.45 276 09:54 11.07.2022
2660 Clouds 27 1012 77 10000 2.57 251 09:21 11.07.2022
2661 Clouds 27 1012 77 10000 0.89 278 08:30 11.07.2022
2662 Clouds 32 1011 60 10000 3.58 98 00:56 11.07.2022
2663 Clouds 32 1012 53 10000 4.02 98 23:53 10.07.2022
2664 Clouds 33 1015 62 10000 4.12 80 22:37 10.07.2022
2665 Clouds 32 1013 52 10000 3.58 101 20:55 10.07.2022
2666 Clouds 32 1016 70 10000 3.58 111 20:34 10.07.2022
2667 Clouds 32 1016 62 10000 2.68 101 19:28 10.07.2022
2668 Clouds 30 1015 62 10000 0.45 9 17:59 10.07.2022
2669 Clouds 29 1016 79 9656 1.34 222 17:20 10.07.2022
2670 Clouds 27 1016 89 9656 1.34 231 16:21 10.07.2022
2671 Clouds 25 1014 81 10000 1.51 259 14:44 10.07.2022
2672 Clear 24 1016 100 10000 0.45 267 13:29 10.07.2022
2673 Clouds 25 1013 80 10000 0.45 227 11:39 10.07.2022
2674 Clouds 26 1015 78 10000 2.66 270 09:45 10.07.2022
2675 Clouds 26 1016 77 10000 2.05 267 08:43 10.07.2022
2676 Clouds 27 1018 83 10000 1.54 270 06:39 10.07.2022
2677 Clouds 32 1014 52 10000 3.13 73 23:50 09.07.2022
2678 Clouds 32 1017 62 9656 3.58 61 22:26 09.07.2022
2679 Clouds 32 1017 66 10000 4.12 70 21:41 09.07.2022
2680 Clouds 30 1018 79 8047 2.68 64 19:44 09.07.2022
2681 Clouds 30 1018 79 8047 2.68 64 19:44 09.07.2022
2682 Clouds 28 1019 83 10000 0.45 146 18:28 09.07.2022
2683 Clouds 29 1018 84 10000 1.54 180 17:32 09.07.2022
2684 Clouds 28 1018 89 9656 1.03 260 16:34 09.07.2022
2685 Clouds 27 1018 94 9656 1.03 320 15:39 09.07.2022
2686 Clouds 24 1016 100 9656 1.03 260 14:23 09.07.2022
2687 Clouds 24 1016 100 10000 2.06 250 13:48 09.07.2022
2688 Clear 25 1014 79 10000 0.94 251 12:22 09.07.2022
2689 Clear 26 1015 76 10000 2.08 276 10:27 09.07.2022
2690 Clear 26 1015 75 10000 0.45 300 09:57 09.07.2022
2691 Clouds 27 1016 75 10000 1.79 261 07:44 09.07.2022
2692 Clouds 26 1016 84 10000 2.8 52 04:49 09.07.2022
2693 Clouds 31 1015 66 10000 3.13 70 00:38 09.07.2022
2694 Clouds 31 1015 66 10000 3.58 88 22:41 08.07.2022
2695 Clouds 31 1016 66 10000 2.68 24 21:27 08.07.2022
2696 Clouds 32 1016 66 10000 1.03 190 20:40 08.07.2022
2697 Clouds 31 1014 60 10000 1.34 28 19:48 08.07.2022
2698 Clouds 28 1017 83 9656 2.57 320 17:56 08.07.2022
2699 Clouds 24 1017 94 1609 3.13 329 16:33 08.07.2022
2700 Clouds 25 1014 79 10000 0.45 229 14:51 08.07.2022
2701 Clouds 25 1013 78 10000 0.89 277 12:42 08.07.2022
2702 Clouds 25 1013 78 10000 0.45 284 11:24 08.07.2022
2703 Clouds 26 1013 76 10000 0.45 307 10:21 08.07.2022
2704 Clouds 27 1014 77 10000 0.89 267 07:55 08.07.2022
2705 Clouds 28 1016 78 10000 2.06 60 06:23 08.07.2022
2706 Clouds 31 1013 66 10000 4.02 71 01:19 08.07.2022
2707 Clouds 32 1012 53 10000 4.47 85 22:57 07.07.2022
2708 Clouds 32 1012 53 10000 3.58 80 21:52 07.07.2022
2709 Clouds 30 1015 70 8047 2.68 103 19:35 07.07.2022
2710 Clouds 30 1013 63 10000 0.89 123 17:56 07.07.2022
2711 Clouds 25 1015 100 8047 0.89 293 16:32 07.07.2022
2712 Clouds 25 1014 100 9656 0.45 234 14:21 07.07.2022
2713 Clouds 26 1012 79 10000 0.45 103 12:46 07.07.2022
2714 Clouds 26 1012 79 10000 0.66 242 12:23 07.07.2022
2715 Clouds 26 1012 78 10000 0.66 242 11:34 07.07.2022
2716 Clouds 26 1012 78 10000 1.06 242 10:46 07.07.2022
2717 Clouds 26 1012 78 10000 0.45 144 10:27 07.07.2022
2718 Clouds 26 1012 78 10000 0.45 286 09:32 07.07.2022
2719 Clouds 28 1015 83 10000 0 0 06:26 07.07.2022
2720 Clouds 31 1011 59 10000 4.02 96 00:28 07.07.2022
2721 Clouds 31 1011 56 10000 4.02 86 23:36 06.07.2022
2722 Clouds 32 1011 51 10000 4.02 49 23:18 06.07.2022
2723 Clouds 31 1011 48 10000 3.13 102 22:51 06.07.2022
2724 Clouds 31 1014 62 10000 5.14 70 22:33 06.07.2022
2725 Clouds 31 1015 62 10000 1.54 120 20:23 06.07.2022
2726 Clouds 30 1015 70 10000 3.09 100 19:18 06.07.2022
2727 Clouds 28 1015 78 8047 0.45 140 17:21 06.07.2022
2728 Clouds 27 1013 69 10000 0.45 276 15:55 06.07.2022
2729 Clouds 25 1011 81 10000 0.45 230 12:44 06.07.2022
2730 Clouds 25 1011 80 10000 1.11 281 11:52 06.07.2022
2731 Clouds 25 1012 78 10000 0.89 103 10:49 06.07.2022
2732 Clouds 26 1012 72 10000 2.95 276 09:21 06.07.2022
2733 Clear 27 1013 75 10000 1.34 285 07:44 06.07.2022
2734 Clouds 26 1015 94 10000 1.54 250 06:43 06.07.2022
2735 Clouds 32 1014 62 10000 4.63 50 23:42 05.07.2022
2736 Clouds 32 1012 52 10000 3.13 51 22:42 05.07.2022
2737 Clouds 31 1013 51 10000 0.89 64 20:48 05.07.2022
2738 Clouds 31 1014 58 10000 2.68 80 19:55 05.07.2022
2739 Clouds 31 1016 62 10000 2.24 107 19:36 05.07.2022
2740 Clouds 30 1014 63 10000 0.89 87 17:50 05.07.2022
2741 Clouds 29 1016 70 10000 1.03 260 17:18 05.07.2022
2742 Clouds 27 1015 74 10000 0.89 284 15:48 05.07.2022
2743 Clouds 25 1014 78 10000 0.45 280 14:44 05.07.2022
2744 Clouds 26 1014 79 10000 0.89 327 12:53 05.07.2022
2745 Clouds 26 1014 79 10000 0.45 296 12:22 05.07.2022
2746 Clouds 26 1014 79 10000 0.45 312 10:45 05.07.2022
2747 Clouds 26 1015 78 10000 0.89 332 09:44 05.07.2022
2748 Clouds 26 1015 79 10000 0.89 283 08:20 05.07.2022
2749 Clouds 28 1015 71 10000 0.89 48 06:47 05.07.2022
2750 Clouds 27 1015 83 10000 1.79 94 04:30 05.07.2022
2751 Clouds 27 1013 80 10000 2.77 138 00:47 05.07.2022
2752 Clouds 31 1015 66 10000 2.24 121 23:37 04.07.2022
2753 Clouds 28 1013 78 10000 2.6 163 22:54 04.07.2022
2754 Clouds 30 1014 57 10000 1.34 86 21:56 04.07.2022
2755 Clouds 30 1014 66 10000 1.34 269 20:55 04.07.2022
2756 Clouds 27 1016 83 10000 2.06 290 20:35 04.07.2022
2757 Clouds 28 1015 72 10000 1.79 302 19:56 04.07.2022
2758 Clouds 26 1017 89 10000 2.57 300 19:36 04.07.2022
2759 Clouds 24 1017 100 10000 1.03 360 18:34 04.07.2022
2760 Clouds 23 1017 100 4828 2.68 302 16:36 04.07.2022
2761 Clouds 23 1016 100 4828 1.79 330 15:34 04.07.2022
2762 Clouds 23 1016 100 4828 2.24 251 13:35 04.07.2022
2763 Clouds 24 1014 82 10000 0.45 213 12:36 04.07.2022
2764 Clouds 26 1012 76 4828 1.34 297 10:39 04.07.2022
2765 Clouds 26 1013 74 4311 2.68 298 10:18 04.07.2022
2766 Clouds 26 1015 84 4355 1.82 80 08:31 04.07.2022
2767 Clouds 28 1015 78 10000 3.09 50 05:34 04.07.2022
2768 Clouds 32 1011 55 10000 5.81 74 00:42 04.07.2022
2769 Clear 32 1013 58 10000 6.17 50 23:25 03.07.2022
2770 Clouds 33 1012 47 10000 3.58 90 21:58 03.07.2022
2771 Clouds 32 1015 62 10000 4.02 56 20:41 03.07.2022
2772 Clouds 31 1015 70 10000 3.6 140 19:42 03.07.2022
2773 Clouds 31 1015 70 10000 3.6 140 19:23 03.07.2022
2774 Clouds 30 1015 74 9656 1.79 124 17:45 03.07.2022
2775 Clouds 30 1013 69 10000 1.79 285 16:54 03.07.2022
2776 Clouds 26 1014 100 9656 1.54 300 15:25 03.07.2022
2777 Clouds 26 1014 100 8047 2.06 300 14:37 03.07.2022
2778 Clouds 26 1014 100 8047 1.54 300 13:49 03.07.2022
2779 Clouds 26 1012 78 10000 0.69 308 12:41 03.07.2022
2780 Clouds 26 1012 77 10000 0.45 274 11:39 03.07.2022
2781 Clear 26 1012 79 10000 0.45 274 10:39 03.07.2022
2782 Clear 26 1012 78 10000 0.45 260 09:59 03.07.2022
2783 Clear 27 1013 83 10000 0.12 26 07:36 03.07.2022
2784 Clouds 29 1013 79 10000 2.06 80 05:18 03.07.2022
2785 Clouds 32 1011 66 10000 4.63 90 00:24 03.07.2022
2786 Clouds 32 1012 58 10000 5.14 90 22:36 02.07.2022
2787 Clouds 32 1013 58 10000 3.58 94 21:38 02.07.2022
2788 Clouds 33 1011 49 10000 3.58 136 19:53 02.07.2022
2789 Clouds 31 1014 66 10000 3.09 90 19:31 02.07.2022
2790 Clouds 31 1012 58 10000 1.34 81 17:58 02.07.2022
2791 Clouds 30 1014 70 10000 2.68 113 17:36 02.07.2022
2792 Clouds 25 1013 94 9656 2.06 290 15:28 02.07.2022
2793 Clouds 25 1011 80 10000 0.72 123 12:22 02.07.2022
2794 Clouds 25 1011 80 10000 0.45 237 11:28 02.07.2022
2795 Clouds 26 1011 78 10000 0.45 237 10:48 02.07.2022
2796 Clouds 26 1011 77 10000 0.45 134 09:49 02.07.2022
2797 Clouds 27 1012 76 10000 0.64 267 08:36 02.07.2022
2798 Clear 27 1012 75 10000 0.45 300 08:18 02.07.2022
2799 Clear 30 1010 62 10000 3.13 98 02:52 02.07.2022
2800 Clouds 32 1012 58 10000 5.14 90 00:27 02.07.2022
2801 Clouds 33 1010 52 10000 4.47 121 22:59 01.07.2022
2802 Clouds 33 1011 51 10000 3.58 111 21:56 01.07.2022
2803 Clouds 33 1013 58 10000 3.58 135 21:37 01.07.2022
2804 Clouds 33 1011 51 10000 0.89 162 20:57 01.07.2022
2805 Clouds 33 1012 52 10000 1.34 217 19:47 01.07.2022
2806 Clouds 31 1015 66 10000 0.45 335 18:42 01.07.2022
2807 Mist 29 1015 79 9656 0.89 57 16:35 01.07.2022
2808 Haze 25 1014 100 8047 1.54 290 13:55 01.07.2022
2809 Mist 25 1014 100 8047 1.54 290 13:22 01.07.2022
2810 Clouds 26 1013 79 10000 0.49 226 10:46 01.07.2022
2811 Clouds 26 1013 78 10000 1 249 10:18 01.07.2022
2812 Clear 28 1014 71 10000 0.89 128 05:58 01.07.2022
2813 Clouds 31 1013 66 10000 4.12 70 01:30 01.07.2022
2814 Clear 31 1014 66 10000 3.6 100 23:28 30.06.2022
2815 Clouds 32 1013 53 10000 2.24 120 22:45 30.06.2022
2816 Clouds 32 1013 53 10000 2.24 120 22:45 30.06.2022
2817 Clouds 31 1015 66 10000 4.63 70 22:27 30.06.2022
2818 Clouds 32 1014 55 10000 4.02 84 21:50 30.06.2022
2819 Clouds 32 1016 58 10000 1.54 110 20:31 30.06.2022
2820 Clouds 31 1015 56 10000 1.34 98 19:55 30.06.2022
2821 Clouds 30 1017 66 10000 1.03 90 19:32 30.06.2022
2822 Clouds 30 1018 70 10000 2.06 140 18:43 30.06.2022
2823 Clouds 30 1016 61 10000 0.89 123 17:49 30.06.2022
2824 Clouds 28 1016 70 10000 0.45 301 16:55 30.06.2022
2825 Clouds 27 1016 76 10000 0.89 261 15:50 30.06.2022
2826 Clear 24 1016 100 9656 1.54 290 13:51 30.06.2022
2827 Clear 24 1016 100 9656 1.54 290 13:18 30.06.2022
2828 Clear 24 1014 81 10000 1.46 261 12:32 30.06.2022
2829 Clear 25 1015 79 10000 2.63 264 10:19 30.06.2022
2830 Clear 25 1016 78 10000 0.45 286 09:40 30.06.2022
2831 Clear 25 1016 78 10000 1.34 284 08:22 30.06.2022
2832 Clear 25 1018 94 10000 0 0 07:40 30.06.2022
2833 Clouds 28 1016 78 10000 2.06 50 03:35 30.06.2022
2834 Clouds 31 1017 62 10000 3.6 70 23:38 29.06.2022
2835 Clouds 31 1017 62 10000 3.6 80 22:41 29.06.2022
2836 Clouds 32 1015 47 10000 4.02 89 21:59 29.06.2022
2837 Clouds 31 1018 66 10000 2.57 100 20:35 29.06.2022
2838 Clear 32 1016 53 10000 2.24 101 19:56 29.06.2022
2839 Clear 30 1016 57 10000 0.45 188 17:55 29.06.2022
2840 Clear 30 1016 57 10000 0.45 188 17:55 29.06.2022
2841 Clouds 29 1016 64 10000 1.34 210 16:55 29.06.2022
2842 Clouds 27 1016 75 10000 0.89 235 15:44 29.06.2022
2843 Clear 24 1017 100 10000 1.34 150 13:43 29.06.2022
2844 Clouds 24 1015 83 10000 0.45 265 12:36 29.06.2022
2845 Clouds 25 1015 80 10000 0.45 272 09:46 29.06.2022
2846 Clouds 26 1015 78 10000 1.41 312 09:22 29.06.2022
2847 Clouds 26 1017 94 10000 0.89 256 06:29 29.06.2022
2848 Clouds 28 1016 78 10000 3.6 30 04:42 29.06.2022
2849 Clouds 31 1013 59 10000 4.02 34 00:53 29.06.2022
2850 Clouds 30 1015 70 10000 4.12 50 00:33 29.06.2022
2851 Clouds 32 1014 55 10000 4.47 67 22:50 28.06.2022
2852 Clouds 32 1015 53 10000 4.47 86 21:58 28.06.2022
2853 Clouds 31 1017 62 10000 4.02 51 21:39 28.06.2022
2854 Clouds 31 1017 62 10000 3.58 80 21:19 28.06.2022
2855 Clouds 31 1016 52 10000 2.24 70 19:54 28.06.2022
2856 Clouds 31 1018 62 10000 1.79 80 19:28 28.06.2022
2857 Clouds 30 1018 66 10000 0.45 144 18:38 28.06.2022
2858 Clouds 29 1016 60 10000 1.34 42 16:58 28.06.2022
2859 Clouds 27 1016 70 10000 0.45 273 15:55 28.06.2022
2860 Clouds 25 1015 79 10000 0.89 256 14:49 28.06.2022
2861 Clouds 23 1016 100 9656 0 0 14:18 28.06.2022
2862 Clear 24 1016 100 9656 0.45 284 13:45 28.06.2022
2863 Clouds 25 1014 79 10000 0.45 284 12:28 28.06.2022
2864 Clouds 25 1015 77 10000 0.89 263 09:53 28.06.2022
2865 Clouds 26 1016 75 10000 2.49 278 08:55 28.06.2022
2866 Clouds 26 1016 75 10000 0.89 290 08:26 28.06.2022
2867 Clouds 26 1016 74 10000 0.89 266 07:20 28.06.2022
2868 Clouds 28 1015 69 10000 2.57 50 03:38 28.06.2022
2869 Clouds 28 1014 67 10000 4.11 53 23:51 27.06.2022
2870 Clouds 31 1015 58 10000 2.57 70 23:25 27.06.2022
2871 Clouds 28 1015 69 10000 1.24 104 21:53 27.06.2022
2872 Clouds 31 1017 58 10000 0 0 21:21 27.06.2022
2873 Clouds 25 1016 82 10000 2.77 193 19:54 27.06.2022
2874 Clouds 25 1017 83 10000 3.22 211 18:50 27.06.2022
2875 Clouds 26 1018 83 10000 1.34 238 17:33 27.06.2022
2876 Clouds 25 1016 78 10000 1.79 257 15:44 27.06.2022
2877 Clouds 22 1018 100 8047 2.24 254 14:18 27.06.2022
2878 Clouds 23 1016 83 10000 2.24 290 12:58 27.06.2022
2879 Clouds 23 1016 83 10000 1.79 279 11:30 27.06.2022
2880 Clouds 26 1016 67 10000 4.92 185 09:45 27.06.2022
2881 Clouds 27 1016 77 10000 0.89 321 08:40 27.06.2022
2882 Clouds 26 1018 94 10000 1.54 280 07:39 27.06.2022
2883 Clouds 27 1017 78 10000 1.03 60 05:19 27.06.2022
2884 Clouds 30 1014 66 10000 3.6 60 01:22 27.06.2022
2885 Clouds 31 1013 56 10000 3.13 49 22:58 26.06.2022
2886 Clouds 31 1016 66 9656 2.57 40 21:37 26.06.2022
2887 Clouds 31 1016 66 8047 2.57 10 20:28 26.06.2022
2888 Clouds 29 1017 74 8047 0.89 360 18:33 26.06.2022
2889 Clear 28 1017 78 8047 3.09 290 17:38 26.06.2022
2890 Clear 25 1016 100 8047 2.68 276 15:36 26.06.2022
2891 Clouds 24 1015 100 8047 2.06 280 14:22 26.06.2022
2892 Clouds 24 1015 100 9656 1.54 280 13:23 26.06.2022
2893 Clear 25 1013 81 10000 1.43 299 11:39 26.06.2022
2894 Clear 25 1013 80 10000 0.45 286 10:42 26.06.2022
2895 Clear 25 1013 79 10000 0.83 294 09:55 26.06.2022
2896 Clear 26 1015 78 10000 0.45 275 07:47 26.06.2022
2897 Clouds 27 1015 83 10000 2.06 60 05:26 26.06.2022
2898 Clouds 30 1013 62 10000 5.14 40 00:36 26.06.2022
2899 Clouds 30 1013 62 10000 5.14 40 00:18 26.06.2022
2900 Clouds 31 1013 62 10000 4.63 80 23:25 25.06.2022
2901 Clouds 31 1013 62 10000 4.92 100 22:42 25.06.2022
2902 Clouds 31 1013 62 10000 5.81 84 22:24 25.06.2022
2903 Clouds 31 1013 66 10000 4.63 80 21:21 25.06.2022
2904 Clouds 31 1013 55 10000 4.47 76 20:32 25.06.2022
2905 Clouds 31 1011 48 10000 2.24 29 19:56 25.06.2022
2906 Clouds 30 1015 66 10000 2.06 230 18:22 25.06.2022
2907 Clouds 29 1015 74 10000 1.03 340 17:26 25.06.2022
2908 Clouds 27 1015 83 10000 0.89 277 16:25 25.06.2022
2909 Clouds 23 1014 100 9656 0 0 14:28 25.06.2022
2910 Clouds 24 1012 80 10000 0.77 243 12:43 25.06.2022
2911 Clouds 24 1011 80 10000 0.88 258 11:39 25.06.2022
2912 Clouds 25 1012 80 10000 0.89 275 09:24 25.06.2022
2913 Clouds 25 1013 80 10000 1.34 267 08:48 25.06.2022
2914 Clear 25 1013 77 10000 0.45 64 08:20 25.06.2022
2915 Clouds 26 1014 83 10000 1.79 98 05:26 25.06.2022
2916 Clouds 30 1012 66 10000 4.12 70 00:44 25.06.2022
2917 Clouds 30 1013 66 10000 4.12 50 23:32 24.06.2022
2918 Clouds 31 1011 52 10000 4.02 68 21:59 24.06.2022
2919 Clouds 31 1014 62 10000 2.06 70 21:21 24.06.2022
2920 Clouds 30 1014 70 10000 4.12 60 20:22 24.06.2022
2921 Clouds 29 1014 70 10000 3.13 82 19:23 24.06.2022
2922 Clouds 31 1012 57 10000 1.34 5 18:50 24.06.2022
2923 Clouds 29 1015 70 10000 0.45 111 18:30 24.06.2022
2924 Clouds 30 1013 60 10000 0.45 119 17:46 24.06.2022
2925 Mist 26 1015 89 10000 0.89 224 16:32 24.06.2022
2926 Mist 23 1014 100 10000 1.54 280 14:29 24.06.2022
2927 Clouds 23 1014 100 10000 1.03 260 13:55 24.06.2022
2928 Clouds 23 1012 81 10000 1.95 284 12:26 24.06.2022
2929 Clouds 24 1012 82 10000 1.95 284 11:40 24.06.2022
2930 Clouds 24 1012 81 10000 2.34 288 10:22 24.06.2022
2931 Clouds 25 1013 81 10000 0.89 279 09:41 24.06.2022
2932 Clouds 25 1013 81 10000 0.89 266 08:52 24.06.2022
2933 Clouds 25 1016 88 10000 0 0 07:20 24.06.2022
2934 Clouds 26 1016 83 10000 1.54 360 06:42 24.06.2022
2935 Clouds 26 1016 83 10000 1.54 360 06:18 24.06.2022
2936 Clouds 28 1013 74 10000 6.17 360 02:44 24.06.2022
2937 Clouds 31 1012 56 10000 4.92 16 22:58 23.06.2022
2938 Clouds 30 1014 62 10000 4.92 26 22:40 23.06.2022
2939 Clouds 30 1013 55 10000 3.13 340 20:57 23.06.2022
2940 Clouds 29 1016 70 10000 5.36 10 20:32 23.06.2022
2941 Clouds 29 1016 74 10000 4.47 350 19:25 23.06.2022
2942 Clouds 28 1015 73 10000 4.02 345 17:51 23.06.2022
2943 Clouds 28 1015 70 10000 2.24 312 16:58 23.06.2022
2944 Clouds 27 1014 74 10000 1.34 281 15:50 23.06.2022
2945 Clear 24 1015 100 8047 1.54 320 15:24 23.06.2022
2946 Clouds 23 1015 100 9656 0.89 355 13:33 23.06.2022
2947 Clouds 24 1013 77 10000 2.79 303 11:27 23.06.2022
2948 Clouds 25 1013 78 10000 0.45 291 10:31 23.06.2022
2949 Clouds 25 1014 76 10000 0.89 302 08:49 23.06.2022
2950 Clouds 27 1013 71 10000 3.58 349 02:46 23.06.2022
2951 Clouds 28 1015 78 10000 6.69 360 00:26 23.06.2022
2952 Clouds 29 1015 70 10000 6.26 26 23:27 22.06.2022
2953 Clouds 28 1015 78 10000 4.47 338 22:39 22.06.2022
2954 Clouds 28 1016 74 10000 3.13 350 21:22 22.06.2022
2955 Clouds 27 1017 83 10000 2.68 339 20:34 22.06.2022
2956 Clouds 28 1015 73 10000 1.79 9 19:52 22.06.2022
2957 Clouds 26 1017 89 10000 2.57 350 18:40 22.06.2022
2958 Clouds 25 1016 94 8047 3.09 350 17:27 22.06.2022
2959 Clouds 24 1015 100 8047 1.34 38 16:18 22.06.2022
2960 Clouds 23 1015 100 9656 1.54 280 15:26 22.06.2022
2961 Clouds 23 1015 100 8047 2.57 280 14:18 22.06.2022
2962 Clouds 23 1015 100 8047 2.57 290 13:37 22.06.2022
2963 Clouds 23 1015 100 8047 2.57 290 13:18 22.06.2022
2964 Clouds 23 1013 83 1879 2.68 274 11:48 22.06.2022
2965 Clouds 24 1013 83 3711 0.89 309 10:55 22.06.2022
2966 Clouds 24 1013 83 3276 0.89 97 09:59 22.06.2022
2967 Clouds 25 1014 81 2784 0.45 154 07:58 22.06.2022
2968 Clouds 27 1014 89 10000 4.12 360 03:40 22.06.2022
2969 Clouds 27 1013 89 10000 5.14 360 01:23 22.06.2022
2970 Clouds 28 1013 83 10000 6.69 350 23:41 21.06.2022
2971 Clouds 26 1014 88 10000 6.85 6 21:49 21.06.2022
2972 Clouds 25 1015 93 4968 8.21 7 19:50 21.06.2022
2973 Clouds 27 1015 83 10000 3.09 360 18:32 21.06.2022
2974 Clouds 26 1015 94 10000 4.02 9 17:25 21.06.2022
2975 Clouds 24 1013 100 8047 1.79 336 13:33 21.06.2022
2976 Clouds 23 1011 84 10000 2.24 256 11:31 21.06.2022
2977 Clouds 24 1011 82 10000 3.58 296 09:48 21.06.2022
2978 Clouds 25 1012 81 9121 4.47 355 08:37 21.06.2022
2979 Clouds 26 1013 89 10000 6.26 360 05:41 21.06.2022
2980 Clouds 28 1011 62 10000 5.81 13 00:43 21.06.2022
2981 Clouds 29 1013 74 10000 8.05 25 23:18 20.06.2022
2982 Clouds 30 1012 58 10000 5.81 53 21:52 20.06.2022
2983 Clouds 31 1012 53 10000 7.15 355 20:47 20.06.2022
2984 Clouds 29 1015 70 10000 4.47 355 19:38 20.06.2022
2985 Clouds 28 1015 74 10000 5.81 355 18:45 20.06.2022
2986 Clouds 28 1013 66 10000 1.79 306 17:52 20.06.2022
2987 Clouds 27 1015 83 9656 2.24 316 17:29 20.06.2022
2988 Clouds 27 1013 74 10000 1.79 331 15:55 20.06.2022
2989 Clouds 23 1011 82 10000 0.89 346 12:44 20.06.2022
2990 Clouds 24 1011 82 10000 0.89 287 10:41 20.06.2022
2991 Clouds 24 1012 83 10000 0.89 272 09:41 20.06.2022
2992 Clouds 24 1013 83 10000 2.79 291 08:44 20.06.2022
2993 Clouds 25 1013 82 10000 0.45 315 05:55 20.06.2022
2994 Clouds 26 1013 100 9656 0 0 02:27 20.06.2022
2995 Clouds 25 1014 100 8047 1.34 271 00:26 20.06.2022
2996 Clouds 26 1013 80 10000 0.89 292 22:53 19.06.2022
2997 Clouds 26 1013 79 10000 0.89 260 21:58 19.06.2022
2998 Drizzle 25 1015 100 9656 2.24 272 21:40 19.06.2022
2999 Drizzle 24 1015 100 9656 2.68 301 20:39 19.06.2022
3000 Clouds 25 1014 80 9869 0.89 251 19:47 19.06.2022
3001 Clouds 25 1014 80 4951 2.24 314 18:46 19.06.2022
3002 Clouds 24 1015 100 8047 2.24 309 18:26 19.06.2022
3003 Clouds 24 1015 100 8047 2.57 320 17:22 19.06.2022
3004 Clouds 23 1015 100 4828 2.68 311 16:35 19.06.2022
3005 Clouds 23 1015 100 6437 4.63 20 15:41 19.06.2022
3006 Clouds 23 1015 100 6437 4.02 9 14:57 19.06.2022
3007 Clouds 24 1014 100 4828 4.12 40 14:20 19.06.2022
3008 Clouds 24 1013 100 9656 2.24 53 13:36 19.06.2022
3009 Clouds 25 1011 80 10000 2.98 332 11:38 19.06.2022
3010 Clouds 25 1011 80 10000 0.89 287 10:31 19.06.2022
3011 Clouds 25 1013 81 5490 1.79 294 08:49 19.06.2022
3012 Clouds 24 1013 81 8845 1.79 282 08:19 19.06.2022
3013 Clouds 27 1014 83 10000 2.57 350 05:42 19.06.2022
3014 Clouds 28 1012 83 10000 5.14 10 02:26 19.06.2022
3015 Clouds 29 1012 70 10000 6.17 30 00:25 19.06.2022
3016 Clouds 30 1012 70 10000 6.17 10 23:36 18.06.2022
3017 Clouds 29 1013 74 10000 6.26 9 22:44 18.06.2022
3018 Clouds 28 1014 78 10000 6.17 350 21:38 18.06.2022
3019 Clouds 28 1014 78 10000 7.2 360 20:42 18.06.2022
3020 Clouds 27 1015 89 9656 5.36 20 19:40 18.06.2022
3021 Clouds 26 1014 89 8047 6.17 360 18:53 18.06.2022
3022 Clouds 28 1014 78 10000 3.58 5 17:35 18.06.2022
3023 Clouds 28 1012 70 10000 1.79 351 16:59 18.06.2022
3024 Clouds 23 1014 100 9656 1.79 331 15:37 18.06.2022
3025 Clouds 23 1012 79 10000 1.34 273 14:46 18.06.2022
3026 Clouds 24 1012 94 9656 1.54 310 13:30 18.06.2022
3027 Clouds 25 1011 78 10000 1.79 5 11:56 18.06.2022
3028 Clouds 25 1011 81 10000 2.55 297 10:55 18.06.2022
3029 Clear 25 1012 80 10000 0.45 273 09:28 18.06.2022
3030 Clear 25 1012 81 10000 0.89 273 08:30 18.06.2022
3031 Clouds 25 1013 80 10000 0.89 279 07:20 18.06.2022
3032 Clear 27 1013 83 10000 2.68 34 03:47 18.06.2022
3033 Clouds 28 1013 74 9656 4.47 28 01:26 18.06.2022
3034 Clouds 28 1013 74 9656 4.47 28 01:26 18.06.2022
3035 Clouds 29 1011 59 10000 3.58 49 00:48 18.06.2022
3036 Clouds 29 1011 60 10000 2.68 31 23:59 17.06.2022
3037 Clouds 30 1013 66 10000 4.12 10 23:24 17.06.2022
3038 Clouds 29 1015 70 10000 3.13 54 21:27 17.06.2022
3039 Clouds 29 1015 70 10000 2.57 340 20:26 17.06.2022
3040 Clouds 29 1014 61 10000 2.68 61 18:52 17.06.2022
3041 Clouds 28 1014 67 10000 3.13 22 17:46 17.06.2022
3042 Mist 24 1016 94 9656 1.34 327 16:43 17.06.2022
3043 Mist 24 1016 94 9656 1.79 335 16:18 17.06.2022
3044 Mist 23 1015 100 10000 1.54 310 15:34 17.06.2022
3045 Mist 23 1015 100 10000 1.03 310 14:21 17.06.2022
3046 Clouds 23 1015 94 10000 1.54 350 13:48 17.06.2022
3047 Clouds 23 1015 94 10000 1.54 350 13:26 17.06.2022
3048 Clouds 24 1013 75 10000 0.89 276 11:58 17.06.2022
3049 Clouds 24 1013 74 10000 0.89 301 11:39 17.06.2022
3050 Clear 24 1013 74 10000 1.34 271 11:21 17.06.2022
3051 Clear 25 1014 81 10000 1.78 316 08:33 17.06.2022
3052 Clear 26 1014 78 10000 0.45 167 07:51 17.06.2022
3053 Clouds 27 1016 89 10000 0 0 06:32 17.06.2022
3054 Clear 28 1013 78 10000 3.58 88 03:20 17.06.2022
3055 Clouds 31 1013 62 10000 5.66 60 00:43 17.06.2022
3056 Clouds 31 1014 62 10000 4.02 47 23:25 16.06.2022
3057 Clouds 32 1015 62 10000 4.63 70 22:31 16.06.2022
3058 Clouds 32 1015 58 10000 2.24 51 21:19 16.06.2022
3059 Clouds 32 1013 49 10000 1.79 19 20:50 16.06.2022
3060 Clouds 32 1014 51 10000 2.68 21 19:59 16.06.2022
3061 Clouds 31 1014 53 10000 1.34 267 18:44 16.06.2022
3062 Clouds 30 1014 58 10000 2.24 324 17:44 16.06.2022
3063 Clear 28 1016 74 10000 2.24 300 17:22 16.06.2022
3064 Clouds 25 1014 71 10000 2.68 302 15:58 16.06.2022
3065 Clouds 23 1015 88 10000 2.68 313 15:21 16.06.2022
3066 Clouds 22 1015 100 8047 3.58 309 13:55 16.06.2022
3067 Clouds 23 1013 79 10000 1.79 280 12:47 16.06.2022
3068 Clouds 23 1013 79 10000 2.24 285 12:20 16.06.2022
3069 Clouds 22 1013 79 10000 2.68 273 11:21 16.06.2022
3070 Clouds 22 1013 81 10000 1.34 323 10:35 16.06.2022
3071 Clouds 25 1012 80 10000 1.34 249 09:39 16.06.2022
3072 Clouds 27 1013 78 10000 0.45 26 08:50 16.06.2022
3073 Clouds 27 1015 89 10000 2.06 20 07:38 16.06.2022
3074 Clouds 26 1014 85 10000 3.11 6 05:48 16.06.2022
3075 Clouds 28 1011 72 10000 1.34 95 03:44 16.06.2022
3076 Clouds 28 1010 68 10000 3.58 77 01:52 16.06.2022
3077 Clouds 28 1010 68 10000 3.58 77 01:52 16.06.2022
3078 Clouds 28 1012 78 8047 3.13 111 01:22 16.06.2022
3079 Clouds 29 1010 67 10000 3.58 61 23:58 15.06.2022
3080 Clouds 29 1010 65 10000 4.02 92 22:53 15.06.2022
3081 Clouds 29 1013 74 8047 4.92 94 21:34 15.06.2022
3082 Clouds 29 1011 65 10000 4.02 92 20:58 15.06.2022
3083 Clouds 28 1013 78 8047 4.92 115 20:36 15.06.2022
3084 Clouds 28 1011 67 10000 4.47 89 19:52 15.06.2022
3085 Clouds 28 1013 83 8047 2.68 102 18:30 15.06.2022
3086 Clouds 28 1012 72 8881 4.02 111 17:43 15.06.2022
3087 Haze 24 1013 100 6437 2.06 290 16:21 15.06.2022
3088 Clouds 23 1012 100 8047 2.57 310 14:37 15.06.2022
3089 Clouds 23 1012 100 2414 1.79 262 13:22 15.06.2022
3090 Clouds 24 1010 82 10000 1.34 280 12:40 15.06.2022
3091 Clouds 24 1009 82 10000 4.47 5 11:24 15.06.2022
3092 Clouds 24 1009 82 10000 1.79 280 10:21 15.06.2022
3093 Clouds 24 1010 82 10000 1.79 253 08:59 15.06.2022
3094 Clouds 24 1014 100 3219 5.14 110 07:32 15.06.2022
3095 Clouds 26 1012 83 10000 3.13 55 05:36 15.06.2022
3096 Clouds 28 1011 74 10000 2.68 54 02:40 15.06.2022
3097 Clouds 28 1011 74 10000 4.12 60 01:36 15.06.2022
3098 Clouds 29 1011 70 10000 5.66 60 00:19 15.06.2022
3099 Clouds 29 1012 74 10000 4.63 70 23:38 14.06.2022
3100 Clouds 31 1010 60 10000 5.36 59 22:46 14.06.2022
3101 Clouds 30 1013 74 10000 4.02 52 21:43 14.06.2022
3102 Clouds 30 1011 63 10000 3.58 69 20:58 14.06.2022
3103 Clouds 30 1013 70 10000 4.02 74 20:38 14.06.2022
3104 Clouds 30 1011 61 10000 2.68 38 19:47 14.06.2022
3105 Clouds 28 1014 78 10000 3.13 58 18:33 14.06.2022
3106 Clouds 25 1014 94 6437 1.54 310 16:50 14.06.2022
3107 Clouds 25 1014 94 6437 1.79 336 16:25 14.06.2022
3108 Clouds 24 1013 100 8047 1.79 60 15:36 14.06.2022
3109 Clouds 24 1011 81 10000 2.74 328 14:53 14.06.2022
3110 Clouds 23 1010 81 10000 0.89 339 13:57 14.06.2022
3111 Clouds 23 1010 82 9817 1.79 338 12:58 14.06.2022
3112 Clouds 24 1010 81 9756 1.79 328 11:54 14.06.2022
3113 Clouds 24 1011 82 10000 2.24 347 10:51 14.06.2022
3114 Clouds 24 1011 82 8966 1.34 331 10:25 14.06.2022
3115 Clouds 25 1011 81 6282 2.68 275 08:52 14.06.2022
3116 Clouds 25 1011 79 5440 1.79 355 08:23 14.06.2022
3117 Clouds 26 1014 100 10000 1.54 240 06:19 14.06.2022
3118 Clouds 28 1012 78 9656 1.54 20 03:39 14.06.2022
3119 Clouds 29 1012 74 9656 5.14 30 01:36 14.06.2022
3120 Clouds 30 1010 59 10000 2.68 71 23:53 13.06.2022
3121 Clouds 29 1013 74 9656 4.12 60 22:39 13.06.2022
3122 Clouds 29 1013 74 9656 4.12 60 22:19 13.06.2022
3123 Clouds 29 1014 74 8047 4.63 50 21:24 13.06.2022
3124 Clouds 29 1012 66 10000 2.24 5 19:48 13.06.2022
3125 Clouds 28 1013 68 10000 1.79 323 18:52 13.06.2022
3126 Clouds 27 1013 78 10000 1.79 312 17:52 13.06.2022
3127 Clouds 25 1015 100 10000 3.13 302 17:21 13.06.2022
3128 Clouds 23 1015 100 10000 2.57 330 16:22 13.06.2022
3129 Clouds 26 1012 76 10000 4.47 46 14:48 13.06.2022
3130 Clouds 25 1012 94 9656 4.12 350 14:23 13.06.2022
3131 Clouds 26 1012 94 8047 3.09 350 13:28 13.06.2022
3132 Clouds 27 1010 77 10000 0.45 237 11:50 13.06.2022
3133 Clouds 27 1010 74 10000 0.45 275 10:36 13.06.2022
3134 Clouds 27 1011 75 10000 0.89 281 09:42 13.06.2022
3135 Clouds 27 1011 74 10000 0.9 68 08:34 13.06.2022
3136 Clouds 27 1013 83 10000 1.34 100 06:35 13.06.2022
3137 Clouds 27 1012 83 10000 2.57 50 04:35 13.06.2022
3138 Clouds 30 1008 62 10000 4.02 100 01:44 13.06.2022
3139 Clouds 29 1009 65 10000 6.17 70 01:18 13.06.2022
3140 Clouds 31 1010 62 10000 6.17 100 23:41 12.06.2022
3141 Clouds 31 1011 70 10000 4.92 92 22:36 12.06.2022
3142 Clouds 31 1009 57 10000 3.58 88 21:46 12.06.2022
3143 Clouds 32 1010 56 10000 3.13 101 20:49 12.06.2022
3144 Clouds 31 1011 57 10000 2.68 93 19:49 12.06.2022
3145 Clouds 31 1011 58 10000 3.13 69 18:53 12.06.2022
3146 Clouds 29 1014 74 8047 2.57 50 17:24 12.06.2022
3147 Clouds 28 1011 73 10000 0.89 323 15:44 12.06.2022
3148 Clouds 27 1011 77 10000 2.33 251 14:50 12.06.2022
3149 Clouds 26 1012 100 9656 1.54 280 14:18 12.06.2022
3150 Clouds 26 1012 94 8047 1.54 70 13:44 12.06.2022
3151 Clouds 27 1010 76 10000 0.45 94 12:22 12.06.2022
3152 Clouds 27 1010 76 10000 1.46 116 10:46 12.06.2022
3153 Clouds 27 1011 75 10000 1.34 102 09:42 12.06.2022
3154 Clouds 28 1011 73 10000 0.45 102 08:50 12.06.2022
3155 Clouds 28 1011 73 10000 1.34 120 07:52 12.06.2022
3156 Clear 28 1012 83 10000 2.06 90 06:27 12.06.2022
3157 Clouds 28 1008 71 10000 2.68 97 03:54 12.06.2022
3158 Clouds 30 1008 74 10000 5.14 90 02:25 12.06.2022
3159 Clear 31 1008 66 10000 5.14 80 01:35 12.06.2022
3160 Clear 32 1007 53 10000 4.02 121 00:44 12.06.2022
3161 Clear 32 1009 62 10000 4.02 99 00:18 12.06.2022
3162 Clear 32 1009 58 10000 4.02 94 23:18 11.06.2022
3163 Clear 32 1010 58 10000 4.12 120 22:35 11.06.2022
3164 Clear 31 1011 66 10000 4.63 70 21:18 11.06.2022
3165 Clear 31 1011 66 10000 4.63 70 21:18 11.06.2022
3166 Clouds 31 1012 66 10000 5.14 70 20:26 11.06.2022
3167 Clouds 32 1013 66 10000 4.12 60 19:33 11.06.2022
3168 Clear 32 1011 49 10000 1.34 59 18:43 11.06.2022
3169 Clouds 31 1013 66 9656 0 0 18:25 11.06.2022
3170 Clear 31 1011 54 10000 0.89 194 17:47 11.06.2022
3171 Clouds 30 1013 74 9656 0.89 105 17:25 11.06.2022
3172 Clear 29 1011 66 10000 0.89 146 16:42 11.06.2022
3173 Clouds 27 1013 89 8047 0.89 92 15:57 11.06.2022
3174 Clear 26 1011 79 10000 0.67 96 14:43 11.06.2022
3175 Clear 25 1012 100 9656 2.06 290 13:50 11.06.2022
3176 Clouds 25 1010 81 10000 0.56 66 11:46 11.06.2022
3177 Clouds 26 1010 79 10000 0.43 284 10:30 11.06.2022
3178 Clouds 27 1011 77 10000 0.45 250 09:41 11.06.2022
3179 Clouds 26 1014 100 10000 0.89 277 08:37 11.06.2022
3180 Clouds 27 1014 94 10000 1.34 267 06:32 11.06.2022
3181 Clouds 28 1013 83 10000 1.54 90 05:26 11.06.2022
3182 Clouds 29 1009 67 10000 1.34 126 02:42 11.06.2022
3183 Clear 30 1010 70 10000 4.12 60 01:41 11.06.2022
3184 Clouds 31 1008 58 10000 4.02 82 00:54 11.06.2022
3185 Clouds 32 1009 54 10000 3.13 74 22:55 10.06.2022
3186 Clouds 31 1011 66 10000 3.58 61 22:20 10.06.2022
3187 Clouds 31 1012 66 10000 0.89 15 21:22 10.06.2022
3188 Clouds 31 1014 66 10000 1.54 270 20:36 10.06.2022
3189 Clouds 31 1014 66 10000 1.54 270 20:18 10.06.2022
3190 Clouds 27 1014 83 10000 0.45 82 19:19 10.06.2022
3191 Mist 25 1015 100 1609 4.12 350 18:20 10.06.2022
3192 Clouds 25 1015 100 805 2.68 107 17:41 10.06.2022
3193 Mist 26 1015 100 8047 2.06 50 16:59 10.06.2022
3194 Mist 26 1015 100 8047 2.06 50 16:23 10.06.2022
3195 Haze 26 1014 94 8047 1.34 348 15:37 10.06.2022
3196 Mist 24 1013 100 9656 1.03 300 13:55 10.06.2022
3197 Clouds 25 1011 80 10000 0.45 310 12:48 10.06.2022
3198 Clouds 25 1010 80 10000 0.89 306 11:41 10.06.2022
3199 Clouds 26 1011 77 10000 0.89 296 10:44 10.06.2022
3200 Clouds 26 1011 79 9834 1.34 315 09:44 10.06.2022
3201 Clouds 26 1012 70 10000 3.13 344 08:30 10.06.2022
3202 Clouds 26 1012 75 10000 0.45 355 07:20 10.06.2022
3203 Clouds 26 1012 75 10000 1.79 346 06:43 10.06.2022
3204 Clouds 26 1014 83 10000 2.06 340 06:24 10.06.2022
3205 Clouds 27 1011 73 10000 1.79 323 03:50 10.06.2022
3206 Clouds 28 1012 74 10000 3.58 42 01:41 10.06.2022
3207 Clouds 28 1012 74 10000 3.09 60 00:28 10.06.2022
3208 Clouds 28 1012 74 10000 3.13 87 23:29 09.06.2022
3209 Clouds 28 1010 67 10000 0.89 315 21:58 09.06.2022
3210 Clouds 27 1012 78 10000 1.03 30 21:32 09.06.2022
3211 Clouds 27 1010 71 10000 0.89 349 20:54 09.06.2022
3212 Clouds 27 1010 71 10000 0.89 349 20:54 09.06.2022
3213 Clouds 25 1014 94 9656 1.54 270 19:59 09.06.2022
3214 Clouds 29 1012 67 10000 1.22 93 18:54 09.06.2022
3215 Clouds 24 1014 100 8047 1.54 320 18:21 09.06.2022
3216 Clouds 25 1014 100 2414 5.14 110 16:48 09.06.2022
3217 Clouds 26 1012 77 10000 1.84 257 15:47 09.06.2022
3218 Clouds 23 1012 100 8047 0 0 14:35 09.06.2022
3219 Clouds 24 1011 100 10000 0 0 13:48 09.06.2022
3220 Clouds 24 1011 100 10000 0 0 13:48 09.06.2022
3221 Clouds 24 1011 100 10000 0 0 13:26 09.06.2022
3222 Clouds 25 1010 78 10000 1.34 225 11:54 09.06.2022
3223 Clouds 26 1010 80 10000 1.34 192 10:51 09.06.2022
3224 Clouds 26 1010 79 10000 0.89 312 09:42 09.06.2022
3225 Clouds 26 1010 76 10000 4.38 199 09:23 09.06.2022
3226 Clouds 28 1011 73 10000 0.45 136 07:44 09.06.2022
3227 Clouds 28 1010 70 10000 1.34 87 05:46 09.06.2022
3228 Clouds 30 1007 61 10000 2.68 89 01:59 09.06.2022
3229 Clouds 31 1009 66 10000 4.12 110 23:34 08.06.2022
3230 Clouds 32 1007 53 10000 3.58 121 22:51 08.06.2022
3231 Clouds 31 1009 70 10000 3.6 70 22:26 08.06.2022
3232 Clouds 31 1008 61 10000 3.13 92 21:49 08.06.2022
3233 Clouds 32 1009 52 10000 3.58 94 20:43 08.06.2022
3234 Clouds 32 1009 50 10000 3.58 96 19:50 08.06.2022
3235 Clouds 32 1009 51 10000 2.68 124 18:58 08.06.2022
3236 Clouds 32 1009 52 10000 2.24 55 18:40 08.06.2022
3237 Clouds 27 1011 83 8047 2.06 160 16:34 08.06.2022
3238 Clouds 26 1011 94 8047 0.45 259 15:26 08.06.2022
3239 Clouds 25 1010 100 8047 1.54 250 13:36 08.06.2022
3240 Clouds 26 1008 76 10000 0.45 206 11:51 08.06.2022
3241 Clouds 27 1008 76 10000 0.89 183 11:24 08.06.2022
3242 Clouds 27 1008 75 10000 1.88 141 09:47 08.06.2022
3243 Clouds 27 1008 75 10000 0.45 336 09:20 08.06.2022
3244 Clouds 27 1009 76 10000 0.45 325 08:18 08.06.2022
3245 Clear 28 1010 78 10000 2.24 78 05:22 08.06.2022
3246 Clouds 33 1007 49 10000 5.14 60 02:38 08.06.2022
3247 Clouds 34 1007 49 10000 4.12 80 23:42 07.06.2022
3248 Clouds 34 1007 49 10000 4.12 80 23:24 07.06.2022
3249 Clouds 33 1008 52 9656 6.17 80 22:39 07.06.2022
3250 Clouds 35 1006 39 10000 4.92 84 21:59 07.06.2022
3251 Clouds 33 1008 58 8047 5.36 88 21:27 07.06.2022
3252 Clouds 33 1006 51 10000 4.02 121 20:46 07.06.2022
3253 Clouds 32 1009 58 9656 4.12 110 20:24 07.06.2022
3254 Clouds 32 1009 62 9656 2.57 150 19:19 07.06.2022
3255 Clouds 30 1008 62 10000 0.45 165 17:55 07.06.2022
3256 Clouds 28 1008 67 10000 2.24 188 16:56 07.06.2022
3257 Clouds 26 1009 83 8047 4.12 170 16:33 07.06.2022
3258 Clouds 25 1009 83 8047 2.68 204 15:40 07.06.2022
3259 Clouds 25 1009 83 8047 1.79 198 15:22 07.06.2022
3260 Clouds 24 1009 88 8047 0.45 205 14:46 07.06.2022
3261 Clouds 24 1008 88 8047 1.54 180 13:46 07.06.2022
3262 Clouds 24 1008 88 8047 1.54 180 13:46 07.06.2022
3263 Clouds 24 1008 88 8047 1.54 180 13:27 07.06.2022
3264 Clouds 26 1006 69 10000 0.89 129 12:22 07.06.2022
3265 Clouds 26 1006 66 10000 0.45 134 10:57 07.06.2022
3266 Clouds 27 1007 67 10000 0.45 188 09:46 07.06.2022
3267 Clouds 27 1007 72 10000 0.89 144 08:31 07.06.2022
3268 Clouds 27 1009 94 9656 0 0 07:21 07.06.2022
3269 Clouds 27 1007 76 10000 2.16 135 05:47 07.06.2022
3270 Clouds 31 1004 61 10000 3.58 102 01:44 07.06.2022
3271 Clouds 32 1005 62 10000 5.66 70 00:20 07.06.2022
3272 Clouds 32 1006 62 8047 4.92 83 23:25 06.06.2022
3273 Clouds 32 1006 62 8047 5.14 80 22:37 06.06.2022
3274 Clouds 32 1007 62 8047 6.17 80 21:36 06.06.2022
3275 Clouds 33 1006 49 10000 2.68 129 19:53 06.06.2022
3276 Clouds 30 1009 66 8047 2.57 150 19:19 06.06.2022
3277 Clouds 30 1009 66 9656 5.14 140 18:34 06.06.2022
3278 Clouds 28 1009 74 9656 4.63 150 17:36 06.06.2022
3279 Clouds 26 1009 89 10000 2.68 165 16:33 06.06.2022
3280 Clouds 25 1009 88 9656 2.06 160 15:33 06.06.2022
3281 Clouds 24 1008 88 9656 1.54 160 14:39 06.06.2022
3282 Clear 25 1008 88 9656 0.89 189 13:27 06.06.2022
3283 Clouds 26 1006 70 10000 0.89 148 12:37 06.06.2022
3284 Clouds 26 1006 74 10000 4.02 165 11:58 06.06.2022
3285 Clouds 26 1006 74 10000 2.87 169 11:28 06.06.2022
3286 Clouds 26 1006 72 10000 2.08 176 09:40 06.06.2022
3287 Clouds 25 1007 72 10000 2.43 142 08:35 06.06.2022
3288 Clear 27 1009 74 10000 0.45 216 07:28 06.06.2022
3289 Clear 28 1008 69 10000 2.06 70 05:29 06.06.2022
3290 Clear 28 1008 69 10000 2.06 70 05:29 06.06.2022
3291 Clear 28 1008 69 10000 2.06 70 05:29 06.06.2022
3292 Clouds 28 1007 74 10000 3.6 80 03:44 06.06.2022
3293 Clear 30 1006 66 10000 5.66 70 01:23 06.06.2022
3294 Clouds 31 1006 62 10000 5.36 104 00:42 06.06.2022
3295 Clouds 32 1006 58 10000 5.81 113 23:44 05.06.2022
3296 Clouds 33 1005 44 10000 4.92 103 22:47 05.06.2022
3297 Clouds 33 1006 49 10000 4.47 87 20:57 05.06.2022
3298 Clouds 33 1007 42 10000 2.24 143 19:50 05.06.2022
3299 Clear 29 1010 65 10000 2.57 170 18:30 05.06.2022
3300 Clear 29 1010 65 10000 2.57 170 18:30 05.06.2022
3301 Clouds 30 1008 55 10000 2.68 181 17:55 05.06.2022
3302 Clouds 29 1010 70 10000 3.6 170 17:26 05.06.2022
3303 Clouds 29 1008 61 10000 1.79 203 16:52 05.06.2022
3304 Clouds 27 1010 78 10000 1.54 250 16:34 05.06.2022
3305 Clouds 23 1009 94 9656 1.54 240 14:34 05.06.2022
3306 Clouds 24 1008 76 10000 0.45 247 12:57 05.06.2022
3307 Clouds 24 1007 77 10000 0.45 215 11:49 05.06.2022
3308 Clouds 25 1007 75 10000 0.45 213 10:42 05.06.2022
3309 Clouds 25 1007 74 10000 0.45 213 10:20 05.06.2022
3310 Clouds 26 1008 71 10000 0.89 217 08:34 05.06.2022
3311 Clear 25 1009 73 10000 0.45 220 07:48 05.06.2022
3312 Clouds 27 1010 74 10000 0.45 126 05:22 05.06.2022
3313 Clouds 27 1009 74 10000 2.06 70 04:19 05.06.2022
3314 Clear 30 1009 62 10000 6.17 40 01:32 05.06.2022
3315 Clear 30 1009 62 10000 6.17 40 01:32 05.06.2022
3316 Clear 30 1009 62 10000 5.14 60 00:39 05.06.2022
3317 Clouds 31 1010 55 10000 5.14 40 22:36 04.06.2022
3318 Clouds 31 1011 58 10000 4.02 106 20:33 04.06.2022
3319 Clear 32 1010 45 10000 2.68 113 18:45 04.06.2022
3320 Clear 29 1010 57 10000 0.45 100 16:47 04.06.2022
3321 Clear 27 1012 78 10000 1.79 230 16:18 04.06.2022
3322 Clear 25 1009 77 10000 0.89 208 14:53 04.06.2022
3323 Clear 23 1008 78 10000 1.25 258 12:38 04.06.2022
3324 Clear 25 1009 75 10000 1.17 266 11:19 04.06.2022
3325 Clear 25 1009 75 10000 0.45 264 10:44 04.06.2022
3326 Clear 25 1009 76 10000 0.45 257 09:45 04.06.2022
3327 Clear 25 1010 74 10000 0.45 253 08:43 04.06.2022
3328 Clouds 27 1010 66 10000 0.45 348 07:42 04.06.2022
3329 Clouds 27 1011 74 10000 2.24 53 05:30 04.06.2022
3330 Clear 30 1008 57 10000 3.58 87 01:42 04.06.2022
3331 Clear 30 1009 62 10000 5.14 80 00:19 04.06.2022
3332 Clouds 31 1011 55 10000 5.66 80 22:40 03.06.2022
3333 Clouds 31 1011 62 10000 4.63 60 21:39 03.06.2022
3334 Clouds 31 1011 62 10000 5.14 40 20:37 03.06.2022
3335 Clouds 31 1011 62 10000 5.14 40 20:37 03.06.2022
3336 Clouds 30 1012 62 10000 1.54 360 18:41 03.06.2022
3337 Clear 29 1010 58 10000 0.89 293 16:49 03.06.2022
3338 Mist 24 1011 94 10000 1.54 290 15:37 03.06.2022
3339 Clear 23 1011 100 9656 1.03 240 13:48 03.06.2022
3340 Clear 24 1008 80 10000 0.45 274 11:50 03.06.2022
3341 Clear 25 1009 75 10000 1.79 255 09:50 03.06.2022
3342 Clear 25 1010 75 10000 0.89 273 09:28 03.06.2022
3343 Clouds 26 1012 89 10000 1.54 30 07:27 03.06.2022
3344 Clear 28 1010 68 10000 1.79 23 06:44 03.06.2022
3345 Clouds 27 1012 83 10000 1.54 340 06:26 03.06.2022
3346 Clouds 29 1009 74 10000 4.47 20 01:23 03.06.2022
3347 Clouds 30 1009 70 10000 6.26 19 23:31 02.06.2022
3348 Clouds 31 1008 54 10000 6.26 40 21:57 02.06.2022
3349 Clouds 30 1011 70 10000 6.17 350 20:25 02.06.2022
3350 Clouds 31 1009 58 10000 6.26 43 19:52 02.06.2022
3351 Clouds 30 1012 70 10000 7.72 360 19:33 02.06.2022
3352 Clouds 28 1010 76 10000 5.36 19 17:59 02.06.2022
3353 Clouds 25 1010 80 8996 1.79 360 16:28 02.06.2022
3354 Clouds 24 1010 94 3219 3.13 5 14:58 02.06.2022
3355 Clouds 23 1010 100 3219 3.6 360 13:30 02.06.2022
3356 Clouds 25 1008 82 10000 0.89 342 12:42 02.06.2022
3357 Clouds 25 1008 80 9294 2.24 36 10:31 02.06.2022
3358 Clouds 24 1008 81 10000 2.24 322 09:28 02.06.2022
3359 Clouds 25 1008 78 10000 3.58 319 08:29 02.06.2022
3360 Clouds 26 1008 77 10000 0.45 311 07:48 02.06.2022
3361 Clouds 28 1009 78 10000 4.12 20 05:33 02.06.2022
3362 Clouds 28 1007 66 10000 4.47 36 03:48 02.06.2022
3363 Clouds 31 1007 70 10000 6.69 20 00:31 02.06.2022
3364 Clouds 31 1006 58 10000 6.71 5 22:55 01.06.2022
3365 Clouds 31 1007 56 10000 4.92 49 21:45 01.06.2022
3366 Clouds 31 1009 62 10000 7.2 40 21:22 01.06.2022
3367 Clouds 31 1009 62 10000 4.63 10 20:38 01.06.2022
3368 Clouds 32 1008 50 10000 4.02 38 19:48 01.06.2022
3369 Clouds 32 1010 55 10000 3.58 30 18:19 01.06.2022
3370 Clouds 30 1008 55 10000 0.45 266 16:46 01.06.2022
3371 Clouds 23 1009 94 9656 1.34 348 15:39 01.06.2022
3372 Clouds 23 1008 94 10000 0 0 14:31 01.06.2022
3373 Clouds 23 1007 78 10000 0.45 188 12:42 01.06.2022
3374 Clouds 23 1007 79 10000 0.89 223 10:41 01.06.2022
3375 Clouds 25 1008 77 10000 0.45 148 09:26 01.06.2022
3376 Clouds 24 1008 77 10000 1.34 236 07:56 01.06.2022
3377 Clouds 26 1011 78 10000 0.89 227 06:41 01.06.2022
3378 Clouds 29 1007 65 10000 6.17 110 01:30 01.06.2022
3379 Clouds 30 1007 62 10000 5.66 80 23:41 31.05.2022
3380 Clouds 32 1007 55 10000 5.14 70 22:37 31.05.2022
3381 Clouds 28 1007 68 10000 5.58 78 21:46 31.05.2022
3382 Clouds 28 1007 68 10000 5.58 78 21:46 31.05.2022
3383 Clouds 31 1006 54 10000 0.89 150 20:52 31.05.2022
3384 Clouds 30 1009 70 10000 3.09 260 20:31 31.05.2022
3385 Clouds 27 1009 74 10000 1.34 194 18:54 31.05.2022
3386 Clouds 26 1009 77 10000 1.34 225 17:51 31.05.2022
3387 Clouds 24 1010 100 10000 2.24 238 17:20 31.05.2022
3388 Clouds 24 1010 100 3219 0 0 15:42 31.05.2022
3389 Clouds 24 1009 94 2414 2.57 170 14:33 31.05.2022
3390 Clouds 25 1006 77 10000 0.89 192 12:22 31.05.2022
3391 Clouds 25 1006 76 10000 0.45 189 11:23 31.05.2022
3392 Clouds 26 1006 72 10000 0.89 138 09:49 31.05.2022
3393 Clouds 26 1007 75 10000 0.45 180 07:36 31.05.2022
3394 Clouds 27 1007 83 10000 2.57 150 05:24 31.05.2022
3395 Clouds 29 1005 74 9656 1.54 170 01:42 31.05.2022
3396 Clouds 31 1005 66 9656 5.14 150 23:29 30.05.2022
3397 Clouds 31 1003 57 10000 3.13 95 22:57 30.05.2022
3398 Clouds 30 1005 66 9656 2.68 109 22:21 30.05.2022
3399 Clouds 31 1006 62 9656 2.24 207 21:34 30.05.2022
3400 Clouds 29 1006 65 8047 1.54 190 20:20 30.05.2022
3401 Clouds 28 1005 60 10000 2.68 196 18:58 30.05.2022
3402 Clouds 27 1005 62 10000 1.34 186 17:41 30.05.2022
3403 Clouds 27 1005 63 10000 0.89 140 16:45 30.05.2022
3404 Clouds 26 1007 78 9656 2.57 150 15:22 30.05.2022
3405 Clouds 27 1005 67 10000 0.45 188 12:37 30.05.2022
3406 Clouds 27 1005 75 10000 1.79 120 10:47 30.05.2022
3407 Clouds 27 1006 74 10000 0.89 134 09:39 30.05.2022
3408 Clouds 28 1006 72 10000 0.45 161 07:23 30.05.2022
3409 Clouds 27 1006 71 10000 1.79 112 05:50 30.05.2022
3410 Clouds 29 1005 74 10000 4.92 126 02:24 30.05.2022
3411 Clouds 32 1006 58 10000 5.66 100 23:23 29.05.2022
3412 Clouds 32 1007 62 10000 5.36 63 22:39 29.05.2022
3413 Clouds 32 1008 58 10000 4.92 105 21:19 29.05.2022
3414 Clouds 31 1010 62 10000 4.63 110 19:38 29.05.2022
3415 Clouds 31 1010 62 10000 4.63 110 19:18 29.05.2022
3416 Clouds 29 1011 70 9656 2.57 190 17:32 29.05.2022
3417 Clouds 28 1009 69 10000 1.34 190 15:49 29.05.2022
3418 Clouds 25 1010 94 8047 1.34 209 15:23 29.05.2022
3419 Clouds 24 1009 100 8047 0.45 221 14:19 29.05.2022
3420 Clouds 25 1008 79 10000 0.45 206 11:48 29.05.2022
3421 Clouds 25 1008 78 10000 0.45 206 10:42 29.05.2022
3422 Clouds 25 1009 78 10000 1.74 162 09:51 29.05.2022
3423 Clouds 26 1010 74 10000 2.08 111 06:51 29.05.2022
3424 Clouds 26 1010 73 10000 2.76 91 04:47 29.05.2022
3425 Clouds 27 1011 83 10000 1.54 130 04:19 29.05.2022
3426 Clouds 31 1008 51 10000 4.47 103 23:59 28.05.2022
3427 Clouds 31 1011 58 10000 4.12 100 23:39 28.05.2022
3428 Clouds 31 1011 66 10000 3.58 94 22:40 28.05.2022
3429 Clouds 32 1012 62 10000 3.09 70 21:40 28.05.2022
3430 Clouds 32 1011 46 10000 1.34 298 19:51 28.05.2022
3431 Clouds 31 1012 56 10000 1.79 222 18:58 28.05.2022
3432 Clouds 26 1014 94 10000 0 0 17:44 28.05.2022
3433 Clouds 25 1014 100 9656 1.79 254 16:50 28.05.2022
3434 Clouds 24 1014 100 9656 1.54 90 15:44 28.05.2022
3435 Mist 24 1012 94 8047 0 0 14:35 28.05.2022
3436 Clouds 24 1012 94 9656 1.54 160 13:21 28.05.2022
3437 Clouds 25 1011 78 10000 1.79 133 12:39 28.05.2022
3438 Clouds 26 1011 79 10000 0.45 319 11:23 28.05.2022
3439 Clouds 26 1011 76 10000 0.89 275 10:25 28.05.2022
3440 Clouds 25 1012 76 10000 1.34 269 09:22 28.05.2022
3441 Clouds 27 1015 89 10000 0.45 213 07:23 28.05.2022
3442 Clouds 27 1015 89 10000 2.57 70 06:26 28.05.2022
3443 Clouds 29 1012 64 10000 3.58 93 03:48 28.05.2022
3444 Clouds 30 1012 74 10000 6.17 20 00:33 28.05.2022
3445 Clouds 32 1013 62 9656 8.23 10 23:34 27.05.2022
3446 Clouds 32 1011 51 10000 5.36 64 21:50 27.05.2022
3447 Clouds 32 1012 53 10000 5.36 69 20:57 27.05.2022
3448 Clouds 32 1014 62 9656 6.69 20 20:26 27.05.2022
3449 Clouds 32 1013 52 10000 4.47 36 19:51 27.05.2022
3450 Clouds 31 1015 66 9656 5.36 70 19:32 27.05.2022
3451 Clouds 29 1015 70 9656 1.03 170 18:24 27.05.2022
3452 Mist 25 1016 94 9656 2.06 190 16:40 27.05.2022
3453 Mist 24 1015 100 9656 2.24 210 15:33 27.05.2022
3454 Mist 24 1014 100 9656 1.34 225 14:44 27.05.2022
3455 Clouds 24 1014 100 9656 1.54 270 13:23 27.05.2022
3456 Clouds 27 1012 64 10000 2.96 349 11:34 27.05.2022
3457 Clouds 27 1011 64 10000 0.89 355 10:57 27.05.2022
3458 Clouds 27 1011 63 10000 2.89 338 10:31 27.05.2022
3459 Clouds 27 1012 61 10000 0.45 277 09:37 27.05.2022
3460 Clouds 28 1013 57 10000 0.45 5 07:55 27.05.2022
3461 Clouds 29 1013 57 10000 1.79 42 05:47 27.05.2022
3462 Clouds 30 1011 56 10000 4.02 74 02:47 27.05.2022
3463 Clouds 31 1011 70 9656 6.17 360 00:29 27.05.2022
3464 Clouds 33 1012 62 8047 5.66 50 22:43 26.05.2022
3465 Clouds 32 1013 62 8047 4.63 350 21:40 26.05.2022
3466 Clouds 33 1011 45 10000 4.47 32 20:53 26.05.2022
3467 Clouds 32 1014 62 9656 6.17 10 19:24 26.05.2022
3468 Clouds 31 1014 66 8047 4.12 360 18:18 26.05.2022
3469 Clouds 31 1012 53 10000 3.13 39 16:42 26.05.2022
3470 Haze 28 1013 94 6437 4.02 26 15:46 26.05.2022
3471 Mist 26 1012 100 2414 1.34 5 14:43 26.05.2022
3472 Clouds 27 1010 65 10000 0.89 5 12:37 26.05.2022
3473 Clouds 28 1009 63 10000 1.79 311 11:24 26.05.2022
3474 Clouds 29 1010 59 10000 0.89 55 09:44 26.05.2022
3475 Clouds 29 1010 59 10000 1.34 58 09:26 26.05.2022
3476 Clouds 29 1011 59 10000 1.79 50 08:30 26.05.2022
3477 Clouds 29 1009 84 9656 3.6 20 04:41 26.05.2022
3478 Clouds 33 1005 55 9656 4.47 46 00:48 26.05.2022
3479 Clear 33 1005 58 9656 4.63 60 23:40 25.05.2022
3480 Clouds 36 1004 35 10000 4.02 63 21:59 25.05.2022
3481 Clear 34 1006 52 8047 4.12 20 21:32 25.05.2022
3482 Clear 34 1006 52 8047 3.13 96 20:35 25.05.2022
3483 Clouds 33 1007 55 9656 1.79 150 19:24 25.05.2022
3484 Clouds 31 1005 45 10000 1.79 224 17:43 25.05.2022
3485 Clouds 28 1007 74 9656 2.68 137 16:38 25.05.2022
3486 Clouds 28 1005 51 10000 1.34 160 15:54 25.05.2022
3487 Clouds 26 1004 59 10000 0.89 138 14:51 25.05.2022
3488 Clouds 25 1005 88 8047 0.89 138 14:33 25.05.2022
3489 Clouds 25 1005 94 8047 1.54 160 13:45 25.05.2022
3490 Clouds 26 1003 61 10000 3.41 191 12:38 25.05.2022
3491 Clouds 26 1004 62 10000 4.68 164 10:43 25.05.2022
3492 Clouds 26 1004 61 10000 4.53 164 09:54 25.05.2022
3493 Clouds 27 1005 60 10000 3.72 149 08:37 25.05.2022
3494 Clouds 27 1006 59 10000 0.45 115 07:23 25.05.2022
3495 Clouds 28 1006 78 10000 4.12 60 03:34 25.05.2022
3496 Clouds 31 1003 48 10000 4.92 97 23:56 24.05.2022
3497 Clear 31 1005 66 10000 5.66 70 23:31 24.05.2022
3498 Clear 31 1006 62 9656 6.69 80 22:21 24.05.2022
3499 Clouds 31 1007 62 9656 5.81 89 21:40 24.05.2022
3500 Clouds 31 1007 62 9656 5.36 98 21:20 24.05.2022
3501 Clouds 31 1008 62 9656 4.63 150 19:45 24.05.2022
3502 Clouds 32 1007 43 10000 2.68 121 18:54 24.05.2022
3503 Clouds 30 1007 51 10000 1.34 155 16:45 24.05.2022
3504 Clouds 28 1008 78 8047 1.34 196 16:23 24.05.2022
3505 Clouds 25 1007 66 10000 0.89 260 14:58 24.05.2022
3506 Clouds 25 1008 94 9656 1.34 254 14:21 24.05.2022
3507 Clouds 25 1006 66 10000 0.98 111 12:49 24.05.2022
3508 Clouds 25 1007 65 10000 1.51 122 11:33 24.05.2022
3509 Clouds 25 1007 62 10000 1.58 100 09:45 24.05.2022
3510 Clouds 26 1008 61 10000 1.15 109 08:50 24.05.2022
3511 Clouds 27 1009 60 10000 0.89 286 06:57 24.05.2022
3512 Clouds 28 1011 74 10000 2.57 60 04:20 24.05.2022
3513 Clear 30 1007 52 10000 1.79 60 01:55 24.05.2022
3514 Clouds 29 1009 74 10000 4.12 40 01:36 24.05.2022
3515 Clear 31 1010 62 10000 6.69 70 23:31 23.05.2022
3516 Clear 32 1009 41 10000 5.36 64 21:56 23.05.2022
3517 Clouds 32 1011 51 10000 6.71 42 21:29 23.05.2022
3518 Clouds 32 1012 55 10000 6.17 360 20:35 23.05.2022
3519 Clouds 30 1012 58 10000 4.47 49 19:32 23.05.2022
3520 Clear 31 1010 46 10000 4.02 5 18:59 23.05.2022
3521 Clouds 27 1013 83 10000 2.68 316 18:31 23.05.2022
3522 Clouds 24 1014 100 10000 0 0 17:24 23.05.2022
3523 Clouds 23 1014 100 8047 2.57 180 15:31 23.05.2022
3524 Clouds 23 1014 100 6437 3.09 120 13:22 23.05.2022
3525 Clouds 28 1011 63 10000 1.34 329 11:33 23.05.2022
3526 Clouds 28 1012 60 10000 2.24 338 10:31 23.05.2022
3527 Clear 26 1014 82 10000 0.87 349 09:39 23.05.2022
3528 Clouds 26 1015 83 10000 1.08 99 08:32 23.05.2022
3529 Clear 30 1014 57 10000 4.92 46 06:46 23.05.2022
3530 Clouds 29 1015 84 9656 5.66 360 05:39 23.05.2022
3531 Clouds 30 1010 66 10000 6.17 360 02:34 23.05.2022
3532 Clouds 32 1010 45 10000 6.17 40 01:39 23.05.2022
3533 Smoke 34 1010 38 10000 5.14 40 00:23 23.05.2022
3534 Clear 36 1011 30 10000 3.58 100 22:40 22.05.2022
3535 Clear 36 1009 14 10000 2.24 63 21:55 22.05.2022
3536 Clear 36 1012 32 9656 3.13 142 21:32 22.05.2022
3537 Clear 35 1012 31 9656 4.02 40 20:32 22.05.2022
3538 Clear 35 1011 18 10000 2.68 74 19:56 22.05.2022
3539 Clear 34 1011 30 10000 2.24 93 18:56 22.05.2022
3540 Clear 31 1013 58 9656 1.79 86 18:25 22.05.2022
3541 Clear 30 1012 62 9656 3.09 110 17:37 22.05.2022
3542 Clear 27 1012 69 9656 2.57 170 16:39 22.05.2022
3543 Clear 25 1009 56 10000 0.45 223 14:53 22.05.2022
3544 Clear 24 1010 78 9656 2.06 240 13:54 22.05.2022
3545 Clear 25 1008 54 10000 0.89 214 12:52 22.05.2022
3546 Clear 25 1008 52 10000 0.45 223 11:47 22.05.2022
3547 Clear 27 1008 48 10000 0.89 190 09:46 22.05.2022
3548 Clear 27 1008 47 10000 1.34 192 09:18 22.05.2022
3549 Clouds 27 1008 58 10000 2.75 152 07:22 22.05.2022
3550 Clear 27 1010 83 10000 0 0 06:24 22.05.2022
3551 Smoke 31 1006 58 9656 2.57 50 02:33 22.05.2022
3552 Clear 34 1004 34 10000 4.02 102 00:44 22.05.2022
3553 Clear 31 1005 62 10000 4.93 44 23:55 21.05.2022
3554 Clear 35 1006 43 9656 6.17 110 23:21 21.05.2022
3555 Clear 38 1006 37 8047 6.17 110 21:47 21.05.2022
3556 Clear 38 1006 37 8047 6.17 110 21:26 21.05.2022
3557 Clear 37 1007 39 9656 7.72 180 20:25 21.05.2022
3558 Clear 34 1007 46 9656 4.63 150 19:43 21.05.2022
3559 Clear 31 1008 55 10000 4.12 150 18:21 21.05.2022
3560 Clouds 30 1006 42 10000 3.13 195 16:55 21.05.2022
3561 Clouds 24 1007 78 9656 2.57 220 14:38 21.05.2022
3562 Clear 24 1006 78 10000 1.54 230 13:53 21.05.2022
3563 Clouds 24 1005 55 10000 0.45 216 12:57 21.05.2022
3564 Clouds 24 1005 55 10000 0.89 202 12:37 21.05.2022
3565 Clouds 25 1004 50 10000 0.45 200 10:45 21.05.2022
3566 Clouds 26 1005 49 10000 0.45 192 09:49 21.05.2022
3567 Clouds 27 1005 47 10000 1.34 194 08:58 21.05.2022
3568 Clouds 27 1005 47 10000 1.79 191 08:34 21.05.2022
3569 Clouds 28 1004 56 10000 1.97 86 05:28 21.05.2022
3570 Clouds 33 1001 36 10000 4.02 94 00:58 21.05.2022
3571 Clear 33 1003 55 9656 5.36 104 23:22 20.05.2022
3572 Clear 35 1004 49 9656 6.26 113 22:24 20.05.2022
3573 Clouds 35 1002 34 10000 5.81 112 21:49 20.05.2022
3574 Clouds 36 1002 31 10000 4.47 73 20:58 20.05.2022
3575 Clear 35 1005 49 9656 5.36 80 20:29 20.05.2022
3576 Clear 33 1006 55 9656 3.09 120 19:27 20.05.2022
3577 Clouds 33 1004 37 10000 2.24 171 18:47 20.05.2022
3578 Clear 29 1006 65 9656 3.09 150 17:37 20.05.2022
3579 Clear 28 1006 69 8047 3.13 217 16:20 20.05.2022
3580 Clouds 28 1005 51 10000 3.13 174 15:53 20.05.2022
3581 Mist 25 1006 83 8047 2.06 210 14:31 20.05.2022
3582 Clear 25 1006 83 9656 1.03 200 13:55 20.05.2022
3583 Clouds 26 1004 56 10000 0.45 205 11:38 20.05.2022
3584 Clouds 27 1004 55 10000 1.34 199 10:19 20.05.2022
3585 Clouds 27 1005 60 10000 3.58 162 08:45 20.05.2022
3586 Clear 27 1006 59 10000 1.17 77 07:18 20.05.2022
3587 Clear 27 1007 83 9656 0 0 06:34 20.05.2022
3588 Clear 29 1005 57 10000 1.79 126 04:59 20.05.2022
3589 Clear 33 1003 45 10000 4.02 82 00:54 20.05.2022
3590 Clear 35 1004 37 10000 3.58 97 22:48 19.05.2022
3591 Clear 35 1006 49 6437 6.17 100 22:21 19.05.2022
3592 Clear 35 1005 38 10000 4.02 123 21:48 19.05.2022
3593 Clear 34 1007 52 6437 3.13 103 21:22 19.05.2022
3594 Clouds 32 1008 58 6437 4.02 78 20:34 19.05.2022
3595 Clouds 33 1007 39 10000 4.47 96 19:52 19.05.2022
3596 Clouds 31 1010 62 6437 4.02 138 18:31 19.05.2022
3597 Clouds 30 1009 49 10000 2.24 190 16:51 19.05.2022
3598 Haze 26 1011 83 6437 1.54 140 15:19 19.05.2022
3599 Mist 25 1010 94 4828 0 0 14:25 19.05.2022
3600 Clear 24 1010 94 8047 0 0 13:23 19.05.2022
3601 Clear 27 1009 58 10000 0.89 252 11:29 19.05.2022
3602 Clear 27 1010 60 10000 0.89 277 09:28 19.05.2022
3603 Clear 26 1011 59 10000 0.45 144 07:50 19.05.2022
3604 Clouds 27 1013 83 10000 0 0 06:18 19.05.2022
3605 Clear 29 1010 70 9656 4.12 60 02:23 19.05.2022
3606 Clear 32 1008 36 10000 4.92 117 23:57 18.05.2022
3607 Clear 33 1009 31 10000 4.47 101 22:47 18.05.2022
3608 Clear 32 1011 55 8047 4.12 60 22:24 18.05.2022
3609 Clear 33 1012 52 6437 4.47 100 21:30 18.05.2022
3610 Clear 33 1010 38 10000 3.58 116 20:47 18.05.2022
3611 Clear 33 1013 49 6437 3.6 150 20:18 18.05.2022
3612 Clouds 29 1015 70 6437 3.13 89 18:33 18.05.2022
3613 Clouds 27 1015 78 8047 0.89 130 17:41 18.05.2022
3614 Clouds 27 1015 78 8047 1.79 154 17:23 18.05.2022
3615 Haze 26 1015 83 6437 1.34 138 16:34 18.05.2022
3616 Clouds 25 1013 66 10000 1.58 188 15:41 18.05.2022
3617 Clear 23 1014 100 8047 1.54 260 14:35 18.05.2022
3618 Clouds 23 1014 100 8047 1.54 260 13:41 18.05.2022
3619 Clouds 24 1012 63 10000 1.31 89 12:43 18.05.2022
3620 Clouds 24 1012 62 10000 0.92 56 11:34 18.05.2022
3621 Clouds 25 1012 62 10000 0.63 24 10:56 18.05.2022
3622 Clouds 25 1012 62 10000 0.63 24 10:56 18.05.2022
3623 Clouds 25 1013 59 10000 0.33 76 09:31 18.05.2022
3624 Clouds 26 1016 83 10000 0 0 07:36 18.05.2022
3625 Clouds 27 1016 83 10000 2.57 60 06:41 18.05.2022
3626 Clear 30 1012 66 8047 6.17 90 01:22 18.05.2022
3627 Clouds 31 1012 62 9656 6.17 90 00:22 18.05.2022
3628 Clear 34 1011 37 10000 4.02 83 21:57 17.05.2022
3629 Clear 34 1014 49 8047 4.02 92 21:20 17.05.2022
3630 Clear 33 1015 49 8047 2.68 194 20:19 17.05.2022
3631 Clear 32 1015 55 9656 5.14 160 19:28 17.05.2022
3632 Clear 30 1014 45 10000 2.24 178 17:51 17.05.2022
3633 Clear 29 1014 49 10000 1.79 223 16:59 17.05.2022
3634 Clear 27 1016 78 8047 2.24 227 16:29 17.05.2022
3635 Clear 23 1015 100 8047 2.24 248 15:25 17.05.2022
3636 Clear 23 1015 94 9656 1.54 220 14:30 17.05.2022
3637 Clear 24 1015 88 10000 0 0 13:35 17.05.2022
3638 Clear 24 1013 61 10000 0.33 133 11:43 17.05.2022
3639 Clear 26 1014 57 10000 0.89 209 09:27 17.05.2022
3640 Clear 27 1014 56 10000 2.13 98 08:25 17.05.2022
3641 Clouds 27 1015 78 10000 2.57 50 06:46 17.05.2022
3642 Clouds 27 1013 74 10000 3.09 50 03:41 17.05.2022
3643 Clear 32 1010 35 10000 4.92 95 00:43 17.05.2022
3644 Clear 32 1011 33 10000 4.92 90 22:43 16.05.2022
3645 Clear 32 1014 51 9656 6.17 80 21:41 16.05.2022
3646 Clear 32 1012 35 10000 4.47 95 20:47 16.05.2022
3647 Clouds 30 1016 58 9656 2.57 100 19:43 16.05.2022
3648 Clouds 29 1016 61 9656 1.34 165 18:20 16.05.2022
3649 Clouds 27 1014 52 10000 2.68 171 15:49 16.05.2022
3650 Clouds 24 1014 88 9656 0.45 175 13:49 16.05.2022
3651 Clouds 24 1014 88 9656 0.89 169 13:20 16.05.2022
3652 Clear 25 1011 58 10000 0.89 205 11:20 16.05.2022
3653 Clear 25 1012 57 10000 0.87 159 09:30 16.05.2022
3654 Clouds 28 1013 51 10000 1.34 49 06:47 16.05.2022
3655 Clear 28 1013 69 10000 3.6 60 03:31 16.05.2022
3656 Clear 31 1013 55 10000 5.14 80 23:26 15.05.2022
3657 Clear 32 1013 51 10000 5.14 60 22:29 15.05.2022
3658 Clouds 31 1014 55 10000 5.14 30 21:44 15.05.2022
3659 Clear 32 1012 38 10000 4.02 77 20:54 15.05.2022
3660 Clouds 31 1015 58 9656 3.6 60 19:28 15.05.2022
3661 Clear 30 1014 47 10000 3.13 51 17:51 15.05.2022
3662 Clear 27 1013 56 10000 0.45 288 15:56 15.05.2022
3663 Clouds 24 1013 94 8047 1.54 280 13:54 15.05.2022
3664 Clouds 26 1011 58 10000 0.61 323 12:26 15.05.2022
3665 Clouds 25 1011 59 10000 1.34 292 11:38 15.05.2022
3666 Clouds 25 1011 59 10000 1.13 36 10:25 15.05.2022
3667 Clouds 26 1013 57 10000 1.32 36 08:32 15.05.2022
3668 Clouds 28 1013 53 10000 2.24 32 06:58 15.05.2022
3669 Clouds 28 1014 69 10000 4.63 20 05:33 15.05.2022
3670 Clear 30 1008 49 10000 4.47 51 00:49 15.05.2022
3671 Clear 31 1011 58 10000 7.72 50 23:38 14.05.2022
3672 Clear 31 1011 58 10000 4.47 99 22:45 14.05.2022
3673 Clouds 32 1012 55 10000 5.36 63 21:28 14.05.2022
3674 Clouds 31 1013 58 10000 4.92 84 20:44 14.05.2022
3675 Clouds 31 1014 58 10000 3.13 88 19:37 14.05.2022
3676 Clouds 31 1014 58 10000 2.68 70 19:19 14.05.2022
3677 Clouds 30 1012 42 10000 3.13 85 17:56 14.05.2022
3678 Clouds 28 1014 69 10000 1.79 112 16:37 14.05.2022
3679 Clear 23 1012 64 10000 0.93 118 14:59 14.05.2022
3680 Clouds 23 1013 94 9656 0.93 118 14:30 14.05.2022
3681 Clear 23 1010 61 10000 0.42 44 12:23 14.05.2022
3682 Clear 24 1010 60 10000 0.39 43 10:53 14.05.2022
3683 Clear 24 1010 59 10000 0.57 73 10:20 14.05.2022
3684 Clear 25 1010 58 10000 0.45 160 09:51 14.05.2022
3685 Clouds 26 1011 56 10000 0.45 160 08:22 14.05.2022
3686 Clouds 27 1013 74 10000 1.79 30 05:26 14.05.2022
3687 Clouds 30 1008 49 10000 4.02 80 01:58 14.05.2022
3688 Clear 31 1011 51 10000 5.36 87 23:32 13.05.2022
3689 Clear 32 1009 34 10000 4.92 84 22:57 13.05.2022
3690 Clouds 31 1011 51 10000 4.92 76 22:23 13.05.2022
3691 Clouds 31 1012 55 10000 4.92 86 21:35 13.05.2022
3692 Clouds 32 1010 37 10000 4.02 95 20:44 13.05.2022
3693 Clouds 31 1012 58 10000 4.02 89 20:23 13.05.2022
3694 Clouds 31 1013 58 10000 4.02 79 19:21 13.05.2022
3695 Clear 31 1011 41 10000 1.79 103 17:50 13.05.2022
3696 Clouds 28 1014 65 10000 1.79 132 17:26 13.05.2022
3697 Clouds 27 1012 54 10000 2.04 162 15:53 13.05.2022
3698 Clouds 25 1012 63 10000 2.18 165 14:54 13.05.2022
3699 Clouds 23 1013 94 9656 0.89 232 13:27 13.05.2022
3700 Clouds 23 1011 61 10000 0.89 232 12:25 13.05.2022
3701 Clouds 25 1011 59 10000 1.58 123 10:42 13.05.2022
3702 Clouds 25 1011 59 10000 0.45 266 09:31 13.05.2022
3703 Clouds 25 1013 57 10000 1.32 73 08:23 13.05.2022
3704 Clouds 26 1013 55 10000 0.45 98 07:42 13.05.2022
3705 Clear 27 1014 52 10000 1.79 71 05:59 13.05.2022
3706 Clouds 29 1013 79 10000 4.92 70 02:43 13.05.2022
3707 Clouds 31 1012 55 10000 4.92 68 23:44 12.05.2022
3708 Clouds 31 1014 58 10000 5.36 103 22:44 12.05.2022
3709 Clear 32 1012 43 10000 5.36 62 21:46 12.05.2022
3710 Clouds 31 1015 58 10000 4.92 89 20:23 12.05.2022
3711 Clouds 30 1016 62 10000 4.02 73 18:31 12.05.2022
3712 Clear 29 1014 51 10000 0.89 81 16:57 12.05.2022
3713 Clear 27 1014 56 10000 0.89 113 15:49 12.05.2022
3714 Clouds 25 1015 100 8047 1.54 360 13:59 12.05.2022
3715 Clouds 25 1015 100 8047 1.54 360 13:24 12.05.2022
3716 Clear 27 1013 57 10000 2.61 357 10:40 12.05.2022
3717 Clear 28 1014 57 10000 1.34 96 08:59 12.05.2022
3718 Clear 28 1014 57 10000 1.34 88 08:39 12.05.2022
3719 Clear 28 1014 57 10000 1.79 50 07:37 12.05.2022
3720 Clouds 28 1016 83 10000 4.02 41 05:32 12.05.2022
3721 Clouds 29 1014 74 10000 5.81 48 02:24 12.05.2022
3722 Clear 32 1011 40 10000 6.71 23 23:56 11.05.2022
3723 Clouds 33 1014 52 10000 5.81 342 22:31 11.05.2022
3724 Clouds 33 1015 49 10000 6.26 336 21:29 11.05.2022
3725 Clear 30 1015 65 10000 5.43 21 20:52 11.05.2022
3726 Clouds 31 1015 47 10000 4.92 83 17:56 11.05.2022
3727 Clouds 30 1014 50 10000 2.68 40 16:49 11.05.2022
3728 Clouds 28 1013 59 10000 2.24 48 14:50 11.05.2022
3729 Clouds 27 1015 89 8047 3.09 360 14:26 11.05.2022
3730 Clouds 27 1014 89 8047 2.68 63 13:44 11.05.2022
3731 Clouds 28 1012 60 10000 3.13 57 11:50 11.05.2022
3732 Clouds 28 1012 59 10000 3.58 36 09:39 11.05.2022
3733 Clouds 29 1013 58 10000 3.13 32 07:52 11.05.2022
3734 Clouds 28 1013 89 9656 1.79 54 04:43 11.05.2022
3735 Clouds 32 1008 51 10000 4.92 59 23:48 10.05.2022
3736 Clear 33 1011 62 10000 6.26 360 22:30 10.05.2022
3737 Clear 33 1012 66 10000 5.36 40 21:45 10.05.2022
3738 Clouds 34 1010 45 10000 4.92 40 20:48 10.05.2022
3739 Clouds 34 1013 62 9656 4.02 38 19:25 10.05.2022
3740 Clouds 31 1012 70 9656 3.58 33 17:44 10.05.2022
3741 Clear 30 1012 74 8047 2.57 30 16:41 10.05.2022
3742 Clear 27 1008 61 10000 0.89 343 13:59 10.05.2022
3743 Clear 27 1008 61 10000 0.89 355 12:36 10.05.2022
3744 Clear 27 1007 60 10000 0.57 117 11:49 10.05.2022
3745 Clear 27 1007 60 10000 1.4 107 11:18 10.05.2022
3746 Clear 27 1007 60 10000 1.4 107 11:18 10.05.2022
3747 Clear 28 1007 58 10000 0.89 35 09:57 10.05.2022
3748 Clear 28 1008 57 10000 0.45 12 09:18 10.05.2022
3749 Clear 28 1010 83 9656 0.45 120 06:35 10.05.2022
3750 Clear 30 1004 51 10000 1.34 86 02:48 10.05.2022
3751 Clear 33 1005 55 10000 5.36 55 00:23 10.05.2022
3752 Clear 34 1005 52 10000 6.71 44 22:42 09.05.2022
3753 Clear 35 1003 37 10000 6.71 42 21:48 09.05.2022
3754 Clouds 37 1006 41 10000 4.92 43 20:23 09.05.2022
3755 Clear 32 1007 58 9656 1.79 121 18:35 09.05.2022
3756 Clear 30 1007 66 9656 2.68 167 17:33 09.05.2022
3757 Clear 28 1006 74 8047 3.13 192 16:21 09.05.2022
3758 Clouds 28 1004 51 10000 2.24 217 15:47 09.05.2022
3759 Clouds 25 1005 83 9656 0.89 212 14:46 09.05.2022
3760 Clear 25 1005 83 9656 1.34 215 13:59 09.05.2022
3761 Clear 25 1005 83 9656 0.89 223 13:32 09.05.2022
3762 Clouds 26 1003 55 10000 0.89 200 11:53 09.05.2022
3763 Clouds 27 1003 53 10000 3.47 171 10:50 09.05.2022
3764 Clouds 27 1003 53 10000 0.89 205 10:26 09.05.2022
3765 Clear 28 1005 53 10000 0.89 182 07:57 09.05.2022
3766 Clear 28 1004 57 10000 0.89 5 05:59 09.05.2022
3767 Clouds 32 1003 58 10000 4.02 106 02:37 09.05.2022
3768 Clouds 32 1003 58 10000 4.02 106 02:37 09.05.2022
3769 Clouds 32 1003 58 10000 4.02 106 02:37 09.05.2022
3770 Clouds 32 1003 58 10000 4.02 106 02:37 09.05.2022
3771 Clear 35 1003 49 10000 4.92 72 23:29 08.05.2022
3772 Clear 37 1004 41 10000 6.48 62 22:42 08.05.2022
3773 Clear 36 1005 44 9656 4.47 57 21:37 08.05.2022
3774 Clear 36 1006 44 9656 3.58 101 20:25 08.05.2022
3775 Clear 35 1007 46 9656 2.68 67 19:35 08.05.2022
3776 Clouds 35 1005 34 10000 1.34 168 18:49 08.05.2022
3777 Clouds 33 1005 36 10000 3.55 148 17:45 08.05.2022
3778 Haze 27 1007 78 6437 4.12 180 16:23 08.05.2022
3779 Clear 25 1007 88 8047 1.34 198 15:24 08.05.2022
3780 Clear 24 1006 88 10000 2.06 180 13:44 08.05.2022
3781 Clouds 26 1004 60 10000 1.34 182 11:50 08.05.2022
3782 Clouds 26 1005 62 10000 2.76 177 10:26 08.05.2022
3783 Clouds 26 1005 62 10000 2.76 177 09:53 08.05.2022
3784 Clear 26 1006 62 10000 0.89 141 08:23 08.05.2022
3785 Clear 27 1008 89 10000 0.45 141 06:21 08.05.2022
3786 Clouds 28 1006 83 9656 0.45 102 03:22 08.05.2022
3787 Clear 31 1005 70 9656 4.02 51 01:19 08.05.2022
3788 Clouds 33 1004 43 10000 4.92 42 23:57 07.05.2022
3789 Clear 31 1006 66 9656 4.47 76 23:34 07.05.2022
3790 Clouds 32 1005 43 10000 5.81 66 22:46 07.05.2022
3791 Clouds 33 1006 41 10000 5.36 53 21:56 07.05.2022
3792 Clear 34 1008 52 9656 5.36 42 21:28 07.05.2022
3793 Clear 35 1009 49 9656 4.02 14 20:25 07.05.2022
3794 Clear 35 1009 49 9656 4.02 14 20:25 07.05.2022
3795 Clouds 35 1007 37 10000 3.13 55 18:49 07.05.2022
3796 Clear 27 1010 78 9656 0.89 175 16:34 07.05.2022
3797 Clouds 26 1008 61 10000 0.45 142 14:54 07.05.2022
3798 Clouds 26 1007 63 10000 1.06 150 11:28 07.05.2022
3799 Clouds 27 1008 61 10000 0.55 215 09:44 07.05.2022
3800 Clouds 27 1009 61 10000 1.34 225 08:30 07.05.2022
3801 Clouds 27 1012 89 10000 0.78 102 07:20 07.05.2022
3802 Clouds 28 1012 83 10000 0.45 72 06:42 07.05.2022
3803 Clouds 30 1008 56 10000 2.68 51 03:57 07.05.2022
3804 Clear 33 1008 49 10000 4.92 24 23:44 06.05.2022
3805 Clear 33 1009 49 10000 5.36 26 22:40 06.05.2022
3806 Clouds 34 1007 33 10000 4.47 19 21:53 06.05.2022
3807 Clear 34 1009 43 10000 5.81 29 21:29 06.05.2022
3808 Clouds 35 1008 29 10000 3.13 19 19:47 06.05.2022
3809 Clear 33 1010 46 10000 2.68 53 19:21 06.05.2022
3810 Clear 32 1010 48 10000 1.34 71 18:30 06.05.2022
3811 Clear 29 1011 61 10000 1.79 231 17:34 06.05.2022
3812 Clouds 27 1009 50 10000 2.68 164 15:51 06.05.2022
3813 Mist 26 1010 73 10000 1.34 194 15:18 06.05.2022
3814 Clouds 25 1009 83 9656 0.89 178 13:45 06.05.2022
3815 Clouds 25 1007 62 10000 0.45 165 12:47 06.05.2022
3816 Clouds 26 1006 65 10000 0.45 156 11:58 06.05.2022
3817 Clouds 26 1006 63 10000 1.06 187 10:41 06.05.2022
3818 Clouds 27 1007 63 10000 0.66 161 09:47 06.05.2022
3819 Clouds 27 1007 62 10000 0.64 126 08:59 06.05.2022
3820 Clouds 27 1010 89 9656 1.45 317 07:27 06.05.2022
3821 Clouds 27 1009 89 9656 2.39 305 06:25 06.05.2022
3822 Clouds 28 1007 89 8047 5.14 90 02:54 06.05.2022
3823 Clouds 30 1005 56 10000 4.92 101 01:57 06.05.2022
3824 Clouds 33 1005 46 10000 4.47 70 22:48 05.05.2022
3825 Clouds 34 1009 59 8047 5.36 91 21:45 05.05.2022
3826 Clouds 34 1009 55 8047 3.58 95 20:28 05.05.2022
3827 Clouds 31 1011 70 8047 3.58 128 18:43 05.05.2022
3828 Haze 26 1011 94 6437 2.57 180 16:40 05.05.2022
3829 Clouds 26 1008 66 10000 0.89 196 14:55 05.05.2022
3830 Clear 25 1009 94 8047 0 0 13:27 05.05.2022
3831 Clouds 26 1007 65 10000 2.02 131 12:54 05.05.2022
3832 Clouds 26 1007 62 10000 0.38 309 10:53 05.05.2022
3833 Clouds 26 1008 61 10000 1.15 336 09:40 05.05.2022
3834 Clouds 27 1009 59 10000 0.97 292 07:45 05.05.2022
3835 Clouds 27 1011 89 10000 0.45 92 05:44 05.05.2022
3836 Clear 30 1007 74 10000 3.13 82 02:18 05.05.2022
3837 Clouds 32 1007 62 10000 4.02 94 01:32 05.05.2022
3838 Clouds 30 1006 68 10000 7.14 80 23:53 04.05.2022
3839 Clouds 34 1007 41 10000 4.92 86 22:46 04.05.2022
3840 Clouds 34 1007 41 10000 5.36 102 21:54 04.05.2022
3841 Clouds 33 1010 62 6437 4.47 91 21:29 04.05.2022
3842 Clear 35 1010 46 6437 4.92 78 20:30 04.05.2022
3843 Clear 35 1008 38 10000 1.79 44 19:55 04.05.2022
3844 Clear 33 1011 58 6437 3.58 69 19:24 04.05.2022
3845 Clear 32 1012 66 6437 1.34 169 18:22 04.05.2022
3846 Clear 32 1010 46 10000 1.34 175 17:58 04.05.2022
3847 Haze 25 1011 94 6437 0.89 355 15:42 04.05.2022
3848 Haze 25 1011 94 6437 0.45 311 15:24 04.05.2022
3849 Haze 26 1010 89 6437 0 0 14:21 04.05.2022
3850 Clouds 26 1010 94 8047 0 0 13:49 04.05.2022
3851 Clear 26 1008 65 10000 0.89 315 12:33 04.05.2022
3852 Clear 26 1008 64 10000 1.34 336 10:43 04.05.2022
3853 Clear 26 1008 62 10000 1.09 67 09:44 04.05.2022
3854 Clear 27 1009 62 10000 0.45 114 08:48 04.05.2022
3855 Clouds 27 1009 61 10000 1.04 327 06:49 04.05.2022
3856 Clouds 29 1007 58 10000 2.68 79 02:59 04.05.2022
3857 Clouds 31 1006 50 10000 4.47 90 00:48 04.05.2022
3858 Clouds 32 1009 62 8047 4.47 60 22:40 03.05.2022
3859 Clouds 33 1007 46 10000 5.36 98 21:46 03.05.2022
3860 Clouds 33 1008 45 10000 3.58 91 20:56 03.05.2022
3861 Clouds 33 1010 62 8047 4.02 94 20:30 03.05.2022
3862 Clouds 32 1009 47 10000 1.79 81 18:54 03.05.2022
3863 Clouds 31 1011 66 8047 2.24 64 18:21 03.05.2022
3864 Clouds 30 1011 74 8047 2.24 144 17:19 03.05.2022
3865 Clouds 26 1009 94 8047 1.34 107 15:43 03.05.2022
3866 Clouds 25 1009 94 8047 0 0 13:28 03.05.2022
3867 Clear 26 1006 64 10000 1.44 158 12:27 03.05.2022
3868 Clear 26 1007 64 10000 1.12 128 10:58 03.05.2022
3869 Clear 26 1007 63 10000 1.27 102 09:46 03.05.2022
3870 Clouds 27 1008 61 10000 0.25 171 07:58 03.05.2022
3871 Clouds 27 1008 61 10000 1.01 264 06:45 03.05.2022
3872 Clouds 30 1006 51 10000 4.02 118 01:52 03.05.2022
3873 Clouds 33 1009 49 9656 6.26 103 22:44 02.05.2022
3874 Clouds 34 1007 32 10000 5.81 98 21:55 02.05.2022
3875 Clouds 34 1010 52 8047 4.47 122 21:24 02.05.2022
3876 Clear 33 1009 42 10000 2.24 169 18:57 02.05.2022
3877 Clouds 30 1012 70 8047 2.68 180 18:25 02.05.2022
3878 Clouds 28 1012 78 6437 3.58 203 17:37 02.05.2022
3879 Clouds 28 1012 78 8047 2.57 180 16:24 02.05.2022
3880 Clouds 26 1012 89 8047 0.89 173 15:37 02.05.2022
3881 Clouds 27 1011 83 8047 2.68 119 13:58 02.05.2022
3882 Clouds 27 1009 59 10000 2.68 87 12:27 02.05.2022
3883 Clouds 27 1009 60 10000 2.24 96 11:20 02.05.2022
3884 Clouds 27 1010 61 10000 0.89 101 09:31 02.05.2022
3885 Clouds 28 1011 60 10000 0.89 98 07:57 02.05.2022
3886 Clouds 27 1011 89 10000 1.79 76 04:44 02.05.2022
3887 Clear 31 1009 70 9656 4.47 72 00:25 02.05.2022
3888 Clouds 32 1007 48 10000 4.92 52 23:52 01.05.2022
3889 Clear 33 1010 55 8047 3.58 53 22:45 01.05.2022
3890 Clear 32 1011 66 8047 3.58 69 21:30 01.05.2022
3891 Clouds 32 1012 62 8047 2.68 45 20:19 01.05.2022
3892 Clouds 31 1012 66 8047 4.92 32 19:18 01.05.2022
3893 Clouds 32 1010 49 10000 2.68 69 18:46 01.05.2022
3894 Clouds 30 1012 70 8047 2.68 94 17:46 01.05.2022
3895 Clouds 28 1011 83 9656 2.57 180 16:24 01.05.2022
3896 Clouds 27 1011 89 8047 0.89 63 15:43 01.05.2022
3897 Clouds 26 1010 94 8047 1.79 50 14:22 01.05.2022
3898 Clouds 26 1008 58 10000 0.89 336 11:41 01.05.2022
3899 Clouds 27 1008 60 10000 3.21 67 09:32 01.05.2022
3900 Clouds 27 1009 60 10000 1.98 36 08:47 01.05.2022
3901 Clouds 28 1008 83 9656 1.79 355 04:31 01.05.2022
3902 Clouds 30 1006 70 9656 4.92 75 00:34 01.05.2022
3903 Clouds 32 1005 48 10000 4.92 70 21:52 30.04.2022
3904 Clouds 31 1008 66 8047 4.02 89 21:19 30.04.2022
3905 Clouds 32 1008 58 8047 4.47 59 19:47 30.04.2022
3906 Clouds 32 1007 45 10000 2.68 82 18:45 30.04.2022
3907 Clouds 28 1008 55 10000 0.89 55 16:54 30.04.2022
3908 Clouds 27 1007 60 10000 1.34 360 15:50 30.04.2022
3909 Clouds 25 1007 64 10000 1.79 309 14:54 30.04.2022
3910 Clouds 25 1007 94 10000 2.24 213 13:30 30.04.2022
3911 Clouds 25 1005 61 10000 0.95 154 11:34 30.04.2022
3912 Clouds 25 1005 61 10000 1.21 133 10:49 30.04.2022
3913 Clouds 26 1006 61 10000 0.45 236 09:50 30.04.2022
3914 Clouds 26 1007 61 10000 0.45 103 07:31 30.04.2022
3915 Clouds 27 1007 78 8047 3.58 70 03:34 30.04.2022
3916 Clear 31 1005 42 10000 5.81 104 23:53 29.04.2022
3917 Clouds 31 1008 58 8047 5.36 111 22:34 29.04.2022
3918 Clear 32 1006 42 10000 5.81 97 21:54 29.04.2022
3919 Clear 32 1007 43 10000 4.92 74 20:51 29.04.2022
3920 Clear 31 1008 42 10000 4.47 76 19:47 29.04.2022
3921 Clouds 32 1009 39 10000 3.13 98 18:47 29.04.2022
3922 Clouds 28 1012 74 9656 3.13 177 17:26 29.04.2022
3923 Clouds 26 1010 60 10000 0.45 252 15:52 29.04.2022
3924 Mist 23 1011 94 9656 0.89 263 14:34 29.04.2022
3925 Clouds 23 1011 94 9656 1.71 110 13:27 29.04.2022
3926 Clouds 25 1009 61 10000 1.53 89 11:51 29.04.2022
3927 Clouds 25 1010 60 10000 1.81 98 09:23 29.04.2022
3928 Clouds 26 1011 57 10000 0.45 85 07:29 29.04.2022
3929 Clouds 26 1011 56 10000 0.45 93 06:46 29.04.2022
3930 Clouds 26 1013 78 10000 0.89 101 05:44 29.04.2022
3931 Clear 30 1008 43 10000 4.47 71 00:47 29.04.2022
3932 Clear 31 1009 39 10000 6.26 74 23:48 28.04.2022
3933 Clear 31 1010 37 10000 4.92 86 22:45 28.04.2022
3934 Clear 31 1011 38 10000 4.92 64 21:47 28.04.2022
3935 Clouds 30 1014 54 10000 4.02 70 21:22 28.04.2022
3936 Clouds 30 1015 51 10000 3.13 60 20:37 28.04.2022
3937 Clear 31 1013 40 10000 4.02 107 19:46 28.04.2022
3938 Clouds 28 1015 65 10000 3.58 57 19:23 28.04.2022
3939 Clouds 28 1016 65 10000 2.24 81 18:37 28.04.2022
3940 Clouds 27 1016 74 9656 0.89 93 17:32 28.04.2022
3941 Clouds 25 1016 83 8047 0.45 92 16:41 28.04.2022
3942 Clouds 25 1016 83 8047 0.89 126 16:19 28.04.2022
3943 Clouds 22 1016 94 8047 0 0 15:40 28.04.2022
3944 Clouds 22 1015 94 9656 0 0 14:38 28.04.2022
3945 Clear 22 1015 94 9656 1.34 300 13:19 28.04.2022
3946 Clear 23 1013 62 10000 0.45 302 11:59 28.04.2022
3947 Clear 24 1014 63 10000 0.89 302 10:47 28.04.2022
3948 Clouds 23 1016 94 10000 1.54 16 10:26 28.04.2022
3949 Clear 24 1015 61 10000 0.89 302 08:59 28.04.2022
3950 Clouds 25 1018 83 10000 0.45 310 07:37 28.04.2022
3951 Clouds 25 1018 83 10000 1.34 332 06:33 28.04.2022
3952 Clouds 25 1017 83 10000 1.34 342 05:39 28.04.2022
3953 Clouds 25 1016 83 10000 2.68 24 04:40 28.04.2022
3954 Clouds 30 1015 48 10000 6.26 41 00:36 28.04.2022
3955 Clear 31 1013 30 10000 4.92 11 22:45 27.04.2022
3956 Clear 28 1015 61 10000 7.36 21 21:56 27.04.2022
3957 Clouds 30 1017 45 10000 4.92 24 21:27 27.04.2022
3958 Clear 31 1016 33 10000 2.68 46 20:43 27.04.2022
3959 Clouds 27 1019 61 10000 3.58 20 19:39 27.04.2022
3960 Clouds 27 1019 61 10000 4.47 331 19:18 27.04.2022
3961 Clouds 25 1020 69 9656 5.14 360 18:25 27.04.2022
3962 Clouds 24 1020 78 9656 7.72 30 17:26 27.04.2022
3963 Clouds 23 1018 73 9656 4.12 360 15:22 27.04.2022
3964 Clouds 25 1015 54 10000 5.81 360 12:31 27.04.2022
3965 Clouds 25 1015 56 10000 5.81 347 11:23 27.04.2022
3966 Clouds 26 1016 49 10000 5.81 360 09:59 27.04.2022
3967 Clouds 26 1017 51 10000 8.05 12 07:25 27.04.2022
3968 Clouds 26 1017 52 10000 7.15 13 05:50 27.04.2022
3969 Clouds 28 1014 52 10000 8.94 22 01:52 27.04.2022
3970 Clear 28 1013 48 10000 6.71 15 00:52 27.04.2022
3971 Clear 30 1012 45 10000 9.39 11 23:57 26.04.2022
3972 Clouds 30 1015 66 10000 10.73 19 23:23 26.04.2022
3973 Clouds 31 1016 62 10000 8.94 40 22:41 26.04.2022
3974 Clear 31 1014 45 10000 8.94 5 21:49 26.04.2022
3975 Clear 31 1015 42 10000 7.6 49 20:54 26.04.2022
3976 Clouds 31 1017 58 10000 5.81 5 20:34 26.04.2022
3977 Clouds 30 1018 66 9656 4.92 36 19:33 26.04.2022
3978 Clouds 30 1016 48 10000 5.81 26 18:51 26.04.2022
3979 Clouds 28 1018 74 9656 5.36 24 18:18 26.04.2022
3980 Clouds 27 1018 83 8047 5.36 327 17:32 26.04.2022
3981 Clear 26 1014 61 10000 1.79 325 14:46 26.04.2022
3982 Clouds 25 1014 94 9656 4.12 360 13:34 26.04.2022
3983 Clouds 27 1012 59 10000 3.58 28 12:22 26.04.2022
3984 Clouds 27 1012 59 10000 2.68 26 10:44 26.04.2022
3985 Clouds 27 1012 60 10000 2.68 360 09:36 26.04.2022
3986 Clouds 27 1012 58 10000 2.24 360 07:54 26.04.2022
3987 Clouds 27 1012 83 9656 1.79 53 04:33 26.04.2022
3988 Clouds 28 1009 78 9656 4.02 80 01:54 26.04.2022
3989 Clouds 31 1008 70 9656 4.47 67 00:26 26.04.2022
3990 Clear 32 1007 46 10000 5.81 74 22:46 25.04.2022
3991 Clear 32 1008 46 10000 5.36 115 21:43 25.04.2022
3992 Clouds 32 1011 62 8047 5.36 90 20:40 25.04.2022
3993 Clouds 32 1009 46 10000 2.68 101 18:58 25.04.2022
3994 Clouds 31 1012 62 8047 2.57 180 18:23 25.04.2022
3995 Clouds 29 1012 74 8047 1.34 189 17:23 25.04.2022
3996 Clouds 26 1011 94 8047 0.45 140 15:29 25.04.2022
3997 Clouds 27 1009 64 10000 0.89 324 14:46 25.04.2022
3998 Clouds 26 1010 89 8047 3.09 60 13:35 25.04.2022
3999 Clouds 26 1008 84 10000 0.44 99 11:49 25.04.2022
4000 Clouds 26 1010 89 9656 2.24 346 10:26 25.04.2022
4001 Clouds 27 1009 58 10000 1.85 353 08:46 25.04.2022
4002 Clouds 27 1009 58 10000 0.45 87 06:46 25.04.2022
4003 Clouds 27 1008 78 10000 1.79 79 04:33 25.04.2022
4004 Clear 30 1005 50 10000 5.36 80 00:58 25.04.2022
4005 Clear 31 1005 49 10000 6.71 86 23:51 24.04.2022
4006 Clear 32 1006 44 10000 6.26 88 22:45 24.04.2022
4007 Clear 31 1008 58 10000 4.92 65 22:26 24.04.2022
4008 Clouds 31 1009 58 10000 4.92 71 21:26 24.04.2022
4009 Clear 32 1007 40 10000 4.92 101 20:54 24.04.2022
4010 Clouds 32 1009 51 10000 4.47 68 20:35 24.04.2022
4011 Clouds 32 1010 55 10000 4.47 96 19:46 24.04.2022
4012 Clouds 30 1010 62 8047 0.45 150 18:20 24.04.2022
4013 Clear 28 1011 74 8047 2.57 240 17:28 24.04.2022
4014 Clear 28 1009 52 10000 1.79 162 16:59 24.04.2022
4015 Clouds 26 1011 83 8047 2.57 180 16:32 24.04.2022
4016 Clear 26 1009 63 10000 2.68 218 15:54 24.04.2022
4017 Clear 25 1008 63 10000 1.34 238 14:58 24.04.2022
4018 Clear 25 1010 88 8047 0.89 144 13:56 24.04.2022
4019 Clear 25 1010 88 8047 1.34 103 13:24 24.04.2022
4020 Clear 26 1008 61 10000 1.79 114 11:56 24.04.2022
4021 Clear 26 1008 61 10000 1.79 100 11:27 24.04.2022
4022 Clear 25 1009 60 10000 2.02 289 09:55 24.04.2022
4023 Clear 25 1009 60 10000 1.63 266 09:19 24.04.2022
4024 Clouds 26 1012 83 10000 0.45 107 06:18 24.04.2022
4025 Clear 27 1009 74 10000 1.79 92 03:37 24.04.2022
4026 Clear 28 1009 69 10000 4.92 84 01:37 24.04.2022
4027 Clear 30 1008 46 10000 6.26 90 23:57 23.04.2022
4028 Clear 29 1010 70 10000 6.26 94 23:26 23.04.2022
4029 Clear 31 1008 46 10000 6.71 74 22:55 23.04.2022
4030 Clear 31 1009 44 10000 6.26 94 21:51 23.04.2022
4031 Clouds 31 1012 55 10000 4.92 83 21:32 23.04.2022
4032 Clouds 31 1013 51 10000 4.47 71 20:33 23.04.2022
4033 Clouds 31 1013 55 10000 4.47 104 19:41 23.04.2022
4034 Clouds 31 1013 55 10000 4.02 117 19:18 23.04.2022
4035 Clear 31 1012 40 10000 4.92 92 18:46 23.04.2022
4036 Clear 31 1012 38 10000 1.34 5 17:48 23.04.2022
4037 Clear 30 1013 44 10000 0.89 167 16:50 23.04.2022
4038 Clouds 27 1015 74 10000 1.34 116 16:21 23.04.2022
4039 Clouds 25 1014 83 9656 0.89 131 14:27 23.04.2022
4040 Clear 26 1013 61 10000 0.89 112 11:59 23.04.2022
4041 Clear 26 1013 61 10000 0.89 101 10:40 23.04.2022
4042 Clear 26 1013 61 10000 0.89 101 10:40 23.04.2022
4043 Clear 26 1014 60 10000 0.45 102 08:42 23.04.2022
4044 Clouds 26 1016 89 10000 1.34 331 05:45 23.04.2022
4045 Clear 27 1014 56 10000 1.34 26 03:54 23.04.2022
4046 Clouds 30 1014 54 10000 5.36 45 00:18 23.04.2022
4047 Clouds 30 1014 58 10000 5.81 71 23:25 22.04.2022
4048 Clear 31 1014 42 10000 5.81 62 21:59 22.04.2022
4049 Clouds 32 1016 51 10000 5.81 40 21:40 22.04.2022
4050 Clouds 31 1017 58 10000 4.47 355 20:37 22.04.2022
4051 Clouds 30 1017 62 10000 3.58 30 19:39 22.04.2022
4052 Clouds 30 1017 62 10000 4.02 5 19:18 22.04.2022
4053 Clouds 29 1018 61 10000 2.24 92 18:33 22.04.2022
4054 Clouds 28 1018 69 10000 0.89 58 17:34 22.04.2022
4055 Mist 27 1018 78 10000 1.79 345 16:29 22.04.2022
4056 Mist 24 1018 94 10000 1.79 338 15:31 22.04.2022
4057 Clear 24 1017 94 10000 1.34 22 14:41 22.04.2022
4058 Clear 25 1017 88 10000 1.34 281 13:42 22.04.2022
4059 Clouds 26 1015 58 10000 1.34 60 12:55 22.04.2022
4060 Clouds 26 1015 58 10000 1.34 14 11:24 22.04.2022
4061 Clouds 26 1015 58 10000 1.79 24 10:58 22.04.2022
4062 Clouds 26 1015 58 10000 2.68 43 10:40 22.04.2022
4063 Clouds 26 1015 59 10000 2.68 44 10:20 22.04.2022
4064 Clouds 26 1015 61 10000 3.13 57 09:30 22.04.2022
4065 Clouds 26 1015 61 10000 0.45 61 08:49 22.04.2022
4066 Clouds 27 1014 59 10000 1.79 320 06:54 22.04.2022
4067 Clouds 27 1013 78 10000 1.79 84 01:34 22.04.2022
4068 Clouds 30 1012 70 10000 5.36 87 23:39 21.04.2022
4069 Clear 31 1011 47 10000 5.36 69 22:48 21.04.2022
4070 Clouds 30 1014 70 10000 5.36 30 21:43 21.04.2022
4071 Haze 32 1014 62 6437 4.92 25 20:32 21.04.2022
4072 Haze 31 1015 66 6437 4.02 74 19:36 21.04.2022
4073 Haze 30 1015 70 6437 2.68 61 18:32 21.04.2022
4074 Clear 31 1013 50 10000 2.24 59 17:46 21.04.2022
4075 Clouds 28 1014 83 8047 2.57 360 16:21 21.04.2022
4076 Clear 26 1013 94 8047 2.57 340 15:19 21.04.2022
4077 Clear 25 1012 88 9656 2.57 10 14:29 21.04.2022
4078 Clear 25 1012 88 9656 2.57 20 13:22 21.04.2022
4079 Clouds 25 1010 60 10000 0.89 355 12:29 21.04.2022
4080 Clouds 26 1010 61 10000 0.45 283 10:19 21.04.2022
4081 Clouds 26 1011 62 10000 0.45 111 08:49 21.04.2022
4082 Clouds 27 1011 59 10000 1.83 298 06:46 21.04.2022
4083 Clear 27 1011 83 10000 0.45 131 04:21 21.04.2022
4084 Clouds 27 1009 83 9656 4.12 90 03:23 21.04.2022
4085 Clear 28 1008 55 10000 4.47 98 02:45 21.04.2022
4086 Clear 28 1008 55 10000 4.47 98 02:45 21.04.2022
4087 Clear 30 1009 58 10000 4.92 107 00:35 21.04.2022
4088 Clear 31 1007 39 10000 5.81 91 23:46 20.04.2022
4089 Clear 32 1009 51 10000 5.81 93 23:21 20.04.2022
4090 Clear 32 1008 42 10000 6.26 85 22:41 20.04.2022
4091 Clear 32 1009 41 10000 4.92 103 21:57 20.04.2022
4092 Clear 34 1009 33 10000 1.34 67 20:50 20.04.2022
4093 Clouds 32 1012 51 9656 3.58 192 20:22 20.04.2022
4094 Clear 32 1010 38 10000 4.02 202 19:47 20.04.2022
4095 Clear 31 1011 41 10000 2.68 208 18:52 20.04.2022
4096 Clear 29 1012 46 10000 3.13 154 17:52 20.04.2022
4097 Clouds 25 1014 88 8047 1.34 172 16:39 20.04.2022
4098 Haze 24 1014 88 6437 0.45 196 15:39 20.04.2022
4099 Clear 23 1012 64 10000 1.63 139 12:47 20.04.2022
4100 Clear 23 1012 62 10000 1.48 114 11:42 20.04.2022
4101 Clouds 23 1012 63 10000 1.65 101 10:51 20.04.2022
4102 Clouds 24 1013 61 10000 1.36 112 09:34 20.04.2022
4103 Clouds 25 1013 60 10000 0.67 151 08:51 20.04.2022
4104 Clear 25 1014 60 10000 0.71 139 08:19 20.04.2022
4105 Clouds 26 1016 83 10000 1.05 50 06:26 20.04.2022
4106 Clear 27 1012 56 10000 4.02 62 02:58 20.04.2022
4107 Clouds 29 1014 70 10000 4.47 101 00:22 20.04.2022
4108 Clouds 30 1014 62 10000 4.92 98 23:31 19.04.2022
4109 Clouds 30 1015 66 10000 4.92 117 22:24 19.04.2022
4110 Clouds 30 1013 47 10000 4.47 53 21:55 19.04.2022
4111 Clouds 30 1016 62 10000 4.02 72 21:18 19.04.2022
4112 Clouds 31 1017 58 10000 4.02 59 20:37 19.04.2022
4113 Clouds 31 1017 58 10000 4.02 59 20:37 19.04.2022
4114 Clouds 30 1015 44 10000 3.58 26 19:43 19.04.2022
4115 Clouds 31 1016 44 10000 3.13 34 18:46 19.04.2022
4116 Clouds 31 1016 44 10000 3.13 34 18:46 19.04.2022
4117 Clouds 28 1018 69 9656 3.58 30 17:27 19.04.2022
4118 Clear 28 1016 51 10000 2.68 34 16:43 19.04.2022
4119 Clouds 27 1017 74 9656 4.12 360 16:21 19.04.2022
4120 Clouds 26 1015 54 10000 3.13 67 14:47 19.04.2022
4121 Clouds 25 1015 88 8047 2.57 350 13:34 19.04.2022
4122 Clouds 26 1014 59 10000 2.24 360 12:50 19.04.2022
4123 Clouds 26 1014 59 10000 2.68 26 11:39 19.04.2022
4124 Clouds 26 1014 60 10000 2.24 5 09:57 19.04.2022
4125 Clear 26 1015 60 10000 1.34 321 08:43 19.04.2022
4126 Clear 27 1014 59 10000 4.47 21 04:41 19.04.2022
4127 Clouds 27 1014 83 10000 4.47 30 03:19 19.04.2022
4128 Clouds 30 1013 70 10000 4.92 90 00:24 19.04.2022
4129 Clear 31 1011 49 10000 5.81 62 22:58 18.04.2022
4130 Clear 31 1014 66 9656 6.71 23 21:29 18.04.2022
4131 Clear 32 1012 47 10000 5.81 42 20:46 18.04.2022
4132 Clear 30 1014 70 8047 5.81 35 20:25 18.04.2022
4133 Clear 30 1014 70 9656 6.71 46 19:41 18.04.2022
4134 Clouds 31 1012 49 10000 6.26 48 18:53 18.04.2022
4135 Clouds 30 1012 50 10000 7.6 16 17:53 18.04.2022
4136 Clouds 29 1014 65 9656 6.26 40 17:28 18.04.2022
4137 Clouds 28 1013 69 9656 4.02 5 16:40 18.04.2022
4138 Clear 27 1011 54 10000 3.13 5 15:54 18.04.2022
4139 Clear 23 1011 94 9656 0 0 14:42 18.04.2022
4140 Clear 23 1011 94 9656 0 0 14:42 18.04.2022
4141 Clear 23 1010 94 9656 0 0 13:31 18.04.2022
4142 Clear 23 1007 64 10000 2.18 194 12:28 18.04.2022
4143 Clear 24 1008 64 10000 1.29 196 11:20 18.04.2022
4144 Clear 25 1008 65 10000 1.03 245 10:28 18.04.2022
4145 Clear 25 1009 65 10000 0.45 282 09:30 18.04.2022
4146 Clouds 26 1009 64 10000 1.98 287 07:35 18.04.2022
4147 Clear 27 1008 59 10000 0.89 9 04:40 18.04.2022
4148 Clear 33 1007 49 10000 4.92 108 23:42 17.04.2022
4149 Clear 34 1008 46 10000 4.92 105 22:40 17.04.2022
4150 Clear 34 1008 52 10000 5.36 96 21:42 17.04.2022
4151 Clear 34 1008 52 10000 6.26 95 21:21 17.04.2022
4152 Clear 32 1009 62 10000 4.47 114 20:32 17.04.2022
4153 Clear 33 1010 52 10000 4.92 118 19:21 17.04.2022
4154 Clouds 28 1011 78 8047 2.57 180 17:38 17.04.2022
4155 Mist 24 1011 94 6437 0.89 213 15:38 17.04.2022
4156 Fog 22 1010 100 805 1.34 217 14:54 17.04.2022
4157 Clear 23 1010 100 9656 0 0 13:45 17.04.2022
4158 Clouds 24 1008 69 10000 2.18 182 12:56 17.04.2022
4159 Clouds 25 1008 69 10000 1.54 178 11:53 17.04.2022
4160 Clouds 25 1008 69 10000 0.49 171 10:40 17.04.2022
4161 Clouds 25 1008 70 10000 1.3 316 10:19 17.04.2022
4162 Clouds 25 1009 68 10000 1.56 318 09:28 17.04.2022
4163 Clouds 25 1009 67 10000 1.56 318 08:42 17.04.2022
4164 Clouds 26 1010 64 10000 0.45 331 07:00 17.04.2022
4165 Clear 27 1008 58 10000 2.24 46 03:53 17.04.2022
4166 Clear 31 1006 47 10000 4.92 94 00:55 17.04.2022
4167 Clear 33 1006 43 10000 4.47 107 23:50 16.04.2022
4168 Clear 34 1009 43 10000 5.39 80 22:27 16.04.2022
4169 Clouds 34 1010 52 10000 5.36 67 21:29 16.04.2022
4170 Clear 33 1009 43 10000 5.36 90 19:57 16.04.2022
4171 Clear 33 1010 43 10000 2.68 219 18:54 16.04.2022
4172 Clouds 26 1012 89 8047 1.34 146 17:40 16.04.2022
4173 Clouds 26 1012 89 8047 1.79 146 16:33 16.04.2022
4174 Clouds 24 1011 94 8047 1.79 124 15:40 16.04.2022
4175 Clouds 24 1010 94 8047 0.45 160 14:51 16.04.2022
4176 Clear 23 1010 100 8047 2.96 166 13:57 16.04.2022
4177 Clear 23 1010 100 8047 0.45 240 13:26 16.04.2022
4178 Clouds 24 1008 64 10000 1.92 178 12:18 16.04.2022
4179 Clouds 25 1008 64 10000 0.89 244 10:42 16.04.2022
4180 Clouds 25 1009 64 10000 0.89 242 09:43 16.04.2022
4181 Clouds 25 1009 64 10000 0.89 227 08:57 16.04.2022
4182 Clouds 26 1010 61 10000 0.49 241 07:32 16.04.2022
4183 Clouds 27 1010 60 10000 0.45 107 06:46 16.04.2022
4184 Clouds 28 1007 56 10000 4.47 52 01:59 16.04.2022
4185 Clear 30 1008 70 10000 4.02 54 00:21 16.04.2022
4186 Clouds 31 1007 48 10000 4.02 84 22:57 15.04.2022
4187 Clear 30 1010 70 10000 4.92 65 22:31 15.04.2022
4188 Clouds 30 1011 66 10000 4.92 51 21:47 15.04.2022
4189 Clouds 31 1009 47 10000 4.47 74 20:56 15.04.2022
4190 Clouds 31 1010 48 10000 4.47 72 19:59 15.04.2022
4191 Clouds 31 1012 62 9656 4.92 86 19:39 15.04.2022
4192 Clouds 32 1010 45 10000 1.79 74 18:46 15.04.2022
4193 Clouds 31 1012 62 9656 2.24 148 18:24 15.04.2022
4194 Clouds 29 1012 70 8047 1.34 284 17:32 15.04.2022
4195 Mist 26 1012 83 9656 1.34 306 16:26 15.04.2022
4196 Clouds 27 1010 59 10000 1.34 306 15:59 15.04.2022
4197 Haze 25 1012 88 8047 1.34 23 14:41 15.04.2022
4198 Clouds 25 1011 94 9656 1.79 40 13:34 15.04.2022
4199 Clouds 25 1009 66 10000 1.34 55 12:40 15.04.2022
4200 Clouds 25 1008 65 10000 0.89 341 11:55 15.04.2022
4201 Clouds 25 1009 65 10000 0.89 340 10:58 15.04.2022
4202 Clouds 25 1009 65 10000 1.34 348 10:40 15.04.2022
4203 Clouds 25 1009 65 10000 0.89 340 09:41 15.04.2022
4204 Clouds 25 1009 65 10000 1.79 315 09:19 15.04.2022
4205 Clouds 26 1010 63 10000 1.34 311 07:24 15.04.2022
4206 Clouds 27 1009 60 10000 2.68 23 05:58 15.04.2022
4207 Clouds 28 1007 78 9656 6.26 49 02:34 15.04.2022
4208 Clouds 30 1007 66 9656 6.71 22 23:30 14.04.2022
4209 Clouds 31 1008 62 9656 7.6 34 22:47 14.04.2022
4210 Clouds 31 1008 62 9656 7.6 15 22:28 14.04.2022
4211 Clouds 32 1007 45 10000 6.71 31 21:57 14.04.2022
4212 Clouds 31 1009 62 8047 6.26 50 20:35 14.04.2022
4213 Clouds 30 1010 66 8047 4.92 5 19:22 14.04.2022
4214 Clouds 30 1009 62 8047 1.34 350 18:18 14.04.2022
4215 Clouds 29 1009 65 8047 1.34 129 17:28 14.04.2022
4216 Clouds 27 1008 74 8047 2.68 204 16:33 14.04.2022
4217 Clouds 24 1006 83 9656 0 0 14:27 14.04.2022
4218 Clouds 24 1006 83 8047 0.45 205 13:39 14.04.2022
4219 Clouds 25 1004 57 10000 0.45 196 12:51 14.04.2022
4220 Clouds 25 1004 56 10000 0.45 196 12:30 14.04.2022
4221 Clouds 26 1004 54 10000 1.34 193 11:23 14.04.2022
4222 Clouds 25 1004 61 10000 0.45 162 10:36 14.04.2022
4223 Clouds 25 1004 62 10000 4.37 160 09:57 14.04.2022
4224 Clouds 25 1005 59 10000 2.27 149 08:44 14.04.2022
4225 Clouds 26 1006 60 10000 0.45 199 06:51 14.04.2022
4226 Clouds 28 1003 56 10000 1.34 82 02:53 14.04.2022
4227 Clouds 31 1002 42 10000 4.47 91 22:56 13.04.2022
4228 Clouds 32 1003 43 10000 4.47 39 21:44 13.04.2022
4229 Clouds 34 1004 38 10000 4.02 78 20:55 13.04.2022
4230 Clear 33 1006 55 9656 4.92 69 20:22 13.04.2022
4231 Clear 33 1007 52 9656 3.13 178 19:24 13.04.2022
4232 Clear 31 1007 62 9656 1.79 208 18:19 13.04.2022
4233 Clear 28 1007 69 8047 2.68 207 17:23 13.04.2022
4234 Clouds 26 1007 73 8047 2.68 177 16:34 13.04.2022
4235 Clear 24 1006 83 8047 3.13 202 15:38 13.04.2022
4236 Clouds 24 1004 59 10000 2.24 212 14:50 13.04.2022
4237 Clear 23 1005 83 9656 1.34 211 14:19 13.04.2022
4238 Clear 24 1005 78 9656 1.79 194 13:19 13.04.2022
4239 Clouds 26 1004 51 10000 1.79 177 12:25 13.04.2022
4240 Clouds 26 1004 50 10000 2.82 200 10:49 13.04.2022
4241 Clouds 25 1005 57 10000 2.07 201 09:41 13.04.2022
4242 Clouds 26 1006 57 10000 1.03 188 08:42 13.04.2022
4243 Clouds 26 1006 57 10000 0.45 360 06:51 13.04.2022
4244 Clouds 26 1008 83 10000 0.89 360 06:25 13.04.2022
4245 Clouds 26 1007 83 10000 0.89 88 05:20 13.04.2022
4246 Clouds 30 1005 66 9656 5.36 94 00:21 13.04.2022
4247 Clouds 30 1005 62 10000 5.36 84 23:29 12.04.2022
4248 Clouds 33 1004 40 10000 4.92 82 21:58 12.04.2022
4249 Clouds 33 1005 38 10000 5.81 104 20:57 12.04.2022
4250 Clouds 34 1007 52 9656 5.36 87 20:38 12.04.2022
4251 Clouds 34 1006 37 10000 4.47 90 19:48 12.04.2022
4252 Clouds 33 1008 49 9656 2.24 123 19:30 12.04.2022
4253 Clouds 29 1009 65 9656 2.68 177 18:26 12.04.2022
4254 Clouds 28 1009 69 8047 1.79 169 17:23 12.04.2022
4255 Clouds 24 1009 83 8047 4.09 182 16:22 12.04.2022
4256 Clouds 22 1009 88 8047 2.57 140 15:29 12.04.2022
4257 Clouds 21 1008 94 9656 2.57 160 14:21 12.04.2022
4258 Clouds 24 1007 81 10000 3.23 175 13:29 12.04.2022
4259 Clouds 24 1007 81 10000 3.23 175 12:49 12.04.2022
4260 Clouds 24 1007 79 10000 2.92 168 11:46 12.04.2022
4261 Clouds 23 1006 60 10000 2.43 179 10:32 12.04.2022
4262 Clouds 24 1007 61 10000 0.89 292 08:57 12.04.2022
4263 Clouds 25 1007 59 10000 1 217 07:51 12.04.2022
4264 Clouds 26 1007 56 10000 1.62 272 05:49 12.04.2022
4265 Clouds 26 1006 56 10000 2.05 313 04:55 12.04.2022
4266 Clouds 30 1004 45 10000 5.36 90 23:53 11.04.2022
4267 Clouds 31 1005 42 10000 5.36 108 22:44 11.04.2022
4268 Clear 32 1008 55 8047 5.36 116 21:37 11.04.2022
4269 Clouds 32 1007 38 10000 4.47 108 20:55 11.04.2022
4270 Clear 33 1009 49 8047 4.47 79 20:28 11.04.2022
4271 Clear 31 1010 55 8047 2.57 130 19:37 11.04.2022
4272 Clear 31 1010 55 8047 2.57 130 19:18 11.04.2022
4273 Clouds 31 1008 40 10000 1.79 123 18:41 11.04.2022
4274 Clouds 30 1009 42 10000 2.68 181 17:56 11.04.2022
4275 Clouds 28 1009 46 10000 2.68 192 16:54 11.04.2022
4276 Clouds 25 1010 69 10000 3.11 184 15:45 11.04.2022
4277 Clear 20 1009 94 9656 0.45 229 13:53 11.04.2022
4278 Clouds 21 1007 65 10000 0.45 229 12:44 11.04.2022
4279 Clouds 21 1007 65 10000 0.89 250 12:25 11.04.2022
4280 Clouds 21 1008 63 10000 3.08 202 10:58 11.04.2022
4281 Clouds 22 1009 62 10000 2.77 212 09:58 11.04.2022
4282 Clouds 22 1009 61 10000 0.45 278 08:50 11.04.2022
4283 Clear 24 1011 83 10000 0.45 220 05:38 11.04.2022
4284 Clouds 27 1008 47 10000 5.36 119 00:57 11.04.2022
4285 Clouds 29 1012 45 10000 5.81 98 22:33 10.04.2022
4286 Clouds 29 1010 32 10000 5.81 83 21:54 10.04.2022
4287 Clouds 29 1013 45 10000 4.92 86 21:26 10.04.2022
4288 Clouds 29 1014 48 10000 5.81 106 20:25 10.04.2022
4289 Clouds 29 1016 45 10000 6.26 121 19:37 10.04.2022
4290 Clouds 28 1014 32 10000 2.24 170 18:50 10.04.2022
4291 Clouds 26 1016 53 8047 3.09 140 18:30 10.04.2022
4292 Clouds 27 1014 37 10000 3.58 145 17:49 10.04.2022
4293 Clouds 25 1015 44 10000 1.79 184 16:59 10.04.2022
4294 Clouds 21 1015 57 10000 3.94 170 15:41 10.04.2022
4295 Clouds 18 1014 61 10000 3.77 170 14:42 10.04.2022
4296 Clear 18 1016 88 9656 0 0 13:45 10.04.2022
4297 Clouds 18 1014 62 10000 0.89 216 12:32 10.04.2022
4298 Clouds 18 1014 61 10000 0.45 216 11:44 10.04.2022
4299 Clouds 18 1014 61 10000 0.89 216 11:20 10.04.2022
4300 Clouds 19 1015 60 10000 1.34 216 10:34 10.04.2022
4301 Clouds 20 1015 58 10000 0.89 216 09:41 10.04.2022
4302 Clouds 21 1017 56 10000 0.45 216 08:28 10.04.2022
4303 Clouds 21 1017 55 10000 1.34 213 07:57 10.04.2022
4304 Clouds 21 1018 57 10000 0.45 196 06:59 10.04.2022
4305 Clouds 23 1018 73 10000 2.24 110 03:40 10.04.2022
4306 Clouds 24 1017 64 10000 5.36 105 02:19 10.04.2022
4307 Clouds 26 1016 44 10000 6.26 84 23:53 09.04.2022
4308 Clouds 27 1017 44 10000 6.26 119 22:56 09.04.2022
4309 Clouds 27 1019 54 10000 5.81 92 22:33 09.04.2022
4310 Clouds 27 1021 50 10000 6.26 100 21:19 09.04.2022
4311 Clouds 27 1022 50 10000 4.02 74 20:30 09.04.2022
4312 Clouds 27 1020 35 10000 4.02 105 19:56 09.04.2022
4313 Clouds 27 1023 47 10000 3.58 104 19:38 09.04.2022
4314 Clouds 26 1024 50 9656 2.68 94 18:23 09.04.2022
4315 Clouds 25 1024 53 9656 2.24 146 17:48 09.04.2022
4316 Clouds 25 1022 40 10000 1.34 229 16:56 09.04.2022
4317 Clouds 21 1023 68 8047 1.34 257 16:38 09.04.2022
4318 Clouds 22 1022 47 10000 1.79 274 15:49 09.04.2022
4319 Clouds 22 1022 47 10000 1.79 274 15:49 09.04.2022
4320 Clouds 22 1022 47 10000 1.79 274 15:49 09.04.2022
4321 Clouds 22 1022 47 10000 1.79 274 15:49 09.04.2022
4322 Clouds 18 1022 77 8047 1.34 277 15:25 09.04.2022
4323 Clouds 18 1022 77 9656 0.45 194 14:25 09.04.2022
4324 Clouds 19 1022 72 9656 1.36 299 13:26 09.04.2022
4325 Clouds 18 1020 55 10000 1.36 299 12:53 09.04.2022
4326 Clouds 19 1020 54 10000 0.92 305 11:44 09.04.2022
4327 Clouds 19 1020 55 10000 0.74 317 10:41 09.04.2022
4328 Clouds 18 1020 55 10000 0.26 30 10:18 09.04.2022
4329 Clouds 18 1021 54 10000 0.62 49 09:22 09.04.2022
4330 Clouds 19 1022 52 10000 0.45 185 07:49 09.04.2022
4331 Clouds 23 1021 37 10000 2.24 15 03:57 09.04.2022
4332 Clouds 25 1021 53 10000 4.92 83 00:33 09.04.2022
4333 Clouds 27 1022 44 10000 5.36 37 23:20 08.04.2022
4334 Clouds 27 1023 47 10000 6.71 340 21:42 08.04.2022
4335 Clouds 26 1024 50 10000 7.6 22 20:41 08.04.2022
4336 Clouds 28 1022 32 10000 7.15 30 19:46 08.04.2022
4337 Clouds 26 1024 53 10000 7.6 40 18:42 08.04.2022
4338 Clouds 26 1024 53 10000 7.6 40 18:18 08.04.2022
4339 Clouds 25 1024 57 10000 8.49 355 17:27 08.04.2022
4340 Clouds 25 1022 41 10000 7.6 9 16:55 08.04.2022
4341 Clouds 24 1023 64 10000 8.05 24 16:26 08.04.2022
4342 Clouds 23 1022 64 10000 7.6 23 15:33 08.04.2022
4343 Clouds 23 1021 46 10000 6.26 360 14:45 08.04.2022
4344 Clouds 23 1021 64 10000 7.15 14 13:59 08.04.2022
4345 Clouds 23 1021 64 10000 5.81 15 13:30 08.04.2022
4346 Clouds 23 1019 46 10000 7.6 15 12:45 08.04.2022
4347 Clouds 23 1018 46 10000 6.71 19 11:26 08.04.2022
4348 Clouds 24 1018 48 10000 6.71 5 09:57 08.04.2022
4349 Clouds 24 1018 47 10000 8.05 19 08:59 08.04.2022
4350 Clouds 24 1018 47 10000 10.28 360 07:43 08.04.2022
4351 Clouds 24 1019 47 10000 11.62 31 06:45 08.04.2022
4352 Clear 24 1016 73 10000 11.62 20 02:53 08.04.2022
4353 Sand 26 1015 65 10000 8.94 16 00:30 08.04.2022
4354 Sand 27 1015 57 9656 12.96 11 23:43 07.04.2022
4355 Clouds 28 1013 40 10000 13.41 18 22:44 07.04.2022
4356 Sand 28 1015 57 8047 13.41 18 22:23 07.04.2022
4357 Clouds 28 1013 41 10000 12.96 11 21:58 07.04.2022
4358 Sand 28 1015 57 6437 9.83 10 21:30 07.04.2022
4359 Sand 28 1015 57 6437 15.65 24 20:42 07.04.2022
4360 Clouds 28 1014 41 10000 14.31 5 19:51 07.04.2022
4361 Sand 27 1015 69 6437 12.96 5 17:29 07.04.2022
4362 Clouds 27 1013 49 10000 13.86 10 16:59 07.04.2022
4363 Sand 26 1014 73 8047 12.07 13 16:33 07.04.2022
4364 Clouds 27 1012 50 10000 11.62 5 15:47 07.04.2022
4365 Clouds 26 1010 73 8047 9.83 360 13:54 07.04.2022
4366 Clouds 26 1010 73 8047 9.39 360 13:23 07.04.2022
4367 Clouds 26 1009 57 10000 6.26 15 11:52 07.04.2022
4368 Clouds 24 1007 52 10000 3.4 0 10:54 07.04.2022
4369 Clouds 25 1006 53 10000 0.89 189 09:19 07.04.2022
4370 Clouds 25 1007 59 10000 0.45 234 06:59 07.04.2022
4371 Haze 26 1008 78 8047 0.84 312 05:21 07.04.2022
4372 Haze 30 1005 54 8047 2.68 16 02:37 07.04.2022
4373 Clear 33 1004 43 10000 4.47 49 00:43 07.04.2022
4374 Clear 33 1004 46 10000 5.81 36 23:36 06.04.2022
4375 Clear 25 1005 69 9656 4.92 16 22:44 06.04.2022
4376 Clear 25 1005 69 9656 4.92 46 22:20 06.04.2022
4377 Clouds 30 1005 55 10000 4.1 46 20:47 06.04.2022
4378 Clouds 35 1004 28 10000 1.79 95 20:00 06.04.2022
4379 Clear 32 1006 51 9656 1.34 141 19:24 06.04.2022
4380 Clouds 32 1005 35 10000 2.68 96 18:48 06.04.2022
4381 Clear 28 1007 61 9656 3.13 201 17:36 06.04.2022
4382 Clouds 28 1005 46 10000 3.13 185 16:56 06.04.2022
4383 Clear 25 1006 69 8047 3.13 174 16:32 06.04.2022
4384 Clouds 24 1004 53 10000 2.24 210 15:43 06.04.2022
4385 Clear 22 1004 73 9656 2.57 180 13:48 06.04.2022
4386 Clouds 22 1002 52 10000 1.34 220 12:30 06.04.2022
4387 Clouds 23 1002 47 10000 0.89 196 10:57 06.04.2022
4388 Clouds 23 1002 47 10000 0.89 196 10:33 06.04.2022
4389 Clouds 23 1003 45 10000 0.45 187 09:59 06.04.2022
4390 Clouds 25 1003 43 10000 1.34 199 08:59 06.04.2022
4391 Clouds 26 1003 42 10000 2.24 196 07:59 06.04.2022
4392 Clouds 26 1003 49 10000 1.79 210 05:45 06.04.2022
4393 Clouds 29 1001 63 10000 4.12 76 00:45 06.04.2022
4394 Clouds 35 1000 30 10000 3.58 69 23:48 05.04.2022
4395 Clear 35 1001 29 10000 3.58 92 21:58 05.04.2022
4396 Clouds 34 1004 46 9656 3.58 108 21:18 05.04.2022
4397 Clouds 34 1005 46 10000 1.79 206 20:24 05.04.2022
4398 Clear 30 1006 54 10000 3.13 195 18:32 05.04.2022
4399 Clear 27 1005 65 10000 3.13 200 17:22 05.04.2022
4400 Clear 25 1005 78 8047 3.58 181 16:43 05.04.2022
4401 Clouds 24 1003 60 10000 2.24 220 15:51 05.04.2022
4402 Clouds 22 1005 88 8047 2.24 220 15:31 05.04.2022
4403 Clear 22 1003 88 8047 2.57 170 13:55 05.04.2022
4404 Clear 23 1001 58 10000 0.89 198 12:39 05.04.2022
4405 Clear 23 1001 57 10000 0.45 196 11:43 05.04.2022
4406 Clear 23 1001 57 10000 0.45 196 11:25 05.04.2022
4407 Clear 24 1002 58 10000 1.34 198 09:40 05.04.2022
4408 Clear 23 1003 60 10000 4.39 174 08:47 05.04.2022
4409 Clear 26 1004 94 9656 2.24 111 04:19 05.04.2022
4410 Clouds 30 1001 47 10000 4.47 119 23:45 04.04.2022
4411 Clouds 29 1005 70 6437 5.36 94 22:38 04.04.2022
4412 Clouds 31 1003 46 10000 4.47 113 21:51 04.04.2022
4413 Clouds 30 1006 62 6437 4.47 65 21:20 04.04.2022
4414 Clouds 31 1005 46 10000 4.02 78 20:47 04.04.2022
4415 Clouds 28 1008 65 6437 2.68 134 19:30 04.04.2022
4416 Clouds 27 1009 69 6437 1.34 201 18:44 04.04.2022
4417 Haze 25 1009 78 6437 2.57 160 17:21 04.04.2022
4418 Mist 23 1009 88 4828 1.34 258 16:34 04.04.2022
4419 Mist 21 1009 94 4828 1.34 276 15:34 04.04.2022
4420 Clear 22 1007 66 10000 2.47 184 14:46 04.04.2022
4421 Clouds 21 1008 94 8047 0 0 14:28 04.04.2022
4422 Clouds 21 1007 94 8047 0 0 13:18 04.04.2022
4423 Clear 22 1006 63 10000 2.8 176 11:29 04.04.2022
4424 Clear 22 1006 63 10000 0.89 205 10:29 04.04.2022
4425 Clear 23 1008 60 10000 1.41 187 06:58 04.04.2022
4426 Clouds 26 1009 73 9656 0.45 109 03:18 04.04.2022
4427 Clouds 28 1008 48 10000 4.92 40 23:47 03.04.2022
4428 Clouds 30 1011 58 9656 4.02 87 22:31 03.04.2022
4429 Clouds 28 1012 65 9656 3.58 93 21:32 03.04.2022
4430 Clouds 28 1013 69 9656 3.13 36 20:36 03.04.2022
4431 Clouds 28 1014 65 9656 4.02 54 19:29 03.04.2022
4432 Clouds 27 1014 74 8047 3.58 31 18:27 03.04.2022
4433 Haze 26 1014 78 6437 2.68 54 17:41 03.04.2022
4434 Clouds 26 1012 54 10000 1.34 22 16:50 03.04.2022
4435 Clouds 25 1014 83 8047 2.24 360 16:21 03.04.2022
4436 Clouds 24 1013 88 8047 1.34 5 14:28 03.04.2022
4437 Clouds 24 1013 88 8047 2.24 16 13:44 03.04.2022
4438 Clouds 25 1011 62 10000 1.79 5 12:19 03.04.2022
4439 Haze 24 1014 88 10000 1.79 338 10:32 03.04.2022
4440 Clouds 24 1014 88 9656 0.89 340 09:23 03.04.2022
4441 Clouds 25 1015 88 10000 3.13 5 07:24 03.04.2022
4442 Haze 25 1011 83 9656 5.36 30 03:37 03.04.2022
4443 Clouds 27 1010 74 9656 5.36 30 00:29 03.04.2022
4444 Clouds 30 1008 45 10000 5.36 26 22:54 02.04.2022
4445 Clouds 30 1009 44 10000 4.47 102 21:57 02.04.2022
4446 Clouds 30 1011 54 9656 4.47 101 21:28 02.04.2022
4447 Clouds 30 1012 62 9656 4.92 67 20:41 02.04.2022
4448 Clear 28 1013 65 8047 4.02 116 18:57 02.04.2022
4449 Clear 28 1013 65 8047 2.24 169 18:20 02.04.2022
4450 Clear 28 1013 65 8047 2.24 169 18:20 02.04.2022
4451 Clouds 27 1011 50 10000 2.68 98 17:46 02.04.2022
4452 Clouds 23 1011 62 10000 0.89 168 15:59 02.04.2022
4453 Clouds 20 1013 94 6437 1.2 148 15:21 02.04.2022
4454 Clouds 20 1012 94 6437 1.2 148 14:42 02.04.2022
4455 Clouds 21 1010 66 10000 1.77 160 13:34 02.04.2022
4456 Clouds 21 1009 65 10000 0.45 230 12:34 02.04.2022
4457 Clear 22 1010 64 10000 0.45 198 10:56 02.04.2022
4458 Clouds 21 1010 63 10000 0.89 198 08:44 02.04.2022
4459 Clouds 22 1011 61 10000 0.89 127 06:43 02.04.2022
4460 Haze 24 1010 73 9656 4.02 27 03:39 02.04.2022
4461 Clouds 28 1008 46 10000 4.92 46 23:55 01.04.2022
4462 Clouds 28 1009 61 8047 4.02 42 23:18 01.04.2022
4463 Clouds 27 1011 65 8047 2.24 101 21:32 01.04.2022
4464 Clouds 28 1009 46 10000 3.58 98 20:50 01.04.2022
4465 Clouds 28 1010 47 10000 3.58 82 19:51 01.04.2022
4466 Clouds 28 1013 65 8047 2.68 106 19:30 01.04.2022
4467 Clouds 28 1011 46 10000 3.13 105 18:44 01.04.2022
4468 Clouds 27 1011 50 10000 1.34 89 17:46 01.04.2022
4469 Mist 24 1012 83 4828 0.45 90 16:42 01.04.2022
4470 Haze 22 1011 94 4828 0.89 38 15:23 01.04.2022
4471 Clouds 22 1011 94 8047 0.41 251 14:20 01.04.2022
4472 Clouds 24 1008 61 10000 0.45 67 13:33 01.04.2022
4473 Clouds 24 1008 61 10000 1.79 53 12:32 01.04.2022
4474 Clouds 24 1008 61 10000 1.79 69 11:33 01.04.2022
4475 Clear 24 1008 61 10000 2.68 30 10:18 01.04.2022
4476 Clouds 24 1011 88 10000 4.02 38 08:30 01.04.2022
4477 Clouds 24 1010 88 10000 2.68 42 06:39 01.04.2022
4478 Clouds 25 1007 60 10000 5.36 340 04:47 01.04.2022
4479 Clouds 24 1008 88 10000 4.92 5 04:28 01.04.2022
4480 Clouds 27 1004 47 10000 4.92 38 01:54 01.04.2022
4481 Clear 31 1004 36 10000 4.92 62 22:58 31.03.2022
4482 Clear 31 1004 37 10000 4.47 33 21:50 31.03.2022
4483 Clear 31 1007 51 10000 4.47 65 21:31 31.03.2022
4484 Clear 30 1008 54 10000 3.58 72 20:29 31.03.2022
4485 Clear 31 1006 37 10000 3.13 68 19:48 31.03.2022
4486 Clear 30 1008 51 10000 3.13 90 18:43 31.03.2022
4487 Clear 28 1008 57 10000 1.34 117 17:41 31.03.2022
4488 Clear 25 1008 69 10000 1.79 290 16:34 31.03.2022
4489 Mist 22 1007 78 10000 0.89 305 15:35 31.03.2022
4490 Mist 23 1006 78 10000 1.81 249 14:54 31.03.2022
4491 Clear 21 1004 58 10000 1.83 245 14:20 31.03.2022
4492 Clear 22 1002 55 10000 1.74 260 11:34 31.03.2022
4493 Clear 22 1003 53 10000 0.62 281 10:41 31.03.2022
4494 Clear 24 1003 50 10000 1.33 8 09:44 31.03.2022
4495 Clouds 25 1003 45 10000 0.45 190 07:49 31.03.2022
4496 Clouds 25 1003 76 10000 4.53 355 03:57 31.03.2022
4497 Clear 35 1000 38 9656 4.92 115 23:34 30.03.2022
4498 Clear 38 1000 28 9656 6.21 86 22:23 30.03.2022
4499 Clear 36 1002 36 8047 3.6 150 21:33 30.03.2022
4500 Clear 34 1003 40 8047 3.6 180 20:44 30.03.2022
4501 Clouds 34 1001 27 10000 3.58 185 19:57 30.03.2022
4502 Clouds 31 1002 41 10000 3.13 198 18:50 30.03.2022
4503 Clouds 28 1002 46 10000 4.02 192 17:52 30.03.2022
4504 Clouds 28 1002 46 10000 4.02 192 17:52 30.03.2022
4505 Haze 26 1004 73 6437 5.36 200 17:32 30.03.2022
4506 Clouds 26 1003 56 10000 3.58 167 16:42 30.03.2022
4507 Mist 23 1004 88 4828 3.13 180 16:19 30.03.2022
4508 Clear 20 1004 100 8047 3.09 190 14:47 30.03.2022
4509 Clear 21 1002 68 10000 4.63 179 13:26 30.03.2022
4510 Clear 21 1002 68 10000 4.63 179 12:36 30.03.2022
4511 Clear 22 1003 68 10000 4.82 186 10:48 30.03.2022
4512 Clear 22 1005 67 10000 4.07 190 09:58 30.03.2022
4513 Clear 22 1006 65 10000 2.3 199 08:28 30.03.2022
4514 Clear 22 1009 94 9656 0.45 205 07:29 30.03.2022
4515 Clear 23 1007 61 10000 0.89 238 05:40 30.03.2022
4516 Clear 25 1006 83 10000 4.92 111 02:40 30.03.2022
4517 Clear 30 1006 41 10000 5.36 86 22:56 29.03.2022
4518 Clear 31 1007 40 10000 4.92 65 21:58 29.03.2022
4519 Clear 30 1011 58 8047 4.47 68 21:37 29.03.2022
4520 Clear 30 1012 54 8047 4.02 88 20:30 29.03.2022
4521 Clear 29 1013 54 9656 0.89 158 19:34 29.03.2022
4522 Clear 30 1011 40 10000 1.79 146 18:53 29.03.2022
4523 Clear 28 1012 42 10000 2.24 217 17:52 29.03.2022
4524 Clear 24 1014 73 8047 0.89 213 17:19 29.03.2022
4525 Clear 25 1012 50 10000 0.89 243 16:53 29.03.2022
4526 Clear 20 1012 70 10000 1.34 190 15:41 29.03.2022
4527 Clouds 18 1014 100 8047 2.8 190 14:43 29.03.2022
4528 Clouds 18 1014 100 8047 2.8 190 14:43 29.03.2022
4529 Clear 18 1012 66 10000 0.45 113 13:35 29.03.2022
4530 Clear 18 1011 64 10000 2.01 214 12:22 29.03.2022
4531 Clear 20 1011 63 10000 2.06 227 11:18 29.03.2022
4532 Clear 20 1013 62 10000 1.7 213 09:58 29.03.2022
4533 Clear 21 1014 62 10000 0.45 198 08:44 29.03.2022
4534 Clear 22 1014 60 10000 1.29 233 06:48 29.03.2022
4535 Clear 25 1012 56 10000 1.34 101 02:52 29.03.2022
4536 Clear 28 1014 54 10000 5.36 80 23:37 28.03.2022
4537 Clear 28 1012 40 10000 6.26 113 22:57 28.03.2022
4538 Clear 28 1015 51 10000 5.81 61 22:31 28.03.2022
4539 Clear 28 1013 36 10000 5.81 92 21:43 28.03.2022
4540 Clear 29 1016 48 10000 4.02 109 20:35 28.03.2022
4541 Clear 28 1015 36 10000 0.89 130 19:48 28.03.2022
4542 Smoke 26 1018 57 9656 2.68 205 19:30 28.03.2022
4543 Clear 27 1016 43 10000 2.24 143 18:50 28.03.2022
4544 Haze 23 1018 68 9656 1.34 117 17:41 28.03.2022
4545 Clear 23 1016 50 10000 0.89 297 16:48 28.03.2022
4546 Haze 15 1017 94 9656 2.38 204 15:22 28.03.2022
4547 Clear 16 1016 94 10000 0.45 265 14:24 28.03.2022
4548 Clouds 17 1014 62 10000 0.45 265 13:19 28.03.2022
4549 Clouds 17 1014 61 10000 2.69 266 11:52 28.03.2022
4550 Clouds 18 1014 59 10000 0.94 220 09:55 28.03.2022
4551 Clouds 18 1015 60 10000 0.84 213 09:21 28.03.2022
4552 Clouds 20 1016 59 10000 0.45 265 08:24 28.03.2022
4553 Clouds 21 1016 58 10000 0.45 263 07:59 28.03.2022
4554 Clear 22 1018 78 10000 1.34 273 06:31 28.03.2022
4555 Clouds 26 1015 36 10000 4.47 113 00:30 28.03.2022
4556 Clear 26 1016 47 10000 6.26 98 22:35 27.03.2022
4557 Clear 26 1017 50 10000 5.36 110 21:43 27.03.2022
4558 Clear 26 1017 50 10000 5.81 86 21:18 27.03.2022
4559 Clear 27 1018 39 10000 4.16 98 20:24 27.03.2022
4560 Clear 25 1019 44 10000 1.79 185 19:37 27.03.2022
4561 Clear 25 1019 47 10000 2.68 186 18:42 27.03.2022
4562 Clear 25 1019 47 10000 2.68 225 18:23 27.03.2022
4563 Clear 23 1019 53 10000 1.79 178 17:35 27.03.2022
4564 Clear 18 1017 54 10000 1.95 191 15:47 27.03.2022
4565 Clouds 15 1016 60 10000 1.89 200 13:57 27.03.2022
4566 Clouds 15 1015 61 10000 1.62 189 13:20 27.03.2022
4567 Clear 16 1015 59 10000 1.24 184 11:33 27.03.2022
4568 Clear 16 1017 58 10000 1.22 147 09:37 27.03.2022
4569 Clear 17 1018 53 10000 1.91 109 06:58 27.03.2022
4570 Clouds 22 1018 60 10000 1.34 98 03:39 27.03.2022
4571 Clouds 25 1017 47 10000 4.47 92 00:25 27.03.2022
4572 Clouds 26 1018 36 10000 4.47 55 22:49 26.03.2022
4573 Clouds 26 1016 23 10000 5.36 87 21:54 26.03.2022
4574 Clouds 26 1019 41 10000 4.92 119 21:29 26.03.2022
4575 Clouds 25 1021 38 10000 4.92 123 19:32 26.03.2022
4576 Clouds 25 1021 41 10000 4.47 109 18:40 26.03.2022
4577 Smoke 25 1021 47 10000 3.58 102 17:34 26.03.2022
4578 Smoke 25 1021 47 10000 3.58 102 17:34 26.03.2022
4579 Smoke 24 1021 53 10000 1.34 64 16:33 26.03.2022
4580 Haze 20 1021 68 10000 1.34 298 15:37 26.03.2022
4581 Mist 17 1020 77 10000 0.95 221 13:55 26.03.2022
4582 Clouds 16 1018 62 10000 0.58 210 13:19 26.03.2022
4583 Clouds 16 1017 62 10000 0.8 177 11:48 26.03.2022
4584 Clouds 19 1018 60 10000 0.53 158 10:44 26.03.2022
4585 Clouds 18 1018 57 10000 0.69 81 08:46 26.03.2022
4586 Clouds 20 1022 73 10000 0.45 244 06:38 26.03.2022
4587 Clouds 20 1022 73 10000 0.45 181 05:29 26.03.2022
4588 Clouds 25 1017 39 10000 3.13 71 00:54 26.03.2022
4589 Clouds 26 1019 50 10000 5.36 86 21:58 25.03.2022
4590 Clouds 26 1018 36 10000 4.92 105 20:47 25.03.2022
4591 Clouds 26 1021 50 10000 4.92 94 20:24 25.03.2022
4592 Clouds 26 1021 36 10000 4.92 95 18:59 25.03.2022
4593 Clouds 25 1021 34 10000 0.45 105 17:53 25.03.2022
4594 Clouds 25 1023 50 10000 0.45 105 17:27 25.03.2022
4595 Smoke 24 1023 53 9656 0.89 90 16:21 25.03.2022
4596 Clouds 20 1020 51 10000 0.89 300 14:54 25.03.2022
4597 Clouds 16 1021 82 9656 2.49 246 13:26 25.03.2022
4598 Clouds 16 1019 56 10000 1.91 287 10:49 25.03.2022
4599 Clouds 17 1019 55 10000 0.89 271 09:28 25.03.2022
4600 Clouds 18 1020 56 10000 0.89 271 08:36 25.03.2022
4601 Clouds 18 1020 56 10000 0.45 271 07:30 25.03.2022
4602 Clouds 21 1022 68 9656 0 0 06:29 25.03.2022
4603 Clouds 22 1018 45 10000 4.47 350 01:57 25.03.2022
4604 Clouds 24 1017 41 10000 5.36 355 22:56 24.03.2022
4605 Clouds 25 1017 40 10000 6.71 13 21:52 24.03.2022
4606 Clouds 25 1018 37 10000 7.15 335 20:45 24.03.2022
4607 Clouds 25 1019 39 10000 7.6 9 19:48 24.03.2022
4608 Clouds 25 1019 39 10000 7.6 9 19:48 24.03.2022
4609 Clouds 21 1022 68 9656 7.15 24 18:22 24.03.2022
4610 Clouds 20 1022 83 9656 8.05 355 17:29 24.03.2022
4611 Clouds 20 1019 59 10000 5.81 32 15:56 24.03.2022
4612 Clouds 20 1019 65 10000 4.47 13 14:51 24.03.2022
4613 Clouds 19 1020 94 8047 4.92 355 14:21 24.03.2022
4614 Clouds 19 1019 94 8047 4.47 344 13:26 24.03.2022
4615 Clouds 20 1016 65 10000 4.92 345 11:59 24.03.2022
4616 Clouds 21 1016 62 10000 4.47 349 10:28 24.03.2022
4617 Clouds 22 1016 58 10000 4.92 322 09:22 24.03.2022
4618 Clouds 22 1015 55 10000 2.24 49 07:39 24.03.2022
4619 Clouds 21 1016 83 10000 0.89 75 04:34 24.03.2022
4620 Clouds 24 1014 60 10000 6.26 30 23:21 23.03.2022
4621 Clouds 25 1013 44 10000 7.6 360 21:53 23.03.2022
4622 Clouds 23 1015 68 10000 6.71 340 21:20 23.03.2022
4623 Clouds 23 1014 47 10000 7.6 341 19:50 23.03.2022
4624 Clouds 23 1016 64 10000 8.49 350 19:25 23.03.2022
4625 Clouds 24 1016 50 10000 8.94 360 17:39 23.03.2022
4626 Clouds 24 1014 36 10000 10.28 347 16:53 23.03.2022
4627 Clouds 25 1013 32 10000 6.71 355 14:57 23.03.2022
4628 Mist 24 1014 57 9656 6.71 344 14:38 23.03.2022
4629 Clouds 23 1012 62 10000 1.79 350 13:22 23.03.2022
4630 Clouds 21 1008 64 10000 0.45 336 10:20 23.03.2022
4631 Clouds 22 1008 60 10000 1.34 305 07:44 23.03.2022
4632 Clear 23 1009 83 10000 4.02 355 05:27 23.03.2022
4633 Clouds 25 1005 73 10000 4.47 72 01:41 23.03.2022
4634 Haze 27 1005 65 9656 6.26 44 00:24 23.03.2022
4635 Haze 31 1005 55 9656 7.15 11 21:32 22.03.2022
4636 Clouds 32 1003 39 10000 5.81 26 20:55 22.03.2022
4637 Clear 35 1003 34 10000 2.68 82 19:56 22.03.2022
4638 Haze 32 1006 51 9656 2.68 126 19:25 22.03.2022
4639 Clouds 32 1004 39 10000 2.68 169 18:45 22.03.2022
4640 Haze 28 1007 65 9656 1.34 157 17:42 22.03.2022
4641 Haze 27 1007 69 9656 2.68 181 16:32 22.03.2022
4642 Haze 24 1006 83 9656 3.58 147 15:23 22.03.2022
4643 Clouds 24 1005 61 10000 2.24 205 14:59 22.03.2022
4644 Haze 22 1006 88 8047 1.79 178 14:41 22.03.2022
4645 Haze 22 1005 88 8047 0.45 211 13:36 22.03.2022
4646 Clear 22 1004 65 10000 4.83 189 11:52 22.03.2022
4647 Clear 22 1004 65 10000 4.82 195 10:51 22.03.2022
4648 Clear 22 1005 67 10000 1.34 273 08:40 22.03.2022
4649 Clear 22 1006 63 10000 2.65 200 06:58 22.03.2022
4650 Clear 25 1006 61 10000 0.45 175 03:54 22.03.2022
4651 Clear 27 1007 74 10000 4.47 77 00:34 22.03.2022
4652 Clear 28 1006 49 10000 5.81 92 22:42 21.03.2022
4653 Clear 30 1010 58 9656 6.71 94 21:18 21.03.2022
4654 Clear 31 1008 42 10000 5.81 85 20:42 21.03.2022
4655 Clear 31 1009 43 10000 4.02 87 19:59 21.03.2022
4656 Clear 30 1012 58 6437 5.36 85 19:34 21.03.2022
4657 Clear 30 1011 44 10000 3.13 112 18:46 21.03.2022
4658 Haze 25 1015 73 4828 1.79 198 17:31 21.03.2022
4659 Clear 26 1013 54 10000 2.68 213 16:53 21.03.2022
4660 Haze 22 1015 88 4828 2.68 198 16:24 21.03.2022
4661 Haze 21 1015 94 3219 4.02 216 15:21 21.03.2022
4662 Haze 21 1015 94 3219 1.79 178 14:28 21.03.2022
4663 Clear 22 1013 65 10000 1.79 205 12:43 21.03.2022
4664 Clear 22 1013 64 10000 1.79 179 11:54 21.03.2022
4665 Clear 22 1013 63 10000 1.79 190 10:45 21.03.2022
4666 Clouds 22 1014 60 10000 0.89 169 08:56 21.03.2022
4667 Clouds 23 1015 59 10000 2.43 266 06:57 21.03.2022
4668 Clear 22 1017 78 9656 5.14 20 03:29 21.03.2022
4669 Clear 25 1016 61 8047 5.81 16 00:35 21.03.2022
4670 Clouds 27 1014 43 10000 5.81 27 22:55 20.03.2022
4671 Clouds 27 1015 41 10000 5.81 12 21:57 20.03.2022
4672 Clear 27 1018 57 9656 6.26 25 21:29 20.03.2022
4673 Clouds 28 1016 41 10000 6.26 13 20:45 20.03.2022
4674 Clouds 28 1017 40 10000 4.92 33 19:59 20.03.2022
4675 Clouds 27 1020 61 9656 4.92 18 19:38 20.03.2022
4676 Clouds 27 1018 44 10000 4.47 45 18:40 20.03.2022
4677 Clouds 24 1021 69 9656 2.24 350 17:37 20.03.2022
4678 Clouds 24 1019 51 10000 3.13 24 16:57 20.03.2022
4679 Clouds 23 1019 54 10000 2.24 355 15:43 20.03.2022
4680 Clouds 22 1019 78 9656 1.79 349 14:36 20.03.2022
4681 Clouds 22 1019 78 8047 1.34 333 13:18 20.03.2022
4682 Clouds 23 1016 53 10000 4.02 333 11:32 20.03.2022
4683 Clouds 23 1017 53 10000 2.68 340 09:39 20.03.2022
4684 Clouds 23 1017 52 10000 0.89 309 07:49 20.03.2022
4685 Clouds 23 1017 52 10000 3.58 5 05:48 20.03.2022
4686 Clouds 24 1017 64 10000 5.81 339 02:45 20.03.2022
4687 Clouds 25 1016 61 10000 7.15 26 00:47 20.03.2022
4688 Clouds 26 1016 57 10000 8.05 13 23:19 19.03.2022
4689 Clouds 27 1017 61 10000 7.6 346 21:32 19.03.2022
4690 Clouds 28 1015 44 10000 7.6 10 20:58 19.03.2022
4691 Clouds 27 1017 50 10000 5.36 32 18:59 19.03.2022
4692 Clouds 26 1019 69 10000 5.36 32 18:24 19.03.2022
4693 Clouds 25 1019 73 9656 5.36 17 17:40 19.03.2022
4694 Mist 24 1018 78 9656 3.58 13 16:24 19.03.2022
4695 Haze 23 1017 88 9656 2.68 315 15:19 19.03.2022
4696 Clouds 23 1014 59 10000 1.79 5 13:20 19.03.2022
4697 Clouds 23 1013 59 10000 4.47 13 12:40 19.03.2022
4698 Clouds 23 1013 60 10000 4.02 5 11:54 19.03.2022
4699 Clouds 23 1013 60 10000 3.13 12 10:53 19.03.2022
4700 Haze 23 1015 88 8047 3.13 346 07:33 19.03.2022
4701 Clouds 24 1010 60 10000 6.26 342 03:49 19.03.2022
4702 Mist 24 1010 83 4828 7.15 343 02:29 19.03.2022
4703 Haze 26 1009 73 8047 7.15 36 23:45 18.03.2022
4704 Haze 28 1009 65 6437 8.05 36 22:28 18.03.2022
4705 Clouds 29 1008 47 10000 8.49 360 21:46 18.03.2022
4706 Clouds 28 1010 67 10000 5.85 29 19:52 18.03.2022
4707 Clouds 28 1010 67 10000 5.85 29 19:52 18.03.2022
4708 Haze 32 1010 55 6437 3.58 107 19:21 18.03.2022
4709 Clouds 31 1008 44 10000 0.89 125 17:52 18.03.2022
4710 Clouds 29 1008 49 10000 2.68 228 16:49 18.03.2022
4711 Mist 23 1009 88 4828 2.24 204 15:32 18.03.2022
4712 Mist 22 1008 88 4828 1.34 204 14:23 18.03.2022
4713 Clouds 22 1006 65 10000 0.89 210 12:36 18.03.2022
4714 Clouds 22 1005 64 10000 0.45 228 10:58 18.03.2022
4715 Clouds 23 1006 64 10000 4.36 174 09:30 18.03.2022
4716 Clouds 23 1006 63 10000 3.31 173 08:42 18.03.2022
4717 Clouds 24 1009 88 8047 0.45 212 06:37 18.03.2022
4718 Clouds 24 1008 88 8047 0.89 104 03:19 18.03.2022
4719 Clouds 27 1006 69 8047 4.47 106 00:39 18.03.2022
4720 Clouds 28 1006 65 8047 4.47 109 23:38 17.03.2022
4721 Clear 28 1007 69 6437 4.47 87 22:25 17.03.2022
4722 Clear 30 1005 47 10000 4.02 103 21:48 17.03.2022
4723 Clear 29 1008 61 8047 3.58 101 21:26 17.03.2022
4724 Clouds 28 1009 65 6437 3.58 87 20:45 17.03.2022
4725 Clear 28 1008 51 10000 3.58 105 19:50 17.03.2022
4726 Haze 27 1011 69 4828 1.79 186 19:28 17.03.2022
4727 Haze 26 1012 69 4828 1.79 156 18:46 17.03.2022
4728 Clear 24 1011 59 10000 1.79 174 16:58 17.03.2022
4729 Mist 21 1012 100 3219 1.79 199 15:44 17.03.2022
4730 Mist 21 1012 100 3219 1.79 199 15:26 17.03.2022
4731 Clouds 20 1012 100 8047 1.34 186 14:38 17.03.2022
4732 Clouds 21 1009 68 10000 4.74 177 12:55 17.03.2022
4733 Clouds 21 1009 68 10000 3.9 188 12:25 17.03.2022
4734 Clouds 21 1009 69 10000 3.28 192 11:29 17.03.2022
4735 Clouds 22 1009 68 10000 0.45 150 10:30 17.03.2022
4736 Clouds 23 1010 65 10000 1.34 137 08:37 17.03.2022
4737 Clouds 23 1011 63 10000 1.34 114 07:34 17.03.2022
4738 Clouds 23 1015 88 9656 0 0 05:47 17.03.2022
4739 Clouds 24 1013 83 8047 2.68 87 01:30 17.03.2022
4740 Clear 26 1011 51 10000 4.92 109 23:50 16.03.2022
4741 Clear 27 1012 48 10000 4.92 106 22:48 16.03.2022
4742 Clear 27 1012 48 10000 4.92 106 22:48 16.03.2022
4743 Clear 27 1012 47 10000 5.81 115 22:30 16.03.2022
4744 Clouds 27 1015 61 8047 6.71 84 21:39 16.03.2022
4745 Clouds 30 1017 51 9656 4.47 95 19:47 16.03.2022
4746 Clouds 30 1017 51 9656 2.24 123 19:21 16.03.2022
4747 Clouds 28 1019 57 9656 2.24 216 18:37 16.03.2022
4748 Clouds 26 1019 65 9656 3.13 209 17:43 16.03.2022
4749 Clouds 26 1019 65 9656 2.24 195 17:19 16.03.2022
4750 Clear 24 1019 73 10000 0.96 225 15:55 16.03.2022
4751 Clouds 21 1019 83 9656 0 0 14:27 16.03.2022
4752 Clouds 21 1018 87 10000 1.78 282 13:31 16.03.2022
4753 Clouds 21 1017 90 10000 2.39 309 11:56 16.03.2022
4754 Clouds 21 1017 89 10000 2.92 325 11:21 16.03.2022
4755 Clouds 22 1018 88 10000 3.58 333 10:23 16.03.2022
4756 Clouds 22 1017 55 10000 1.79 347 08:52 16.03.2022
4757 Clouds 23 1019 57 10000 3.58 360 05:58 16.03.2022
4758 Clouds 23 1016 60 10000 6.26 22 01:45 16.03.2022
4759 Clear 26 1017 65 10000 9.83 16 22:38 15.03.2022
4760 Clouds 27 1016 46 10000 8.49 18 21:55 15.03.2022
4761 Clear 28 1019 57 10000 7.6 16 20:28 15.03.2022
4762 Clouds 28 1018 44 10000 8.05 5 18:57 15.03.2022
4763 Clouds 26 1018 46 10000 6.71 360 16:57 15.03.2022
4764 Clear 24 1020 69 9656 6.26 5 16:28 15.03.2022
4765 Clouds 22 1017 56 10000 2.24 333 14:58 15.03.2022
4766 Mist 21 1018 83 6437 0.45 309 14:39 15.03.2022
4767 Mist 21 1018 83 8047 1.34 292 13:38 15.03.2022
4768 Clouds 22 1015 59 10000 0.45 304 12:24 15.03.2022
4769 Clouds 21 1014 61 10000 2.88 322 11:31 15.03.2022
4770 Clouds 22 1014 59 10000 1.68 257 09:40 15.03.2022
4771 Clouds 22 1015 60 10000 0.45 253 08:42 15.03.2022
4772 Clouds 21 1016 60 10000 0.57 184 07:50 15.03.2022
4773 Clouds 22 1016 61 10000 0.89 240 06:54 15.03.2022
4774 Clouds 23 1016 78 10000 2.32 75 03:30 15.03.2022
4775 Clear 27 1014 50 10000 4.47 104 23:40 14.03.2022
4776 Clear 27 1014 50 10000 5.36 101 23:21 14.03.2022
4777 Clear 28 1015 47 10000 5.36 85 22:26 14.03.2022
4778 Clear 27 1016 50 9656 4.47 119 21:26 14.03.2022
4779 Clouds 26 1017 57 9656 4.47 116 20:35 14.03.2022
4780 Clear 27 1015 39 10000 4.47 67 19:59 14.03.2022
4781 Clouds 26 1019 53 10000 1.34 143 18:37 14.03.2022
4782 Clear 26 1017 39 10000 1.79 156 17:44 14.03.2022
4783 Clear 26 1017 42 10000 2.24 150 16:57 14.03.2022
4784 Clouds 19 1019 82 9656 2.68 209 15:34 14.03.2022
4785 Clouds 18 1019 82 9656 1.34 260 14:38 14.03.2022
4786 Clouds 18 1017 59 10000 2.47 261 12:21 14.03.2022
4787 Clouds 18 1017 57 10000 2.78 276 10:50 14.03.2022
4788 Clouds 20 1017 55 10000 2.64 278 09:39 14.03.2022
4789 Clouds 20 1017 55 10000 2.01 266 09:20 14.03.2022
4790 Clouds 20 1018 55 10000 2.01 266 08:55 14.03.2022
4791 Clouds 20 1019 56 10000 0.89 273 07:21 14.03.2022
4792 Clouds 19 1022 77 10000 1.54 320 05:22 14.03.2022
4793 Clear 21 1019 53 10000 2.24 49 01:52 14.03.2022
4794 Clear 22 1020 68 10000 4.47 62 00:40 14.03.2022
4795 Clouds 24 1019 40 10000 4.47 22 21:56 13.03.2022
4796 Clouds 23 1022 53 10000 4.47 43 21:28 13.03.2022
4797 Clouds 24 1020 36 10000 4.47 44 20:53 13.03.2022
4798 Clouds 24 1023 46 10000 4.92 90 20:29 13.03.2022
4799 Haze 24 1024 46 9656 3.13 43 19:43 13.03.2022
4800 Haze 24 1024 46 9656 1.97 10 19:25 13.03.2022
4801 Clouds 24 1023 32 10000 2.68 11 18:50 13.03.2022
4802 Haze 23 1025 43 9656 2.24 31 18:27 13.03.2022
4803 Haze 21 1026 49 9656 1.34 294 17:40 13.03.2022
4804 Clouds 22 1024 34 10000 1.79 13 16:48 13.03.2022
4805 Haze 20 1026 52 8047 1.79 342 16:27 13.03.2022
4806 Clouds 19 1024 39 10000 1.34 288 15:44 13.03.2022
4807 Clouds 18 1025 54 10000 1.17 306 14:49 13.03.2022
4808 Clouds 15 1025 72 10000 1.24 326 13:30 13.03.2022
4809 Clouds 18 1024 56 10000 1.93 331 12:37 13.03.2022
4810 Clouds 18 1024 57 10000 2.07 330 11:51 13.03.2022
4811 Clouds 17 1024 57 10000 1.65 319 11:25 13.03.2022
4812 Clouds 15 1023 51 10000 1.65 319 10:44 13.03.2022
4813 Clouds 16 1024 50 10000 1.04 264 09:43 13.03.2022
4814 Clouds 16 1024 50 10000 1.89 228 09:20 13.03.2022
4815 Clouds 17 1025 49 10000 1.89 228 08:39 13.03.2022
4816 Clouds 17 1026 48 10000 0.45 301 07:37 13.03.2022
4817 Clouds 17 1029 63 10000 4.92 331 05:39 13.03.2022
4818 Clouds 17 1025 43 10000 7.6 5 01:48 13.03.2022
4819 Sand 18 1025 36 8047 12.52 10 23:28 12.03.2022
4820 Sand 20 1024 40 8047 12.52 351 21:43 12.03.2022
4821 Sand 21 1024 43 8047 13.41 11 20:27 12.03.2022
4822 Clouds 22 1023 29 10000 15.2 15 19:46 12.03.2022
4823 Sand 20 1024 49 8047 16.63 347 18:44 12.03.2022
4824 Sand 20 1024 49 8047 17.41 347 18:19 12.03.2022
4825 Sand 20 1022 60 8047 12.96 360 16:32 12.03.2022
4826 Clouds 21 1021 46 10000 14.31 334 15:52 12.03.2022
4827 Sand 20 1020 64 8047 14.31 320 15:22 12.03.2022
4828 Sand 20 1020 73 8047 14.31 9 13:54 12.03.2022
4829 Sand 20 1020 73 8047 14.31 9 13:54 12.03.2022
4830 Clouds 21 1017 58 10000 12.96 360 12:33 12.03.2022
4831 Clouds 21 1016 61 10000 14.31 344 11:55 12.03.2022
4832 Clouds 21 1015 62 10000 14.75 360 11:34 12.03.2022
4833 Clouds 25 1012 60 10000 12.52 349 10:26 12.03.2022
4834 Clouds 25 1012 60 10000 12.07 24 09:43 12.03.2022
4835 Clear 25 1011 67 10000 5.81 360 07:58 12.03.2022
4836 Clear 24 1011 88 8047 3.13 360 06:40 12.03.2022
4837 Clouds 28 1004 57 10000 2.24 93 00:55 12.03.2022
4838 Clear 30 1006 62 9656 2.68 62 23:43 11.03.2022
4839 Clear 30 1006 62 9656 2.68 62 23:43 11.03.2022
4840 Clear 31 1006 58 9656 3.58 65 22:32 11.03.2022
4841 Clear 30 1008 62 8047 3.58 113 21:24 11.03.2022
4842 Clouds 30 1009 62 9656 3.58 70 20:46 11.03.2022
4843 Clouds 30 1009 62 9656 4.47 80 20:26 11.03.2022
4844 Clouds 28 1010 69 8047 2.68 71 19:33 11.03.2022
4845 Clouds 26 1011 73 8047 0.89 142 18:30 11.03.2022
4846 Haze 25 1012 78 6437 0.89 193 17:24 11.03.2022
4847 Mist 21 1012 100 3219 1.79 176 15:59 11.03.2022
4848 Mist 21 1012 100 3219 1.79 176 15:32 11.03.2022
4849 Fog 19 1010 100 10000 1.51 185 13:42 11.03.2022
4850 Clear 21 1008 73 10000 0.45 225 12:37 11.03.2022
4851 Clear 21 1008 73 10000 0.45 225 12:19 11.03.2022
4852 Clear 21 1007 70 10000 0.89 191 10:44 11.03.2022
4853 Clear 20 1008 67 10000 1.41 195 09:34 11.03.2022
4854 Clear 21 1009 66 10000 0.45 134 08:28 11.03.2022
4855 Clear 21 1009 66 10000 1.13 214 07:48 11.03.2022
4856 Clear 22 1012 94 9656 0.73 273 06:26 11.03.2022
4857 Clear 22 1011 94 9656 1.19 32 04:28 11.03.2022
4858 Clear 24 1009 78 10000 1.79 101 01:20 11.03.2022
4859 Clouds 26 1009 65 10000 4.92 74 22:32 10.03.2022
4860 Clouds 27 1008 48 10000 4.02 126 21:53 10.03.2022
4861 Clouds 27 1010 61 10000 3.13 92 21:24 10.03.2022
4862 Clouds 27 1010 61 10000 3.13 92 21:24 10.03.2022
4863 Clouds 26 1012 65 9656 2.24 107 20:18 10.03.2022
4864 Clouds 26 1011 50 10000 0.45 92 18:56 10.03.2022
4865 Clouds 22 1015 78 10000 0.89 185 17:37 10.03.2022
4866 Clouds 22 1014 78 10000 0.45 241 16:42 10.03.2022
4867 Clouds 21 1014 83 9656 0.89 261 15:27 10.03.2022
4868 Clouds 20 1012 88 9656 0.45 300 13:30 10.03.2022
4869 Clouds 21 1010 60 10000 0.45 300 12:35 10.03.2022
4870 Clouds 21 1010 60 10000 1.79 329 11:26 10.03.2022
4871 Clouds 22 1010 57 10000 4.02 351 09:28 10.03.2022
4872 Clouds 22 1010 57 10000 4.92 22 07:46 10.03.2022
4873 Clouds 21 1010 59 10000 4.47 355 04:59 10.03.2022
4874 Clouds 21 1009 60 10000 5.81 13 01:53 10.03.2022
4875 Clouds 24 1010 69 10000 6.71 360 23:29 09.03.2022
4876 Clouds 25 1008 52 10000 7.6 5 21:54 09.03.2022
4877 Clouds 25 1011 69 10000 7.6 20 21:34 09.03.2022
4878 Clouds 28 1010 48 10000 7.15 341 19:56 09.03.2022
4879 Haze 27 1013 61 9656 6.26 17 18:34 09.03.2022
4880 Haze 26 1013 69 9656 1.34 315 17:27 09.03.2022
4881 Haze 24 1013 78 8047 3.13 25 16:34 09.03.2022
4882 Haze 22 1013 88 9656 1.34 14 15:31 09.03.2022
4883 Haze 22 1011 83 9656 4.47 5 13:54 09.03.2022
4884 Clouds 22 1009 61 10000 5.81 349 12:48 09.03.2022
4885 Clouds 22 1008 66 10000 3.13 345 11:54 09.03.2022
4886 Clouds 22 1008 67 10000 3.13 349 11:35 09.03.2022
4887 Clouds 22 1008 66 10000 3.58 351 10:34 09.03.2022
4888 Clouds 23 1008 63 10000 1.34 311 08:57 09.03.2022
4889 Clouds 23 1008 63 10000 0.31 274 07:54 09.03.2022
4890 Clouds 23 1008 62 10000 1.79 29 02:57 09.03.2022
4891 Clouds 24 1007 58 10000 3.13 40 00:46 09.03.2022
4892 Clouds 27 1007 52 10000 3.58 27 22:48 08.03.2022
4893 Clear 26 1009 69 10000 4.02 52 22:27 08.03.2022
4894 Clouds 26 1011 69 10000 4.47 52 21:23 08.03.2022
4895 Clouds 27 1009 49 10000 4.02 17 20:42 08.03.2022
4896 Clouds 27 1013 65 10000 3.58 16 19:35 08.03.2022
4897 Clouds 27 1012 50 10000 2.24 69 18:44 08.03.2022
4898 Clouds 26 1015 73 9656 3.58 348 17:32 08.03.2022
4899 Clouds 24 1015 83 8047 4.02 13 15:56 08.03.2022
4900 Clouds 23 1014 88 9656 2.68 16 14:19 08.03.2022
4901 Clouds 23 1012 64 10000 4.02 355 12:43 08.03.2022
4902 Clouds 23 1011 64 10000 4.02 5 11:45 08.03.2022
4903 Clouds 23 1011 63 10000 3.13 5 10:45 08.03.2022
4904 Clouds 24 1011 61 10000 4.02 349 09:51 08.03.2022
4905 Clouds 24 1012 63 10000 6.26 355 06:59 08.03.2022
4906 Clear 25 1012 63 10000 5.81 26 04:52 08.03.2022
4907 Clouds 28 1007 55 10000 5.36 73 23:51 07.03.2022
4908 Clouds 31 1007 46 10000 4.47 95 21:57 07.03.2022
4909 Clear 31 1009 62 8047 5.36 105 21:32 07.03.2022
4910 Clear 32 1010 58 8047 5.36 63 20:46 07.03.2022
4911 Clouds 32 1008 45 10000 3.58 90 19:55 07.03.2022
4912 Clear 32 1011 51 8047 4.02 78 19:31 07.03.2022
4913 Clear 31 1012 58 8047 3.88 92 18:42 07.03.2022
4914 Clear 30 1010 50 10000 2.24 136 17:47 07.03.2022
4915 Clear 27 1011 54 10000 2.24 195 16:55 07.03.2022
4916 Mist 22 1012 94 6437 1.79 201 15:32 07.03.2022
4917 Clear 19 1011 100 9656 0 0 13:24 07.03.2022
4918 Clear 20 1009 72 10000 0.45 215 12:23 07.03.2022
4919 Clear 21 1009 71 10000 0.89 194 10:38 07.03.2022
4920 Clear 22 1010 70 10000 2.26 200 08:48 07.03.2022
4921 Clouds 24 1011 65 10000 0.89 53 03:49 07.03.2022
4922 Clouds 27 1010 69 9656 4.47 78 00:22 07.03.2022
4923 Clouds 29 1010 61 9656 4.47 95 23:31 06.03.2022
4924 Clouds 30 1011 62 9656 4.47 88 22:37 06.03.2022
4925 Clouds 30 1009 47 10000 4.92 83 21:46 06.03.2022
4926 Clouds 29 1013 61 8047 3.58 87 20:30 06.03.2022
4927 Clouds 30 1011 48 10000 3.13 134 19:51 06.03.2022
4928 Clear 30 1012 49 10000 2.68 96 18:51 06.03.2022
4929 Clear 29 1013 47 10000 0.89 69 17:57 06.03.2022
4930 Clouds 27 1015 74 6437 0.45 184 17:21 06.03.2022
4931 Clear 25 1015 83 6437 0.89 64 16:41 06.03.2022
4932 Clear 25 1013 62 10000 1.79 77 15:45 06.03.2022
4933 Clear 22 1013 72 10000 2.22 162 14:49 06.03.2022
4934 Haze 19 1014 100 4828 2.22 162 14:30 06.03.2022
4935 Clear 20 1011 71 10000 1.71 174 12:44 06.03.2022
4936 Clear 20 1011 71 10000 2.33 222 11:56 06.03.2022
4937 Clear 20 1011 70 10000 2.94 228 10:45 06.03.2022
4938 Clear 21 1012 70 10000 3.05 216 09:34 06.03.2022
4939 Clear 22 1013 68 10000 2.08 178 08:28 06.03.2022
4940 Clear 22 1013 67 10000 2.08 178 07:34 06.03.2022
4941 Clouds 23 1014 94 10000 0.74 154 04:45 06.03.2022
4942 Clouds 27 1012 65 10000 4.47 121 00:42 06.03.2022
4943 Clouds 27 1012 65 10000 4.47 92 00:23 06.03.2022
4944 Clouds 28 1012 57 10000 4.92 66 23:19 05.03.2022
4945 Haze 30 1013 48 9656 4.47 114 22:42 05.03.2022
4946 Haze 30 1014 51 9656 4.47 109 21:36 05.03.2022
4947 Clouds 31 1012 39 10000 3.58 84 20:57 05.03.2022
4948 Haze 29 1016 58 8047 4.02 88 19:24 05.03.2022
4949 Clouds 28 1014 48 10000 1.34 110 18:50 05.03.2022
4950 Haze 26 1017 73 9656 2.68 123 17:41 05.03.2022
4951 Haze 24 1017 83 8047 3.13 117 16:20 05.03.2022
4952 Haze 22 1017 88 8047 1.34 124 15:30 05.03.2022
4953 Clear 20 1015 74 10000 2.31 157 14:42 05.03.2022
4954 Clouds 19 1016 100 9656 1.74 153 14:24 05.03.2022
4955 Clouds 19 1014 73 10000 1.79 89 12:55 05.03.2022
4956 Clear 19 1014 72 10000 0.89 175 11:43 05.03.2022
4957 Clear 19 1014 71 10000 0.45 175 11:18 05.03.2022
4958 Clear 20 1014 73 10000 1.49 224 09:58 05.03.2022
4959 Clear 20 1015 71 10000 1.34 175 08:49 05.03.2022
4960 Clouds 20 1016 71 10000 1.31 246 07:23 05.03.2022
4961 Clouds 22 1017 66 10000 1.04 286 05:41 05.03.2022
4962 Clear 24 1016 78 10000 1.79 119 01:25 05.03.2022
4963 Clear 26 1017 69 10000 5.36 90 23:30 04.03.2022
4964 Clouds 26 1017 65 10000 5.36 105 22:40 04.03.2022
4965 Clouds 27 1015 49 10000 5.81 88 21:47 04.03.2022
4966 Clouds 28 1016 45 10000 5.36 75 20:49 04.03.2022
4967 Clouds 27 1019 61 10000 4.47 105 20:18 04.03.2022
4968 Clouds 26 1020 65 10000 4.47 86 19:35 04.03.2022
4969 Clouds 26 1021 69 10000 4.02 69 18:36 04.03.2022
4970 Clouds 25 1021 73 10000 2.68 90 17:30 04.03.2022
4971 Clouds 24 1021 78 9656 2.24 109 16:36 04.03.2022
4972 Clear 22 1020 94 9656 1.79 44 15:27 04.03.2022
4973 Clear 22 1020 94 9656 1.79 44 15:27 04.03.2022
4974 Clouds 20 1019 100 9656 0 0 13:38 04.03.2022
4975 Clouds 19 1017 71 10000 1.08 358 12:51 04.03.2022
4976 Clouds 20 1017 70 10000 1.15 351 11:38 04.03.2022
4977 Clouds 20 1017 69 10000 1.43 349 10:42 04.03.2022
4978 Clouds 21 1017 67 10000 1.22 326 09:28 04.03.2022
4979 Clear 21 1018 66 10000 1.25 324 08:20 04.03.2022
4980 Clear 22 1019 64 10000 0.45 296 06:55 04.03.2022
4981 Clear 24 1017 61 10000 2.68 44 02:52 04.03.2022
4982 Clouds 24 1017 78 9656 4.47 82 00:19 04.03.2022
4983 Clouds 27 1017 61 9656 6.71 88 22:19 03.03.2022
4984 Clouds 27 1018 61 9656 4.92 94 21:37 03.03.2022
4985 Clouds 27 1016 50 10000 5.81 82 20:56 03.03.2022
4986 Clouds 26 1020 65 9656 4.02 93 19:42 03.03.2022
4987 Clouds 26 1019 52 10000 4.02 100 18:44 03.03.2022
4988 Clouds 24 1021 78 9656 3.58 77 17:43 03.03.2022
4989 Clouds 24 1021 78 9656 2.68 111 17:24 03.03.2022
4990 Clouds 24 1019 57 10000 1.13 61 15:47 03.03.2022
4991 Clouds 22 1018 60 10000 0.75 45 14:51 03.03.2022
4992 Clouds 20 1019 83 8047 0.75 45 14:32 03.03.2022
4993 Clouds 20 1017 63 10000 0.95 70 12:44 03.03.2022
4994 Clouds 20 1016 62 10000 0.89 283 11:32 03.03.2022
4995 Clouds 20 1017 62 10000 0.45 315 10:39 03.03.2022
4996 Clouds 21 1018 62 10000 1.34 286 08:44 03.03.2022
4997 Clouds 22 1019 60 10000 0.89 295 06:58 03.03.2022
4998 Clouds 21 1021 83 10000 0.89 295 06:33 03.03.2022
4999 Clouds 24 1018 69 10000 4.02 64 00:43 03.03.2022
5000 Clear 25 1017 65 10000 5.36 52 23:28 02.03.2022
5001 Clear 26 1016 49 10000 4.02 71 22:48 02.03.2022
5002 Clear 25 1019 65 10000 4.02 68 21:23 02.03.2022
5003 Clouds 26 1019 61 10000 5.81 31 20:40 02.03.2022
5004 Clear 26 1018 47 10000 4.47 46 19:49 02.03.2022
5005 Clouds 25 1020 65 10000 4.47 46 19:30 02.03.2022
5006 Clouds 26 1021 57 10000 2.68 51 18:39 02.03.2022
5007 Clouds 25 1019 49 10000 0.89 301 17:50 02.03.2022
5008 Clouds 25 1019 50 10000 0.89 34 16:59 02.03.2022
5009 Clear 22 1021 73 8047 0.98 345 16:41 02.03.2022
5010 Mist 17 1020 100 8047 2.16 277 14:42 02.03.2022
5011 Clear 18 1020 94 10000 1.99 298 13:24 02.03.2022
5012 Clouds 18 1018 65 10000 2.92 327 12:41 02.03.2022
5013 Clouds 19 1017 65 10000 0.45 22 11:39 02.03.2022
5014 Clouds 19 1018 67 10000 3.56 323 11:18 02.03.2022
5015 Clouds 20 1018 66 10000 0.45 321 09:41 02.03.2022
5016 Clouds 20 1019 64 10000 0.89 324 08:52 02.03.2022
5017 Clouds 20 1020 64 10000 1.34 322 07:28 02.03.2022
5018 Clouds 21 1020 62 10000 4.02 349 05:44 02.03.2022
5019 Clouds 22 1017 55 10000 6.26 11 00:58 02.03.2022
5020 Clear 22 1017 55 10000 6.26 11 00:58 02.03.2022
5021 Clear 23 1017 53 10000 6.26 20 23:46 01.03.2022
5022 Clear 25 1017 50 10000 6.71 17 22:45 01.03.2022
5023 Clouds 25 1018 49 10000 6.26 20 21:57 01.03.2022
5024 Clouds 25 1020 57 10000 4.92 16 21:23 01.03.2022
5025 Clouds 24 1021 57 10000 4.02 77 20:29 01.03.2022
5026 Clouds 24 1022 53 10000 2.68 78 19:24 01.03.2022
5027 Clouds 24 1022 53 10000 2.24 76 18:37 01.03.2022
5028 Clouds 24 1022 53 10000 2.24 76 18:18 01.03.2022
5029 Clouds 23 1021 46 10000 2.24 69 16:54 01.03.2022
5030 Clouds 21 1021 51 10000 0.89 5 15:59 01.03.2022
5031 Haze 16 1022 88 10000 0.45 289 15:23 01.03.2022
5032 Haze 14 1022 94 8047 2.45 295 14:34 01.03.2022
5033 Haze 14 1022 88 9656 0 0 13:27 01.03.2022
5034 Clouds 15 1020 65 10000 3 318 12:58 01.03.2022
5035 Clouds 18 1020 86 10000 3.12 318 12:22 01.03.2022
5036 Clouds 17 1020 63 10000 0.89 39 10:27 01.03.2022
5037 Clouds 17 1020 59 10000 3.49 321 08:41 01.03.2022
5038 Clouds 17 1021 57 10000 1.34 272 07:40 01.03.2022
5039 Clouds 19 1022 53 10000 2.68 9 04:50 01.03.2022
5040 Clouds 19 1020 56 10000 9.39 9 01:43 01.03.2022
5041 Clouds 21 1020 50 10000 9.83 22 23:48 28.02.2022
5042 Clouds 23 1020 43 10000 8.49 13 22:58 28.02.2022
5043 Clouds 23 1020 41 10000 8.49 17 21:50 28.02.2022
5044 Clouds 23 1023 56 10000 8.05 360 21:24 28.02.2022
5045 Clouds 23 1022 46 10000 10.28 349 19:52 28.02.2022
5046 Clouds 22 1025 56 10000 8.94 16 19:26 28.02.2022
5047 Clouds 21 1026 60 10000 8.94 5 18:36 28.02.2022
5048 Clouds 20 1025 68 10000 10.28 351 17:24 28.02.2022
5049 Clouds 20 1025 68 10000 7.6 360 16:33 28.02.2022
5050 Clouds 19 1024 72 9656 8.94 5 15:23 28.02.2022
5051 Clouds 18 1024 77 9656 7.6 14 14:31 28.02.2022
5052 Clouds 18 1023 77 9656 6.26 355 13:34 28.02.2022
5053 Clouds 19 1021 62 10000 6.26 350 12:37 28.02.2022
5054 Clouds 20 1021 59 10000 4.47 5 11:40 28.02.2022
5055 Clouds 20 1021 58 10000 6.26 5 10:48 28.02.2022
5056 Clouds 20 1021 58 10000 5.36 13 10:19 28.02.2022
5057 Clouds 21 1021 58 10000 4.47 355 09:31 28.02.2022
5058 Clouds 21 1022 56 10000 6.71 5 08:29 28.02.2022
5059 Clouds 21 1022 56 10000 7.15 5 07:19 28.02.2022
5060 Clouds 20 1023 77 9656 7.15 342 04:31 28.02.2022
5061 Clouds 20 1023 77 9656 8.49 355 03:30 28.02.2022
5062 Clouds 23 1020 68 9656 10.73 5 23:27 27.02.2022
5063 Clouds 25 1020 61 10000 12.07 14 22:33 27.02.2022
5064 Clouds 27 1018 47 10000 8.49 321 21:49 27.02.2022
5065 Clouds 27 1019 47 10000 8.94 24 20:55 27.02.2022
5066 Clouds 27 1021 57 9656 7.6 15 20:27 27.02.2022
5067 Clouds 28 1020 47 10000 7.6 10 19:56 27.02.2022
5068 Clouds 27 1022 61 10000 6.71 28 19:26 27.02.2022
5069 Clouds 26 1023 65 8047 5.81 13 18:40 27.02.2022
5070 Clouds 26 1021 53 10000 5.36 360 17:54 27.02.2022
5071 Clouds 23 1023 78 8047 4.92 344 16:38 27.02.2022
5072 Clouds 23 1021 61 10000 3.13 307 15:59 27.02.2022
5073 Clear 18 1021 94 8047 0 0 13:21 27.02.2022
5074 Clouds 18 1018 69 10000 0.89 288 12:32 27.02.2022
5075 Clouds 18 1018 68 10000 3.1 307 10:54 27.02.2022
5076 Clouds 20 1018 67 10000 3.25 305 09:58 27.02.2022
5077 Clouds 20 1018 67 10000 0.89 299 09:37 27.02.2022
5078 Clouds 20 1018 67 10000 0.45 299 09:18 27.02.2022
5079 Clouds 22 1019 63 10000 3.13 355 07:34 27.02.2022
5080 Clouds 20 1021 88 10000 1.34 337 05:36 27.02.2022
5081 Clouds 22 1018 62 10000 6.26 5 00:53 27.02.2022
5082 Clouds 25 1017 55 10000 6.71 11 22:58 26.02.2022
5083 Clouds 26 1018 52 10000 7.6 22 21:44 26.02.2022
5084 Clouds 26 1019 53 10000 5.81 55 20:52 26.02.2022
5085 Clouds 26 1021 61 10000 5.81 22 20:19 26.02.2022
5086 Clouds 26 1022 61 10000 5.36 55 19:41 26.02.2022
5087 Clouds 26 1022 61 10000 5.36 9 19:19 26.02.2022
5088 Clouds 26 1021 51 10000 5.36 344 17:45 26.02.2022
5089 Clouds 25 1022 56 10000 4.02 355 16:49 26.02.2022
5090 Clouds 23 1021 61 10000 4.02 345 15:49 26.02.2022
5091 Clouds 21 1023 83 10000 5.81 5 15:22 26.02.2022
5092 Clouds 21 1021 66 10000 4.02 10 14:53 26.02.2022
5093 Clouds 20 1022 88 9656 4.47 355 14:33 26.02.2022
5094 Clear 20 1021 88 9656 2.24 5 13:19 26.02.2022
5095 Clouds 21 1019 65 10000 1.79 346 12:23 26.02.2022
5096 Clouds 21 1019 65 10000 4.02 5 11:28 26.02.2022
5097 Clouds 21 1019 65 10000 3.58 355 10:40 26.02.2022
5098 Clouds 22 1019 63 10000 3.13 5 08:53 26.02.2022
5099 Clouds 22 1022 78 10000 7.72 360 06:51 26.02.2022
5100 Clear 22 1019 84 10000 10.92 356 00:56 26.02.2022
5101 Clear 25 1016 61 10000 8.94 5 22:49 25.02.2022
5102 Clouds 26 1019 78 10000 7.15 20 21:43 25.02.2022
5103 Clouds 26 1019 78 10000 7.15 5 21:23 25.02.2022
5104 Clouds 27 1019 74 10000 5.81 17 20:32 25.02.2022
5105 Clouds 29 1018 54 10000 5.36 347 18:59 25.02.2022
5106 Clouds 27 1021 74 10000 2.98 339 17:27 25.02.2022
5107 Mist 25 1020 83 9656 4.47 9 16:24 25.02.2022
5108 Clouds 26 1018 63 10000 4.02 355 15:47 25.02.2022
5109 Mist 24 1019 88 9656 4.02 360 15:21 25.02.2022
5110 Mist 23 1019 94 6437 2.24 330 14:42 25.02.2022
5111 Mist 23 1019 94 6437 2.24 330 14:42 25.02.2022
5112 Mist 23 1018 94 10000 3.13 336 13:36 25.02.2022
5113 Clouds 24 1016 69 10000 2.24 355 12:56 25.02.2022
5114 Clouds 23 1015 69 10000 0.45 13 11:28 25.02.2022
5115 Clouds 23 1015 68 10000 0.89 313 10:40 25.02.2022
5116 Clouds 24 1015 68 10000 0.89 312 10:22 25.02.2022
5117 Clouds 24 1015 68 10000 0.89 341 09:18 25.02.2022
5118 Clouds 25 1015 67 10000 1.34 321 07:41 25.02.2022
5119 Clear 25 1016 65 10000 1.34 57 05:49 25.02.2022
5120 Clouds 24 1016 88 10000 2.68 46 04:32 25.02.2022
5121 Clear 27 1011 60 10000 3.58 62 23:47 24.02.2022
5122 Clear 28 1011 56 10000 4.02 43 21:56 24.02.2022
5123 Haze 29 1014 61 10000 4.92 23 21:38 24.02.2022
5124 Haze 29 1014 61 10000 4.02 40 21:19 24.02.2022
5125 Haze 29 1016 65 8047 2.68 49 19:38 24.02.2022
5126 Haze 28 1017 65 8047 3.13 360 18:44 24.02.2022
5127 Haze 28 1017 65 8047 2.24 22 18:19 24.02.2022
5128 Haze 25 1018 83 6437 3.13 346 17:34 24.02.2022
5129 Clear 26 1016 62 10000 2.68 29 16:49 24.02.2022
5130 Haze 25 1017 83 6437 2.24 22 16:23 24.02.2022
5131 Clear 22 1015 71 10000 0.89 282 14:56 24.02.2022
5132 Haze 22 1016 94 6437 0.45 293 14:36 24.02.2022
5133 Haze 22 1015 88 9656 1.54 340 13:39 24.02.2022
5134 Clouds 21 1013 67 10000 2.48 313 12:54 24.02.2022
5135 Clouds 22 1013 67 10000 2.57 325 10:41 24.02.2022
5136 Clouds 22 1013 67 10000 2.57 325 10:41 24.02.2022
5137 Clouds 23 1013 65 10000 3.06 320 09:18 24.02.2022
5138 Clouds 24 1013 65 10000 1.34 360 08:40 24.02.2022
5139 Clear 25 1014 65 10000 0.45 327 05:53 24.02.2022
5140 Clear 25 1011 64 10000 2.24 53 01:58 24.02.2022
5141 Clear 27 1012 69 10000 3.13 100 23:31 23.02.2022
5142 Clear 29 1011 52 10000 4.47 77 21:43 23.02.2022
5143 Clear 29 1014 65 10000 4.47 81 20:31 23.02.2022
5144 Clouds 29 1013 53 10000 4.92 103 19:48 23.02.2022
5145 Clear 29 1016 65 8047 4.02 88 18:32 23.02.2022
5146 Clear 29 1016 65 8047 4.02 88 18:32 23.02.2022
5147 Clear 28 1014 55 10000 1.79 78 17:44 23.02.2022
5148 Mist 21 1015 100 4828 1.08 159 15:19 23.02.2022
5149 Clear 20 1012 74 10000 1.26 140 12:50 23.02.2022
5150 Clear 19 1012 73 10000 0.7 128 12:24 23.02.2022
5151 Clear 21 1012 73 10000 1.48 245 10:35 23.02.2022
5152 Clear 21 1012 71 10000 3.74 262 08:59 23.02.2022
5153 Clear 21 1012 71 10000 3.74 262 08:59 23.02.2022
5154 Clear 22 1013 72 10000 2.57 271 08:23 23.02.2022
5155 Clear 21 1014 69 10000 2.08 287 06:53 23.02.2022
5156 Clear 27 1011 69 9656 2.24 103 00:47 23.02.2022
5157 Clear 27 1011 69 9656 3.58 92 23:39 22.02.2022
5158 Clear 28 1012 69 9656 4.02 80 22:41 22.02.2022
5159 Clear 28 1010 54 10000 4.92 59 21:49 22.02.2022
5160 Clear 29 1012 65 8047 4.47 81 21:31 22.02.2022
5161 Clear 29 1010 53 10000 4.02 86 20:57 22.02.2022
5162 Clear 29 1013 61 9656 3.13 81 20:30 22.02.2022
5163 Clear 29 1014 61 8047 3.13 116 19:42 22.02.2022
5164 Clear 29 1014 61 8047 3.13 99 19:23 22.02.2022
5165 Clear 28 1013 55 10000 1.34 182 17:49 22.02.2022
5166 Haze 26 1015 73 6437 1.79 133 17:23 22.02.2022
5167 Mist 25 1015 78 4828 1.79 132 16:41 22.02.2022
5168 Clear 23 1013 65 10000 0.89 94 15:44 22.02.2022
5169 Clear 23 1013 65 10000 0.89 94 15:44 22.02.2022
5170 Clear 20 1013 75 10000 1.27 245 14:44 22.02.2022
5171 Clear 20 1012 74 10000 1.04 175 12:31 22.02.2022
5172 Clear 20 1012 74 10000 1.81 215 10:52 22.02.2022
5173 Clear 20 1012 74 10000 3.54 244 08:41 22.02.2022
5174 Clear 21 1013 71 10000 0.45 248 07:27 22.02.2022
5175 Clear 22 1013 66 10000 0.45 216 05:57 22.02.2022
5176 Clear 23 1012 64 10000 2.68 107 02:45 22.02.2022
5177 Clear 27 1012 49 10000 5.36 100 22:46 21.02.2022
5178 Clouds 29 1016 58 10000 4.92 87 21:42 21.02.2022
5179 Clouds 28 1017 61 9656 3.58 117 20:36 21.02.2022
5180 Clear 27 1017 57 10000 2.68 121 18:46 21.02.2022
5181 Mist 22 1020 83 4828 2.68 166 17:36 21.02.2022
5182 Fog 17 1019 100 402 1.34 238 15:22 21.02.2022
5183 Mist 16 1018 100 3219 0 0 14:22 21.02.2022
5184 Mist 16 1018 100 4828 0 0 13:22 21.02.2022
5185 Clear 20 1016 90 10000 2.29 136 12:23 21.02.2022
5186 Clear 20 1016 89 10000 2.31 130 11:19 21.02.2022
5187 Clear 18 1015 72 10000 0.45 176 09:34 21.02.2022
5188 Clear 18 1019 94 10000 0.89 246 05:35 21.02.2022
5189 Clear 24 1018 64 10000 3.6 190 23:44 20.02.2022
5190 Clear 25 1019 61 10000 3.6 120 22:25 20.02.2022
5191 Clouds 24 1020 60 10000 2.57 100 21:42 20.02.2022
5192 Clear 25 1019 47 10000 3.13 30 20:53 20.02.2022
5193 Clouds 24 1021 60 10000 4.12 60 20:35 20.02.2022
5194 Clouds 25 1022 61 10000 2.68 68 19:32 20.02.2022
5195 Clouds 26 1020 47 10000 3.13 42 18:50 20.02.2022
5196 Clouds 25 1023 61 10000 3.13 44 18:31 20.02.2022
5197 Clouds 25 1021 46 10000 1.34 28 17:48 20.02.2022
5198 Mist 20 1022 77 10000 2.06 360 15:37 20.02.2022
5199 Mist 18 1022 88 10000 2.24 331 14:42 20.02.2022
5200 Mist 18 1021 88 10000 0 0 13:23 20.02.2022
5201 Clouds 18 1019 61 10000 1.72 7 12:25 20.02.2022
5202 Clouds 19 1019 61 10000 0.45 263 10:38 20.02.2022
5203 Clouds 20 1019 61 10000 0.45 264 10:19 20.02.2022
5204 Clouds 20 1021 57 10000 0.45 360 08:25 20.02.2022
5205 Clouds 22 1019 45 10000 7.15 348 00:54 20.02.2022
5206 Sand 22 1020 56 10000 7.6 16 00:29 20.02.2022
5207 Sand 23 1021 64 10000 5.14 360 22:44 19.02.2022
5208 Sand 23 1021 64 10000 11.18 348 22:21 19.02.2022
5209 Clouds 21 1021 71 10000 11.49 357 20:51 19.02.2022
5210 Clouds 21 1022 69 10000 10.79 356 19:48 19.02.2022
5211 Clouds 25 1023 57 10000 8.05 5 19:25 19.02.2022
5212 Clouds 24 1024 60 10000 5.14 340 18:32 19.02.2022
5213 Clouds 23 1024 64 10000 5.14 360 17:33 19.02.2022
5214 Haze 21 1023 78 9656 5.36 347 16:22 19.02.2022
5215 Clouds 20 1021 58 10000 0.89 341 14:56 19.02.2022
5216 Haze 18 1022 88 8047 0.45 234 14:37 19.02.2022
5217 Clouds 19 1020 63 10000 7.3 345 12:50 19.02.2022
5218 Clouds 20 1019 60 10000 6.17 346 11:36 19.02.2022
5219 Clouds 19 1019 59 10000 0.45 294 09:36 19.02.2022
5220 Clouds 21 1020 56 10000 6.71 348 06:53 19.02.2022
5221 Clouds 20 1019 60 10000 8.49 360 02:52 19.02.2022
5222 Sand 22 1018 73 9656 12.07 24 23:28 18.02.2022
5223 Clouds 23 1016 54 10000 11.62 342 21:49 18.02.2022
5224 Sand 25 1019 65 9656 7.6 5 20:39 18.02.2022
5225 Clouds 27 1017 46 10000 8.94 360 19:51 18.02.2022
5226 Clear 27 1017 45 10000 9.39 355 18:50 18.02.2022
5227 Sand 26 1019 61 9656 9.39 320 18:20 18.02.2022
5228 Sand 26 1019 57 8047 10.28 5 17:25 18.02.2022
5229 Clear 23 1014 59 10000 7.6 350 14:47 18.02.2022
5230 Sand 22 1015 88 9656 8.05 5 13:54 18.02.2022
5231 Clear 23 1013 60 10000 8.49 14 12:51 18.02.2022
5232 Clear 25 1012 52 10000 10.28 20 11:58 18.02.2022
5233 Clear 24 1012 55 10000 8.05 24 11:21 18.02.2022
5234 Clear 20 1012 72 10000 3.44 340 09:30 18.02.2022
5235 Clear 20 1012 69 10000 0.25 172 06:51 18.02.2022
5236 Clear 22 1013 94 9656 0 0 05:37 18.02.2022
5237 Clear 28 1010 61 10000 4.63 110 22:47 17.02.2022
5238 Clear 29 1009 44 10000 4.02 103 21:43 17.02.2022
5239 Clear 30 1009 42 10000 4.47 105 20:52 17.02.2022
5240 Clear 30 1012 54 9656 4.47 96 20:34 17.02.2022
5241 Clear 30 1011 40 10000 1.34 84 19:43 17.02.2022
5242 Clear 27 1014 57 9656 2.57 120 18:37 17.02.2022
5243 Clear 27 1012 46 10000 1.34 148 17:47 17.02.2022
5244 Clear 21 1013 83 9656 2.06 180 16:20 17.02.2022
5245 Clear 19 1011 73 10000 1.79 212 14:57 17.02.2022
5246 Clear 17 1013 100 8047 1.34 209 14:19 17.02.2022
5247 Clear 17 1010 73 10000 3.72 195 11:59 17.02.2022
5248 Clear 17 1010 73 10000 3.67 195 11:21 17.02.2022
5249 Clear 18 1012 70 10000 0.45 248 08:37 17.02.2022
5250 Clear 25 1013 61 10000 5.14 100 00:20 17.02.2022
5251 Clear 27 1015 54 10000 5.14 90 22:38 16.02.2022
5252 Clear 28 1018 47 10000 5.14 170 20:32 16.02.2022
5253 Clear 26 1019 50 9656 4.12 170 19:32 16.02.2022
5254 Clear 25 1020 57 9656 3.58 141 18:35 16.02.2022
5255 Clouds 22 1021 64 9656 2.24 186 17:33 16.02.2022
5256 Mist 14 1020 100 8047 0 0 15:24 16.02.2022
5257 Mist 14 1020 94 8047 0 0 14:29 16.02.2022
5258 Clouds 15 1017 63 10000 1.87 240 12:31 16.02.2022
5259 Clouds 16 1017 64 10000 2.03 250 11:46 16.02.2022
5260 Clouds 16 1017 64 10000 0.89 232 10:35 16.02.2022
5261 Clouds 16 1018 64 10000 1.34 232 09:54 16.02.2022
5262 Clear 17 1022 88 10000 0.89 262 06:44 16.02.2022
5263 Clear 21 1018 52 10000 1.79 109 02:48 16.02.2022
5264 Clouds 24 1020 53 10000 5.14 130 22:34 15.02.2022
5265 Clouds 24 1021 50 10000 4.47 112 21:51 15.02.2022
5266 Clouds 24 1021 50 10000 3.13 130 21:31 15.02.2022
5267 Clear 25 1019 36 10000 0.89 108 20:58 15.02.2022
5268 Clouds 24 1022 50 10000 1.79 153 20:27 15.02.2022
5269 Clouds 23 1023 53 10000 1.79 146 19:46 15.02.2022
5270 Clouds 24 1025 53 10000 3.6 210 18:27 15.02.2022
5271 Clear 23 1023 39 10000 2.24 183 17:55 15.02.2022
5272 Clouds 23 1025 56 10000 1.79 105 17:37 15.02.2022
5273 Clear 16 1024 72 10000 1.34 264 15:44 15.02.2022
5274 Clear 13 1024 82 10000 0 0 14:31 15.02.2022
5275 Clear 14 1024 77 10000 0.89 269 13:25 15.02.2022
5276 Clouds 13 1021 59 10000 0.45 269 11:41 15.02.2022
5277 Clouds 13 1021 58 10000 1.7 283 10:30 15.02.2022
5278 Clouds 18 1023 47 10000 1.82 287 08:48 15.02.2022
5279 Clouds 18 1024 47 10000 1.79 282 06:46 15.02.2022
5280 Clouds 21 1024 56 10000 4.92 22 23:35 14.02.2022
5281 Clouds 22 1023 36 10000 4.92 33 21:58 14.02.2022
5282 Clouds 23 1024 32 10000 4.92 28 20:54 14.02.2022
5283 Clouds 23 1025 34 10000 4.92 47 19:49 14.02.2022
5284 Clouds 22 1028 49 10000 6.17 30 19:29 14.02.2022
5285 Haze 22 1029 46 9656 4.92 13 18:24 14.02.2022
5286 Haze 20 1029 52 8047 4.02 5 17:30 14.02.2022
5287 Haze 19 1029 55 6437 4.02 340 16:37 14.02.2022
5288 Haze 15 1028 67 6437 1.34 290 15:23 14.02.2022
5289 Haze 16 1027 55 9656 0.89 331 13:35 14.02.2022
5290 Clouds 16 1026 39 10000 0.45 302 12:59 14.02.2022
5291 Clouds 17 1025 37 10000 0.45 308 12:32 14.02.2022
5292 Clouds 17 1025 34 10000 0.89 318 11:39 14.02.2022
5293 Clouds 18 1026 34 10000 1.34 308 10:21 14.02.2022
5294 Clouds 19 1027 34 10000 4.47 5 08:18 14.02.2022
5295 Clouds 19 1028 33 10000 3.13 19 07:26 14.02.2022
5296 Clouds 19 1024 27 10000 11.62 5 22:49 13.02.2022
5297 Sand 19 1025 42 9656 10.73 355 22:30 13.02.2022
5298 Clouds 20 1024 27 10000 9.83 360 21:59 13.02.2022
5299 Sand 20 1026 40 10000 12.52 355 21:23 13.02.2022
5300 Sand 20 1027 40 10000 11.18 348 20:27 13.02.2022
5301 Sand 20 1027 37 10000 13.86 338 19:18 13.02.2022
5302 Sand 20 1027 37 10000 10.28 5 18:41 13.02.2022
5303 Clouds 20 1027 42 10000 11.18 348 17:22 13.02.2022
5304 Clouds 20 1024 37 10000 10.73 349 15:51 13.02.2022
5305 Clouds 21 1023 38 10000 11.62 349 14:50 13.02.2022
5306 Clouds 21 1023 56 9656 10.73 5 13:29 13.02.2022
5307 Clouds 22 1021 42 10000 9.39 360 12:42 13.02.2022
5308 Clouds 22 1020 58 10000 8.49 5 10:44 13.02.2022
5309 Clouds 22 1020 58 10000 9.83 355 10:25 13.02.2022
5310 Clouds 23 1019 56 10000 5.81 5 08:56 13.02.2022
5311 Clouds 23 1016 60 10000 4.02 15 02:49 13.02.2022
5312 Clouds 25 1014 65 9656 6.17 20 00:32 13.02.2022
5313 Clouds 27 1012 43 10000 5.36 360 22:56 12.02.2022
5314 Clouds 26 1014 61 8047 5.36 15 22:32 12.02.2022
5315 Clouds 26 1015 61 8047 3.6 30 21:18 12.02.2022
5316 Haze 25 1016 65 4828 2.57 20 20:24 12.02.2022
5317 Clouds 25 1015 50 10000 2.68 338 18:54 12.02.2022
5318 Haze 24 1017 69 4828 2.57 350 18:36 12.02.2022
5319 Haze 22 1017 83 4828 2.68 330 17:40 12.02.2022
5320 Clouds 23 1016 58 10000 0.89 309 16:46 12.02.2022
5321 Clouds 22 1015 58 10000 1.79 313 15:59 12.02.2022
5322 Clouds 20 1016 88 8047 0.45 351 15:23 12.02.2022
5323 Clouds 20 1015 88 8047 2.57 340 14:30 12.02.2022
5324 Clouds 21 1012 61 10000 2.12 301 11:34 12.02.2022
5325 Clouds 21 1012 61 10000 1.34 265 10:34 12.02.2022
5326 Clouds 21 1013 61 10000 0.89 271 09:38 12.02.2022
5327 Clouds 22 1013 61 10000 0.45 314 08:47 12.02.2022
5328 Clouds 22 1013 57 10000 0.45 5 07:47 12.02.2022
5329 Clouds 21 1015 88 10000 2.57 360 05:31 12.02.2022
5330 Clouds 22 1012 83 10000 2.57 110 02:19 12.02.2022
5331 Clouds 25 1009 52 10000 1.79 92 23:56 11.02.2022
5332 Clouds 26 1012 65 10000 3.58 71 22:24 11.02.2022
5333 Clouds 25 1013 69 10000 3.13 101 21:43 11.02.2022
5334 Clouds 24 1014 69 8047 2.06 100 20:37 11.02.2022
5335 Clouds 25 1015 69 9656 4.02 93 19:31 11.02.2022
5336 Clouds 24 1017 73 8047 3.13 49 18:47 11.02.2022
5337 Mist 23 1017 73 8047 0.89 191 17:27 11.02.2022
5338 Clouds 22 1015 56 10000 0.45 36 16:56 11.02.2022
5339 Mist 20 1016 88 6437 0.89 303 15:26 11.02.2022
5340 Mist 19 1016 94 4828 0 0 14:38 11.02.2022
5341 Mist 19 1016 94 4828 0 0 14:20 11.02.2022
5342 Mist 19 1016 88 10000 0.45 284 13:47 11.02.2022
5343 Mist 19 1016 88 10000 0.45 292 13:28 11.02.2022
5344 Clouds 20 1013 61 10000 2.36 99 11:26 11.02.2022
5345 Clouds 20 1013 60 10000 0.45 293 09:38 11.02.2022
5346 Clouds 20 1014 59 10000 1.34 293 08:36 11.02.2022
5347 Clouds 20 1015 59 10000 0.89 294 07:47 11.02.2022
5348 Clouds 20 1017 83 9656 0.45 306 06:29 11.02.2022
5349 Clouds 22 1015 78 10000 3.09 80 02:24 11.02.2022
5350 Clouds 23 1013 55 10000 2.68 94 00:44 11.02.2022
5351 Clouds 24 1015 64 10000 3.6 70 22:39 10.02.2022
5352 Clouds 25 1015 61 10000 3.13 115 21:43 10.02.2022
5353 Clouds 26 1014 44 10000 3.13 77 20:50 10.02.2022
5354 Clouds 23 1016 65 10000 3.57 82 19:59 10.02.2022
5355 Clouds 25 1017 57 10000 1.79 101 19:23 10.02.2022
5356 Smoke 24 1018 64 9656 2.68 76 18:33 10.02.2022
5357 Smoke 23 1019 68 9656 0.45 5 17:23 10.02.2022
5358 Clouds 22 1017 50 10000 1.34 194 16:47 10.02.2022
5359 Clear 17 1018 88 9656 0.45 242 15:42 10.02.2022
5360 Clear 17 1018 88 9656 0.45 242 15:24 10.02.2022
5361 Mist 15 1017 94 9656 0.89 274 14:35 10.02.2022
5362 Clear 16 1015 64 10000 1.56 223 13:59 10.02.2022
5363 Clouds 16 1017 88 9656 0 0 13:19 10.02.2022
5364 Clouds 16 1015 63 10000 2.02 208 11:57 10.02.2022
5365 Clouds 16 1015 63 10000 0.45 236 11:32 10.02.2022
5366 Clouds 16 1015 63 10000 0.45 236 11:32 10.02.2022
5367 Clouds 16 1015 62 10000 0.45 236 10:25 10.02.2022
5368 Clouds 16 1015 61 10000 0.45 236 09:46 10.02.2022
5369 Clouds 18 1017 57 10000 0.45 248 08:42 10.02.2022
5370 Clouds 18 1020 77 10000 2.57 340 06:33 10.02.2022
5371 Clouds 20 1019 77 10000 1.79 17 03:21 10.02.2022
5372 Clouds 21 1017 50 10000 2.68 33 00:56 10.02.2022
5373 Clouds 21 1018 68 10000 4.12 340 00:38 10.02.2022
5374 Clouds 21 1018 68 10000 4.12 340 00:20 10.02.2022
5375 Clouds 22 1016 44 10000 3.58 30 22:54 09.02.2022
5376 Clouds 22 1018 60 10000 3.6 340 22:30 09.02.2022
5377 Clouds 23 1017 40 10000 3.13 69 21:47 09.02.2022
5378 Clouds 24 1019 50 10000 2.68 90 21:27 09.02.2022
5379 Clouds 23 1018 39 10000 2.68 51 20:43 09.02.2022
5380 Clouds 23 1020 53 10000 3.6 360 20:22 09.02.2022
5381 Clouds 22 1021 53 10000 3.09 350 19:41 09.02.2022
5382 Clouds 21 1022 56 10000 2.57 340 18:38 09.02.2022
5383 Clouds 20 1021 47 10000 1.79 311 16:55 09.02.2022
5384 Haze 17 1022 77 9656 2.57 350 16:20 09.02.2022
5385 Haze 16 1022 88 9656 2.57 340 15:23 09.02.2022
5386 Clouds 16 1019 62 10000 1.79 307 12:53 09.02.2022
5387 Clouds 16 1019 61 10000 1.12 265 11:29 09.02.2022
5388 Clouds 16 1019 61 10000 0.45 285 10:33 09.02.2022
5389 Clouds 16 1019 58 10000 1.42 277 09:50 09.02.2022
5390 Clouds 17 1020 59 10000 1.6 282 09:21 09.02.2022
5391 Clouds 17 1020 58 10000 1.6 282 08:43 09.02.2022
5392 Clouds 18 1022 57 10000 0.89 294 05:55 09.02.2022
5393 Clouds 18 1024 68 10000 0.89 297 03:51 09.02.2022
5394 Clouds 18 1024 68 10000 0.89 327 03:25 09.02.2022
5395 Clouds 20 1022 56 10000 4.92 355 23:45 08.02.2022
5396 Clouds 20 1022 56 10000 4.92 355 23:18 08.02.2022
5397 Clouds 20 1023 56 10000 6.26 360 22:38 08.02.2022
5398 Clouds 20 1023 56 10000 6.26 22 22:18 08.02.2022
5399 Clouds 21 1023 52 10000 7.15 349 21:22 08.02.2022
5400 Clouds 21 1023 52 10000 7.15 349 21:22 08.02.2022
5401 Clouds 21 1021 39 10000 5.36 9 20:57 08.02.2022
5402 Clouds 19 1024 63 10000 4.47 17 20:31 08.02.2022
5403 Clouds 19 1025 63 10000 5.36 11 19:18 08.02.2022
5404 Drizzle 18 1025 68 9656 4.02 17 17:57 08.02.2022
5405 Clouds 19 1023 42 10000 5.36 346 16:55 08.02.2022
5406 Clouds 18 1022 45 10000 6.26 29 15:45 08.02.2022
5407 Clouds 19 1022 44 10000 5.36 331 14:57 08.02.2022
5408 Clouds 18 1022 59 9656 8.94 348 13:39 08.02.2022
5409 Clouds 18 1020 48 10000 8.05 360 12:21 08.02.2022
5410 Clouds 18 1020 55 10000 7.6 348 10:47 08.02.2022
5411 Clouds 18 1020 55 10000 6.26 9 09:46 08.02.2022
5412 Clouds 19 1020 52 10000 5.81 360 08:34 08.02.2022
5413 Clouds 18 1021 55 10000 1.34 269 05:46 08.02.2022
5414 Clouds 20 1021 64 9656 6.17 360 04:40 08.02.2022
5415 Clouds 20 1021 64 9656 6.17 360 04:21 08.02.2022
5416 Clouds 19 1020 68 9656 7.72 350 03:36 08.02.2022
5417 Clouds 19 1020 68 9656 7.72 350 03:18 08.02.2022
5418 Clouds 20 1018 48 10000 7.6 337 02:59 08.02.2022
5419 Clouds 20 1019 64 9656 7.72 350 02:36 08.02.2022
5420 Clouds 20 1019 64 9656 8.49 347 02:18 08.02.2022
5421 Clouds 20 1019 68 9656 10.29 30 01:44 08.02.2022
5422 Clouds 20 1019 68 9656 10.29 30 01:24 08.02.2022
5423 Clouds 20 1017 48 10000 8.05 9 00:55 08.02.2022
5424 Clouds 20 1018 68 9656 8.05 360 00:19 08.02.2022
5425 Clouds 21 1017 50 10000 7.6 355 23:42 07.02.2022
5426 Clouds 20 1018 73 8047 10.29 10 23:18 07.02.2022
5427 Clouds 21 1017 51 10000 8.94 5 22:56 07.02.2022
5428 Clouds 21 1018 68 9656 8.05 15 22:18 07.02.2022
5429 Clouds 22 1017 47 10000 8.49 32 21:47 07.02.2022
5430 Clouds 22 1019 64 9656 8.94 5 21:26 07.02.2022
5431 Clouds 23 1020 60 9656 7.72 20 20:41 07.02.2022
5432 Clouds 23 1020 60 9656 8.05 360 20:18 07.02.2022
5433 Clouds 23 1020 60 9656 7.6 14 19:45 07.02.2022
5434 Clouds 23 1021 60 9656 5.36 5 18:22 07.02.2022
5435 Clouds 23 1019 49 10000 2.68 360 16:53 07.02.2022
5436 Clouds 21 1020 73 9656 3.58 355 16:20 07.02.2022
5437 Clouds 19 1020 82 8047 2.24 305 15:48 07.02.2022
5438 Clouds 17 1018 88 9656 2.06 340 13:37 07.02.2022
5439 Clouds 17 1018 88 9656 2.06 340 13:19 07.02.2022
5440 Clouds 18 1016 60 10000 2.72 290 11:58 07.02.2022
5441 Clouds 18 1016 60 10000 2.72 290 11:58 07.02.2022
5442 Clouds 18 1016 60 10000 2.72 290 11:58 07.02.2022
5443 Clouds 18 1015 59 10000 2.72 290 11:37 07.02.2022
5444 Clouds 18 1016 58 10000 2.42 293 10:52 07.02.2022
5445 Clouds 18 1016 59 10000 2.42 293 10:32 07.02.2022
5446 Clouds 18 1016 60 10000 2.39 290 09:53 07.02.2022
5447 Clouds 18 1016 60 10000 2.15 278 09:18 07.02.2022
5448 Clouds 17 1016 61 10000 2.15 278 08:39 07.02.2022
5449 Clouds 16 1019 88 10000 2.57 250 07:26 07.02.2022
5450 Clouds 16 1019 88 10000 0 0 06:34 07.02.2022
5451 Clear 20 1017 54 10000 0.89 345 03:48 07.02.2022
5452 Clear 21 1016 48 10000 2.68 92 00:46 07.02.2022
5453 Clear 23 1016 42 10000 4.47 88 23:49 06.02.2022
5454 Clear 24 1016 37 10000 4.47 71 22:49 06.02.2022
5455 Clear 25 1016 35 10000 4.47 80 21:56 06.02.2022
5456 Clear 25 1019 47 10000 3.09 90 21:35 06.02.2022
5457 Clear 25 1017 34 10000 3.13 78 20:55 06.02.2022
5458 Clear 25 1020 44 10000 2.06 90 20:32 06.02.2022
5459 Clear 23 1021 46 10000 0 0 19:40 06.02.2022
5460 Clear 20 1022 52 9656 0 0 18:41 06.02.2022
5461 Clouds 20 1020 40 10000 1.34 105 17:56 06.02.2022
5462 Clear 18 1023 59 9656 0 0 17:21 06.02.2022
5463 Clouds 18 1021 44 10000 0.89 259 16:47 06.02.2022
5464 Clear 13 1023 82 8047 0 0 15:49 06.02.2022
5465 Clear 13 1023 82 8047 0 0 15:27 06.02.2022
5466 Clouds 14 1023 69 10000 2.51 277 14:46 06.02.2022
5467 Clear 11 1022 76 10000 0 0 13:28 06.02.2022
5468 Clear 11 1022 76 10000 0 0 12:58 06.02.2022
5469 Clear 10 1021 56 10000 2.27 257 11:35 06.02.2022
5470 Clear 10 1021 55 10000 2.79 265 10:31 06.02.2022
5471 Clear 11 1023 54 10000 0.45 294 09:25 06.02.2022
5472 Clear 11 1023 52 10000 3.17 288 08:30 06.02.2022
5473 Clouds 14 1027 67 10000 2.06 350 05:31 06.02.2022
5474 Clear 16 1026 40 10000 4.92 360 02:50 06.02.2022
5475 Clouds 16 1027 55 10000 4.92 355 02:24 06.02.2022
5476 Clouds 16 1027 55 10000 2.57 360 00:29 06.02.2022
5477 Clouds 17 1028 48 10000 4.12 340 22:31 05.02.2022
5478 Clouds 16 1029 51 10000 4.12 70 21:32 05.02.2022
5479 Clouds 16 1030 51 10000 2.57 350 20:24 05.02.2022
5480 Clouds 16 1029 35 10000 3.58 360 19:46 05.02.2022
5481 Clouds 16 1030 36 10000 4.47 315 18:59 05.02.2022
5482 Clouds 15 1031 39 10000 4.92 349 17:45 05.02.2022
5483 Clouds 14 1033 54 10000 4.12 360 17:25 05.02.2022
5484 Clouds 13 1031 62 10000 6.17 350 15:40 05.02.2022
5485 Clouds 13 1031 62 10000 6.17 350 15:21 05.02.2022
5486 Clouds 13 1028 48 10000 7.6 333 12:47 05.02.2022
5487 Clouds 13 1028 48 10000 9.39 355 12:27 05.02.2022
5488 Clouds 14 1028 47 10000 8.94 340 10:48 05.02.2022
5489 Clouds 14 1028 48 10000 8.94 348 10:20 05.02.2022
5490 Clouds 15 1028 45 10000 9.83 5 09:43 05.02.2022
5491 Clouds 15 1029 48 10000 5.81 5 07:51 05.02.2022
5492 Clouds 15 1029 46 10000 7.15 355 06:57 05.02.2022
5493 Sand 16 1029 63 9656 10.29 360 04:30 05.02.2022
5494 Sand 16 1026 67 8047 10.29 360 01:19 05.02.2022
5495 Clouds 17 1025 47 10000 11.18 348 00:53 05.02.2022
5496 Sand 17 1025 67 9656 7.72 360 23:41 04.02.2022
5497 Sand 17 1025 67 9656 7.72 360 23:23 04.02.2022
5498 Clouds 19 1023 46 10000 10.73 348 21:54 04.02.2022
5499 Sand 18 1025 63 9656 7.72 20 21:36 04.02.2022
5500 Sand 18 1025 63 9656 7.72 20 21:18 04.02.2022
5501 Sand 18 1025 68 8047 10.29 360 19:59 04.02.2022
5502 Clouds 20 1023 48 10000 12.07 349 17:43 04.02.2022
5503 Haze 19 1022 72 10000 5.14 360 15:39 04.02.2022
5504 Clouds 20 1020 51 10000 9.83 9 14:54 04.02.2022
5505 Sand 20 1020 68 8047 7.72 360 13:31 04.02.2022
5506 Clouds 20 1018 51 10000 11.62 348 12:43 04.02.2022
5507 Clouds 21 1017 50 10000 8.94 360 11:41 04.02.2022
5508 Clouds 21 1017 50 10000 11.62 355 10:36 04.02.2022
5509 Clouds 22 1016 51 10000 11.18 5 08:34 04.02.2022
5510 Clouds 22 1015 55 10000 9.39 360 06:47 04.02.2022
5511 Sand 22 1012 88 9656 11.18 10 02:44 04.02.2022
5512 Sand 22 1010 88 9656 8.94 355 01:48 04.02.2022
5513 Sand 27 1008 69 9656 10.28 15 23:29 03.02.2022
5514 Sand 26 1008 73 9656 8.05 17 22:33 03.02.2022
5515 Clear 28 1007 50 10000 8.05 355 21:49 03.02.2022
5516 Clear 32 1008 45 10000 2.24 37 20:38 03.02.2022
5517 Clear 32 1008 45 10000 2.24 37 20:38 03.02.2022
5518 Clear 32 1008 45 10000 2.24 37 20:18 03.02.2022
5519 Clear 30 1009 54 10000 1.79 190 19:30 03.02.2022
5520 Clear 28 1009 61 10000 2.68 170 18:34 03.02.2022
5521 Clear 26 1009 65 10000 2.68 208 17:32 03.02.2022
5522 Clear 23 1009 78 10000 2.68 172 16:25 03.02.2022
5523 Clear 20 1007 94 9656 2.24 202 14:37 03.02.2022
5524 Clear 21 1004 67 10000 1.34 214 12:51 03.02.2022
5525 Clear 21 1004 66 10000 3.72 179 10:45 03.02.2022
5526 Clear 22 1005 64 10000 0.89 240 08:36 03.02.2022
5527 Clear 24 1007 88 10000 0 0 04:27 03.02.2022
5528 Clear 26 1005 78 10000 3.09 130 00:31 03.02.2022
5529 Clouds 27 1004 74 9656 5.14 130 23:36 02.02.2022
5530 Clear 30 1003 48 10000 3.13 182 21:54 02.02.2022
5531 Clouds 29 1006 61 9656 5.14 140 21:30 02.02.2022
5532 Clouds 28 1007 69 9656 2.57 200 20:38 02.02.2022
5533 Clear 28 1006 53 10000 0.89 126 19:55 02.02.2022
5534 Clouds 27 1008 69 9656 2.57 160 19:26 02.02.2022
5535 Clouds 27 1007 54 10000 2.24 160 18:34 02.02.2022
5536 Clouds 24 1010 83 8047 0 0 17:38 02.02.2022
5537 Clouds 24 1010 83 8047 0 0 17:19 02.02.2022
5538 Mist 22 1010 94 6437 0 0 16:30 02.02.2022
5539 Clouds 20 1006 74 10000 0.45 290 12:55 02.02.2022
5540 Clouds 20 1006 74 10000 3.26 179 12:18 02.02.2022
5541 Clouds 21 1006 74 10000 0.45 290 11:31 02.02.2022
5542 Clouds 21 1007 74 10000 1.94 174 09:46 02.02.2022
5543 Clouds 20 1008 73 10000 1.48 239 07:32 02.02.2022
5544 Clouds 26 1006 52 10000 3.13 35 22:46 01.02.2022
5545 Clouds 26 1009 65 9656 4.12 40 21:36 01.02.2022
5546 Clouds 27 1008 49 10000 2.68 76 19:57 01.02.2022
5547 Clouds 23 1013 73 8047 0 0 17:41 01.02.2022
5548 Clouds 20 1012 83 6437 2.57 330 16:36 01.02.2022
5549 Clouds 18 1010 88 9656 0 0 13:32 01.02.2022
5550 Clouds 17 1008 65 10000 2.17 303 12:30 01.02.2022
5551 Clear 18 1007 65 10000 0.45 279 11:19 01.02.2022
5552 Clear 22 1009 73 10000 1.54 160 02:32 01.02.2022
5553 Clear 24 1010 60 10000 6.17 130 23:40 31.01.2022
5554 Clear 25 1008 45 10000 5.36 117 22:48 31.01.2022
5555 Clouds 26 1012 50 10000 2.57 150 21:38 31.01.2022
5556 Clouds 26 1013 53 10000 2.57 140 20:45 31.01.2022
5557 Clouds 26 1013 53 10000 2.57 140 20:26 31.01.2022
5558 Clear 25 1013 42 10000 2.24 181 18:54 31.01.2022
5559 Clear 24 1016 60 10000 4.12 200 18:20 31.01.2022
5560 Clear 22 1017 68 10000 2.57 210 17:25 31.01.2022
5561 Mist 20 1017 83 10000 2.06 220 16:25 31.01.2022
5562 Clear 17 1015 71 10000 0.89 209 14:54 31.01.2022
5563 Mist 16 1016 94 8047 0 0 13:43 31.01.2022
5564 Clouds 17 1014 67 10000 0.45 169 12:38 31.01.2022
5565 Clouds 18 1014 68 10000 0.45 206 11:34 31.01.2022
5566 Clouds 18 1015 68 10000 0.45 206 10:49 31.01.2022
5567 Clouds 18 1016 68 10000 0.89 216 09:39 31.01.2022
5568 Clouds 18 1016 68 10000 0.89 180 08:57 31.01.2022
5569 Clouds 18 1017 67 10000 1.34 216 08:38 31.01.2022
5570 Clouds 18 1017 67 10000 1.34 216 08:19 31.01.2022
5571 Clouds 19 1020 88 10000 0 0 06:18 31.01.2022
5572 Clouds 23 1018 64 10000 5.14 90 00:43 31.01.2022
5573 Clouds 23 1019 64 10000 4.12 90 22:34 30.01.2022
5574 Clouds 23 1017 49 10000 4.92 93 21:47 30.01.2022
5575 Clouds 23 1020 60 10000 1.54 220 21:26 30.01.2022
5576 Clouds 23 1018 50 10000 3.58 83 20:55 30.01.2022
5577 Clouds 23 1021 60 10000 3.09 140 20:31 30.01.2022
5578 Clouds 23 1020 47 10000 1.79 63 19:58 30.01.2022
5579 Clouds 23 1021 47 10000 1.34 71 18:52 30.01.2022
5580 Clouds 22 1024 60 10000 0 0 18:26 30.01.2022
5581 Clouds 20 1024 64 10000 0 0 17:33 30.01.2022
5582 Clouds 19 1024 77 10000 0 0 16:44 30.01.2022
5583 Clouds 19 1024 77 10000 0 0 16:23 30.01.2022
5584 Clouds 19 1023 56 10000 1.79 238 15:56 30.01.2022
5585 Clouds 16 1024 88 10000 0 0 15:37 30.01.2022
5586 Clouds 16 1024 88 10000 0 0 15:19 30.01.2022
5587 Clouds 16 1022 64 10000 2.43 299 14:44 30.01.2022
5588 Clouds 16 1022 63 10000 2.72 322 12:46 30.01.2022
5589 Clouds 16 1021 62 10000 2.49 322 11:49 30.01.2022
5590 Clouds 17 1022 61 10000 2.04 333 10:26 30.01.2022
5591 Clouds 17 1022 61 10000 2.04 333 10:26 30.01.2022
5592 Clouds 17 1022 61 10000 2.04 333 09:41 30.01.2022
5593 Clouds 17 1023 60 10000 0.45 262 08:44 30.01.2022
5594 Clouds 20 1024 54 10000 3.13 5 02:58 30.01.2022
5595 Clouds 20 1024 52 10000 3.58 360 01:54 30.01.2022
5596 Clouds 20 1023 49 10000 5.81 5 23:49 29.01.2022
5597 Clouds 20 1023 49 10000 4.92 344 22:58 29.01.2022
5598 Clouds 21 1026 60 10000 5.81 5 21:44 29.01.2022
5599 Clouds 21 1026 60 10000 5.36 22 21:20 29.01.2022
5600 Clouds 20 1027 64 10000 7.15 5 20:21 29.01.2022
5601 Clouds 20 1028 60 10000 7.6 355 19:33 29.01.2022
5602 Clouds 21 1026 44 10000 8.49 347 18:51 29.01.2022
5603 Clouds 21 1027 47 10000 6.71 355 17:56 29.01.2022
5604 Clouds 20 1029 60 10000 7.6 17 17:27 29.01.2022
5605 Clouds 19 1028 68 9656 7.6 5 15:42 29.01.2022
5606 Clouds 20 1025 48 10000 7.15 355 13:58 29.01.2022
5607 Clouds 20 1026 60 9656 7.15 348 13:36 29.01.2022
5608 Clouds 20 1026 60 9656 6.71 360 13:18 29.01.2022
5609 Clouds 21 1023 47 10000 8.49 360 11:40 29.01.2022
5610 Clouds 21 1023 46 10000 8.05 5 10:34 29.01.2022
5611 Clouds 21 1024 47 10000 9.83 355 08:20 29.01.2022
5612 Clouds 21 1020 55 10000 11.18 355 02:48 29.01.2022
5613 Sand 23 1019 68 8047 7.72 360 00:32 29.01.2022
5614 Sand 23 1019 73 8047 7.72 360 23:32 28.01.2022
5615 Sand 23 1019 73 8047 7.72 360 23:32 28.01.2022
5616 Clouds 24 1017 56 10000 10.73 355 22:47 28.01.2022
5617 Clouds 23 1019 78 8047 7.72 20 22:19 28.01.2022
5618 Clouds 25 1018 55 10000 5.36 11 20:41 28.01.2022
5619 Clouds 25 1019 52 10000 3.58 5 19:58 28.01.2022
5620 Clouds 25 1019 51 10000 3.13 10 18:52 28.01.2022
5621 Clouds 24 1021 69 8047 4.12 350 18:34 28.01.2022
5622 Clouds 22 1021 83 8047 0 0 16:23 28.01.2022
5623 Clouds 20 1018 67 10000 3.19 353 14:54 28.01.2022
5624 Clouds 20 1016 67 10000 2.67 338 12:42 28.01.2022
5625 Clouds 20 1016 66 10000 2.49 332 11:50 28.01.2022
5626 Clouds 20 1016 66 10000 3.06 333 10:27 28.01.2022
5627 Clouds 21 1016 65 10000 3.06 333 09:46 28.01.2022
5628 Clouds 21 1017 63 10000 2.73 354 07:41 28.01.2022
5629 Clouds 21 1020 83 9656 0 0 06:29 28.01.2022
5630 Clouds 22 1018 61 10000 3.34 3 03:51 28.01.2022
5631 Clouds 22 1018 78 10000 2.57 350 02:27 28.01.2022
5632 Clouds 23 1018 73 10000 3.09 360 01:37 28.01.2022
5633 Clouds 23 1018 73 10000 3.09 360 01:37 28.01.2022
5634 Clouds 23 1018 73 10000 4.12 10 00:42 28.01.2022
5635 Clouds 24 1018 64 10000 4.12 10 22:20 27.01.2022
5636 Clouds 24 1019 69 10000 4.12 10 21:37 27.01.2022
5637 Clouds 24 1017 54 10000 3.58 355 20:59 27.01.2022
5638 Clouds 24 1021 73 10000 4.12 20 19:37 27.01.2022
5639 Clouds 23 1021 78 10000 3.09 20 18:19 27.01.2022
5640 Clouds 22 1020 58 10000 1.34 355 16:45 27.01.2022
5641 Clouds 20 1018 64 10000 3.96 356 13:57 27.01.2022
5642 Clouds 20 1017 64 10000 0.89 273 12:49 27.01.2022
5643 Clouds 20 1017 64 10000 1.34 286 11:53 27.01.2022
5644 Clouds 21 1017 63 10000 0.45 303 09:48 27.01.2022
5645 Clouds 21 1018 61 10000 2.24 327 08:40 27.01.2022
5646 Clouds 21 1018 62 10000 1.79 321 07:31 27.01.2022
5647 Clouds 20 1019 94 10000 2.57 350 03:19 27.01.2022
5648 Drizzle 20 1018 100 4828 4.63 60 00:23 27.01.2022
5649 Clouds 23 1018 78 10000 6.17 50 22:27 26.01.2022
5650 Clouds 24 1018 73 10000 6.17 50 21:44 26.01.2022
5651 Clouds 25 1019 65 10000 4.12 50 20:43 26.01.2022
5652 Clouds 25 1019 65 10000 4.12 50 20:24 26.01.2022
5653 Clouds 24 1020 69 10000 4.12 360 19:30 26.01.2022
5654 Clouds 25 1018 54 10000 4.47 350 18:46 26.01.2022
5655 Clouds 25 1019 51 10000 4.02 23 17:53 26.01.2022
5656 Clouds 24 1020 69 9656 2.57 350 17:32 26.01.2022
5657 Clouds 25 1019 54 10000 2.68 326 16:46 26.01.2022
5658 Clouds 22 1018 57 10000 0.89 317 15:50 26.01.2022
5659 Mist 21 1018 83 10000 2.06 340 14:30 26.01.2022
5660 Clouds 22 1015 60 10000 2.68 337 11:59 26.01.2022
5661 Clouds 22 1015 59 10000 4.92 5 10:49 26.01.2022
5662 Clouds 22 1015 58 10000 4.47 5 09:50 26.01.2022
5663 Clouds 20 1015 65 10000 0.89 294 08:32 26.01.2022
5664 Clouds 21 1016 83 9656 2.68 5 06:27 26.01.2022
5665 Clouds 21 1016 83 9656 2.68 5 06:27 26.01.2022
5666 Clouds 23 1013 78 10000 7.15 355 00:21 26.01.2022
5667 Clouds 24 1013 73 10000 8.94 5 23:34 25.01.2022
5668 Clear 25 1011 56 10000 7.15 18 22:48 25.01.2022
5669 Clear 24 1013 73 10000 8.05 18 22:18 25.01.2022
5670 Clear 26 1013 65 10000 7.15 26 21:22 25.01.2022
5671 Clear 27 1011 50 10000 8.05 15 20:44 25.01.2022
5672 Clouds 27 1011 48 10000 8.94 349 19:53 25.01.2022
5673 Clouds 27 1012 48 10000 5.36 343 18:46 25.01.2022
5674 Clouds 27 1012 48 10000 5.36 23 17:45 25.01.2022
5675 Clouds 26 1012 51 10000 5.36 348 16:58 25.01.2022
5676 Clouds 24 1013 78 9656 4.92 350 16:34 25.01.2022
5677 Clouds 22 1012 88 9656 4.02 360 15:39 25.01.2022
5678 Clouds 23 1010 64 10000 3.58 355 14:58 25.01.2022
5679 Clouds 22 1011 94 8047 3.58 5 14:38 25.01.2022
5680 Clouds 22 1007 70 10000 0.89 343 11:30 25.01.2022
5681 Clouds 22 1008 67 10000 0.89 290 09:21 25.01.2022
5682 Clouds 22 1009 67 10000 0.45 302 07:31 25.01.2022
5683 Clear 22 1009 68 10000 0.45 294 06:53 25.01.2022
5684 Clouds 22 1011 94 10000 0 0 05:22 25.01.2022
5685 Clouds 26 1008 69 9656 2.57 140 00:20 25.01.2022
5686 Clear 26 1008 69 10000 2.57 90 23:36 24.01.2022
5687 Clear 26 1008 69 10000 2.57 90 23:18 24.01.2022
5688 Clouds 26 1009 65 10000 2.57 90 22:41 24.01.2022
5689 Clear 26 1007 52 10000 4.02 110 21:57 24.01.2022
5690 Clear 26 1007 52 10000 4.02 110 21:57 24.01.2022
5691 Clouds 27 1010 61 10000 1.54 160 21:32 24.01.2022
5692 Clouds 26 1012 65 9656 2.57 180 20:33 24.01.2022
5693 Clear 26 1010 52 10000 1.34 83 19:57 24.01.2022
5694 Clouds 25 1013 69 10000 0 0 19:35 24.01.2022
5695 Clouds 25 1014 65 10000 1.54 180 18:35 24.01.2022
5696 Clear 24 1015 69 9656 3.09 180 17:24 24.01.2022
5697 Clouds 24 1013 54 10000 1.34 178 16:55 24.01.2022
5698 Clear 22 1015 78 10000 2.06 260 16:21 24.01.2022
5699 Clear 18 1015 94 10000 0 0 14:44 24.01.2022
5700 Clouds 18 1014 94 10000 0 0 13:26 24.01.2022
5701 Clouds 20 1012 65 10000 1.11 172 12:30 24.01.2022
5702 Clouds 21 1013 62 10000 0.45 344 10:46 24.01.2022
5703 Clouds 21 1014 62 10000 1.32 263 09:49 24.01.2022
5704 Clouds 21 1014 61 10000 1.79 5 08:54 24.01.2022
5705 Clouds 21 1016 60 10000 4.02 5 07:19 24.01.2022
5706 Clouds 22 1017 78 10000 5.14 360 01:31 24.01.2022
5707 Clouds 22 1015 58 10000 4.47 5 00:45 24.01.2022
5708 Clouds 22 1016 73 10000 6.17 360 00:26 24.01.2022
5709 Clouds 23 1017 68 10000 4.12 360 22:43 23.01.2022
5710 Clear 23 1015 51 10000 3.58 30 21:50 23.01.2022
5711 Clouds 23 1018 64 10000 5.14 360 21:26 23.01.2022
5712 Clear 23 1016 49 10000 4.47 36 20:48 23.01.2022
5713 Clear 24 1017 50 10000 4.02 53 19:54 23.01.2022
5714 Clouds 24 1019 48 10000 1.79 355 18:52 23.01.2022
5715 Clouds 23 1020 51 10000 2.68 349 17:50 23.01.2022
5716 Clouds 22 1020 53 10000 3.13 344 16:48 23.01.2022
5717 Clouds 19 1021 82 10000 2.57 340 15:18 23.01.2022
5718 Clouds 17 1020 88 10000 0 0 14:31 23.01.2022
5719 Clouds 17 1020 88 10000 0 0 14:31 23.01.2022
5720 Clouds 17 1020 88 9656 0 0 13:22 23.01.2022
5721 Clouds 18 1018 63 10000 4.59 344 12:36 23.01.2022
5722 Clouds 18 1018 63 10000 4.86 352 12:18 23.01.2022
5723 Clouds 18 1018 62 10000 4.44 346 11:24 23.01.2022
5724 Clouds 18 1018 61 10000 0.89 306 10:43 23.01.2022
5725 Clouds 19 1018 61 10000 0.89 313 10:19 23.01.2022
5726 Clouds 20 1019 59 10000 2.24 340 09:19 23.01.2022
5727 Clouds 21 1021 57 10000 5.36 5 05:58 23.01.2022
5728 Clouds 21 1020 55 10000 4.02 355 01:54 23.01.2022
5729 Clouds 20 1021 73 10000 5.14 70 01:34 23.01.2022
5730 Clouds 20 1021 68 10000 6.69 70 00:31 23.01.2022
5731 Clouds 21 1019 52 10000 4.92 15 23:57 22.01.2022
5732 Clouds 22 1021 60 10000 4.12 70 22:46 22.01.2022
5733 Clouds 22 1022 56 10000 6.17 60 21:38 22.01.2022
5734 Clouds 22 1023 56 10000 5.14 350 20:24 22.01.2022
5735 Clouds 20 1024 64 10000 4.63 350 19:27 22.01.2022
5736 Clouds 20 1025 64 10000 4.12 350 18:29 22.01.2022
5737 Clouds 19 1025 68 10000 4.12 50 17:41 22.01.2022
5738 Clouds 20 1023 51 10000 5.36 11 16:57 22.01.2022
5739 Clouds 18 1022 59 10000 2.24 355 15:55 22.01.2022
5740 Clouds 17 1023 82 10000 1.54 340 15:37 22.01.2022
5741 Clouds 18 1023 77 10000 1.54 350 13:59 22.01.2022
5742 Clouds 18 1021 59 10000 3.13 17 12:55 22.01.2022
5743 Clouds 17 1020 59 10000 2.24 5 12:30 22.01.2022
5744 Clouds 17 1020 61 10000 2.68 351 11:49 22.01.2022
5745 Clouds 16 1020 59 10000 0.45 200 10:31 22.01.2022
5746 Clouds 17 1021 58 10000 0.45 228 09:59 22.01.2022
5747 Clouds 17 1021 59 10000 0.45 228 08:53 22.01.2022
5748 Clouds 17 1021 56 10000 0.45 228 07:56 22.01.2022
5749 Clouds 18 1024 68 10000 2.24 345 05:20 22.01.2022
5750 Clouds 18 1020 49 10000 8.05 360 01:58 22.01.2022
5751 Clouds 18 1019 52 10000 7.15 350 23:48 21.01.2022
5752 Clouds 18 1018 52 10000 9.83 11 22:41 21.01.2022
5753 Clouds 20 1019 51 10000 11.18 347 20:45 21.01.2022
5754 Clouds 18 1021 74 10000 12.21 352 18:41 21.01.2022
5755 Clouds 21 1020 51 10000 8.94 350 17:45 21.01.2022
5756 Clouds 19 1019 53 10000 10.73 17 15:48 21.01.2022
5757 Clouds 19 1019 72 9656 10.28 5 14:37 21.01.2022
5758 Clouds 21 1016 51 10000 8.49 355 12:40 21.01.2022
5759 Clouds 22 1016 53 10000 7.6 346 11:29 21.01.2022
5760 Clouds 23 1016 56 10000 6.71 22 10:22 21.01.2022
5761 Clouds 23 1017 63 10000 5.81 350 08:25 21.01.2022
5762 Clouds 23 1017 64 10000 5.81 360 07:26 21.01.2022
5763 Clear 25 1014 58 10000 4.92 5 00:59 21.01.2022
5764 Clouds 26 1015 69 8047 6.17 360 22:45 20.01.2022
5765 Clear 27 1013 52 10000 6.26 360 21:48 20.01.2022
5766 Clouds 27 1014 50 10000 6.26 38 20:56 20.01.2022
5767 Clouds 26 1017 69 8047 7.72 30 19:40 20.01.2022
5768 Clouds 26 1017 69 8047 7.72 30 19:18 20.01.2022
5769 Clouds 23 1017 78 8047 0 0 17:32 20.01.2022
5770 Clouds 21 1014 69 10000 0.45 263 15:46 20.01.2022
5771 Clouds 21 1014 69 10000 0.45 263 15:25 20.01.2022
5772 Clouds 21 1014 88 10000 0 0 13:53 20.01.2022
5773 Clouds 20 1012 65 10000 2.18 268 12:43 20.01.2022
5774 Clouds 20 1012 65 10000 2.24 254 12:21 20.01.2022
5775 Clouds 20 1012 68 10000 2.03 228 10:55 20.01.2022
5776 Clouds 19 1012 71 10000 1.52 210 09:43 20.01.2022
5777 Clouds 18 1013 71 10000 1 197 08:35 20.01.2022
5778 Clouds 18 1013 71 10000 1 197 08:35 20.01.2022
5779 Clouds 20 1013 68 10000 0.86 98 05:38 20.01.2022
5780 Clouds 25 1010 50 10000 3.58 115 23:52 19.01.2022
5781 Clear 25 1013 61 10000 4.12 90 22:37 19.01.2022
5782 Clear 26 1014 57 9656 3.6 100 21:24 19.01.2022
5783 Clear 26 1012 45 10000 4.02 108 20:53 19.01.2022
5784 Clouds 26 1015 57 9656 3.09 110 20:22 19.01.2022
5785 Clear 25 1014 46 10000 2.24 89 18:48 19.01.2022
5786 Clear 24 1015 50 10000 2.24 234 17:50 19.01.2022
5787 Clear 23 1015 55 10000 2.24 147 16:59 19.01.2022
5788 Mist 16 1016 94 4828 0 0 14:42 19.01.2022
5789 Clear 16 1013 73 10000 3.47 195 12:53 19.01.2022
5790 Clear 17 1013 72 10000 3.62 184 11:42 19.01.2022
5791 Clear 17 1013 72 10000 3.68 185 10:38 19.01.2022
5792 Clear 17 1013 68 10000 3.63 182 09:34 19.01.2022
5793 Clouds 18 1015 64 10000 0.89 244 07:18 19.01.2022
5794 Clouds 21 1016 78 10000 0 0 05:18 19.01.2022
5795 Clouds 24 1015 64 10000 3.09 140 23:41 18.01.2022
5796 Clouds 24 1015 64 10000 3.09 140 23:18 18.01.2022
5797 Clouds 27 1016 50 10000 3.6 200 21:20 18.01.2022
5798 Clear 26 1016 40 10000 1.79 172 19:55 18.01.2022
5799 Clouds 25 1019 57 10000 2.06 240 19:37 18.01.2022
5800 Clouds 25 1017 43 10000 3.58 207 18:57 18.01.2022
5801 Clouds 24 1018 47 10000 1.79 189 17:58 18.01.2022
5802 Clouds 22 1018 51 10000 2.68 209 16:59 18.01.2022
5803 Clouds 20 1018 58 10000 2.68 225 15:48 18.01.2022
5804 Mist 17 1019 88 10000 0 0 15:22 18.01.2022
5805 Clouds 16 1019 94 10000 0 0 13:26 18.01.2022
5806 Clouds 17 1017 67 10000 1.56 245 10:48 18.01.2022
5807 Clouds 17 1017 65 10000 1.15 238 09:28 18.01.2022
5808 Clouds 18 1018 63 10000 0.94 217 07:56 18.01.2022
5809 Clouds 18 1021 88 10000 2.06 260 05:31 18.01.2022
5810 Clouds 23 1017 45 10000 2.68 101 23:55 17.01.2022
5811 Clouds 23 1019 56 10000 2.24 80 22:29 17.01.2022
5812 Clouds 24 1019 50 10000 1.34 145 21:35 17.01.2022
5813 Clouds 24 1021 53 10000 1.79 192 20:27 17.01.2022
5814 Clouds 22 1022 56 10000 0.89 184 18:31 17.01.2022
5815 Clouds 22 1020 42 10000 1.34 236 17:44 17.01.2022
5816 Clouds 21 1020 47 10000 1.34 254 16:45 17.01.2022
5817 Clouds 16 1021 82 8047 1.27 264 15:23 17.01.2022
5818 Clouds 15 1019 61 10000 1.27 264 14:57 17.01.2022
5819 Clouds 15 1019 82 9656 0 0 13:27 17.01.2022
5820 Clouds 15 1017 59 10000 1.5 261 12:56 17.01.2022
5821 Clouds 15 1017 60 10000 1.7 238 11:49 17.01.2022
5822 Clouds 16 1017 55 10000 0.89 260 10:25 17.01.2022
5823 Clouds 16 1017 55 10000 0.89 260 10:25 17.01.2022
5824 Clouds 15 1018 56 10000 0.45 265 09:34 17.01.2022
5825 Clouds 17 1019 50 10000 1.34 257 07:43 17.01.2022
5826 Clouds 17 1019 50 10000 1.34 257 07:18 17.01.2022
5827 Clouds 21 1020 37 10000 2.24 30 00:56 17.01.2022
5828 Sand 21 1022 46 9656 7.72 20 22:30 16.01.2022
5829 Sand 21 1023 46 9656 7.72 350 20:36 16.01.2022
5830 Clouds 22 1022 29 10000 8.94 9 18:52 16.01.2022
5831 Clouds 22 1023 33 10000 8.94 346 17:59 16.01.2022
5832 Sand 20 1024 49 8047 7.72 20 17:21 16.01.2022
5833 Clouds 20 1024 49 9656 5.14 360 16:38 16.01.2022
5834 Clouds 20 1022 45 8047 10.29 360 14:31 16.01.2022
5835 Sand 20 1022 49 8047 7.72 350 13:49 16.01.2022
5836 Clouds 21 1019 35 10000 9.83 339 12:48 16.01.2022
5837 Clouds 21 1019 38 10000 10.73 10 11:42 16.01.2022
5838 Clouds 21 1019 38 10000 12.52 340 10:54 16.01.2022
5839 Clouds 21 1019 39 10000 10.28 355 10:19 16.01.2022
5840 Clouds 21 1018 39 10000 12.07 340 09:40 16.01.2022
5841 Clouds 21 1018 41 10000 9.83 360 09:22 16.01.2022
5842 Clouds 22 1018 43 10000 12.96 355 07:30 16.01.2022
5843 Sand 24 1011 78 8047 15.43 360 00:38 16.01.2022
5844 Clear 26 1009 60 10000 11.62 13 23:40 15.01.2022
5845 Clear 28 1011 65 8047 7.72 360 21:23 15.01.2022
5846 Clear 27 1009 56 10000 5.36 41 20:56 15.01.2022
5847 Clear 29 1011 58 8047 2.57 30 20:38 15.01.2022
5848 Clear 26 1012 69 8047 1.54 230 19:28 15.01.2022
5849 Haze 25 1012 78 6437 4.12 220 18:31 15.01.2022
5850 Clear 23 1010 67 10000 2.24 198 16:52 15.01.2022
5851 Mist 19 1011 100 3219 0 0 15:39 15.01.2022
5852 Clouds 19 1011 100 8047 0 0 13:39 15.01.2022
5853 Clear 20 1008 75 10000 0.89 202 11:46 15.01.2022
5854 Clear 20 1008 75 10000 0.89 202 11:46 15.01.2022
5855 Clear 20 1009 75 10000 3.79 194 10:24 15.01.2022
5856 Clear 20 1014 100 10000 2.06 150 05:27 15.01.2022
5857 Clouds 25 1012 56 10000 2.68 107 23:44 14.01.2022
5858 Clouds 26 1016 65 10000 2.57 110 21:29 14.01.2022
5859 Clouds 26 1017 65 10000 3.09 90 20:37 14.01.2022
5860 Clouds 26 1015 54 10000 2.68 92 19:57 14.01.2022
5861 Clouds 24 1019 73 10000 0 0 18:43 14.01.2022
5862 Clouds 25 1017 59 10000 0.86 4 17:53 14.01.2022
5863 Clouds 23 1018 60 10000 0.89 269 16:47 14.01.2022
5864 Mist 19 1019 94 8047 0 0 15:33 14.01.2022
5865 Clouds 19 1018 94 9656 0 0 14:29 14.01.2022
5866 Clouds 20 1018 88 10000 0 0 12:59 14.01.2022
5867 Clouds 20 1016 68 10000 2.67 333 11:59 14.01.2022
5868 Clouds 20 1016 67 10000 2.76 326 10:40 14.01.2022
5869 Clouds 21 1017 66 10000 3.5 337 08:53 14.01.2022
5870 Clouds 21 1018 67 10000 0.89 280 07:35 14.01.2022
5871 Clouds 22 1020 88 10000 7.2 40 02:28 14.01.2022
5872 Clouds 22 1019 83 10000 9.26 30 00:33 14.01.2022
5873 Clouds 23 1017 67 10000 5.81 17 21:52 13.01.2022
5874 Drizzle 23 1020 83 8047 5.14 360 21:29 13.01.2022
5875 Clouds 23 1019 65 10000 6.26 355 19:58 13.01.2022
5876 Clouds 25 1021 69 9656 8.75 150 19:29 13.01.2022
5877 Mist 24 1022 78 8047 2.57 360 18:49 13.01.2022
5878 Clouds 22 1020 68 10000 0.45 280 16:57 13.01.2022
5879 Clouds 22 1020 74 10000 1.34 263 15:45 13.01.2022
5880 Drizzle 21 1021 94 4023 0 0 15:26 13.01.2022
5881 Drizzle 21 1021 94 4828 1.03 360 13:29 13.01.2022
5882 Clouds 21 1018 71 10000 0.87 327 11:18 13.01.2022
5883 Clouds 21 1019 69 10000 1.27 276 09:24 13.01.2022
5884 Clouds 22 1019 69 10000 1.85 272 08:29 13.01.2022
5885 Clouds 22 1020 67 10000 1.85 272 07:59 13.01.2022
5886 Clouds 22 1022 88 10000 2.41 284 07:20 13.01.2022
5887 Clouds 22 1022 88 10000 1.34 339 05:21 13.01.2022
5888 Clear 23 1020 65 10000 2.24 311 04:55 13.01.2022
5889 Clouds 23 1020 78 10000 2.24 340 01:39 13.01.2022
5890 Clear 25 1018 58 10000 3.13 17 23:54 12.01.2022
5891 Clouds 25 1020 65 10000 3.58 15 23:34 12.01.2022
5892 Clear 25 1020 61 10000 2.68 37 22:32 12.01.2022
5893 Clouds 25 1021 61 10000 4.02 53 21:43 12.01.2022
5894 Clouds 25 1021 61 10000 3.13 22 21:19 12.01.2022
5895 Clear 25 1019 51 10000 2.68 29 20:47 12.01.2022
5896 Clouds 25 1021 54 10000 0.45 341 18:52 12.01.2022
5897 Clouds 23 1024 68 9656 0.45 254 18:25 12.01.2022
5898 Clouds 23 1022 58 10000 0.89 351 16:57 12.01.2022
5899 Clouds 18 1024 94 9656 1.34 258 15:38 12.01.2022
5900 Clouds 18 1023 94 8047 2.33 349 14:39 12.01.2022
5901 Clouds 18 1020 68 10000 1.37 317 12:57 12.01.2022
5902 Clouds 19 1021 68 10000 0.45 311 09:57 12.01.2022
5903 Clouds 20 1022 65 10000 0.89 284 07:58 12.01.2022
5904 Clouds 20 1022 65 10000 1.34 300 07:33 12.01.2022
5905 Clouds 21 1023 78 10000 5.66 40 02:38 12.01.2022
5906 Clouds 22 1023 73 10000 6.69 360 23:27 11.01.2022
5907 Clouds 23 1023 64 10000 6.17 30 22:39 11.01.2022
5908 Clouds 23 1023 64 10000 6.17 30 22:18 11.01.2022
5909 Clouds 25 1023 51 10000 4.02 344 20:40 11.01.2022
5910 Clouds 24 1026 64 10000 4.12 100 19:35 11.01.2022
5911 Clouds 23 1025 56 10000 4.02 5 17:55 11.01.2022
5912 Clouds 20 1027 77 10000 6.17 360 16:46 11.01.2022
5913 Clouds 20 1027 77 10000 6.17 360 16:28 11.01.2022
5914 Clouds 20 1025 61 10000 5.81 342 14:53 11.01.2022
5915 Clouds 19 1025 82 10000 6.17 360 14:34 11.01.2022
5916 Clouds 20 1025 77 10000 6.17 50 13:52 11.01.2022
5917 Clouds 20 1025 77 10000 6.17 50 13:28 11.01.2022
5918 Clouds 20 1023 61 10000 5.36 360 12:36 11.01.2022
5919 Clouds 21 1022 61 10000 5.81 360 10:40 11.01.2022
5920 Clouds 22 1023 54 10000 8.94 350 08:26 11.01.2022
5921 Clouds 20 1025 83 10000 3.09 350 04:28 11.01.2022
5922 Mist 20 1024 100 8047 8.23 360 00:27 11.01.2022
5923 Mist 20 1024 94 4828 7.72 10 23:39 10.01.2022
5924 Mist 21 1024 100 3219 7.72 360 22:42 10.01.2022
5925 Mist 21 1024 100 3219 7.72 360 22:18 10.01.2022
5926 Clouds 22 1024 88 8047 5.14 10 21:36 10.01.2022
5927 Clouds 22 1024 88 8047 5.14 10 21:18 10.01.2022
5928 Clouds 22 1022 68 10000 3.58 360 20:54 10.01.2022
5929 Clouds 23 1024 88 10000 5.14 20 20:19 10.01.2022
5930 Haze 23 1024 88 4828 7.72 350 19:39 10.01.2022
5931 Haze 23 1024 88 4828 7.72 350 19:19 10.01.2022
5932 Clouds 23 1022 68 10000 4.02 9 18:46 10.01.2022
5933 Clouds 24 1024 94 6437 4.12 360 16:49 10.01.2022
5934 Clouds 24 1024 94 8047 5.14 10 16:27 10.01.2022
5935 Clouds 24 1019 72 10000 4.92 360 14:44 10.01.2022
5936 Clouds 22 1021 94 9656 1.03 350 13:35 10.01.2022
5937 Clouds 22 1018 73 10000 0.89 323 11:57 10.01.2022
5938 Clouds 22 1018 73 10000 1.34 315 10:50 10.01.2022
5939 Clouds 23 1018 73 10000 1.34 331 09:40 10.01.2022
5940 Clouds 24 1019 70 10000 1.34 320 05:52 10.01.2022
5941 Clouds 25 1018 83 10000 2.57 360 02:38 10.01.2022
5942 Clouds 25 1017 83 10000 3.6 140 01:21 10.01.2022
5943 Clouds 26 1017 73 10000 5.14 90 00:21 10.01.2022
5944 Clouds 28 1014 57 10000 4.47 82 22:47 09.01.2022
5945 Clouds 28 1016 69 10000 4.12 100 22:21 09.01.2022
5946 Clouds 28 1017 69 10000 3.09 90 21:41 09.01.2022
5947 Clouds 28 1017 69 10000 3.09 90 21:22 09.01.2022
5948 Smoke 29 1017 61 10000 5.66 100 20:47 09.01.2022
5949 Smoke 29 1017 61 10000 5.66 100 20:28 09.01.2022
5950 Clouds 29 1018 61 10000 2.06 360 19:41 09.01.2022
5951 Clouds 29 1018 61 10000 2.06 360 19:21 09.01.2022
5952 Clouds 28 1019 69 8047 0 0 18:41 09.01.2022
5953 Clouds 28 1019 69 8047 0 0 18:23 09.01.2022
5954 Clouds 27 1019 69 9656 0 0 17:30 09.01.2022
5955 Mist 25 1019 83 8047 0 0 16:50 09.01.2022
5956 Clouds 25 1017 67 10000 0.45 265 15:52 09.01.2022
5957 Mist 22 1018 100 8047 0 0 15:33 09.01.2022
5958 Mist 22 1018 100 10000 0 0 14:39 09.01.2022
5959 Clouds 22 1017 94 10000 0 0 13:49 09.01.2022
5960 Clouds 23 1015 75 10000 0.89 247 12:26 09.01.2022
5961 Clouds 23 1014 75 10000 1.52 246 11:46 09.01.2022
5962 Clouds 22 1015 74 10000 0.45 226 09:55 09.01.2022
5963 Clouds 22 1015 72 10000 2.32 258 09:29 09.01.2022
5964 Clouds 22 1016 71 10000 1.23 270 08:25 09.01.2022
5965 Clear 25 1013 65 10000 3.13 89 01:43 09.01.2022
5966 Clouds 25 1015 83 10000 2.68 83 01:19 09.01.2022
5967 Clear 28 1014 65 10000 3.58 86 23:38 08.01.2022
5968 Clear 28 1013 55 10000 4.47 99 22:58 08.01.2022
5969 Clouds 29 1015 61 10000 3.58 111 21:32 08.01.2022
5970 Clear 30 1013 47 10000 4.02 115 20:44 08.01.2022
5971 Clouds 31 1017 55 10000 0.45 184 20:23 08.01.2022
5972 Clear 29 1014 50 10000 0.45 184 19:55 08.01.2022
5973 Clear 28 1016 56 10000 0.45 165 17:49 08.01.2022
5974 Clear 26 1018 78 8047 0.45 37 16:57 08.01.2022
5975 Mist 21 1017 94 6437 0.89 272 15:37 08.01.2022
5976 Mist 20 1016 100 6437 1.75 205 14:40 08.01.2022
5977 Clouds 21 1014 75 10000 1.97 220 12:36 08.01.2022
5978 Clouds 22 1014 75 10000 0.89 248 10:49 08.01.2022
5979 Clouds 22 1014 75 10000 0.89 248 10:24 08.01.2022
5980 Clouds 22 1014 74 10000 0.89 189 09:34 08.01.2022
5981 Clouds 23 1015 73 10000 0.89 277 07:18 08.01.2022
5982 Clouds 25 1014 62 10000 1.79 49 01:52 08.01.2022
5983 Clouds 26 1015 78 10000 3.09 80 00:40 08.01.2022
5984 Clouds 28 1015 65 10000 3.6 70 22:40 07.01.2022
5985 Clouds 28 1014 50 10000 2.24 25 20:56 07.01.2022
5986 Clouds 28 1015 51 10000 1.34 53 19:56 07.01.2022
5987 Clouds 27 1015 54 10000 1.79 338 18:53 07.01.2022
5988 Mist 26 1018 78 4828 1.54 360 18:34 07.01.2022
5989 Mist 24 1018 83 4828 0 0 17:25 07.01.2022
5990 Mist 23 1018 88 4828 0 0 16:23 07.01.2022
5991 Haze 21 1016 94 6437 0 0 13:53 07.01.2022
5992 Haze 21 1016 94 6437 0 0 13:19 07.01.2022
5993 Clouds 21 1013 73 10000 2 303 12:48 07.01.2022
5994 Clouds 22 1013 67 10000 1.03 315 09:21 07.01.2022
5995 Clouds 25 1011 59 10000 1.34 30 02:54 07.01.2022
5996 Clouds 25 1011 57 10000 2.24 57 01:53 07.01.2022
5997 Clouds 25 1012 73 9656 3.09 80 01:27 07.01.2022
5998 Clear 26 1010 53 10000 2.68 46 00:57 07.01.2022
5999 Clear 27 1008 47 10000 3.58 98 22:46 06.01.2022
6000 Clouds 27 1011 61 8047 1.54 180 21:23 06.01.2022
6001 Clouds 26 1012 65 8047 0 0 20:20 06.01.2022
6002 Clouds 27 1013 61 8047 0 0 19:41 06.01.2022
6003 Clear 26 1011 50 10000 1.34 121 17:53 06.01.2022
6004 Clouds 25 1014 69 9656 1.54 200 17:34 06.01.2022
6005 Mist 23 1013 83 6437 0 0 16:40 06.01.2022
6006 Clear 22 1011 69 10000 2.69 217 15:45 06.01.2022
6007 Mist 20 1013 94 6437 0 0 15:24 06.01.2022
6008 Mist 19 1012 100 6437 0 0 14:43 06.01.2022
6009 Mist 19 1012 100 6437 0 0 14:18 06.01.2022
6010 Clouds 20 1010 74 10000 0.89 245 12:43 06.01.2022
6011 Clouds 19 1009 73 10000 0.45 212 11:42 06.01.2022
6012 Clouds 19 1009 73 10000 0.45 212 11:42 06.01.2022
6013 Clouds 20 1009 73 10000 1.43 223 11:22 06.01.2022
6014 Clouds 20 1010 74 10000 2.23 236 08:51 06.01.2022
6015 Clouds 24 1011 73 10000 1.54 130 00:43 06.01.2022
6016 Clouds 26 1011 57 10000 2.06 150 23:37 05.01.2022
6017 Clouds 26 1009 48 10000 4.02 124 22:56 05.01.2022
6018 Clouds 27 1011 57 10000 3.09 130 22:31 05.01.2022
6019 Clouds 25 1010 66 10000 4.41 89 21:47 05.01.2022
6020 Clouds 25 1011 64 10000 4.29 95 20:50 05.01.2022
6021 Clouds 25 1012 64 10000 3.51 105 19:59 05.01.2022
6022 Clouds 26 1016 65 10000 3.09 210 18:38 05.01.2022
6023 Mist 24 1016 69 10000 0 0 17:23 05.01.2022
6024 Haze 21 1016 78 10000 0 0 16:38 05.01.2022
6025 Mist 17 1016 94 10000 0 0 15:21 05.01.2022
6026 Clear 16 1015 94 10000 0 0 13:51 05.01.2022
6027 Clouds 16 1013 72 10000 2.05 241 12:51 05.01.2022
6028 Clouds 20 1014 86 10000 2.44 218 10:32 05.01.2022
6029 Clouds 21 1017 83 10000 2.37 240 07:45 05.01.2022
6030 Mist 18 1019 94 9656 0.45 271 06:24 05.01.2022
6031 Clear 22 1016 53 10000 1.79 89 00:58 05.01.2022
6032 Clear 24 1017 57 10000 4.02 108 23:27 04.01.2022
6033 Smoke 25 1018 50 10000 4.02 88 22:42 04.01.2022
6034 Clear 26 1018 47 10000 4.92 80 21:21 04.01.2022
6035 Clear 25 1021 50 10000 1.79 163 19:20 04.01.2022
6036 Clear 22 1021 39 10000 0.89 253 17:44 04.01.2022
6037 Clear 21 1022 42 10000 1.34 267 16:43 04.01.2022
6038 Clear 18 1024 72 9656 1.34 246 16:23 04.01.2022
6039 Clouds 15 1022 59 10000 2.13 308 14:54 04.01.2022
6040 Clear 13 1024 82 9656 2.13 308 14:34 04.01.2022
6041 Clouds 12 1023 82 9656 2.81 322 13:27 04.01.2022
6042 Clouds 15 1022 56 10000 3.79 330 10:41 04.01.2022
6043 Clouds 15 1023 58 10000 3.21 319 09:20 04.01.2022
6044 Clouds 16 1023 53 10000 3.73 320 08:28 04.01.2022
6045 Clouds 19 1026 63 10000 4.12 320 02:28 04.01.2022
6046 Sand 20 1026 56 10000 7.72 30 00:40 04.01.2022
6047 Sand 20 1026 56 10000 7.72 20 23:19 03.01.2022
6048 Clouds 22 1024 35 10000 8.94 349 21:52 03.01.2022
6049 Sand 21 1027 52 9656 6.17 360 21:32 03.01.2022
6050 Clouds 22 1026 33 10000 8.94 351 19:56 03.01.2022
6051 Clouds 20 1028 57 10000 9.9 349 18:48 03.01.2022
6052 Sand 21 1029 52 8047 5.14 350 18:27 03.01.2022
6053 Clouds 21 1028 38 10000 8.05 348 16:58 03.01.2022
6054 Clouds 20 1027 41 10000 8.49 345 14:56 03.01.2022
6055 Clouds 19 1027 55 10000 5.14 360 14:30 03.01.2022
6056 Clouds 20 1025 42 10000 9.39 346 12:39 03.01.2022
6057 Clouds 20 1024 42 10000 10.28 350 11:35 03.01.2022
6058 Clouds 20 1024 44 10000 10.28 351 10:26 03.01.2022
6059 Clouds 20 1024 45 10000 10.73 355 08:47 03.01.2022
6060 Clouds 20 1024 48 10000 12.52 355 07:34 03.01.2022
6061 Clear 25 1015 44 10000 15.2 360 23:55 02.01.2022
6062 Sand 25 1015 65 4828 15.43 340 23:21 02.01.2022
6063 Clear 26 1014 48 10000 16.54 355 22:53 02.01.2022
6064 Sand 28 1013 69 4828 10.29 360 21:39 02.01.2022
6065 Clear 32 1013 51 10000 5.14 30 20:33 02.01.2022
6066 Clear 31 1011 50 10000 4.02 46 19:54 02.01.2022
6067 Clear 29 1013 61 10000 2.06 120 19:29 02.01.2022
6068 Clear 28 1014 69 10000 2.57 180 18:39 02.01.2022
6069 Clear 28 1014 69 10000 2.57 180 18:39 02.01.2022
6070 Clear 25 1013 78 10000 3.09 180 17:43 02.01.2022
6071 Clear 25 1013 78 10000 3.09 180 17:22 02.01.2022
6072 Clear 25 1011 68 10000 2.68 175 16:59 02.01.2022
6073 Clear 22 1012 94 9656 3.09 180 16:24 02.01.2022
6074 Clear 20 1010 94 10000 3.09 180 14:21 02.01.2022
6075 Clear 20 1007 76 10000 1.79 218 12:39 02.01.2022
6076 Clear 20 1007 76 10000 0.89 212 11:57 02.01.2022
6077 Clear 20 1007 76 10000 0.89 213 11:20 02.01.2022
6078 Clear 20 1007 75 10000 4.51 182 10:44 02.01.2022
6079 Clear 21 1007 76 10000 4.85 175 08:42 02.01.2022
6080 Clear 25 1009 94 10000 0 0 03:25 02.01.2022
6081 Clear 31 1005 48 10000 1.34 189 23:58 01.01.2022
6082 Clear 32 1007 51 10000 3.09 220 23:39 01.01.2022
6083 Clear 32 1007 55 10000 1.03 190 22:45 01.01.2022
6084 Clear 32 1007 55 10000 1.03 190 22:19 01.01.2022
6085 Clear 31 1008 58 10000 2.57 190 21:43 01.01.2022
6086 Clear 30 1006 54 10000 2.24 172 20:52 01.01.2022
6087 Clear 28 1007 61 10000 1.34 198 19:55 01.01.2022
6088 Mist 25 1011 83 3219 1.03 250 18:58 01.01.2022
6089 Mist 22 1012 100 1609 1.54 200 17:56 01.01.2022
6090 Fog 22 1012 94 101 1.54 230 16:35 01.01.2022
6091 Clear 22 1009 76 10000 1.79 188 15:57 01.01.2022
6092 Clear 21 1008 76 10000 1.34 167 14:57 01.01.2022
6093 Clear 20 1010 100 10000 0 0 13:42 01.01.2022
6094 Clear 21 1008 75 10000 4.49 184 12:49 01.01.2022
6095 Clear 21 1007 74 10000 0.45 196 11:47 01.01.2022
6096 Clear 21 1007 71 10000 0.45 182 11:20 01.01.2022
6097 Clear 23 1007 71 10000 1.79 198 09:49 01.01.2022
6098 Clear 23 1008 72 10000 0.89 182 09:21 01.01.2022
6099 Clear 24 1008 75 10000 1.34 181 08:24 01.01.2022
6100 Clear 25 1008 76 10000 0.89 164 07:41 01.01.2022
6101 Clear 25 1009 75 10000 2.68 175 06:45 01.01.2022
6102 Mist 24 1011 94 8047 0.89 249 05:26 01.01.2022
6103 Mist 24 1010 100 9656 0.45 155 04:37 01.01.2022
6104 Clear 28 1008 69 10000 2.24 101 00:41 01.01.2022
6105 Clear 30 1006 50 10000 4.02 75 22:59 31.12.2021
6106 Clear 31 1007 46 10000 4.47 96 21:52 31.12.2021
6107 Clear 30 1011 58 9656 2.68 124 20:32 31.12.2021
6108 Clear 29 1012 65 9656 2.24 47 19:29 31.12.2021
6109 Clear 28 1014 65 8047 3.61 150 18:30 31.12.2021
6110 Clear 27 1014 74 8047 1.79 122 17:37 31.12.2021
6111 Clear 27 1014 74 8047 1.79 122 17:18 31.12.2021
6112 Mist 22 1013 94 6437 0.89 227 16:21 31.12.2021
6113 Clear 23 1011 72 10000 0.45 9 15:53 31.12.2021
6114 Mist 19 1013 100 4828 3.22 205 15:28 31.12.2021
6115 Mist 19 1013 100 4828 3.22 205 15:28 31.12.2021
6116 Mist 19 1012 100 1609 3.22 205 14:43 31.12.2021
6117 Mist 19 1012 100 1609 2.99 207 14:18 31.12.2021
6118 Fog 19 1011 100 201 2.99 207 13:36 31.12.2021
6119 Clear 20 1009 76 10000 2.8 204 12:44 31.12.2021
6120 Clear 21 1009 76 10000 2.65 208 11:43 31.12.2021
6121 Clear 21 1009 76 10000 2.29 208 11:20 31.12.2021
6122 Clear 21 1009 76 10000 2.29 208 10:32 31.12.2021
6123 Clear 22 1009 76 10000 1.86 214 09:35 31.12.2021
6124 Clear 21 1009 75 10000 1.56 220 08:56 31.12.2021
6125 Clear 22 1010 75 10000 1.5 212 08:25 31.12.2021
6126 Haze 22 1012 94 6437 0 0 07:30 31.12.2021
6127 Clear 30 1009 62 10000 4.63 110 23:23 30.12.2021
6128 Clear 30 1009 62 10000 4.63 80 22:33 30.12.2021
6129 Clear 31 1007 47 10000 3.13 111 21:51 30.12.2021
6130 Clear 31 1009 58 10000 4.63 80 21:33 30.12.2021
6131 Clear 31 1007 44 10000 3.13 98 20:44 30.12.2021
6132 Clear 31 1010 51 10000 3.09 180 20:24 30.12.2021
6133 Clear 31 1008 43 10000 0.89 184 19:43 30.12.2021
6134 Clear 26 1012 73 10000 0 0 18:29 30.12.2021
6135 Clear 26 1010 52 10000 1.79 177 17:45 30.12.2021
6136 Clear 22 1010 65 10000 1.34 210 15:58 30.12.2021
6137 Clear 22 1010 65 10000 1.34 210 15:39 30.12.2021
6138 Haze 18 1011 100 9656 0 0 14:37 30.12.2021
6139 Haze 19 1014 94 9656 2.06 270 13:33 30.12.2021
6140 Clear 19 1008 70 10000 4.37 180 12:29 30.12.2021
6141 Clear 20 1008 70 10000 3.83 184 10:50 30.12.2021
6142 Clear 20 1008 72 10000 3.55 189 09:55 30.12.2021
6143 Clear 21 1008 69 10000 3.53 184 08:49 30.12.2021
6144 Clear 22 1009 72 10000 2.68 208 06:52 30.12.2021
6145 Clear 26 1008 54 10000 0.45 142 03:41 30.12.2021
6146 Clear 26 1008 73 10000 0 0 02:42 30.12.2021
6147 Clear 34 1006 40 10000 3.09 170 23:42 29.12.2021
6148 Clear 34 1006 40 10000 3.09 170 23:22 29.12.2021
6149 Clear 34 1006 40 10000 0 0 22:19 29.12.2021
6150 Clear 33 1005 31 10000 1.34 150 21:27 29.12.2021
6151 Clear 32 1008 51 10000 2.06 140 20:38 29.12.2021
6152 Clear 31 1006 40 10000 2.24 136 19:48 29.12.2021
6153 Clear 29 1007 46 10000 2.68 188 18:47 29.12.2021
6154 Clear 27 1008 51 10000 4.02 218 17:56 29.12.2021
6155 Clear 25 1010 73 9656 3.09 170 17:27 29.12.2021
6156 Clear 22 1010 83 8047 2.06 180 16:24 29.12.2021
6157 Clear 23 1008 60 10000 3.58 229 15:48 29.12.2021
6158 Clear 17 1008 100 9656 2.57 190 14:19 29.12.2021
6159 Clear 19 1005 66 10000 1.79 198 12:37 29.12.2021
6160 Clear 19 1005 64 10000 1.34 204 11:35 29.12.2021
6161 Clear 20 1005 64 10000 0.89 207 09:59 29.12.2021
6162 Clear 21 1005 61 10000 0.89 208 07:52 29.12.2021
6163 Clear 23 1008 78 10000 1.03 220 06:39 29.12.2021
6164 Clear 23 1008 78 10000 1.03 220 06:18 29.12.2021
6165 Clear 24 1008 78 10000 1.03 170 05:36 29.12.2021
6166 Clear 24 1006 88 10000 0 0 02:46 29.12.2021
6167 Clear 31 1005 55 10000 0 0 00:23 29.12.2021
6168 Clear 31 1004 51 10000 1.54 170 23:34 28.12.2021
6169 Clear 31 1005 55 10000 1.54 220 22:42 28.12.2021
6170 Clear 31 1005 55 10000 1.54 220 22:24 28.12.2021
6171 Clear 29 1005 58 10000 4.12 180 21:37 28.12.2021
6172 Clear 28 1006 61 10000 3.6 190 20:39 28.12.2021
6173 Mist 26 1015 73 4828 0 0 19:25 28.12.2021
6174 Mist 26 1008 73 2414 2.06 220 18:39 28.12.2021
6175 Mist 22 1009 88 1609 3.6 200 17:59 28.12.2021
6176 Fog 20 1009 100 402 3.6 200 16:34 28.12.2021
6177 Fog 21 1009 94 805 2.06 200 15:50 28.12.2021
6178 Mist 21 1009 94 2414 1.03 190 15:21 28.12.2021
6179 Mist 21 1008 94 2414 0 0 14:48 28.12.2021
6180 Mist 20 1008 100 1609 2.57 190 14:21 28.12.2021
6181 Fog 20 1008 100 10000 0 0 13:42 28.12.2021
6182 Fog 20 1008 100 10000 0 0 13:42 28.12.2021
6183 Fog 20 1008 100 10000 0 0 13:24 28.12.2021
6184 Clear 21 1006 77 10000 1.34 244 12:49 28.12.2021
6185 Clear 21 1006 77 10000 2.24 239 11:35 28.12.2021
6186 Clear 20 1008 76 10000 0.89 254 08:30 28.12.2021
6187 Clear 20 1009 76 10000 2.87 183 06:41 28.12.2021
6188 Clear 26 1008 60 10000 2.68 100 23:43 27.12.2021
6189 Clear 27 1008 57 10000 3.58 105 22:59 27.12.2021
6190 Clouds 28 1011 61 10000 3.13 76 21:38 27.12.2021
6191 Clouds 28 1011 61 10000 2.68 118 21:20 27.12.2021
6192 Clear 28 1010 52 10000 2.24 136 19:58 27.12.2021
6193 Clear 27 1013 61 9656 1.03 200 19:39 27.12.2021
6194 Clear 26 1015 69 8047 0 0 18:23 27.12.2021
6195 Clear 26 1013 58 10000 1.79 186 17:46 27.12.2021
6196 Mist 21 1015 94 4828 0 0 16:40 27.12.2021
6197 Clear 21 1013 74 10000 1.34 256 15:52 27.12.2021
6198 Mist 18 1014 100 4828 0 0 14:32 27.12.2021
6199 Mist 18 1014 100 8047 0 0 13:39 27.12.2021
6200 Clear 18 1012 76 10000 0.45 218 12:19 27.12.2021
6201 Clear 20 1012 76 10000 0.89 210 10:31 27.12.2021
6202 Clear 20 1012 76 10000 1.34 220 09:47 27.12.2021
6203 Clear 20 1013 76 10000 1.97 200 07:38 27.12.2021
6204 Clear 20 1013 75 10000 1.67 182 07:20 27.12.2021
6205 Clear 23 1014 88 10000 0 0 02:19 27.12.2021
6206 Clear 26 1012 54 10000 3.13 111 23:58 26.12.2021
6207 Clear 28 1013 61 10000 1.54 140 23:36 26.12.2021
6208 Clear 29 1014 51 10000 3.09 130 22:23 26.12.2021
6209 Clear 29 1012 39 10000 2.24 110 20:54 26.12.2021
6210 Haze 28 1017 54 8047 2.06 180 19:47 26.12.2021
6211 Haze 26 1018 65 8047 0 0 18:24 26.12.2021
6212 Clear 24 1016 61 10000 0.89 263 16:55 26.12.2021
6213 Mist 18 1017 94 4828 0 0 14:28 26.12.2021
6214 Haze 18 1016 94 8047 0 0 13:40 26.12.2021
6215 Clear 18 1014 74 10000 1.95 266 13:19 26.12.2021
6216 Clear 18 1014 73 10000 1.96 265 12:33 26.12.2021
6217 Clear 18 1013 73 10000 2.17 258 10:34 26.12.2021
6218 Clear 19 1013 73 10000 0.89 285 09:21 26.12.2021
6219 Clear 20 1014 72 10000 1.45 248 08:44 26.12.2021
6220 Clear 20 1014 74 10000 1.34 286 07:58 26.12.2021
6221 Clear 24 1014 73 10000 4.12 90 01:29 26.12.2021
6222 Clear 26 1011 55 10000 2.68 90 23:56 25.12.2021
6223 Clear 26 1012 65 10000 3.09 130 23:27 25.12.2021
6224 Clear 27 1012 57 10000 3.09 130 22:26 25.12.2021
6225 Clear 28 1011 44 10000 2.24 184 20:59 25.12.2021
6226 Clouds 27 1016 57 10000 2.57 160 19:26 25.12.2021
6227 Clear 26 1014 51 10000 2.68 173 18:55 25.12.2021
6228 Clear 24 1017 73 8047 5.14 200 17:37 25.12.2021
6229 Mist 20 1017 88 6437 0 0 16:36 25.12.2021
6230 Mist 16 1017 100 6437 0 0 15:18 25.12.2021
6231 Clear 14 1016 100 9656 0 0 13:30 25.12.2021
6232 Clear 16 1013 75 10000 2.88 200 11:51 25.12.2021
6233 Clear 17 1013 72 10000 3 198 09:54 25.12.2021
6234 Clear 18 1013 72 10000 3 198 09:34 25.12.2021
6235 Clear 22 1017 78 10000 1.03 170 04:34 25.12.2021
6236 Clear 23 1015 73 10000 1.03 160 01:25 25.12.2021
6237 Clear 26 1014 61 10000 2.57 170 23:42 24.12.2021
6238 Clouds 26 1017 61 10000 3.6 220 19:46 24.12.2021
6239 Clouds 26 1017 61 10000 3.6 220 19:23 24.12.2021
6240 Clear 23 1017 62 10000 2.68 203 16:57 24.12.2021
6241 Mist 22 1019 78 10000 4.12 220 16:22 24.12.2021
6242 Clear 22 1017 66 10000 3.13 183 15:48 24.12.2021
6243 Mist 18 1017 100 10000 0 0 14:47 24.12.2021
6244 Mist 18 1017 100 10000 0 0 14:26 24.12.2021
6245 Clouds 18 1017 100 10000 0 0 13:41 24.12.2021
6246 Clear 19 1015 74 10000 0.89 204 12:49 24.12.2021
6247 Clear 19 1015 74 10000 0.89 175 12:20 24.12.2021
6248 Clear 19 1015 74 10000 0.89 213 11:29 24.12.2021
6249 Clear 20 1015 74 10000 0.45 216 10:59 24.12.2021
6250 Clear 20 1015 74 10000 0.45 216 10:28 24.12.2021
6251 Clear 19 1016 73 10000 1.86 145 08:26 24.12.2021
6252 Clear 20 1016 72 10000 1.86 145 07:50 24.12.2021
6253 Clear 20 1019 94 9656 1.45 146 06:18 24.12.2021
6254 Clouds 25 1018 65 10000 3.13 84 00:19 24.12.2021
6255 Clouds 26 1018 61 10000 4.47 87 23:23 23.12.2021
6256 Clouds 26 1018 61 10000 4.47 87 23:23 23.12.2021
6257 Clouds 27 1018 65 10000 4.02 105 22:40 23.12.2021
6258 Clouds 27 1018 65 10000 3.58 103 22:20 23.12.2021
6259 Clouds 28 1018 51 10000 4.02 73 21:34 23.12.2021
6260 Clouds 28 1019 54 10000 1.34 88 20:21 23.12.2021
6261 Clouds 28 1020 54 10000 0.89 176 19:27 23.12.2021
6262 Clouds 25 1019 62 10000 2.24 199 17:57 23.12.2021
6263 Clouds 25 1020 64 10000 1.79 179 16:58 23.12.2021
6264 Clouds 22 1021 88 9656 0.89 213 16:26 23.12.2021
6265 Clouds 19 1020 94 9656 0.45 214 15:32 23.12.2021
6266 Clouds 20 1018 75 10000 2.34 98 14:55 23.12.2021
6267 Clouds 18 1019 100 9656 2.34 98 14:37 23.12.2021
6268 Clouds 19 1018 94 9656 2.48 93 13:22 23.12.2021
6269 Clouds 21 1016 73 10000 2.26 92 10:54 23.12.2021
6270 Clouds 21 1016 73 10000 2.12 105 09:49 23.12.2021
6271 Clouds 21 1016 73 10000 0.45 253 09:26 23.12.2021
6272 Clouds 21 1017 73 10000 0.89 196 08:25 23.12.2021
6273 Clouds 21 1019 88 10000 0 0 04:36 23.12.2021
6274 Clouds 26 1016 65 10000 3.6 100 23:33 22.12.2021
6275 Clouds 26 1015 58 10000 2.68 107 22:49 22.12.2021
6276 Clouds 26 1015 57 10000 4.47 78 21:57 22.12.2021
6277 Clouds 27 1017 61 10000 4.12 150 21:29 22.12.2021
6278 Clouds 27 1015 54 10000 3.58 97 20:51 22.12.2021
6279 Clouds 27 1018 61 10000 2.57 190 20:33 22.12.2021
6280 Smoke 26 1019 61 10000 1.54 130 19:35 22.12.2021
6281 Clouds 24 1020 69 10000 0 0 18:18 22.12.2021
6282 Clouds 22 1020 88 10000 0 0 17:35 22.12.2021
6283 Clouds 22 1018 71 10000 0.89 261 15:46 22.12.2021
6284 Haze 20 1019 94 9656 0 0 13:44 22.12.2021
6285 Clouds 21 1016 74 10000 0.45 222 12:41 22.12.2021
6286 Clouds 21 1016 73 10000 1.35 350 10:46 22.12.2021
6287 Clouds 22 1016 72 10000 1.34 216 09:40 22.12.2021
6288 Clouds 22 1020 83 10000 2.06 40 07:32 22.12.2021
6289 Clouds 23 1018 66 10000 1.79 53 05:50 22.12.2021
6290 Clouds 22 1020 83 10000 2.57 60 05:28 22.12.2021
6291 Clouds 23 1019 78 10000 3.09 20 04:52 22.12.2021
6292 Clouds 23 1019 78 10000 3.09 20 04:30 22.12.2021
6293 Clouds 23 1019 78 10000 5.14 360 03:33 22.12.2021
6294 Clouds 24 1016 60 10000 5.36 12 00:57 22.12.2021
6295 Clouds 24 1017 64 10000 6.69 40 23:32 21.12.2021
6296 Clouds 24 1017 64 10000 5.14 30 22:29 21.12.2021
6297 Clouds 25 1015 56 10000 4.47 355 21:44 21.12.2021
6298 Clouds 25 1018 61 10000 5.14 40 21:23 21.12.2021
6299 Clouds 24 1019 64 10000 3.09 360 20:22 21.12.2021
6300 Clouds 23 1020 73 10000 2.57 360 19:43 21.12.2021
6301 Clouds 24 1018 60 10000 1.79 13 18:48 21.12.2021
6302 Clouds 23 1020 73 10000 3.6 340 18:21 21.12.2021
6303 Clouds 22 1021 83 10000 3.09 330 17:42 21.12.2021
6304 Clouds 22 1020 78 10000 2.57 340 16:35 21.12.2021
6305 Clouds 20 1019 88 10000 1.54 320 15:25 21.12.2021
6306 Clouds 20 1016 72 10000 0.45 329 13:51 21.12.2021
6307 Clouds 20 1018 88 9656 2.06 360 13:31 21.12.2021
6308 Clouds 21 1016 70 10000 3.64 340 11:57 21.12.2021
6309 Clouds 21 1016 68 10000 2.38 336 10:25 21.12.2021
6310 Clouds 21 1016 67 10000 2.53 313 09:27 21.12.2021
6311 Clouds 21 1016 65 10000 2.89 301 07:59 21.12.2021
6312 Clouds 21 1017 64 10000 3.39 308 07:29 21.12.2021
6313 Clouds 21 1017 63 10000 0.89 269 06:50 21.12.2021
6314 Clouds 22 1018 73 10000 8.75 360 03:18 21.12.2021
6315 Clouds 23 1014 59 10000 7.6 355 23:59 20.12.2021
6316 Clouds 22 1016 73 10000 5.66 50 23:32 20.12.2021
6317 Clouds 23 1016 68 10000 6.69 350 22:30 20.12.2021
6318 Clouds 24 1014 58 10000 6.26 348 21:47 20.12.2021
6319 Clouds 24 1016 69 10000 3.09 350 21:23 20.12.2021
6320 Clouds 24 1017 64 10000 4.63 30 20:45 20.12.2021
6321 Clouds 24 1016 57 10000 6.71 341 19:53 20.12.2021
6322 Clouds 23 1018 73 10000 6.69 360 19:31 20.12.2021
6323 Clouds 23 1016 59 10000 7.15 28 18:54 20.12.2021
6324 Clouds 23 1017 60 10000 6.26 360 17:53 20.12.2021
6325 Clouds 22 1019 73 10000 7.72 50 17:25 20.12.2021
6326 Clouds 22 1019 73 10000 4.12 40 16:40 20.12.2021
6327 Mist 21 1018 83 10000 1.54 70 15:51 20.12.2021
6328 Clouds 21 1016 69 10000 1.34 302 14:51 20.12.2021
6329 Clouds 19 1015 72 10000 4.35 344 13:18 20.12.2021
6330 Clouds 23 1014 65 10000 2.68 347 11:19 20.12.2021
6331 Clouds 22 1015 65 10000 2.24 350 09:48 20.12.2021
6332 Clouds 22 1015 65 10000 3.13 14 09:29 20.12.2021
6333 Clouds 22 1015 66 10000 4.47 348 08:42 20.12.2021
6334 Clouds 21 1018 83 10000 5.81 22 07:50 20.12.2021
6335 Clouds 21 1018 83 10000 6.71 5 07:29 20.12.2021
6336 Clouds 23 1017 73 10000 8.49 355 04:24 20.12.2021
6337 Clouds 23 1015 77 10000 13.12 353 23:58 19.12.2021
6338 Clouds 26 1013 62 10000 10.73 22 22:45 19.12.2021
6339 Clouds 27 1014 69 9656 9.83 355 21:50 19.12.2021
6340 Clouds 28 1014 69 9656 10.73 337 21:29 19.12.2021
6341 Clouds 29 1015 65 9656 6.71 13 20:31 19.12.2021
6342 Clouds 30 1013 58 10000 6.26 31 19:49 19.12.2021
6343 Clouds 30 1014 57 10000 4.02 355 18:59 19.12.2021
6344 Clouds 28 1017 74 8047 1.79 325 18:29 19.12.2021
6345 Clouds 28 1015 63 10000 1.79 35 17:51 19.12.2021
6346 Clouds 27 1017 78 8047 2.68 36 17:18 19.12.2021
6347 Mist 25 1017 88 6437 0.89 279 16:26 19.12.2021
6348 Mist 22 1016 100 4828 1.34 271 15:31 19.12.2021
6349 Clouds 23 1014 76 10000 0.89 273 14:59 19.12.2021
6350 Mist 22 1015 100 4828 2.57 360 14:36 19.12.2021
6351 Mist 22 1014 100 8047 0 0 13:22 19.12.2021
6352 Clouds 22 1012 76 10000 2.89 303 12:33 19.12.2021
6353 Clouds 23 1011 75 10000 2.68 314 11:44 19.12.2021
6354 Clouds 23 1011 75 10000 2.66 330 10:58 19.12.2021
6355 Clouds 23 1011 76 10000 1.65 338 10:25 19.12.2021
6356 Clouds 24 1012 75 10000 2.1 317 09:26 19.12.2021
6357 Clouds 24 1012 74 10000 1.92 308 07:50 19.12.2021
6358 Haze 24 1014 94 8047 0 0 04:45 19.12.2021
6359 Clear 27 1009 66 10000 1.34 57 00:56 19.12.2021
6360 Clear 28 1010 69 10000 1.54 140 00:28 19.12.2021
6361 Clear 29 1010 65 10000 2.57 140 22:32 18.12.2021
6362 Clear 30 1008 56 10000 2.68 82 21:54 18.12.2021
6363 Clear 30 1008 56 10000 2.68 82 21:54 18.12.2021
6364 Clouds 30 1011 62 10000 1.54 120 21:34 18.12.2021
6365 Clear 30 1010 56 10000 0.89 146 20:44 18.12.2021
6366 Clear 30 1010 57 10000 1.79 94 19:51 18.12.2021
6367 Haze 29 1013 65 9656 0 0 19:19 18.12.2021
6368 Haze 29 1014 65 9656 0 0 18:19 18.12.2021
6369 Clear 28 1012 61 10000 1.34 71 17:47 18.12.2021
6370 Mist 25 1014 83 4828 0 0 16:25 18.12.2021
6371 Mist 21 1013 100 4828 0 0 15:26 18.12.2021
6372 Mist 21 1013 100 4828 0 0 14:32 18.12.2021
6373 Haze 21 1013 100 6437 0 0 13:18 18.12.2021
6374 Clear 22 1010 76 10000 2.71 217 11:21 18.12.2021
6375 Clouds 23 1013 94 8047 0 0 09:37 18.12.2021
6376 Clouds 22 1014 100 8047 0 0 08:43 18.12.2021
6377 Clouds 22 1014 100 8047 0 0 08:19 18.12.2021
6378 Clear 25 1011 71 10000 1.79 95 01:48 18.12.2021
6379 Clear 27 1012 74 10000 3.09 210 00:27 18.12.2021
6380 Clear 28 1012 69 10000 2.06 200 23:37 17.12.2021
6381 Clear 29 1010 55 10000 4.02 95 21:55 17.12.2021
6382 Clear 30 1011 56 10000 3.13 102 20:51 17.12.2021
6383 Clouds 29 1014 61 10000 0 0 20:31 17.12.2021
6384 Clear 29 1013 54 10000 1.34 134 18:58 17.12.2021
6385 Clouds 28 1016 61 10000 0 0 18:38 17.12.2021
6386 Clouds 27 1016 74 9656 0 0 17:26 17.12.2021
6387 Clear 26 1014 65 10000 1.34 174 16:44 17.12.2021
6388 Clear 25 1016 88 8047 0 0 16:19 17.12.2021
6389 Mist 22 1015 94 4828 0 0 15:19 17.12.2021
6390 Clear 22 1013 76 10000 1.02 237 14:34 17.12.2021
6391 Clear 21 1012 75 10000 0.78 202 12:45 17.12.2021
6392 Clear 21 1012 75 10000 0.63 220 11:22 17.12.2021
6393 Clear 22 1013 75 10000 0.91 218 09:55 17.12.2021
6394 Clear 22 1013 74 10000 1.03 166 08:58 17.12.2021
6395 Clear 23 1014 73 10000 0.73 182 08:19 17.12.2021
6396 Clouds 24 1016 88 10000 0 0 05:25 17.12.2021
6397 Clouds 24 1014 88 10000 1.03 160 02:52 17.12.2021
6398 Clouds 27 1012 61 10000 3.58 94 22:52 16.12.2021
6399 Clouds 28 1014 69 10000 2.06 120 22:22 16.12.2021
6400 Clouds 28 1012 59 10000 3.58 109 21:44 16.12.2021
6401 Clouds 28 1013 55 10000 0.89 161 20:48 16.12.2021
6402 Clouds 28 1016 61 10000 1.03 130 20:22 16.12.2021
6403 Clouds 28 1017 65 10000 1.03 210 19:31 16.12.2021
6404 Clouds 28 1018 65 10000 2.57 200 18:33 16.12.2021
6405 Clear 26 1016 66 10000 0.71 112 17:47 16.12.2021
6406 Clear 25 1016 68 10000 1.34 305 16:37 16.12.2021
6407 Clear 25 1016 70 10000 1.34 296 16:18 16.12.2021
6408 Mist 19 1016 94 10000 0 0 13:47 16.12.2021
6409 Clouds 19 1014 74 10000 0.96 228 12:30 16.12.2021
6410 Clouds 20 1013 74 10000 0.53 208 11:19 16.12.2021
6411 Clouds 20 1013 73 10000 0.53 208 10:41 16.12.2021
6412 Clouds 21 1014 73 10000 0.66 199 09:43 16.12.2021
6413 Clouds 21 1015 74 10000 0.45 250 06:51 16.12.2021
6414 Clear 21 1016 74 10000 0.78 202 06:18 16.12.2021
6415 Clouds 27 1014 54 10000 3.6 63 23:58 15.12.2021
6416 Clouds 26 1014 58 10000 0.89 95 22:50 15.12.2021
6417 Clouds 26 1016 73 10000 0 0 22:21 15.12.2021
6418 Clouds 26 1015 57 10000 1.34 94 21:31 15.12.2021
6419 Clouds 27 1018 65 9656 1.03 140 20:51 15.12.2021
6420 Clear 27 1016 57 10000 2.24 113 19:53 15.12.2021
6421 Clouds 27 1020 69 9656 1.03 210 19:18 15.12.2021
6422 Clouds 28 1020 65 9656 0 0 18:19 15.12.2021
6423 Clouds 27 1018 59 10000 0.45 76 17:45 15.12.2021
6424 Clouds 26 1021 73 9656 0 0 17:21 15.12.2021
6425 Clouds 23 1019 67 10000 1.34 284 15:48 15.12.2021
6426 Mist 20 1020 94 8047 0 0 15:29 15.12.2021
6427 Clouds 20 1018 75 10000 0.89 277 14:44 15.12.2021
6428 Clear 19 1020 100 9656 1.03 300 13:28 15.12.2021
6429 Clouds 21 1017 75 10000 1.57 305 11:40 15.12.2021
6430 Clouds 21 1018 75 10000 1.82 294 10:18 15.12.2021
6431 Clouds 22 1019 75 10000 1.61 307 07:55 15.12.2021
6432 Clouds 24 1021 94 10000 0 0 04:22 15.12.2021
6433 Clouds 26 1017 66 10000 2.24 55 23:53 14.12.2021
6434 Clear 27 1017 65 10000 1.79 107 22:55 14.12.2021
6435 Clouds 26 1019 78 10000 2.57 100 22:37 14.12.2021
6436 Clouds 26 1020 73 10000 3.6 60 21:38 14.12.2021
6437 Clouds 28 1021 69 10000 4.12 60 20:20 14.12.2021
6438 Haze 27 1022 74 9656 5.14 40 19:21 14.12.2021
6439 Haze 28 1023 69 9656 1.54 360 18:38 14.12.2021
6440 Clouds 28 1021 62 10000 3.58 11 17:53 14.12.2021
6441 Haze 24 1023 83 8047 2.57 330 16:43 14.12.2021
6442 Haze 24 1023 83 8047 2.57 330 16:18 14.12.2021
6443 Clear 20 1020 76 10000 0.89 276 13:58 14.12.2021
6444 Clear 20 1019 75 10000 0.89 262 12:47 14.12.2021
6445 Clear 20 1019 75 10000 1.93 315 11:25 14.12.2021
6446 Clear 20 1019 75 10000 2.22 311 10:28 14.12.2021
6447 Clear 21 1019 75 10000 2.22 311 09:53 14.12.2021
6448 Clear 21 1019 75 10000 0.45 262 08:48 14.12.2021
6449 Clear 21 1019 75 10000 1.34 259 08:21 14.12.2021
6450 Clouds 22 1022 94 10000 0 0 06:40 14.12.2021
6451 Clouds 25 1020 78 9656 4.63 80 23:42 13.12.2021
6452 Clouds 25 1020 73 9656 4.63 100 22:18 13.12.2021
6453 Clouds 26 1020 69 9656 5.14 70 21:34 13.12.2021
6454 Clouds 26 1018 59 10000 4.02 41 20:51 13.12.2021
6455 Clouds 26 1021 69 9656 5.66 60 20:20 13.12.2021
6456 Clouds 27 1019 56 10000 4.92 355 19:49 13.12.2021
6457 Clouds 25 1022 69 9656 2.06 350 17:27 13.12.2021
6458 Clouds 24 1022 78 9656 0 0 16:24 13.12.2021
6459 Clouds 19 1021 94 9656 0 0 15:43 13.12.2021
6460 Clear 20 1019 73 10000 1.79 275 13:57 13.12.2021
6461 Clouds 20 1020 88 10000 0 0 13:36 13.12.2021
6462 Clear 20 1018 73 10000 0.45 279 12:39 13.12.2021
6463 Clear 20 1018 74 10000 3.19 279 11:44 13.12.2021
6464 Clear 19 1018 74 10000 0.45 270 11:24 13.12.2021
6465 Clear 19 1017 74 10000 3.86 285 10:21 13.12.2021
6466 Clear 20 1018 70 10000 3.94 298 08:43 13.12.2021
6467 Clouds 22 1021 73 10000 5.14 90 05:38 13.12.2021
6468 Clouds 22 1019 62 10000 3.13 350 04:52 13.12.2021
6469 Clear 24 1016 62 10000 7.15 20 23:55 12.12.2021
6470 Clear 27 1016 54 10000 7.15 5 21:57 12.12.2021
6471 Clouds 26 1019 65 10000 8.75 30 20:48 12.12.2021
6472 Clouds 25 1020 69 10000 7.72 50 19:34 12.12.2021
6473 Clouds 27 1019 55 10000 6.26 340 17:54 12.12.2021
6474 Haze 25 1020 73 10000 4.12 70 16:29 12.12.2021
6475 Clouds 25 1018 62 10000 5.36 349 15:54 12.12.2021
6476 Mist 24 1019 73 10000 4.63 50 15:28 12.12.2021
6477 Mist 22 1019 83 10000 4.12 40 14:42 12.12.2021
6478 Mist 22 1018 83 10000 4.12 30 13:47 12.12.2021
6479 Clouds 23 1016 65 10000 4.47 360 12:47 12.12.2021
6480 Clouds 24 1015 66 10000 4.92 13 11:45 12.12.2021
6481 Clouds 24 1015 66 10000 4.92 13 11:45 12.12.2021
6482 Clouds 25 1015 65 10000 4.92 17 11:25 12.12.2021
6483 Clouds 25 1015 65 10000 4.92 17 11:25 12.12.2021
6484 Clouds 25 1015 65 10000 5.81 360 10:43 12.12.2021
6485 Clouds 25 1015 70 10000 7.15 355 09:45 12.12.2021
6486 Clouds 26 1016 71 10000 6.71 348 08:42 12.12.2021
6487 Clouds 26 1017 83 9656 5.14 360 06:38 12.12.2021
6488 Clouds 26 1016 78 9656 5.14 360 05:28 12.12.2021
6489 Clouds 26 1015 83 9656 8.23 40 03:58 12.12.2021
6490 Clouds 25 1012 84 10000 4.55 17 00:42 12.12.2021
6491 Clouds 30 1008 60 10000 2.24 88 22:42 11.12.2021
6492 Clear 29 1010 74 8047 4.63 70 22:20 11.12.2021
6493 Clouds 31 1010 62 8047 1.03 130 21:24 11.12.2021
6494 Clouds 30 1009 61 10000 1.34 148 19:46 11.12.2021
6495 Clouds 29 1012 74 6437 0 0 19:20 11.12.2021
6496 Mist 28 1012 74 4828 2.06 220 18:39 11.12.2021
6497 Mist 27 1013 83 4828 2.06 210 17:41 11.12.2021
6498 Mist 23 1012 100 1609 0 0 15:57 11.12.2021
6499 Mist 23 1012 100 1609 0 0 15:37 11.12.2021
6500 Clouds 23 1009 77 10000 3.3 204 14:21 11.12.2021
6501 Clouds 22 1008 77 10000 3.73 188 11:58 11.12.2021
6502 Clouds 23 1008 76 10000 3.28 191 10:24 11.12.2021
6503 Clouds 23 1009 76 10000 0.45 215 09:37 11.12.2021
6504 Haze 25 1011 88 9656 0 0 03:26 11.12.2021
6505 Clouds 26 1008 70 10000 2.24 99 00:45 11.12.2021
6506 Clear 28 1009 74 10000 3.09 100 23:40 10.12.2021
6507 Clouds 29 1010 70 10000 2.57 120 22:33 10.12.2021
6508 Clear 29 1010 70 10000 1.54 150 21:37 10.12.2021
6509 Clouds 30 1010 60 10000 4.02 128 19:55 10.12.2021
6510 Haze 29 1013 70 8047 0 0 19:18 10.12.2021
6511 Haze 28 1014 78 8047 0 0 17:23 10.12.2021
6512 Haze 25 1015 94 8047 0 0 16:32 10.12.2021
6513 Mist 22 1014 100 4828 0 0 15:42 10.12.2021
6514 Mist 22 1014 100 4828 0 0 15:23 10.12.2021
6515 Mist 22 1013 94 2414 0 0 13:53 10.12.2021
6516 Fog 22 1013 94 201 0 0 13:31 10.12.2021
6517 Clouds 22 1011 77 10000 2.2 220 12:47 10.12.2021
6518 Clouds 23 1010 77 10000 2.43 223 11:34 10.12.2021
6519 Clouds 23 1010 77 10000 2.36 228 10:50 10.12.2021
6520 Clouds 22 1011 76 10000 2.3 217 09:30 10.12.2021
6521 Clear 23 1012 75 10000 1.4 173 07:24 10.12.2021
6522 Clear 26 1012 73 10000 0.89 91 02:53 10.12.2021
6523 Clouds 26 1013 83 9656 2.06 110 01:32 10.12.2021
6524 Clear 29 1012 70 9656 3.09 130 23:38 09.12.2021
6525 Clear 30 1013 66 9656 1.54 130 22:41 09.12.2021
6526 Clear 30 1013 66 9656 1.54 130 22:20 09.12.2021
6527 Clouds 31 1013 62 9656 4.12 130 21:20 09.12.2021
6528 Clouds 31 1014 62 9656 2.57 120 20:34 09.12.2021
6529 Clouds 30 1015 66 8047 1.54 70 19:22 09.12.2021
6530 Clouds 30 1013 59 10000 1.79 59 18:53 09.12.2021
6531 Clouds 28 1014 64 10000 0.89 209 17:57 09.12.2021
6532 Clear 28 1016 78 6437 0 0 17:28 09.12.2021
6533 Clouds 27 1015 68 10000 1.79 222 16:57 09.12.2021
6534 Mist 26 1016 89 4828 0 0 16:20 09.12.2021
6535 Clouds 23 1014 76 10000 0.45 259 14:52 09.12.2021
6536 Clouds 22 1013 76 10000 1.79 250 13:50 09.12.2021
6537 Mist 22 1014 100 9656 0 0 12:47 09.12.2021
6538 Mist 23 1014 100 6437 0 0 11:25 09.12.2021
6539 Mist 24 1014 94 6437 0 0 10:19 09.12.2021
6540 Clear 24 1013 76 10000 0.58 304 06:51 09.12.2021
6541 Mist 25 1014 88 10000 0 0 03:49 09.12.2021
6542 Clear 28 1011 66 10000 2.24 93 23:50 08.12.2021
6543 Clear 28 1012 74 10000 1.03 90 23:31 08.12.2021
6544 Clouds 29 1013 70 10000 1.54 130 22:53 08.12.2021
6545 Clear 29 1011 61 10000 2.68 106 21:49 08.12.2021
6546 Clouds 30 1013 66 10000 2.57 120 21:30 08.12.2021
6547 Clouds 30 1014 66 10000 3.09 120 20:19 08.12.2021
6548 Clouds 29 1015 70 9656 2.06 120 19:39 08.12.2021
6549 Clear 28 1013 64 10000 0.45 93 18:53 08.12.2021
6550 Clear 28 1013 64 10000 0.45 93 18:53 08.12.2021
6551 Mist 28 1016 74 6437 0 0 18:21 08.12.2021
6552 Clear 25 1015 75 10000 1.34 250 15:59 08.12.2021
6553 Mist 22 1016 94 3219 0 0 15:31 08.12.2021
6554 Clear 22 1014 77 10000 2.47 240 14:52 08.12.2021
6555 Clouds 22 1012 77 10000 0.45 204 12:39 08.12.2021
6556 Clouds 21 1012 77 10000 0.45 204 10:36 08.12.2021
6557 Clouds 22 1012 77 10000 0.45 204 09:31 08.12.2021
6558 Clouds 23 1013 76 10000 0.45 263 07:34 08.12.2021
6559 Clouds 24 1013 75 10000 0.89 254 04:58 08.12.2021
6560 Clouds 27 1012 66 10000 3.58 83 23:48 07.12.2021
6561 Clouds 29 1014 70 10000 4.12 60 22:27 07.12.2021
6562 Clouds 28 1015 74 9656 3.09 210 21:24 07.12.2021
6563 Clouds 29 1015 70 9656 4.12 180 20:24 07.12.2021
6564 Clouds 29 1015 59 10000 2.24 32 18:55 07.12.2021
6565 Clouds 28 1015 61 10000 0.89 13 17:53 07.12.2021
6566 Clouds 28 1018 74 8047 1.54 50 17:20 07.12.2021
6567 Clouds 25 1018 83 6437 0 0 16:34 07.12.2021
6568 Mist 22 1017 94 4828 0 0 15:34 07.12.2021
6569 Mist 22 1016 94 4828 0 0 14:30 07.12.2021
6570 Clouds 22 1016 94 9656 1.03 350 13:18 07.12.2021
6571 Clear 22 1014 77 10000 0.45 291 12:21 07.12.2021
6572 Clear 22 1013 76 10000 2.23 320 10:43 07.12.2021
6573 Clear 22 1014 76 10000 2.64 324 08:42 07.12.2021
6574 Clouds 23 1016 94 8047 0 0 06:21 07.12.2021
6575 Clear 23 1016 100 8047 1.54 330 05:39 07.12.2021
6576 Clear 27 1011 64 10000 3.13 80 23:58 06.12.2021
6577 Clear 28 1010 61 10000 3.13 95 22:58 06.12.2021
6578 Smoke 28 1012 69 10000 2.57 120 22:38 06.12.2021
6579 Clear 29 1010 58 10000 3.13 79 21:52 06.12.2021
6580 Haze 30 1014 62 9656 2.06 180 20:40 06.12.2021
6581 Haze 30 1014 62 9656 2.06 180 20:22 06.12.2021
6582 Haze 29 1015 65 9656 1.54 220 19:22 06.12.2021
6583 Haze 28 1016 69 9656 3.09 240 18:29 06.12.2021
6584 Haze 26 1016 78 9656 3.09 190 17:41 06.12.2021
6585 Clear 26 1014 66 10000 2.68 197 16:49 06.12.2021
6586 Mist 21 1016 100 4828 0 0 15:41 06.12.2021
6587 Haze 19 1015 100 6437 0 0 13:46 06.12.2021
6588 Clouds 20 1013 76 10000 3.13 193 12:39 06.12.2021
6589 Clear 20 1012 75 10000 2.89 197 11:38 06.12.2021
6590 Clear 22 1013 76 10000 2.15 203 08:51 06.12.2021
6591 Clear 23 1014 74 10000 1.8 179 06:43 06.12.2021
6592 Clear 27 1011 58 10000 3.58 90 23:44 05.12.2021
6593 Clear 28 1011 53 10000 4.02 111 21:52 05.12.2021
6594 Clouds 29 1014 65 10000 2.06 130 21:19 05.12.2021
6595 Clouds 28 1015 65 9656 0 0 20:19 05.12.2021
6596 Clouds 28 1016 65 9656 1.03 160 19:33 05.12.2021
6597 Clear 28 1014 53 10000 1.79 134 18:55 05.12.2021
6598 Clouds 28 1017 69 9656 2.06 220 18:20 05.12.2021
6599 Clear 27 1015 58 10000 0.89 166 17:48 05.12.2021
6600 Clear 26 1016 59 10000 1.79 172 16:48 05.12.2021
6601 Clouds 24 1018 88 9656 0 0 16:26 05.12.2021
6602 Clear 25 1016 66 10000 1.34 237 15:48 05.12.2021
6603 Mist 20 1017 94 8047 0 0 14:41 05.12.2021
6604 Mist 20 1017 94 8047 0 0 14:23 05.12.2021
6605 Clear 20 1017 100 9656 0 0 13:22 05.12.2021
6606 Clear 21 1014 75 10000 1.52 237 12:40 05.12.2021
6607 Clear 21 1014 75 10000 1.53 240 12:18 05.12.2021
6608 Clear 21 1014 75 10000 1.53 240 11:30 05.12.2021
6609 Clear 21 1015 74 10000 2.23 255 09:59 05.12.2021
6610 Clouds 22 1016 71 10000 2.25 262 08:24 05.12.2021
6611 Clouds 23 1018 94 10000 0 0 03:27 05.12.2021
6612 Clear 27 1016 69 10000 4.12 110 23:45 04.12.2021
6613 Clear 28 1014 49 10000 4.02 80 21:55 04.12.2021
6614 Clear 29 1014 47 10000 3.13 90 20:57 04.12.2021
6615 Clear 29 1017 58 10000 2.06 110 20:20 04.12.2021
6616 Clear 29 1018 54 10000 0 0 19:32 04.12.2021
6617 Clear 28 1019 57 10000 0 0 18:21 04.12.2021
6618 Clouds 28 1017 46 10000 0.45 142 17:40 04.12.2021
6619 Clouds 26 1017 54 10000 1.31 206 16:52 04.12.2021
6620 Clear 25 1019 78 8047 0 0 16:31 04.12.2021
6621 Clouds 25 1017 56 10000 1.79 291 15:57 04.12.2021
6622 Clouds 20 1014 74 10000 0.45 273 11:54 04.12.2021
6623 Clouds 20 1014 73 10000 0.45 273 11:32 04.12.2021
6624 Clouds 20 1014 72 10000 1.57 248 10:56 04.12.2021
6625 Clouds 22 1015 71 10000 1.43 262 08:49 04.12.2021
6626 Mist 21 1018 100 10000 0 0 06:42 04.12.2021
6627 Clouds 22 1019 94 10000 0 0 04:42 04.12.2021
6628 Clouds 26 1016 73 10000 2.06 100 00:35 04.12.2021
6629 Clouds 27 1016 65 10000 3.09 100 23:27 03.12.2021
6630 Clear 28 1014 49 10000 3.13 48 22:47 03.12.2021
6631 Clouds 28 1017 61 10000 2.06 90 21:26 03.12.2021
6632 Clear 28 1015 46 10000 1.79 75 20:54 03.12.2021
6633 Clear 28 1016 48 10000 2.24 90 19:53 03.12.2021
6634 Clouds 28 1020 61 10000 0 0 18:34 03.12.2021
6635 Clouds 27 1018 48 10000 1.79 225 17:59 03.12.2021
6636 Clouds 25 1020 78 10000 0 0 16:33 03.12.2021
6637 Clouds 22 1017 69 10000 0.89 281 12:59 03.12.2021
6638 Clouds 22 1016 68 10000 0.45 281 12:19 03.12.2021
6639 Clouds 22 1016 67 10000 0.89 290 10:55 03.12.2021
6640 Clouds 23 1017 69 10000 1.79 298 08:27 03.12.2021
6641 Clouds 23 1018 68 10000 0.89 277</